Wetterdaten: Samstag, 25.02.2017
Datum Zeit Temp. A. Temp. A. max Feuchte A. Luftdruck Regen Wind Richtung Richtung Sonnenschein ET UV Solar Taupunkt Windchill Windböen
25.02.2017 00:00 -0,9 °C -0,8 °C 93 % 1020,1 hPa 0,0 mm 0,0 km/h (0 Bft) SW 221 ° 0 min 0,000 mm 0,0 UV-I 0 W/m² -1,9 °C -0,9 °C 0,0 km/h (0 Bft)
25.02.2017 00:01 -0,9 °C -0,8 °C 93 % 1020,1 hPa 0,0 mm 0,0 km/h (0 Bft) SW 221 ° 0 min 0,000 mm 0,0 UV-I 0 W/m² -1,9 °C -0,9 °C 0,0 km/h (0 Bft)
25.02.2017 00:02 -0,9 °C -0,9 °C 93 % 1020,1 hPa 0,0 mm 0,0 km/h (0 Bft) SW 221 ° 0 min 0,000 mm 0,0 UV-I 0 W/m² -1,9 °C -0,9 °C 0,0 km/h (0 Bft)
25.02.2017 00:03 -0,9 °C -0,9 °C 93 % 1020,1 hPa 0,0 mm 0,0 km/h (0 Bft) SW 221 ° 0 min 0,000 mm 0,0 UV-I 0 W/m² -1,9 °C -0,9 °C 0,0 km/h (0 Bft)
25.02.2017 00:04 -0,9 °C -0,9 °C 93 % 1020,1 hPa 0,0 mm 0,0 km/h (0 Bft) SW 221 ° 0 min 0,000 mm 0,0 UV-I 0 W/m² -1,9 °C -0,9 °C 0,0 km/h (0 Bft)
25.02.2017 00:05 -0,9 °C -0,9 °C 93 % 1020,1 hPa 0,0 mm 0,0 km/h (0 Bft) SW 221 ° 0 min 0,000 mm 0,0 UV-I 0 W/m² -1,9 °C -0,9 °C 0,0 km/h (0 Bft)
25.02.2017 00:06 -0,8 °C -0,8 °C 94 % 1020,1 hPa 0,0 mm 0,0 km/h (0 Bft) SW 221 ° 0 min 0,000 mm 0,0 UV-I 0 W/m² -1,6 °C -0,8 °C 0,0 km/h (0 Bft)
25.02.2017 00:07 -0,8 °C -0,8 °C 94 % 1020,2 hPa 0,0 mm 0,0 km/h (0 Bft) SW 221 ° 0 min 0,000 mm 0,0 UV-I 0 W/m² -1,6 °C -0,8 °C 0,0 km/h (0 Bft)
25.02.2017 00:08 -0,8 °C -0,8 °C 94 % 1020,1 hPa 0,0 mm 0,0 km/h (0 Bft) SW 221 ° 0 min 0,000 mm 0,0 UV-I 0 W/m² -1,6 °C -0,8 °C 0,0 km/h (0 Bft)
25.02.2017 00:09 -0,8 °C -0,8 °C 94 % 1020,3 hPa 0,0 mm 0,0 km/h (0 Bft) SW 221 ° 0 min 0,000 mm 0,0 UV-I 0 W/m² -1,6 °C -0,8 °C 0,0 km/h (0 Bft)
25.02.2017 00:10 -0,7 °C -0,7 °C 93 % 1020,3 hPa 0,0 mm 0,0 km/h (0 Bft) SW 221 ° 0 min 0,000 mm 0,0 UV-I 0 W/m² -1,7 °C -0,7 °C 0,0 km/h (0 Bft)
25.02.2017 00:11 -0,7 °C -0,7 °C 94 % 1020,2 hPa 0,0 mm 0,0 km/h (0 Bft) SW 221 ° 0 min 0,000 mm 0,0 UV-I 0 W/m² -1,5 °C -0,7 °C 0,0 km/h (0 Bft)
25.02.2017 00:12 -0,8 °C -0,7 °C 93 % 1020,3 hPa 0,0 mm 0,0 km/h (0 Bft) SW 221 ° 0 min 0,000 mm 0,0 UV-I 0 W/m² -1,8 °C -0,8 °C 0,0 km/h (0 Bft)
25.02.2017 00:13 -0,8 °C -0,8 °C 93 % 1020,3 hPa 0,0 mm 0,0 km/h (0 Bft) SW 221 ° 0 min 0,000 mm 0,0 UV-I 0 W/m² -1,8 °C -0,8 °C 0,0 km/h (0 Bft)
25.02.2017 00:14 -0,8 °C -0,8 °C 93 % 1020,3 hPa 0,0 mm 0,0 km/h (0 Bft) SW 221 ° 0 min 0,000 mm 0,0 UV-I 0 W/m² -1,8 °C -0,8 °C 0,0 km/h (0 Bft)
25.02.2017 00:15 -0,9 °C -0,8 °C 93 % 1020,3 hPa 0,0 mm 0,0 km/h (0 Bft) SW 221 ° 0 min 0,000 mm 0,0 UV-I 0 W/m² -1,9 °C -0,9 °C 0,0 km/h (0 Bft)
25.02.2017 00:16 -0,9 °C -0,9 °C 93 % 1020,3 hPa 0,0 mm 0,0 km/h (0 Bft) SW 221 ° 0 min 0,000 mm 0,0 UV-I 0 W/m² -1,9 °C -0,9 °C 0,0 km/h (0 Bft)
25.02.2017 00:17 -0,9 °C -0,9 °C 93 % 1020,3 hPa 0,0 mm 0,0 km/h (0 Bft) SW 221 ° 0 min 0,000 mm 0,0 UV-I 0 W/m² -1,9 °C -0,9 °C 0,0 km/h (0 Bft)
25.02.2017 00:18 -1,1 °C -0,9 °C 93 % 1020,4 hPa 0,0 mm 0,0 km/h (0 Bft) SW 221 ° 0 min 0,000 mm 0,0 UV-I 0 W/m² -2,1 °C -1,1 °C 0,0 km/h (0 Bft)
25.02.2017 00:19 -1,1 °C -1,0 °C 93 % 1020,3 hPa 0,0 mm 0,0 km/h (0 Bft) SW 221 ° 0 min 0,000 mm 0,0 UV-I 0 W/m² -2,1 °C -1,1 °C 0,0 km/h (0 Bft)
25.02.2017 00:20 -1,0 °C -1,0 °C 93 % 1020,3 hPa 0,0 mm 0,0 km/h (0 Bft) SW 221 ° 0 min 0,000 mm 0,0 UV-I 0 W/m² -2,0 °C -1,0 °C 0,0 km/h (0 Bft)
25.02.2017 00:21 -1,0 °C -1,0 °C 93 % 1020,4 hPa 0,0 mm 0,0 km/h (0 Bft) SW 221 ° 0 min 0,000 mm 0,0 UV-I 0 W/m² -2,0 °C -1,0 °C 0,0 km/h (0 Bft)
25.02.2017 00:22 -0,9 °C -0,9 °C 93 % 1020,4 hPa 0,0 mm 0,0 km/h (0 Bft) SW 221 ° 0 min 0,000 mm 0,0 UV-I 0 W/m² -1,9 °C -0,9 °C 0,0 km/h (0 Bft)
25.02.2017 00:23 -0,9 °C -0,9 °C 94 % 1020,4 hPa 0,0 mm 0,0 km/h (0 Bft) SW 221 ° 0 min 0,000 mm 0,0 UV-I 0 W/m² -1,7 °C -0,9 °C 0,0 km/h (0 Bft)
25.02.2017 00:24 -0,9 °C -0,9 °C 93 % 1020,4 hPa 0,0 mm 0,0 km/h (0 Bft) SW 221 ° 0 min 0,000 mm 0,0 UV-I 0 W/m² -1,9 °C -0,9 °C 0,0 km/h (0 Bft)
25.02.2017 00:25 -0,8 °C -0,8 °C 93 % 1020,4 hPa 0,0 mm 0,0 km/h (0 Bft) SW 221 ° 0 min 0,000 mm 0,0 UV-I 0 W/m² -1,8 °C -0,8 °C 0,0 km/h (0 Bft)
25.02.2017 00:26 -0,8 °C -0,8 °C 93 % 1020,4 hPa 0,0 mm 0,0 km/h (0 Bft) SW 221 ° 0 min 0,000 mm 0,0 UV-I 0 W/m² -1,8 °C -0,8 °C 0,0 km/h (0 Bft)
25.02.2017 00:27 -0,8 °C -0,8 °C 93 % 1020,5 hPa 0,0 mm 0,0 km/h (0 Bft) SW 221 ° 0 min 0,000 mm 0,0 UV-I 0 W/m² -1,8 °C -0,8 °C 0,0 km/h (0 Bft)
25.02.2017 00:28 -0,8 °C -0,8 °C 93 % 1020,5 hPa 0,0 mm 0,0 km/h (0 Bft) SW 221 ° 0 min 0,000 mm 0,0 UV-I 0 W/m² -1,8 °C -0,8 °C 0,0 km/h (0 Bft)
25.02.2017 00:29 -0,8 °C -0,8 °C 93 % 1020,5 hPa 0,0 mm 0,0 km/h (0 Bft) SW 221 ° 0 min 0,000 mm 0,0 UV-I 0 W/m² -1,8 °C -0,8 °C 0,0 km/h (0 Bft)
25.02.2017 00:30 -0,8 °C -0,7 °C 93 % 1020,5 hPa 0,0 mm 0,0 km/h (0 Bft) SW 221 ° 0 min 0,000 mm 0,0 UV-I 0 W/m² -1,8 °C -0,8 °C 0,0 km/h (0 Bft)
25.02.2017 00:31 -0,9 °C -0,8 °C 92 % 1020,5 hPa 0,0 mm 0,0 km/h (0 Bft) SW 221 ° 0 min 0,000 mm 0,0 UV-I 0 W/m² -2,0 °C -0,9 °C 0,0 km/h (0 Bft)
25.02.2017 00:32 -1,1 °C -0,9 °C 92 % 1020,5 hPa 0,0 mm 0,0 km/h (0 Bft) SW 221 ° 0 min 0,000 mm 0,0 UV-I 0 W/m² -2,2 °C -1,1 °C 0,0 km/h (0 Bft)
25.02.2017 00:33 -1,1 °C -1,1 °C 92 % 1020,6 hPa 0,0 mm 0,0 km/h (0 Bft) SW 221 ° 0 min 0,000 mm 0,0 UV-I 0 W/m² -2,2 °C -1,1 °C 0,0 km/h (0 Bft)
25.02.2017 00:34 -1,2 °C -1,1 °C 93 % 1020,5 hPa 0,0 mm 0,0 km/h (0 Bft) SW 221 ° 0 min 0,000 mm 0,0 UV-I 0 W/m² -2,2 °C -1,2 °C 0,0 km/h (0 Bft)
25.02.2017 00:35 -1,2 °C -1,2 °C 93 % 1020,6 hPa 0,0 mm 0,0 km/h (0 Bft) SW 221 ° 0 min 0,000 mm 0,0 UV-I 0 W/m² -2,2 °C -1,2 °C 0,0 km/h (0 Bft)
25.02.2017 00:36 -1,2 °C -1,2 °C 93 % 1020,6 hPa 0,0 mm 0,0 km/h (0 Bft) SW 221 ° 0 min 0,000 mm 0,0 UV-I 0 W/m² -2,2 °C -1,2 °C 0,0 km/h (0 Bft)
25.02.2017 00:37 -1,1 °C -1,1 °C 93 % 1020,6 hPa 0,0 mm 0,0 km/h (0 Bft) SW 221 ° 0 min 0,000 mm 0,0 UV-I 0 W/m² -2,1 °C -1,1 °C 0,0 km/h (0 Bft)
25.02.2017 00:38 -1,1 °C -1,1 °C 93 % 1020,6 hPa 0,0 mm 0,0 km/h (0 Bft) SW 221 ° 0 min 0,000 mm 0,0 UV-I 0 W/m² -2,1 °C -1,1 °C 0,0 km/h (0 Bft)
25.02.2017 00:39 -0,9 °C -0,9 °C 94 % 1020,6 hPa 0,0 mm 0,0 km/h (0 Bft) SW 221 ° 0 min 0,000 mm 0,0 UV-I 0 W/m² -1,7 °C -0,9 °C 0,0 km/h (0 Bft)
25.02.2017 00:40 -0,8 °C -0,8 °C 94 % 1020,6 hPa 0,0 mm 0,0 km/h (0 Bft) SW 221 ° 0 min 0,000 mm 0,0 UV-I 0 W/m² -1,6 °C -0,8 °C 0,0 km/h (0 Bft)
25.02.2017 00:41 -0,8 °C -0,8 °C 93 % 1020,6 hPa 0,0 mm 0,0 km/h (0 Bft) SW 221 ° 0 min 0,000 mm 0,0 UV-I 0 W/m² -1,8 °C -0,8 °C 0,0 km/h (0 Bft)
25.02.2017 00:42 -0,7 °C -0,7 °C 93 % 1020,7 hPa 0,0 mm 0,0 km/h (0 Bft) SW 221 ° 0 min 0,000 mm 0,0 UV-I 0 W/m² -1,7 °C -0,7 °C 0,0 km/h (0 Bft)
25.02.2017 00:43 -0,7 °C -0,7 °C 93 % 1020,7 hPa 0,0 mm 0,0 km/h (0 Bft) SW 221 ° 0 min 0,000 mm 0,0 UV-I 0 W/m² -1,7 °C -0,7 °C 0,0 km/h (0 Bft)
25.02.2017 00:44 -0,6 °C -0,6 °C 93 % 1020,7 hPa 0,0 mm 0,0 km/h (0 Bft) SW 221 ° 0 min 0,000 mm 0,0 UV-I 0 W/m² -1,6 °C -0,6 °C 0,0 km/h (0 Bft)
25.02.2017 00:45 -0,6 °C -0,6 °C 93 % 1020,7 hPa 0,0 mm 0,0 km/h (0 Bft) SW 221 ° 0 min 0,000 mm 0,0 UV-I 0 W/m² -1,6 °C -0,6 °C 0,0 km/h (0 Bft)
25.02.2017 00:46 -0,7 °C -0,6 °C 93 % 1020,7 hPa 0,0 mm 0,0 km/h (0 Bft) SW 221 ° 0 min 0,000 mm 0,0 UV-I 0 W/m² -1,7 °C -0,7 °C 0,0 km/h (0 Bft)
25.02.2017 00:47 -0,8 °C -0,7 °C 92 % 1020,8 hPa 0,0 mm 0,0 km/h (0 Bft) SW 221 ° 0 min 0,000 mm 0,0 UV-I 0 W/m² -1,9 °C -0,8 °C 0,0 km/h (0 Bft)
25.02.2017 00:48 -0,9 °C -0,8 °C 92 % 1020,8 hPa 0,0 mm 0,0 km/h (0 Bft) SW 221 ° 0 min 0,000 mm 0,0 UV-I 0 W/m² -2,0 °C -0,9 °C 0,0 km/h (0 Bft)
25.02.2017 00:49 -1,1 °C -0,9 °C 92 % 1020,8 hPa 0,0 mm 0,0 km/h (0 Bft) SW 221 ° 0 min 0,000 mm 0,0 UV-I 0 W/m² -2,2 °C -1,1 °C 0,0 km/h (0 Bft)
25.02.2017 00:50 -1,2 °C -1,1 °C 93 % 1020,8 hPa 0,0 mm 0,0 km/h (0 Bft) SW 221 ° 0 min 0,000 mm 0,0 UV-I 0 W/m² -2,2 °C -1,2 °C 0,0 km/h (0 Bft)
25.02.2017 00:51 -1,2 °C -1,2 °C 93 % 1020,8 hPa 0,0 mm 0,0 km/h (0 Bft) SW 221 ° 0 min 0,000 mm 0,0 UV-I 0 W/m² -2,2 °C -1,2 °C 0,0 km/h (0 Bft)
25.02.2017 00:52 -1,1 °C -1,1 °C 93 % 1020,8 hPa 0,0 mm 0,0 km/h (0 Bft) SW 221 ° 0 min 0,000 mm 0,0 UV-I 0 W/m² -2,1 °C -1,1 °C 0,0 km/h (0 Bft)
25.02.2017 00:53 -1,1 °C -1,1 °C 94 % 1020,9 hPa 0,0 mm 0,0 km/h (0 Bft) SW 221 ° 0 min 0,000 mm 0,0 UV-I 0 W/m² -1,9 °C -1,1 °C 0,0 km/h (0 Bft)
25.02.2017 00:54 -0,9 °C -0,9 °C 94 % 1020,9 hPa 0,0 mm 0,0 km/h (0 Bft) SW 221 ° 0 min 0,000 mm 0,0 UV-I 0 W/m² -1,7 °C -0,9 °C 0,0 km/h (0 Bft)
25.02.2017 00:55 -0,8 °C -0,8 °C 94 % 1020,9 hPa 0,0 mm 0,0 km/h (0 Bft) SW 221 ° 0 min 0,000 mm 0,0 UV-I 0 W/m² -1,6 °C -0,8 °C 0,0 km/h (0 Bft)
25.02.2017 00:56 -0,8 °C -0,8 °C 93 % 1020,9 hPa 0,0 mm 0,0 km/h (0 Bft) SW 221 ° 0 min 0,000 mm 0,0 UV-I 0 W/m² -1,8 °C -0,8 °C 0,0 km/h (0 Bft)
25.02.2017 00:57 -0,7 °C -0,7 °C 93 % 1020,9 hPa 0,0 mm 0,0 km/h (0 Bft) SW 221 ° 0 min 0,000 mm 0,0 UV-I 0 W/m² -1,7 °C -0,7 °C 0,0 km/h (0 Bft)
25.02.2017 00:58 -0,7 °C -0,7 °C 93 % 1020,9 hPa 0,0 mm 0,0 km/h (0 Bft) SW 221 ° 0 min 0,000 mm 0,0 UV-I 0 W/m² -1,7 °C -0,7 °C 0,0 km/h (0 Bft)
25.02.2017 00:59 -0,6 °C -0,6 °C 93 % 1021,0 hPa 0,0 mm 0,0 km/h (0 Bft) SW 221 ° 0 min 0,000 mm 0,0 UV-I 0 W/m² -1,6 °C -0,6 °C 0,0 km/h (0 Bft)
25.02.2017 01:00 -0,6 °C -0,6 °C 93 % 1020,9 hPa 0,0 mm 0,0 km/h (0 Bft) SW 221 ° 0 min 0,000 mm 0,0 UV-I 0 W/m² -1,6 °C -0,6 °C 0,0 km/h (0 Bft)
25.02.2017 01:01 -0,6 °C -0,6 °C 93 % 1020,9 hPa 0,0 mm 0,0 km/h (0 Bft) SW 221 ° 0 min 0,000 mm 0,0 UV-I 0 W/m² -1,6 °C -0,6 °C 0,0 km/h (0 Bft)
25.02.2017 01:02 -0,5 °C -0,5 °C 93 % 1021,0 hPa 0,0 mm 0,0 km/h (0 Bft) SW 221 ° 0 min 0,000 mm 0,0 UV-I 0 W/m² -1,5 °C -0,5 °C 0,0 km/h (0 Bft)
25.02.2017 01:03 -0,5 °C -0,5 °C 93 % 1020,9 hPa 0,0 mm 0,0 km/h (0 Bft) SW 221 ° 0 min 0,000 mm 0,0 UV-I 0 W/m² -1,5 °C -0,5 °C 0,0 km/h (0 Bft)
25.02.2017 01:04 -0,6 °C -0,5 °C 93 % 1020,9 hPa 0,0 mm 0,0 km/h (0 Bft) SW 221 ° 0 min 0,000 mm 0,0 UV-I 0 W/m² -1,6 °C -0,6 °C 0,0 km/h (0 Bft)
25.02.2017 01:05 -0,6 °C -0,6 °C 93 % 1020,9 hPa 0,0 mm 0,0 km/h (0 Bft) SW 221 ° 0 min 0,000 mm 0,0 UV-I 0 W/m² -1,6 °C -0,6 °C 0,0 km/h (0 Bft)
25.02.2017 01:06 -0,6 °C -0,6 °C 93 % 1021,0 hPa 0,0 mm 0,0 km/h (0 Bft) SW 221 ° 0 min 0,000 mm 0,0 UV-I 0 W/m² -1,6 °C -0,6 °C 0,0 km/h (0 Bft)
25.02.2017 01:07 -0,6 °C -0,6 °C 92 % 1020,9 hPa 0,0 mm 0,0 km/h (0 Bft) SW 221 ° 0 min 0,000 mm 0,0 UV-I 0 W/m² -1,7 °C -0,6 °C 0,0 km/h (0 Bft)
25.02.2017 01:08 -0,7 °C -0,6 °C 92 % 1021,0 hPa 0,0 mm 0,0 km/h (0 Bft) SW 221 ° 0 min 0,000 mm 0,0 UV-I 0 W/m² -1,8 °C -0,7 °C 0,0 km/h (0 Bft)
25.02.2017 01:09 -0,8 °C -0,7 °C 92 % 1021,0 hPa 0,0 mm 0,0 km/h (0 Bft) SW 221 ° 0 min 0,000 mm 0,0 UV-I 0 W/m² -1,9 °C -0,8 °C 0,0 km/h (0 Bft)
25.02.2017 01:10 -0,8 °C -0,8 °C 92 % 1021,0 hPa 0,0 mm 0,0 km/h (0 Bft) SW 221 ° 0 min 0,000 mm 0,0 UV-I 0 W/m² -1,9 °C -0,8 °C 0,0 km/h (0 Bft)
25.02.2017 01:11 -0,9 °C -0,8 °C 92 % 1021,0 hPa 0,0 mm 0,0 km/h (0 Bft) SW 221 ° 0 min 0,000 mm 0,0 UV-I 0 W/m² -2,0 °C -0,9 °C 0,0 km/h (0 Bft)
25.02.2017 01:12 -0,9 °C -0,9 °C 92 % 1021,0 hPa 0,0 mm 0,0 km/h (0 Bft) SW 221 ° 0 min 0,000 mm 0,0 UV-I 0 W/m² -2,0 °C -0,9 °C 0,0 km/h (0 Bft)
25.02.2017 01:13 -0,9 °C -0,9 °C 92 % 1021,0 hPa 0,0 mm 0,0 km/h (0 Bft) SW 221 ° 0 min 0,000 mm 0,0 UV-I 0 W/m² -2,0 °C -0,9 °C 0,0 km/h (0 Bft)
25.02.2017 01:14 -1,1 °C -0,9 °C 92 % 1021,0 hPa 0,0 mm 0,0 km/h (0 Bft) SW 221 ° 0 min 0,000 mm 0,0 UV-I 0 W/m² -2,2 °C -1,1 °C 0,0 km/h (0 Bft)
25.02.2017 01:15 -1,1 °C -1,1 °C 92 % 1021,0 hPa 0,0 mm 0,0 km/h (0 Bft) SW 221 ° 0 min 0,000 mm 0,0 UV-I 0 W/m² -2,2 °C -1,1 °C 0,0 km/h (0 Bft)
25.02.2017 01:16 -1,1 °C -1,1 °C 92 % 1021,0 hPa 0,0 mm 0,0 km/h (0 Bft) SW 221 ° 0 min 0,000 mm 0,0 UV-I 0 W/m² -2,2 °C -1,1 °C 0,0 km/h (0 Bft)
25.02.2017 01:17 -1,2 °C -1,1 °C 92 % 1021,0 hPa 0,0 mm 0,0 km/h (0 Bft) SW 221 ° 0 min 0,000 mm 0,0 UV-I 0 W/m² -2,3 °C -1,2 °C 0,0 km/h (0 Bft)
25.02.2017 01:18 -1,2 °C -1,2 °C 92 % 1021,0 hPa 0,0 mm 0,0 km/h (0 Bft) SW 221 ° 0 min 0,000 mm 0,0 UV-I 0 W/m² -2,3 °C -1,2 °C 0,0 km/h (0 Bft)
25.02.2017 01:19 -1,2 °C -1,2 °C 92 % 1021,0 hPa 0,0 mm 0,0 km/h (0 Bft) SW 221 ° 0 min 0,000 mm 0,0 UV-I 0 W/m² -2,3 °C -1,2 °C 0,0 km/h (0 Bft)
25.02.2017 01:20 -1,2 °C -1,2 °C 92 % 1021,1 hPa 0,0 mm 0,0 km/h (0 Bft) SW 221 ° 0 min 0,000 mm 0,0 UV-I 0 W/m² -2,3 °C -1,2 °C 0,0 km/h (0 Bft)
25.02.2017 01:21 -1,3 °C -1,2 °C 92 % 1021,1 hPa 0,0 mm 0,0 km/h (0 Bft) SW 221 ° 0 min 0,000 mm 0,0 UV-I 0 W/m² -2,4 °C -1,3 °C 0,0 km/h (0 Bft)
25.02.2017 01:22 -1,3 °C -1,3 °C 92 % 1021,0 hPa 0,0 mm 0,0 km/h (0 Bft) SW 221 ° 0 min 0,000 mm 0,0 UV-I 0 W/m² -2,4 °C -1,3 °C 0,0 km/h (0 Bft)
25.02.2017 01:23 -1,3 °C -1,3 °C 93 % 1021,1 hPa 0,0 mm 0,0 km/h (0 Bft) SW 221 ° 0 min 0,000 mm 0,0 UV-I 0 W/m² -2,3 °C -1,3 °C 0,0 km/h (0 Bft)
25.02.2017 01:24 -1,4 °C -1,3 °C 92 % 1021,1 hPa 0,0 mm 0,0 km/h (0 Bft) SW 221 ° 0 min 0,000 mm 0,0 UV-I 0 W/m² -2,5 °C -1,4 °C 0,0 km/h (0 Bft)
25.02.2017 01:25 -1,5 °C -1,4 °C 92 % 1021,1 hPa 0,0 mm 0,0 km/h (0 Bft) SW 221 ° 0 min 0,000 mm 0,0 UV-I 0 W/m² -2,6 °C -1,5 °C 0,0 km/h (0 Bft)
25.02.2017 01:26 -1,7 °C -1,5 °C 92 % 1021,1 hPa 0,0 mm 0,0 km/h (0 Bft) SW 221 ° 0 min 0,000 mm 0,0 UV-I 0 W/m² -2,8 °C -1,7 °C 0,0 km/h (0 Bft)
25.02.2017 01:27 -1,7 °C -1,7 °C 92 % 1021,1 hPa 0,0 mm 0,0 km/h (0 Bft) SW 221 ° 0 min 0,000 mm 0,0 UV-I 0 W/m² -2,8 °C -1,7 °C 0,0 km/h (0 Bft)
25.02.2017 01:28 -1,7 °C -1,7 °C 93 % 1021,1 hPa 0,0 mm 0,0 km/h (0 Bft) SW 221 ° 0 min 0,000 mm 0,0 UV-I 0 W/m² -2,7 °C -1,7 °C 0,0 km/h (0 Bft)
25.02.2017 01:29 -1,7 °C -1,7 °C 93 % 1021,1 hPa 0,0 mm 0,0 km/h (0 Bft) SW 221 ° 0 min 0,000 mm 0,0 UV-I 0 W/m² -2,7 °C -1,7 °C 0,0 km/h (0 Bft)
25.02.2017 01:30 -1,7 °C -1,7 °C 93 % 1021,1 hPa 0,0 mm 0,0 km/h (0 Bft) SW 221 ° 0 min 0,000 mm 0,0 UV-I 0 W/m² -2,7 °C -1,7 °C 0,0 km/h (0 Bft)
25.02.2017 01:31 -1,6 °C -1,6 °C 93 % 1021,1 hPa 0,0 mm 0,0 km/h (0 Bft) SW 221 ° 0 min 0,000 mm 0,0 UV-I 0 W/m² -2,6 °C -1,6 °C 0,0 km/h (0 Bft)
25.02.2017 01:32 -1,6 °C -1,6 °C 93 % 1021,1 hPa 0,0 mm 0,0 km/h (0 Bft) SW 221 ° 0 min 0,000 mm 0,0 UV-I 0 W/m² -2,6 °C -1,6 °C 0,0 km/h (0 Bft)
25.02.2017 01:33 -1,6 °C -1,6 °C 93 % 1021,1 hPa 0,0 mm 0,0 km/h (0 Bft) SW 221 ° 0 min 0,000 mm 0,0 UV-I 0 W/m² -2,6 °C -1,6 °C 0,0 km/h (0 Bft)
25.02.2017 01:34 -1,6 °C -1,6 °C 93 % 1021,1 hPa 0,0 mm 0,0 km/h (0 Bft) SW 221 ° 0 min 0,000 mm 0,0 UV-I 0 W/m² -2,6 °C -1,6 °C 0,0 km/h (0 Bft)
25.02.2017 01:35 -1,6 °C -1,6 °C 93 % 1021,1 hPa 0,0 mm 0,0 km/h (0 Bft) SW 221 ° 0 min 0,000 mm 0,0 UV-I 0 W/m² -2,6 °C -1,6 °C 0,0 km/h (0 Bft)
25.02.2017 01:36 -1,6 °C -1,6 °C 93 % 1021,1 hPa 0,0 mm 0,0 km/h (0 Bft) SW 221 ° 0 min 0,000 mm 0,0 UV-I 0 W/m² -2,6 °C -1,6 °C 0,0 km/h (0 Bft)
25.02.2017 01:37 -1,6 °C -1,6 °C 93 % 1021,1 hPa 0,0 mm 0,0 km/h (0 Bft) SW 221 ° 0 min 0,000 mm 0,0 UV-I 0 W/m² -2,6 °C -1,6 °C 0,0 km/h (0 Bft)
25.02.2017 01:38 -1,6 °C -1,6 °C 93 % 1021,1 hPa 0,0 mm 0,0 km/h (0 Bft) SW 221 ° 0 min 0,000 mm 0,0 UV-I 0 W/m² -2,6 °C -1,6 °C 0,0 km/h (0 Bft)
25.02.2017 01:39 -1,7 °C -1,6 °C 93 % 1021,1 hPa 0,0 mm 0,0 km/h (0 Bft) SW 221 ° 0 min 0,000 mm 0,0 UV-I 0 W/m² -2,7 °C -1,7 °C 0,0 km/h (0 Bft)
25.02.2017 01:40 -1,7 °C -1,7 °C 93 % 1021,2 hPa 0,0 mm 0,0 km/h (0 Bft) SW 221 ° 0 min 0,000 mm 0,0 UV-I 0 W/m² -2,7 °C -1,7 °C 0,0 km/h (0 Bft)
25.02.2017 01:41 -1,7 °C -1,7 °C 93 % 1021,2 hPa 0,0 mm 0,0 km/h (0 Bft) SW 221 ° 0 min 0,000 mm 0,0 UV-I 0 W/m² -2,7 °C -1,7 °C 0,0 km/h (0 Bft)
25.02.2017 01:42 -1,7 °C -1,7 °C 93 % 1021,2 hPa 0,0 mm 0,0 km/h (0 Bft) SW 221 ° 0 min 0,000 mm 0,0 UV-I 0 W/m² -2,7 °C -1,7 °C 0,0 km/h (0 Bft)
25.02.2017 01:43 -1,9 °C -1,7 °C 93 % 1021,2 hPa 0,0 mm 0,0 km/h (0 Bft) SW 221 ° 0 min 0,000 mm 0,0 UV-I 0 W/m² -2,9 °C -1,9 °C 0,0 km/h (0 Bft)
25.02.2017 01:44 -2,1 °C -1,9 °C 92 % 1021,3 hPa 0,0 mm 0,0 km/h (0 Bft) SW 221 ° 0 min 0,000 mm 0,0 UV-I 0 W/m² -3,2 °C -2,1 °C 0,0 km/h (0 Bft)
25.02.2017 01:45 -2,1 °C -2,1 °C 92 % 1021,3 hPa 0,0 mm 0,0 km/h (0 Bft) SW 221 ° 0 min 0,000 mm 0,0 UV-I 0 W/m² -3,2 °C -2,1 °C 0,0 km/h (0 Bft)
25.02.2017 01:46 -2,2 °C -2,1 °C 93 % 1021,3 hPa 0,0 mm 0,0 km/h (0 Bft) SW 221 ° 0 min 0,000 mm 0,0 UV-I 0 W/m² -3,2 °C -2,2 °C 0,0 km/h (0 Bft)
25.02.2017 01:47 -2,3 °C -2,2 °C 93 % 1021,2 hPa 0,0 mm 0,0 km/h (0 Bft) SW 221 ° 0 min 0,000 mm 0,0 UV-I 0 W/m² -3,3 °C -2,3 °C 0,0 km/h (0 Bft)
25.02.2017 01:48 -2,3 °C -2,3 °C 93 % 1021,3 hPa 0,0 mm 0,0 km/h (0 Bft) SW 221 ° 0 min 0,000 mm 0,0 UV-I 0 W/m² -3,3 °C -2,3 °C 0,0 km/h (0 Bft)
25.02.2017 01:49 -2,4 °C -2,3 °C 93 % 1021,3 hPa 0,0 mm 0,0 km/h (0 Bft) SW 221 ° 0 min 0,000 mm 0,0 UV-I 0 W/m² -3,4 °C -2,4 °C 0,0 km/h (0 Bft)
25.02.2017 01:50 -2,4 °C -2,4 °C 93 % 1021,2 hPa 0,0 mm 0,0 km/h (0 Bft) SW 221 ° 0 min 0,000 mm 0,0 UV-I 0 W/m² -3,4 °C -2,4 °C 0,0 km/h (0 Bft)
25.02.2017 01:51 -2,4 °C -2,4 °C 93 % 1021,2 hPa 0,0 mm 0,0 km/h (0 Bft) SW 221 ° 0 min 0,000 mm 0,0 UV-I 0 W/m² -3,4 °C -2,4 °C 0,0 km/h (0 Bft)
25.02.2017 01:52 -2,4 °C -2,4 °C 93 % 1021,2 hPa 0,0 mm 0,0 km/h (0 Bft) SW 221 ° 0 min 0,000 mm 0,0 UV-I 0 W/m² -3,4 °C -2,4 °C 0,0 km/h (0 Bft)
25.02.2017 01:53 -2,4 °C -2,4 °C 93 % 1021,2 hPa 0,0 mm 0,0 km/h (0 Bft) SW 221 ° 0 min 0,000 mm 0,0 UV-I 0 W/m² -3,4 °C -2,4 °C 0,0 km/h (0 Bft)
25.02.2017 01:54 -2,4 °C -2,4 °C 94 % 1021,2 hPa 0,0 mm 0,0 km/h (0 Bft) SW 221 ° 0 min 0,000 mm 0,0 UV-I 0 W/m² -3,2 °C -2,4 °C 0,0 km/h (0 Bft)
25.02.2017 01:55 -2,3 °C -2,3 °C 94 % 1021,3 hPa 0,0 mm 0,0 km/h (0 Bft) SW 221 ° 0 min 0,000 mm 0,0 UV-I 0 W/m² -3,1 °C -2,3 °C 0,0 km/h (0 Bft)
25.02.2017 01:56 -2,3 °C -2,3 °C 94 % 1021,2 hPa 0,0 mm 0,0 km/h (0 Bft) SW 221 ° 0 min 0,000 mm 0,0 UV-I 0 W/m² -3,1 °C -2,3 °C 0,0 km/h (0 Bft)
25.02.2017 01:57 -2,2 °C -2,2 °C 94 % 1021,2 hPa 0,0 mm 0,0 km/h (0 Bft) SW 221 ° 0 min 0,000 mm 0,0 UV-I 0 W/m² -3,0 °C -2,2 °C 0,0 km/h (0 Bft)
25.02.2017 01:58 -2,2 °C -2,2 °C 94 % 1021,2 hPa 0,0 mm 0,0 km/h (0 Bft) SW 221 ° 0 min 0,000 mm 0,0 UV-I 0 W/m² -3,0 °C -2,2 °C 0,0 km/h (0 Bft)
25.02.2017 01:59 -2,2 °C -2,1 °C 94 % 1021,3 hPa 0,0 mm 0,0 km/h (0 Bft) SW 221 ° 0 min 0,000 mm 0,0 UV-I 0 W/m² -3,0 °C -2,2 °C 0,0 km/h (0 Bft)
25.02.2017 02:00 -2,1 °C -2,1 °C 94 % 1021,3 hPa 0,0 mm 0,0 km/h (0 Bft) SW 221 ° 0 min 0,000 mm 0,0 UV-I 0 W/m² -2,9 °C -2,1 °C 0,0 km/h (0 Bft)
25.02.2017 02:01 -2,1 °C -2,1 °C 94 % 1021,3 hPa 0,0 mm 0,0 km/h (0 Bft) SW 221 ° 0 min 0,000 mm 0,0 UV-I 0 W/m² -2,9 °C -2,1 °C 0,0 km/h (0 Bft)
25.02.2017 02:02 -2,2 °C -2,1 °C 94 % 1021,3 hPa 0,0 mm 0,0 km/h (0 Bft) SW 221 ° 0 min 0,000 mm 0,0 UV-I 0 W/m² -3,0 °C -2,2 °C 0,0 km/h (0 Bft)
25.02.2017 02:03 -2,2 °C -2,2 °C 94 % 1021,3 hPa 0,0 mm 0,0 km/h (0 Bft) SW 221 ° 0 min 0,000 mm 0,0 UV-I 0 W/m² -3,0 °C -2,2 °C 0,0 km/h (0 Bft)
25.02.2017 02:04 -2,2 °C -2,2 °C 94 % 1021,3 hPa 0,0 mm 0,0 km/h (0 Bft) SW 221 ° 0 min 0,000 mm 0,0 UV-I 0 W/m² -3,0 °C -2,2 °C 0,0 km/h (0 Bft)
25.02.2017 02:05 -2,2 °C -2,2 °C 94 % 1021,3 hPa 0,0 mm 0,0 km/h (0 Bft) SW 221 ° 0 min 0,000 mm 0,0 UV-I 0 W/m² -3,0 °C -2,2 °C 0,0 km/h (0 Bft)
25.02.2017 02:06 -2,1 °C -2,1 °C 94 % 1021,2 hPa 0,0 mm 0,0 km/h (0 Bft) SW 221 ° 0 min 0,000 mm 0,0 UV-I 0 W/m² -2,9 °C -2,1 °C 0,0 km/h (0 Bft)
25.02.2017 02:07 -2,1 °C -2,1 °C 94 % 1021,4 hPa 0,0 mm 0,0 km/h (0 Bft) SW 221 ° 0 min 0,000 mm 0,0 UV-I 0 W/m² -2,9 °C -2,1 °C 0,0 km/h (0 Bft)
25.02.2017 02:08 -2,1 °C -2,1 °C 94 % 1021,3 hPa 0,0 mm 0,0 km/h (0 Bft) SW 221 ° 0 min 0,000 mm 0,0 UV-I 0 W/m² -2,9 °C -2,1 °C 0,0 km/h (0 Bft)
25.02.2017 02:09 -2,1 °C -2,1 °C 94 % 1021,3 hPa 0,0 mm 0,0 km/h (0 Bft) SW 221 ° 0 min 0,000 mm 0,0 UV-I 0 W/m² -2,9 °C -2,1 °C 0,0 km/h (0 Bft)
25.02.2017 02:10 -2,1 °C -2,1 °C 94 % 1021,3 hPa 0,0 mm 0,0 km/h (0 Bft) SW 221 ° 0 min 0,000 mm 0,0 UV-I 0 W/m² -2,9 °C -2,1 °C 0,0 km/h (0 Bft)
25.02.2017 02:11 -2,1 °C -2,1 °C 94 % 1021,3 hPa 0,0 mm 0,0 km/h (0 Bft) SW 221 ° 0 min 0,000 mm 0,0 UV-I 0 W/m² -2,9 °C -2,1 °C 0,0 km/h (0 Bft)
25.02.2017 02:12 -2,1 °C -2,1 °C 94 % 1021,4 hPa 0,0 mm 0,0 km/h (0 Bft) SW 221 ° 0 min 0,000 mm 0,0 UV-I 0 W/m² -2,9 °C -2,1 °C 0,0 km/h (0 Bft)
25.02.2017 02:13 -2,1 °C -2,1 °C 94 % 1021,4 hPa 0,0 mm 0,0 km/h (0 Bft) SW 221 ° 0 min 0,000 mm 0,0 UV-I 0 W/m² -2,9 °C -2,1 °C 0,0 km/h (0 Bft)
25.02.2017 02:14 -2,1 °C -2,1 °C 94 % 1021,4 hPa 0,0 mm 0,0 km/h (0 Bft) SW 221 ° 0 min 0,000 mm 0,0 UV-I 0 W/m² -2,9 °C -2,1 °C 0,0 km/h (0 Bft)
25.02.2017 02:15 -2,2 °C -2,1 °C 94 % 1021,4 hPa 0,0 mm 0,0 km/h (0 Bft) SW 221 ° 0 min 0,000 mm 0,0 UV-I 0 W/m² -3,0 °C -2,2 °C 0,0 km/h (0 Bft)
25.02.2017 02:16 -2,2 °C -2,2 °C 94 % 1021,4 hPa 0,0 mm 0,0 km/h (0 Bft) SW 221 ° 0 min 0,000 mm 0,0 UV-I 0 W/m² -3,0 °C -2,2 °C 0,0 km/h (0 Bft)
25.02.2017 02:17 -2,1 °C -2,1 °C 94 % 1021,4 hPa 0,0 mm 0,0 km/h (0 Bft) SW 221 ° 0 min 0,000 mm 0,0 UV-I 0 W/m² -2,9 °C -2,1 °C 0,0 km/h (0 Bft)
25.02.2017 02:18 -2,1 °C -2,1 °C 94 % 1021,4 hPa 0,0 mm 0,0 km/h (0 Bft) SW 221 ° 0 min 0,000 mm 0,0 UV-I 0 W/m² -2,9 °C -2,1 °C 0,0 km/h (0 Bft)
25.02.2017 02:19 -1,9 °C -1,9 °C 94 % 1021,5 hPa 0,0 mm 0,0 km/h (0 Bft) SW 221 ° 0 min 0,000 mm 0,0 UV-I 0 W/m² -2,7 °C -1,9 °C 0,0 km/h (0 Bft)
25.02.2017 02:20 -1,9 °C -1,9 °C 94 % 1021,5 hPa 0,0 mm 0,0 km/h (0 Bft) SW 221 ° 0 min 0,000 mm 0,0 UV-I 0 W/m² -2,7 °C -1,9 °C 0,0 km/h (0 Bft)
25.02.2017 02:21 -1,8 °C -1,8 °C 94 % 1021,5 hPa 0,0 mm 0,0 km/h (0 Bft) SW 221 ° 0 min 0,000 mm 0,0 UV-I 0 W/m² -2,6 °C -1,8 °C 0,0 km/h (0 Bft)
25.02.2017 02:22 -1,9 °C -1,8 °C 94 % 1021,5 hPa 0,0 mm 0,0 km/h (0 Bft) SW 221 ° 0 min 0,000 mm 0,0 UV-I 0 W/m² -2,7 °C -1,9 °C 0,0 km/h (0 Bft)
25.02.2017 02:23 -2,0 °C -1,9 °C 94 % 1021,5 hPa 0,0 mm 0,0 km/h (0 Bft) SW 221 ° 0 min 0,000 mm 0,0 UV-I 0 W/m² -2,8 °C -2,0 °C 0,0 km/h (0 Bft)
25.02.2017 02:24 -2,1 °C -2,0 °C 94 % 1021,5 hPa 0,0 mm 0,0 km/h (0 Bft) SW 221 ° 0 min 0,000 mm 0,0 UV-I 0 W/m² -2,9 °C -2,1 °C 0,0 km/h (0 Bft)
25.02.2017 02:25 -2,2 °C -2,1 °C 93 % 1021,5 hPa 0,0 mm 0,0 km/h (0 Bft) SW 221 ° 0 min 0,000 mm 0,0 UV-I 0 W/m² -3,2 °C -2,2 °C 0,0 km/h (0 Bft)
25.02.2017 02:26 -2,3 °C -2,2 °C 93 % 1021,5 hPa 0,0 mm 0,0 km/h (0 Bft) SW 221 ° 0 min 0,000 mm 0,0 UV-I 0 W/m² -3,3 °C -2,3 °C 0,0 km/h (0 Bft)
25.02.2017 02:27 -2,3 °C -2,3 °C 94 % 1021,5 hPa 0,0 mm 0,0 km/h (0 Bft) SW 221 ° 0 min 0,000 mm 0,0 UV-I 0 W/m² -3,1 °C -2,3 °C 0,0 km/h (0 Bft)
25.02.2017 02:28 -2,3 °C -2,3 °C 94 % 1021,5 hPa 0,0 mm 0,0 km/h (0 Bft) SW 221 ° 0 min 0,000 mm 0,0 UV-I 0 W/m² -3,1 °C -2,3 °C 0,0 km/h (0 Bft)
25.02.2017 02:29 -2,4 °C -2,3 °C 94 % 1021,6 hPa 0,0 mm 0,0 km/h (0 Bft) SW 221 ° 0 min 0,000 mm 0,0 UV-I 0 W/m² -3,2 °C -2,4 °C 0,0 km/h (0 Bft)
25.02.2017 02:30 -2,4 °C -2,3 °C 94 % 1021,6 hPa 0,0 mm 0,0 km/h (0 Bft) SW 221 ° 0 min 0,000 mm 0,0 UV-I 0 W/m² -3,2 °C -2,4 °C 0,0 km/h (0 Bft)
25.02.2017 02:31 -2,5 °C -2,4 °C 94 % 1021,6 hPa 0,0 mm 0,0 km/h (0 Bft) SW 221 ° 0 min 0,000 mm 0,0 UV-I 0 W/m² -3,3 °C -2,5 °C 0,0 km/h (0 Bft)
25.02.2017 02:32 -2,6 °C -2,5 °C 93 % 1021,6 hPa 0,0 mm 0,0 km/h (0 Bft) SW 221 ° 0 min 0,000 mm 0,0 UV-I 0 W/m² -3,6 °C -2,6 °C 0,0 km/h (0 Bft)
25.02.2017 02:33 -2,6 °C -2,6 °C 94 % 1021,6 hPa 0,0 mm 0,0 km/h (0 Bft) SW 221 ° 0 min 0,000 mm 0,0 UV-I 0 W/m² -3,4 °C -2,6 °C 0,0 km/h (0 Bft)
25.02.2017 02:34 -2,6 °C -2,6 °C 94 % 1021,6 hPa 0,0 mm 0,0 km/h (0 Bft) SW 221 ° 0 min 0,000 mm 0,0 UV-I 0 W/m² -3,4 °C -2,6 °C 0,0 km/h (0 Bft)
25.02.2017 02:35 -2,7 °C -2,6 °C 94 % 1021,6 hPa 0,0 mm 0,0 km/h (0 Bft) SW 221 ° 0 min 0,000 mm 0,0 UV-I 0 W/m² -3,5 °C -2,7 °C 0,0 km/h (0 Bft)
25.02.2017 02:36 -2,7 °C -2,7 °C 94 % 1021,6 hPa 0,0 mm 0,0 km/h (0 Bft) SW 221 ° 0 min 0,000 mm 0,0 UV-I 0 W/m² -3,5 °C -2,7 °C 0,0 km/h (0 Bft)
25.02.2017 02:37 -2,7 °C -2,7 °C 94 % 1021,6 hPa 0,0 mm 0,0 km/h (0 Bft) SW 221 ° 0 min 0,000 mm 0,0 UV-I 0 W/m² -3,5 °C -2,7 °C 0,0 km/h (0 Bft)
25.02.2017 02:38 -2,6 °C -2,6 °C 94 % 1021,6 hPa 0,0 mm 0,0 km/h (0 Bft) SW 221 ° 0 min 0,000 mm 0,0 UV-I 0 W/m² -3,4 °C -2,6 °C 0,0 km/h (0 Bft)
25.02.2017 02:39 -2,5 °C -2,5 °C 94 % 1021,6 hPa 0,0 mm 0,0 km/h (0 Bft) SW 221 ° 0 min 0,000 mm 0,0 UV-I 0 W/m² -3,3 °C -2,5 °C 0,0 km/h (0 Bft)
25.02.2017 02:40 -2,2 °C -2,2 °C 95 % 1021,6 hPa 0,0 mm 0,0 km/h (0 Bft) SW 221 ° 0 min 0,000 mm 0,0 UV-I 0 W/m² -2,9 °C -2,2 °C 0,0 km/h (0 Bft)
25.02.2017 02:41 -2,0 °C -2,0 °C 95 % 1021,7 hPa 0,0 mm 0,0 km/h (0 Bft) SW 221 ° 0 min 0,000 mm 0,0 UV-I 0 W/m² -2,7 °C -2,0 °C 0,0 km/h (0 Bft)
25.02.2017 02:42 -2,1 °C -1,9 °C 95 % 1021,7 hPa 0,0 mm 0,0 km/h (0 Bft) SW 221 ° 0 min 0,000 mm 0,0 UV-I 0 W/m² -2,8 °C -2,1 °C 0,0 km/h (0 Bft)
25.02.2017 02:43 -2,2 °C -2,1 °C 95 % 1021,7 hPa 0,0 mm 0,0 km/h (0 Bft) SW 221 ° 0 min 0,000 mm 0,0 UV-I 0 W/m² -2,9 °C -2,2 °C 0,0 km/h (0 Bft)
25.02.2017 02:44 -2,3 °C -2,2 °C 94 % 1021,7 hPa 0,0 mm 0,0 km/h (0 Bft) SW 221 ° 0 min 0,000 mm 0,0 UV-I 0 W/m² -3,1 °C -2,3 °C 0,0 km/h (0 Bft)
25.02.2017 02:45 -2,4 °C -2,3 °C 94 % 1021,7 hPa 0,0 mm 0,0 km/h (0 Bft) SW 221 ° 0 min 0,000 mm 0,0 UV-I 0 W/m² -3,2 °C -2,4 °C 0,0 km/h (0 Bft)
25.02.2017 02:46 -2,4 °C -2,4 °C 94 % 1021,8 hPa 0,0 mm 0,0 km/h (0 Bft) SW 221 ° 0 min 0,000 mm 0,0 UV-I 0 W/m² -3,2 °C -2,4 °C 0,0 km/h (0 Bft)
25.02.2017 02:47 -2,5 °C -2,4 °C 94 % 1021,7 hPa 0,0 mm 0,0 km/h (0 Bft) SW 221 ° 0 min 0,000 mm 0,0 UV-I 0 W/m² -3,3 °C -2,5 °C 0,0 km/h (0 Bft)
25.02.2017 02:48 -2,5 °C -2,4 °C 94 % 1021,7 hPa 0,0 mm 0,0 km/h (0 Bft) SW 221 ° 0 min 0,000 mm 0,0 UV-I 0 W/m² -3,3 °C -2,5 °C 0,0 km/h (0 Bft)
25.02.2017 02:49 -2,4 °C -2,4 °C 94 % 1021,7 hPa 0,0 mm 0,0 km/h (0 Bft) SW 221 ° 0 min 0,000 mm 0,0 UV-I 0 W/m² -3,2 °C -2,4 °C 0,0 km/h (0 Bft)
25.02.2017 02:50 -2,3 °C -2,3 °C 95 % 1021,7 hPa 0,0 mm 0,0 km/h (0 Bft) SW 221 ° 0 min 0,000 mm 0,0 UV-I 0 W/m² -3,0 °C -2,3 °C 0,0 km/h (0 Bft)
25.02.2017 02:51 -2,2 °C -2,2 °C 95 % 1021,8 hPa 0,0 mm 0,0 km/h (0 Bft) SW 221 ° 0 min 0,000 mm 0,0 UV-I 0 W/m² -2,9 °C -2,2 °C 0,0 km/h (0 Bft)
25.02.2017 02:52 -2,2 °C -2,2 °C 95 % 1021,9 hPa 0,0 mm 0,0 km/h (0 Bft) SW 221 ° 0 min 0,000 mm 0,0 UV-I 0 W/m² -2,9 °C -2,2 °C 0,0 km/h (0 Bft)
25.02.2017 02:53 -2,1 °C -2,1 °C 95 % 1021,9 hPa 0,0 mm 0,0 km/h (0 Bft) SW 221 ° 0 min 0,000 mm 0,0 UV-I 0 W/m² -2,8 °C -2,1 °C 0,0 km/h (0 Bft)
25.02.2017 02:54 -2,1 °C -2,1 °C 95 % 1021,9 hPa 0,0 mm 0,0 km/h (0 Bft) SW 221 ° 0 min 0,000 mm 0,0 UV-I 0 W/m² -2,8 °C -2,1 °C 0,0 km/h (0 Bft)
25.02.2017 02:55 -2,1 °C -2,1 °C 95 % 1021,9 hPa 0,0 mm 0,0 km/h (0 Bft) SW 221 ° 0 min 0,000 mm 0,0 UV-I 0 W/m² -2,8 °C -2,1 °C 0,0 km/h (0 Bft)
25.02.2017 02:56 -2,1 °C -2,1 °C 95 % 1021,9 hPa 0,0 mm 0,0 km/h (0 Bft) SW 221 ° 0 min 0,000 mm 0,0 UV-I 0 W/m² -2,8 °C -2,1 °C 0,0 km/h (0 Bft)
25.02.2017 02:57 -2,1 °C -2,1 °C 95 % 1021,9 hPa 0,0 mm 0,0 km/h (0 Bft) SW 221 ° 0 min 0,000 mm 0,0 UV-I 0 W/m² -2,8 °C -2,1 °C 0,0 km/h (0 Bft)
25.02.2017 02:58 -2,1 °C -2,1 °C 95 % 1022,0 hPa 0,0 mm 0,0 km/h (0 Bft) SW 221 ° 0 min 0,000 mm 0,0 UV-I 0 W/m² -2,8 °C -2,1 °C 0,0 km/h (0 Bft)
25.02.2017 02:59 -2,0 °C -2,0 °C 95 % 1022,0 hPa 0,0 mm 0,0 km/h (0 Bft) SW 221 ° 0 min 0,000 mm 0,0 UV-I 0 W/m² -2,7 °C -2,0 °C 0,0 km/h (0 Bft)
25.02.2017 03:00 -2,0 °C -2,0 °C 95 % 1022,0 hPa 0,0 mm 0,0 km/h (0 Bft) SW 221 ° 0 min 0,000 mm 0,0 UV-I 0 W/m² -2,7 °C -2,0 °C 0,0 km/h (0 Bft)
25.02.2017 03:01 -2,1 °C -2,0 °C 95 % 1022,0 hPa 0,0 mm 0,0 km/h (0 Bft) SW 221 ° 0 min 0,000 mm 0,0 UV-I 0 W/m² -2,8 °C -2,1 °C 0,0 km/h (0 Bft)
25.02.2017 03:02 -2,1 °C -2,1 °C 94 % 1022,0 hPa 0,0 mm 0,0 km/h (0 Bft) SW 221 ° 0 min 0,000 mm 0,0 UV-I 0 W/m² -2,9 °C -2,1 °C 0,0 km/h (0 Bft)
25.02.2017 03:03 -2,1 °C -2,1 °C 94 % 1022,1 hPa 0,0 mm 0,0 km/h (0 Bft) SW 221 ° 0 min 0,000 mm 0,0 UV-I 0 W/m² -2,9 °C -2,1 °C 0,0 km/h (0 Bft)
25.02.2017 03:04 -2,1 °C -2,1 °C 95 % 1022,1 hPa 0,0 mm 0,0 km/h (0 Bft) SW 221 ° 0 min 0,000 mm 0,0 UV-I 0 W/m² -2,8 °C -2,1 °C 0,0 km/h (0 Bft)
25.02.2017 03:05 -2,1 °C -2,1 °C 95 % 1022,1 hPa 0,0 mm 0,0 km/h (0 Bft) SW 221 ° 0 min 0,000 mm 0,0 UV-I 0 W/m² -2,8 °C -2,1 °C 0,0 km/h (0 Bft)
25.02.2017 03:06 -2,0 °C -2,0 °C 95 % 1022,1 hPa 0,0 mm 0,0 km/h (0 Bft) SW 221 ° 0 min 0,000 mm 0,0 UV-I 0 W/m² -2,7 °C -2,0 °C 0,0 km/h (0 Bft)
25.02.2017 03:07 -2,0 °C -2,0 °C 95 % 1022,1 hPa 0,0 mm 0,0 km/h (0 Bft) SW 221 ° 0 min 0,000 mm 0,0 UV-I 0 W/m² -2,7 °C -2,0 °C 0,0 km/h (0 Bft)
25.02.2017 03:08 -2,0 °C -2,0 °C 95 % 1022,1 hPa 0,0 mm 0,0 km/h (0 Bft) SW 221 ° 0 min 0,000 mm 0,0 UV-I 0 W/m² -2,7 °C -2,0 °C 0,0 km/h (0 Bft)
25.02.2017 03:09 -1,9 °C -1,9 °C 95 % 1022,1 hPa 0,0 mm 0,0 km/h (0 Bft) SW 221 ° 0 min 0,000 mm 0,0 UV-I 0 W/m² -2,6 °C -1,9 °C 0,0 km/h (0 Bft)
25.02.2017 03:10 -1,9 °C -1,9 °C 95 % 1022,1 hPa 0,0 mm 0,0 km/h (0 Bft) SW 221 ° 0 min 0,000 mm 0,0 UV-I 0 W/m² -2,6 °C -1,9 °C 0,0 km/h (0 Bft)
25.02.2017 03:11 -1,9 °C -1,9 °C 95 % 1022,2 hPa 0,0 mm 0,0 km/h (0 Bft) SW 221 ° 0 min 0,000 mm 0,0 UV-I 0 W/m² -2,6 °C -1,9 °C 0,0 km/h (0 Bft)
25.02.2017 03:12 -1,9 °C -1,9 °C 95 % 1022,2 hPa 0,0 mm 0,0 km/h (0 Bft) SW 221 ° 0 min 0,000 mm 0,0 UV-I 0 W/m² -2,6 °C -1,9 °C 0,0 km/h (0 Bft)
25.02.2017 03:13 -1,8 °C -1,8 °C 95 % 1022,2 hPa 0,0 mm 0,0 km/h (0 Bft) SW 221 ° 0 min 0,000 mm 0,0 UV-I 0 W/m² -2,5 °C -1,8 °C 0,0 km/h (0 Bft)
25.02.2017 03:14 -1,8 °C -1,8 °C 95 % 1022,2 hPa 0,0 mm 0,0 km/h (0 Bft) SW 221 ° 0 min 0,000 mm 0,0 UV-I 0 W/m² -2,5 °C -1,8 °C 0,0 km/h (0 Bft)
25.02.2017 03:15 -1,7 °C -1,7 °C 95 % 1022,2 hPa 0,0 mm 0,0 km/h (0 Bft) SW 221 ° 0 min 0,000 mm 0,0 UV-I 0 W/m² -2,4 °C -1,7 °C 0,0 km/h (0 Bft)
25.02.2017 03:16 -1,6 °C -1,6 °C 95 % 1022,2 hPa 0,0 mm 0,0 km/h (0 Bft) SW 221 ° 0 min 0,000 mm 0,0 UV-I 0 W/m² -2,3 °C -1,6 °C 0,0 km/h (0 Bft)
25.02.2017 03:17 -1,6 °C -1,6 °C 95 % 1022,2 hPa 0,0 mm 0,0 km/h (0 Bft) SW 221 ° 0 min 0,000 mm 0,0 UV-I 0 W/m² -2,3 °C -1,6 °C 0,0 km/h (0 Bft)
25.02.2017 03:18 -1,5 °C -1,5 °C 95 % 1022,2 hPa 0,0 mm 0,0 km/h (0 Bft) SW 221 ° 0 min 0,000 mm 0,0 UV-I 0 W/m² -2,2 °C -1,5 °C 0,0 km/h (0 Bft)
25.02.2017 03:19 -1,4 °C -1,4 °C 95 % 1022,2 hPa 0,0 mm 0,0 km/h (0 Bft) SW 221 ° 0 min 0,000 mm 0,0 UV-I 0 W/m² -2,1 °C -1,4 °C 0,0 km/h (0 Bft)
25.02.2017 03:20 -1,4 °C -1,4 °C 95 % 1022,3 hPa 0,0 mm 0,0 km/h (0 Bft) SW 221 ° 0 min 0,000 mm 0,0 UV-I 0 W/m² -2,1 °C -1,4 °C 0,0 km/h (0 Bft)
25.02.2017 03:21 -1,4 °C -1,4 °C 95 % 1022,2 hPa 0,0 mm 0,0 km/h (0 Bft) SW 221 ° 0 min 0,000 mm 0,0 UV-I 0 W/m² -2,1 °C -1,4 °C 0,0 km/h (0 Bft)
25.02.2017 03:22 -1,3 °C -1,3 °C 95 % 1022,2 hPa 0,0 mm 0,0 km/h (0 Bft) SW 221 ° 0 min 0,000 mm 0,0 UV-I 0 W/m² -2,0 °C -1,3 °C 0,0 km/h (0 Bft)
25.02.2017 03:23 -1,3 °C -1,3 °C 95 % 1022,2 hPa 0,0 mm 0,0 km/h (0 Bft) SW 221 ° 0 min 0,000 mm 0,0 UV-I 0 W/m² -2,0 °C -1,3 °C 0,0 km/h (0 Bft)
25.02.2017 03:24 -1,3 °C -1,3 °C 95 % 1022,3 hPa 0,0 mm 0,0 km/h (0 Bft) SW 221 ° 0 min 0,000 mm 0,0 UV-I 0 W/m² -2,0 °C -1,3 °C 0,0 km/h (0 Bft)
25.02.2017 03:25 -1,3 °C -1,3 °C 95 % 1022,2 hPa 0,0 mm 0,0 km/h (0 Bft) SW 221 ° 0 min 0,000 mm 0,0 UV-I 0 W/m² -2,0 °C -1,3 °C 0,0 km/h (0 Bft)
25.02.2017 03:26 -1,3 °C -1,3 °C 95 % 1022,2 hPa 0,0 mm 0,0 km/h (0 Bft) SW 221 ° 0 min 0,000 mm 0,0 UV-I 0 W/m² -2,0 °C -1,3 °C 0,0 km/h (0 Bft)
25.02.2017 03:27 -1,2 °C -1,2 °C 95 % 1022,3 hPa 0,0 mm 0,0 km/h (0 Bft) SW 221 ° 0 min 0,000 mm 0,0 UV-I 0 W/m² -1,9 °C -1,2 °C 0,0 km/h (0 Bft)
25.02.2017 03:28 -1,3 °C -1,2 °C 95 % 1022,3 hPa 0,0 mm 0,0 km/h (0 Bft) SW 221 ° 0 min 0,000 mm 0,0 UV-I 0 W/m² -2,0 °C -1,3 °C 0,0 km/h (0 Bft)
25.02.2017 03:29 -1,3 °C -1,2 °C 95 % 1022,3 hPa 0,0 mm 0,0 km/h (0 Bft) SW 221 ° 0 min 0,000 mm 0,0 UV-I 0 W/m² -2,0 °C -1,3 °C 0,0 km/h (0 Bft)
25.02.2017 03:30 -1,3 °C -1,2 °C 95 % 1022,3 hPa 0,0 mm 0,0 km/h (0 Bft) SW 221 ° 0 min 0,000 mm 0,0 UV-I 0 W/m² -2,0 °C -1,3 °C 0,0 km/h (0 Bft)
25.02.2017 03:31 -1,4 °C -1,3 °C 95 % 1022,2 hPa 0,0 mm 0,0 km/h (0 Bft) SW 221 ° 0 min 0,000 mm 0,0 UV-I 0 W/m² -2,1 °C -1,4 °C 0,0 km/h (0 Bft)
25.02.2017 03:32 -1,4 °C -1,4 °C 94 % 1022,3 hPa 0,0 mm 0,0 km/h (0 Bft) SW 221 ° 0 min 0,000 mm 0,0 UV-I 0 W/m² -2,2 °C -1,4 °C 0,0 km/h (0 Bft)
25.02.2017 03:33 -1,3 °C -1,3 °C 94 % 1022,3 hPa 0,0 mm 0,0 km/h (0 Bft) SW 221 ° 0 min 0,000 mm 0,0 UV-I 0 W/m² -2,1 °C -1,3 °C 0,0 km/h (0 Bft)
25.02.2017 03:34 -1,3 °C -1,3 °C 95 % 1022,2 hPa 0,0 mm 0,0 km/h (0 Bft) SW 221 ° 0 min 0,000 mm 0,0 UV-I 0 W/m² -2,0 °C -1,3 °C 0,0 km/h (0 Bft)
25.02.2017 03:35 -1,2 °C -1,2 °C 95 % 1022,2 hPa 0,0 mm 0,0 km/h (0 Bft) SW 221 ° 0 min 0,000 mm 0,0 UV-I 0 W/m² -1,9 °C -1,2 °C 0,0 km/h (0 Bft)
25.02.2017 03:36 -1,2 °C -1,2 °C 95 % 1022,2 hPa 0,0 mm 0,0 km/h (0 Bft) SW 221 ° 0 min 0,000 mm 0,0 UV-I 0 W/m² -1,9 °C -1,2 °C 0,0 km/h (0 Bft)
25.02.2017 03:37 -1,1 °C -1,1 °C 95 % 1022,2 hPa 0,0 mm 0,0 km/h (0 Bft) SW 221 ° 0 min 0,000 mm 0,0 UV-I 0 W/m² -1,8 °C -1,1 °C 0,0 km/h (0 Bft)
25.02.2017 03:38 -1,2 °C -1,1 °C 95 % 1022,1 hPa 0,0 mm 0,0 km/h (0 Bft) SW 221 ° 0 min 0,000 mm 0,0 UV-I 0 W/m² -1,9 °C -1,2 °C 0,0 km/h (0 Bft)
25.02.2017 03:39 -1,1 °C -1,1 °C 95 % 1022,1 hPa 0,0 mm 0,0 km/h (0 Bft) SW 221 ° 0 min 0,000 mm 0,0 UV-I 0 W/m² -1,8 °C -1,1 °C 0,0 km/h (0 Bft)
25.02.2017 03:40 -1,1 °C -1,1 °C 95 % 1022,1 hPa 0,0 mm 0,0 km/h (0 Bft) SW 221 ° 0 min 0,000 mm 0,0 UV-I 0 W/m² -1,8 °C -1,1 °C 0,0 km/h (0 Bft)
25.02.2017 03:41 -1,1 °C -1,1 °C 95 % 1022,1 hPa 0,0 mm 0,0 km/h (0 Bft) SW 221 ° 0 min 0,000 mm 0,0 UV-I 0 W/m² -1,8 °C -1,1 °C 0,0 km/h (0 Bft)
25.02.2017 03:42 -1,1 °C -1,1 °C 95 % 1022,1 hPa 0,0 mm 0,0 km/h (0 Bft) SW 221 ° 0 min 0,000 mm 0,0 UV-I 0 W/m² -1,8 °C -1,1 °C 0,0 km/h (0 Bft)
25.02.2017 03:43 -1,0 °C -1,0 °C 95 % 1022,1 hPa 0,0 mm 0,0 km/h (0 Bft) SW 221 ° 0 min 0,000 mm 0,0 UV-I 0 W/m² -1,7 °C -1,0 °C 0,0 km/h (0 Bft)
25.02.2017 03:44 -1,0 °C -1,0 °C 95 % 1022,1 hPa 0,0 mm 0,0 km/h (0 Bft) SW 221 ° 0 min 0,000 mm 0,0 UV-I 0 W/m² -1,7 °C -1,0 °C 0,0 km/h (0 Bft)
25.02.2017 03:45 -1,0 °C -0,9 °C 95 % 1022,1 hPa 0,0 mm 0,0 km/h (0 Bft) SW 221 ° 0 min 0,000 mm 0,0 UV-I 0 W/m² -1,7 °C -1,0 °C 0,0 km/h (0 Bft)
25.02.2017 03:46 -1,0 °C -1,0 °C 95 % 1022,1 hPa 0,0 mm 0,0 km/h (0 Bft) SW 221 ° 0 min 0,000 mm 0,0 UV-I 0 W/m² -1,7 °C -1,0 °C 0,0 km/h (0 Bft)
25.02.2017 03:47 -1,0 °C -1,0 °C 95 % 1022,1 hPa 0,0 mm 0,0 km/h (0 Bft) SW 221 ° 0 min 0,000 mm 0,0 UV-I 0 W/m² -1,7 °C -1,0 °C 0,0 km/h (0 Bft)
25.02.2017 03:48 -1,0 °C -1,0 °C 95 % 1022,1 hPa 0,0 mm 0,0 km/h (0 Bft) SW 221 ° 0 min 0,000 mm 0,0 UV-I 0 W/m² -1,7 °C -1,0 °C 0,0 km/h (0 Bft)
25.02.2017 03:49 -1,1 °C -1,0 °C 95 % 1022,1 hPa 0,0 mm 0,0 km/h (0 Bft) SW 221 ° 0 min 0,000 mm 0,0 UV-I 0 W/m² -1,8 °C -1,1 °C 0,0 km/h (0 Bft)
25.02.2017 03:50 -1,0 °C -1,0 °C 95 % 1022,1 hPa 0,0 mm 0,0 km/h (0 Bft) SW 221 ° 0 min 0,000 mm 0,0 UV-I 0 W/m² -1,7 °C -1,0 °C 0,0 km/h (0 Bft)
25.02.2017 03:51 -1,1 °C -1,0 °C 95 % 1022,0 hPa 0,0 mm 0,0 km/h (0 Bft) SW 221 ° 0 min 0,000 mm 0,0 UV-I 0 W/m² -1,8 °C -1,1 °C 0,0 km/h (0 Bft)
25.02.2017 03:52 -1,1 °C -1,1 °C 95 % 1022,1 hPa 0,0 mm 0,0 km/h (0 Bft) SW 221 ° 0 min 0,000 mm 0,0 UV-I 0 W/m² -1,8 °C -1,1 °C 0,0 km/h (0 Bft)
25.02.2017 03:53 -1,1 °C -1,1 °C 95 % 1022,1 hPa 0,0 mm 0,0 km/h (0 Bft) SW 221 ° 0 min 0,000 mm 0,0 UV-I 0 W/m² -1,8 °C -1,1 °C 0,0 km/h (0 Bft)
25.02.2017 03:54 -1,1 °C -1,1 °C 94 % 1022,1 hPa 0,0 mm 0,0 km/h (0 Bft) SW 221 ° 0 min 0,000 mm 0,0 UV-I 0 W/m² -1,9 °C -1,1 °C 0,0 km/h (0 Bft)
25.02.2017 03:55 -1,2 °C -1,1 °C 94 % 1022,1 hPa 0,0 mm 0,0 km/h (0 Bft) SW 221 ° 0 min 0,000 mm 0,0 UV-I 0 W/m² -2,0 °C -1,2 °C 0,0 km/h (0 Bft)
25.02.2017 03:56 -1,2 °C -1,2 °C 94 % 1022,1 hPa 0,0 mm 0,0 km/h (0 Bft) SW 221 ° 0 min 0,000 mm 0,0 UV-I 0 W/m² -2,0 °C -1,2 °C 0,0 km/h (0 Bft)
25.02.2017 03:57 -1,3 °C -1,2 °C 94 % 1022,1 hPa 0,0 mm 0,0 km/h (0 Bft) SW 221 ° 0 min 0,000 mm 0,0 UV-I 0 W/m² -2,1 °C -1,3 °C 0,0 km/h (0 Bft)
25.02.2017 03:58 -1,3 °C -1,3 °C 94 % 1022,0 hPa 0,0 mm 0,0 km/h (0 Bft) SW 221 ° 0 min 0,000 mm 0,0 UV-I 0 W/m² -2,1 °C -1,3 °C 0,0 km/h (0 Bft)
25.02.2017 03:59 -1,4 °C -1,3 °C 94 % 1022,1 hPa 0,0 mm 0,0 km/h (0 Bft) SW 221 ° 0 min 0,000 mm 0,0 UV-I 0 W/m² -2,2 °C -1,4 °C 0,0 km/h (0 Bft)
25.02.2017 04:00 -1,6 °C -1,4 °C 93 % 1022,1 hPa 0,0 mm 0,0 km/h (0 Bft) SW 221 ° 0 min 0,000 mm 0,0 UV-I 0 W/m² -2,6 °C -1,6 °C 0,0 km/h (0 Bft)
25.02.2017 04:01 -1,7 °C -1,6 °C 94 % 1022,1 hPa 0,0 mm 0,0 km/h (0 Bft) SW 221 ° 0 min 0,000 mm 0,0 UV-I 0 W/m² -2,5 °C -1,7 °C 0,0 km/h (0 Bft)
25.02.2017 04:02 -1,7 °C -1,7 °C 94 % 1022,1 hPa 0,0 mm 0,0 km/h (0 Bft) SW 221 ° 0 min 0,000 mm 0,0 UV-I 0 W/m² -2,5 °C -1,7 °C 0,0 km/h (0 Bft)
25.02.2017 04:03 -1,7 °C -1,7 °C 94 % 1022,1 hPa 0,0 mm 0,0 km/h (0 Bft) SW 221 ° 0 min 0,000 mm 0,0 UV-I 0 W/m² -2,5 °C -1,7 °C 0,0 km/h (0 Bft)
25.02.2017 04:04 -1,6 °C -1,6 °C 94 % 1022,1 hPa 0,0 mm 0,0 km/h (0 Bft) SW 221 ° 0 min 0,000 mm 0,0 UV-I 0 W/m² -2,4 °C -1,6 °C 0,0 km/h (0 Bft)
25.02.2017 04:05 -1,7 °C -1,6 °C 94 % 1022,1 hPa 0,0 mm 0,0 km/h (0 Bft) SW 221 ° 0 min 0,000 mm 0,0 UV-I 0 W/m² -2,5 °C -1,7 °C 0,0 km/h (0 Bft)
25.02.2017 04:06 -1,7 °C -1,7 °C 94 % 1022,0 hPa 0,0 mm 0,0 km/h (0 Bft) SW 221 ° 0 min 0,000 mm 0,0 UV-I 0 W/m² -2,5 °C -1,7 °C 0,0 km/h (0 Bft)
25.02.2017 04:07 -1,8 °C -1,7 °C 94 % 1022,1 hPa 0,0 mm 0,0 km/h (0 Bft) SW 221 ° 0 min 0,000 mm 0,0 UV-I 0 W/m² -2,6 °C -1,8 °C 0,0 km/h (0 Bft)
25.02.2017 04:08 -2,1 °C -1,8 °C 93 % 1022,1 hPa 0,0 mm 0,0 km/h (0 Bft) SW 221 ° 0 min 0,000 mm 0,0 UV-I 0 W/m² -3,1 °C -2,1 °C 0,0 km/h (0 Bft)
25.02.2017 04:09 -2,4 °C -2,1 °C 93 % 1022,1 hPa 0,0 mm 0,0 km/h (0 Bft) SW 221 ° 0 min 0,000 mm 0,0 UV-I 0 W/m² -3,4 °C -2,4 °C 0,0 km/h (0 Bft)
25.02.2017 04:10 -2,6 °C -2,4 °C 92 % 1022,1 hPa 0,0 mm 0,0 km/h (0 Bft) SW 221 ° 0 min 0,000 mm 0,0 UV-I 0 W/m² -3,7 °C -2,6 °C 0,0 km/h (0 Bft)
25.02.2017 04:11 -2,7 °C -2,6 °C 93 % 1022,2 hPa 0,0 mm 0,0 km/h (0 Bft) SW 221 ° 0 min 0,000 mm 0,0 UV-I 0 W/m² -3,7 °C -2,7 °C 0,0 km/h (0 Bft)
25.02.2017 04:12 -2,8 °C -2,7 °C 93 % 1022,2 hPa 0,0 mm 0,0 km/h (0 Bft) SW 221 ° 0 min 0,000 mm 0,0 UV-I 0 W/m² -3,8 °C -2,8 °C 0,0 km/h (0 Bft)
25.02.2017 04:13 -2,8 °C -2,8 °C 93 % 1022,2 hPa 0,0 mm 0,0 km/h (0 Bft) SW 221 ° 0 min 0,000 mm 0,0 UV-I 0 W/m² -3,8 °C -2,8 °C 0,0 km/h (0 Bft)
25.02.2017 04:14 -2,7 °C -2,7 °C 93 % 1022,3 hPa 0,0 mm 0,0 km/h (0 Bft) SW 221 ° 0 min 0,000 mm 0,0 UV-I 0 W/m² -3,7 °C -2,7 °C 0,0 km/h (0 Bft)
25.02.2017 04:15 -2,7 °C -2,7 °C 94 % 1022,3 hPa 0,0 mm 0,0 km/h (0 Bft) SW 221 ° 0 min 0,000 mm 0,0 UV-I 0 W/m² -3,5 °C -2,7 °C 0,0 km/h (0 Bft)
25.02.2017 04:16 -2,8 °C -2,7 °C 94 % 1022,3 hPa 0,0 mm 0,0 km/h (0 Bft) SW 221 ° 0 min 0,000 mm 0,0 UV-I 0 W/m² -3,6 °C -2,8 °C 0,0 km/h (0 Bft)
25.02.2017 04:17 -2,8 °C -2,8 °C 94 % 1022,2 hPa 0,0 mm 0,0 km/h (0 Bft) SW 221 ° 0 min 0,000 mm 0,0 UV-I 0 W/m² -3,6 °C -2,8 °C 0,0 km/h (0 Bft)
25.02.2017 04:18 -3,0 °C -2,8 °C 93 % 1022,3 hPa 0,0 mm 0,0 km/h (0 Bft) SW 221 ° 0 min 0,000 mm 0,0 UV-I 0 W/m² -4,0 °C -3,0 °C 0,0 km/h (0 Bft)
25.02.2017 04:19 -3,2 °C -3,0 °C 93 % 1022,4 hPa 0,0 mm 0,0 km/h (0 Bft) SW 221 ° 0 min 0,000 mm 0,0 UV-I 0 W/m² -4,2 °C -3,2 °C 0,0 km/h (0 Bft)
25.02.2017 04:20 -3,3 °C -3,2 °C 93 % 1022,3 hPa 0,0 mm 0,0 km/h (0 Bft) SW 221 ° 0 min 0,000 mm 0,0 UV-I 0 W/m² -4,3 °C -3,3 °C 0,0 km/h (0 Bft)
25.02.2017 04:21 -3,1 °C -3,1 °C 93 % 1022,2 hPa 0,0 mm 0,0 km/h (0 Bft) SW 221 ° 0 min 0,000 mm 0,0 UV-I 0 W/m² -4,1 °C -3,1 °C 0,0 km/h (0 Bft)
25.02.2017 04:22 -2,9 °C -2,9 °C 94 % 1022,3 hPa 0,0 mm 0,0 km/h (0 Bft) SW 221 ° 0 min 0,000 mm 0,0 UV-I 0 W/m² -3,7 °C -2,9 °C 0,0 km/h (0 Bft)
25.02.2017 04:23 -2,8 °C -2,8 °C 94 % 1022,3 hPa 0,0 mm 0,0 km/h (0 Bft) SW 221 ° 0 min 0,000 mm 0,0 UV-I 0 W/m² -3,6 °C -2,8 °C 0,0 km/h (0 Bft)
25.02.2017 04:24 -2,6 °C -2,6 °C 95 % 1022,2 hPa 0,0 mm 0,0 km/h (0 Bft) SW 221 ° 0 min 0,000 mm 0,0 UV-I 0 W/m² -3,3 °C -2,6 °C 0,0 km/h (0 Bft)
25.02.2017 04:25 -2,5 °C -2,5 °C 95 % 1022,2 hPa 0,0 mm 0,0 km/h (0 Bft) SW 221 ° 0 min 0,000 mm 0,0 UV-I 0 W/m² -3,2 °C -2,5 °C 0,0 km/h (0 Bft)
25.02.2017 04:26 -2,3 °C -2,3 °C 95 % 1022,2 hPa 0,0 mm 0,0 km/h (0 Bft) SW 221 ° 0 min 0,000 mm 0,0 UV-I 0 W/m² -3,0 °C -2,3 °C 0,0 km/h (0 Bft)
25.02.2017 04:27 -2,2 °C -2,2 °C 95 % 1022,2 hPa 0,0 mm 0,0 km/h (0 Bft) SW 221 ° 0 min 0,000 mm 0,0 UV-I 0 W/m² -2,9 °C -2,2 °C 0,0 km/h (0 Bft)
25.02.2017 04:28 -2,2 °C -2,2 °C 95 % 1022,2 hPa 0,0 mm 0,0 km/h (0 Bft) SW 221 ° 0 min 0,000 mm 0,0 UV-I 0 W/m² -2,9 °C -2,2 °C 0,0 km/h (0 Bft)
25.02.2017 04:29 -2,2 °C -2,2 °C 95 % 1022,2 hPa 0,0 mm 0,0 km/h (0 Bft) SW 221 ° 0 min 0,000 mm 0,0 UV-I 0 W/m² -2,9 °C -2,2 °C 0,0 km/h (0 Bft)
25.02.2017 04:30 -2,2 °C -2,2 °C 95 % 1022,2 hPa 0,0 mm 0,0 km/h (0 Bft) SW 221 ° 0 min 0,000 mm 0,0 UV-I 0 W/m² -2,9 °C -2,2 °C 0,0 km/h (0 Bft)
25.02.2017 04:31 -2,2 °C -2,2 °C 95 % 1022,2 hPa 0,0 mm 0,0 km/h (0 Bft) SW 221 ° 0 min 0,000 mm 0,0 UV-I 0 W/m² -2,9 °C -2,2 °C 0,0 km/h (0 Bft)
25.02.2017 04:32 -2,2 °C -2,2 °C 95 % 1022,2 hPa 0,0 mm 0,0 km/h (0 Bft) SW 221 ° 0 min 0,000 mm 0,0 UV-I 0 W/m² -2,9 °C -2,2 °C 0,0 km/h (0 Bft)
25.02.2017 04:33 -2,2 °C -2,2 °C 95 % 1022,2 hPa 0,0 mm 0,0 km/h (0 Bft) SW 221 ° 0 min 0,000 mm 0,0 UV-I 0 W/m² -2,9 °C -2,2 °C 0,0 km/h (0 Bft)
25.02.2017 04:34 -2,2 °C -2,2 °C 95 % 1022,3 hPa 0,0 mm 0,0 km/h (0 Bft) SW 221 ° 0 min 0,000 mm 0,0 UV-I 0 W/m² -2,9 °C -2,2 °C 0,0 km/h (0 Bft)
25.02.2017 04:35 -2,3 °C -2,2 °C 94 % 1022,2 hPa 0,0 mm 0,0 km/h (0 Bft) SW 221 ° 0 min 0,000 mm 0,0 UV-I 0 W/m² -3,1 °C -2,3 °C 0,0 km/h (0 Bft)
25.02.2017 04:36 -2,6 °C -2,3 °C 93 % 1022,2 hPa 0,0 mm 0,0 km/h (0 Bft) SW 221 ° 0 min 0,000 mm 0,0 UV-I 0 W/m² -3,6 °C -2,6 °C 0,0 km/h (0 Bft)
25.02.2017 04:37 -2,9 °C -2,6 °C 93 % 1022,3 hPa 0,0 mm 0,0 km/h (0 Bft) SW 221 ° 0 min 0,000 mm 0,0 UV-I 0 W/m² -3,9 °C -2,9 °C 0,0 km/h (0 Bft)
25.02.2017 04:38 -3,1 °C -2,9 °C 93 % 1022,3 hPa 0,0 mm 0,0 km/h (0 Bft) SW 221 ° 0 min 0,000 mm 0,0 UV-I 0 W/m² -4,1 °C -3,1 °C 0,0 km/h (0 Bft)
25.02.2017 04:39 -3,2 °C -3,1 °C 93 % 1022,2 hPa 0,0 mm 0,0 km/h (0 Bft) SW 221 ° 0 min 0,000 mm 0,0 UV-I 0 W/m² -4,2 °C -3,2 °C 0,0 km/h (0 Bft)
25.02.2017 04:40 -3,2 °C -3,2 °C 93 % 1022,2 hPa 0,0 mm 0,0 km/h (0 Bft) SW 221 ° 0 min 0,000 mm 0,0 UV-I 0 W/m² -4,2 °C -3,2 °C 0,0 km/h (0 Bft)
25.02.2017 04:41 -3,3 °C -3,2 °C 94 % 1022,3 hPa 0,0 mm 0,0 km/h (0 Bft) SW 221 ° 0 min 0,000 mm 0,0 UV-I 0 W/m² -4,1 °C -3,3 °C 0,0 km/h (0 Bft)
25.02.2017 04:42 -3,3 °C -3,3 °C 93 % 1022,3 hPa 0,0 mm 0,0 km/h (0 Bft) SW 221 ° 0 min 0,000 mm 0,0 UV-I 0 W/m² -4,3 °C -3,3 °C 0,0 km/h (0 Bft)
25.02.2017 04:43 -3,4 °C -3,3 °C 94 % 1022,3 hPa 0,0 mm 0,0 km/h (0 Bft) SW 221 ° 0 min 0,000 mm 0,0 UV-I 0 W/m² -4,2 °C -3,4 °C 0,0 km/h (0 Bft)
25.02.2017 04:44 -3,4 °C -3,4 °C 94 % 1022,4 hPa 0,0 mm 0,0 km/h (0 Bft) SW 221 ° 0 min 0,000 mm 0,0 UV-I 0 W/m² -4,2 °C -3,4 °C 0,0 km/h (0 Bft)
25.02.2017 04:45 -3,5 °C -3,4 °C 94 % 1022,3 hPa 0,0 mm 0,0 km/h (0 Bft) SW 221 ° 0 min 0,000 mm 0,0 UV-I 0 W/m² -4,3 °C -3,5 °C 0,0 km/h (0 Bft)
25.02.2017 04:46 -3,6 °C -3,5 °C 94 % 1022,4 hPa 0,0 mm 0,0 km/h (0 Bft) SW 221 ° 0 min 0,000 mm 0,0 UV-I 0 W/m² -4,4 °C -3,6 °C 0,0 km/h (0 Bft)
25.02.2017 04:47 -3,7 °C -3,6 °C 94 % 1022,3 hPa 0,0 mm 0,0 km/h (0 Bft) SW 221 ° 0 min 0,000 mm 0,0 UV-I 0 W/m² -4,5 °C -3,7 °C 0,0 km/h (0 Bft)
25.02.2017 04:48 -3,8 °C -3,7 °C 93 % 1022,4 hPa 0,0 mm 0,0 km/h (0 Bft) SW 221 ° 0 min 0,000 mm 0,0 UV-I 0 W/m² -4,8 °C -3,8 °C 0,0 km/h (0 Bft)
25.02.2017 04:49 -3,7 °C -3,7 °C 94 % 1022,4 hPa 0,0 mm 0,0 km/h (0 Bft) SW 221 ° 0 min 0,000 mm 0,0 UV-I 0 W/m² -4,5 °C -3,7 °C 0,0 km/h (0 Bft)
25.02.2017 04:50 -3,6 °C -3,6 °C 94 % 1022,4 hPa 0,0 mm 0,0 km/h (0 Bft) SW 221 ° 0 min 0,000 mm 0,0 UV-I 0 W/m² -4,4 °C -3,6 °C 0,0 km/h (0 Bft)
25.02.2017 04:51 -3,6 °C -3,6 °C 94 % 1022,4 hPa 0,0 mm 0,0 km/h (0 Bft) SW 221 ° 0 min 0,000 mm 0,0 UV-I 0 W/m² -4,4 °C -3,6 °C 0,0 km/h (0 Bft)
25.02.2017 04:52 -3,6 °C -3,6 °C 94 % 1022,4 hPa 0,0 mm 0,0 km/h (0 Bft) SW 221 ° 0 min 0,000 mm 0,0 UV-I 0 W/m² -4,4 °C -3,6 °C 0,0 km/h (0 Bft)
25.02.2017 04:53 -3,6 °C -3,6 °C 94 % 1022,4 hPa 0,0 mm 0,0 km/h (0 Bft) SW 221 ° 0 min 0,000 mm 0,0 UV-I 0 W/m² -4,4 °C -3,6 °C 0,0 km/h (0 Bft)
25.02.2017 04:54 -3,7 °C -3,6 °C 94 % 1022,3 hPa 0,0 mm 0,0 km/h (0 Bft) SW 221 ° 0 min 0,000 mm 0,0 UV-I 0 W/m² -4,5 °C -3,7 °C 0,0 km/h (0 Bft)
25.02.2017 04:55 -3,7 °C -3,7 °C 94 % 1022,4 hPa 0,0 mm 0,0 km/h (0 Bft) SW 221 ° 0 min 0,000 mm 0,0 UV-I 0 W/m² -4,5 °C -3,7 °C 0,0 km/h (0 Bft)
25.02.2017 04:56 -3,8 °C -3,7 °C 94 % 1022,4 hPa 0,0 mm 0,0 km/h (0 Bft) SW 221 ° 0 min 0,000 mm 0,0 UV-I 0 W/m² -4,6 °C -3,8 °C 0,0 km/h (0 Bft)
25.02.2017 04:57 -3,8 °C -3,8 °C 94 % 1022,4 hPa 0,0 mm 0,0 km/h (0 Bft) SW 221 ° 0 min 0,000 mm 0,0 UV-I 0 W/m² -4,6 °C -3,8 °C 0,0 km/h (0 Bft)
25.02.2017 04:58 -3,8 °C -3,8 °C 94 % 1022,4 hPa 0,0 mm 0,0 km/h (0 Bft) SW 221 ° 0 min 0,000 mm 0,0 UV-I 0 W/m² -4,6 °C -3,8 °C 0,0 km/h (0 Bft)
25.02.2017 04:59 -3,9 °C -3,8 °C 94 % 1022,4 hPa 0,0 mm 0,0 km/h (0 Bft) SW 221 ° 0 min 0,000 mm 0,0 UV-I 0 W/m² -4,7 °C -3,9 °C 0,0 km/h (0 Bft)
25.02.2017 05:00 -3,9 °C -3,9 °C 94 % 1022,4 hPa 0,0 mm 0,0 km/h (0 Bft) SW 221 ° 0 min 0,000 mm 0,0 UV-I 0 W/m² -4,7 °C -3,9 °C 0,0 km/h (0 Bft)
25.02.2017 05:01 -3,9 °C -3,9 °C 94 % 1022,4 hPa 0,0 mm 0,0 km/h (0 Bft) SW 221 ° 0 min 0,000 mm 0,0 UV-I 0 W/m² -4,7 °C -3,9 °C 0,0 km/h (0 Bft)
25.02.2017 05:02 -3,9 °C -3,9 °C 94 % 1022,4 hPa 0,0 mm 0,0 km/h (0 Bft) SW 221 ° 0 min 0,000 mm 0,0 UV-I 0 W/m² -4,7 °C -3,9 °C 0,0 km/h (0 Bft)
25.02.2017 05:03 -3,8 °C -3,8 °C 95 % 1022,4 hPa 0,0 mm 0,0 km/h (0 Bft) SW 221 ° 0 min 0,000 mm 0,0 UV-I 0 W/m² -4,5 °C -3,8 °C 0,0 km/h (0 Bft)
25.02.2017 05:04 -3,9 °C -3,8 °C 95 % 1022,4 hPa 0,0 mm 0,0 km/h (0 Bft) SW 221 ° 0 min 0,000 mm 0,0 UV-I 0 W/m² -4,6 °C -3,9 °C 0,0 km/h (0 Bft)
25.02.2017 05:05 -3,9 °C -3,9 °C 94 % 1022,4 hPa 0,0 mm 0,0 km/h (0 Bft) SW 221 ° 0 min 0,000 mm 0,0 UV-I 0 W/m² -4,7 °C -3,9 °C 0,0 km/h (0 Bft)
25.02.2017 05:06 -3,9 °C -3,9 °C 94 % 1022,4 hPa 0,0 mm 0,0 km/h (0 Bft) SW 221 ° 0 min 0,000 mm 0,0 UV-I 0 W/m² -4,7 °C -3,9 °C 0,0 km/h (0 Bft)
25.02.2017 05:07 -4,1 °C -3,9 °C 94 % 1022,4 hPa 0,0 mm 0,0 km/h (0 Bft) SW 221 ° 0 min 0,000 mm 0,0 UV-I 0 W/m² -4,9 °C -4,1 °C 0,0 km/h (0 Bft)
25.02.2017 05:08 -4,1 °C -4,1 °C 94 % 1022,4 hPa 0,0 mm 0,0 km/h (0 Bft) SW 221 ° 0 min 0,000 mm 0,0 UV-I 0 W/m² -4,9 °C -4,1 °C 0,0 km/h (0 Bft)
25.02.2017 05:09 -4,1 °C -4,1 °C 94 % 1022,4 hPa 0,0 mm 0,0 km/h (0 Bft) SW 221 ° 0 min 0,000 mm 0,0 UV-I 0 W/m² -4,9 °C -4,1 °C 0,0 km/h (0 Bft)
25.02.2017 05:10 -4,1 °C -4,1 °C 94 % 1022,4 hPa 0,0 mm 0,0 km/h (0 Bft) SW 221 ° 0 min 0,000 mm 0,0 UV-I 0 W/m² -4,9 °C -4,1 °C 0,0 km/h (0 Bft)
25.02.2017 05:11 -4,1 °C -4,1 °C 94 % 1022,4 hPa 0,0 mm 0,0 km/h (0 Bft) SW 221 ° 0 min 0,000 mm 0,0 UV-I 0 W/m² -4,9 °C -4,1 °C 0,0 km/h (0 Bft)
25.02.2017 05:12 -4,1 °C -4,1 °C 94 % 1022,4 hPa 0,0 mm 0,0 km/h (0 Bft) SW 221 ° 0 min 0,000 mm 0,0 UV-I 0 W/m² -4,9 °C -4,1 °C 0,0 km/h (0 Bft)
25.02.2017 05:13 -4,1 °C -4,1 °C 95 % 1022,5 hPa 0,0 mm 0,0 km/h (0 Bft) SW 221 ° 0 min 0,000 mm 0,0 UV-I 0 W/m² -4,8 °C -4,1 °C 0,0 km/h (0 Bft)
25.02.2017 05:14 -4,1 °C -4,1 °C 95 % 1022,4 hPa 0,0 mm 0,0 km/h (0 Bft) SW 221 ° 0 min 0,000 mm 0,0 UV-I 0 W/m² -4,8 °C -4,1 °C 0,0 km/h (0 Bft)
25.02.2017 05:15 -4,1 °C -4,1 °C 95 % 1022,4 hPa 0,0 mm 0,0 km/h (0 Bft) SW 221 ° 0 min 0,000 mm 0,0 UV-I 0 W/m² -4,8 °C -4,1 °C 0,0 km/h (0 Bft)
25.02.2017 05:16 -4,2 °C -4,1 °C 94 % 1022,5 hPa 0,0 mm 0,0 km/h (0 Bft) SW 221 ° 0 min 0,000 mm 0,0 UV-I 0 W/m² -5,0 °C -4,2 °C 0,0 km/h (0 Bft)
25.02.2017 05:17 -4,3 °C -4,2 °C 94 % 1022,5 hPa 0,0 mm 0,0 km/h (0 Bft) SW 221 ° 0 min 0,000 mm 0,0 UV-I 0 W/m² -5,1 °C -4,3 °C 0,0 km/h (0 Bft)
25.02.2017 05:18 -4,3 °C -4,3 °C 94 % 1022,5 hPa 0,0 mm 0,0 km/h (0 Bft) SW 221 ° 0 min 0,000 mm 0,0 UV-I 0 W/m² -5,1 °C -4,3 °C 0,0 km/h (0 Bft)
25.02.2017 05:19 -4,4 °C -4,3 °C 94 % 1022,5 hPa 0,0 mm 0,0 km/h (0 Bft) SW 221 ° 0 min 0,000 mm 0,0 UV-I 0 W/m² -5,2 °C -4,4 °C 0,0 km/h (0 Bft)
25.02.2017 05:20 -4,6 °C -4,4 °C 94 % 1022,5 hPa 0,0 mm 0,0 km/h (0 Bft) SW 221 ° 0 min 0,000 mm 0,0 UV-I 0 W/m² -5,4 °C -4,6 °C 0,0 km/h (0 Bft)
25.02.2017 05:21 -4,7 °C -4,6 °C 94 % 1022,6 hPa 0,0 mm 0,0 km/h (0 Bft) SW 221 ° 0 min 0,000 mm 0,0 UV-I 0 W/m² -5,5 °C -4,7 °C 0,0 km/h (0 Bft)
25.02.2017 05:22 -4,7 °C -4,7 °C 94 % 1022,6 hPa 0,0 mm 0,0 km/h (0 Bft) SW 221 ° 0 min 0,000 mm 0,0 UV-I 0 W/m² -5,5 °C -4,7 °C 0,0 km/h (0 Bft)
25.02.2017 05:23 -4,6 °C -4,6 °C 94 % 1022,6 hPa 0,0 mm 0,0 km/h (0 Bft) SW 221 ° 0 min 0,000 mm 0,0 UV-I 0 W/m² -5,4 °C -4,6 °C 0,0 km/h (0 Bft)
25.02.2017 05:24 -4,6 °C -4,6 °C 94 % 1022,6 hPa 0,0 mm 0,0 km/h (0 Bft) SW 221 ° 0 min 0,000 mm 0,0 UV-I 0 W/m² -5,4 °C -4,6 °C 0,0 km/h (0 Bft)
25.02.2017 05:25 -4,4 °C -4,4 °C 94 % 1022,7 hPa 0,0 mm 0,0 km/h (0 Bft) SW 221 ° 0 min 0,000 mm 0,0 UV-I 0 W/m² -5,2 °C -4,4 °C 0,0 km/h (0 Bft)
25.02.2017 05:26 -4,2 °C -4,2 °C 95 % 1022,7 hPa 0,0 mm 0,0 km/h (0 Bft) SW 221 ° 0 min 0,000 mm 0,0 UV-I 0 W/m² -4,9 °C -4,2 °C 0,0 km/h (0 Bft)
25.02.2017 05:27 -4,1 °C -4,1 °C 95 % 1022,7 hPa 0,0 mm 0,0 km/h (0 Bft) SW 221 ° 0 min 0,000 mm 0,0 UV-I 0 W/m² -4,8 °C -4,1 °C 0,0 km/h (0 Bft)
25.02.2017 05:28 -3,9 °C -3,9 °C 95 % 1022,7 hPa 0,0 mm 0,0 km/h (0 Bft) SW 221 ° 0 min 0,000 mm 0,0 UV-I 0 W/m² -4,6 °C -3,9 °C 0,0 km/h (0 Bft)
25.02.2017 05:29 -3,8 °C -3,8 °C 95 % 1022,7 hPa 0,0 mm 0,0 km/h (0 Bft) SW 221 ° 0 min 0,000 mm 0,0 UV-I 0 W/m² -4,5 °C -3,8 °C 0,0 km/h (0 Bft)
25.02.2017 05:30 -3,7 °C -3,7 °C 95 % 1022,7 hPa 0,0 mm 0,0 km/h (0 Bft) SW 221 ° 0 min 0,000 mm 0,0 UV-I 0 W/m² -4,4 °C -3,7 °C 0,0 km/h (0 Bft)
25.02.2017 05:31 -3,7 °C -3,7 °C 95 % 1022,8 hPa 0,0 mm 0,0 km/h (0 Bft) SW 221 ° 0 min 0,000 mm 0,0 UV-I 0 W/m² -4,4 °C -3,7 °C 0,0 km/h (0 Bft)
25.02.2017 05:32 -3,8 °C -3,7 °C 95 % 1022,7 hPa 0,0 mm 0,0 km/h (0 Bft) SW 221 ° 0 min 0,000 mm 0,0 UV-I 0 W/m² -4,5 °C -3,8 °C 0,0 km/h (0 Bft)
25.02.2017 05:33 -3,8 °C -3,8 °C 95 % 1022,7 hPa 0,0 mm 0,0 km/h (0 Bft) SW 221 ° 0 min 0,000 mm 0,0 UV-I 0 W/m² -4,5 °C -3,8 °C 0,0 km/h (0 Bft)
25.02.2017 05:34 -3,9 °C -3,8 °C 95 % 1022,7 hPa 0,0 mm 0,0 km/h (0 Bft) SW 221 ° 0 min 0,000 mm 0,0 UV-I 0 W/m² -4,6 °C -3,9 °C 0,0 km/h (0 Bft)
25.02.2017 05:35 -4,1 °C -3,9 °C 94 % 1022,7 hPa 0,0 mm 0,0 km/h (0 Bft) SW 221 ° 0 min 0,000 mm 0,0 UV-I 0 W/m² -4,9 °C -4,1 °C 0,0 km/h (0 Bft)
25.02.2017 05:36 -4,1 °C -4,1 °C 94 % 1022,8 hPa 0,0 mm 0,0 km/h (0 Bft) SW 221 ° 0 min 0,000 mm 0,0 UV-I 0 W/m² -4,9 °C -4,1 °C 0,0 km/h (0 Bft)
25.02.2017 05:37 -4,0 °C -3,9 °C 95 % 1022,7 hPa 0,0 mm 0,0 km/h (0 Bft) SW 221 ° 0 min 0,000 mm 0,0 UV-I 0 W/m² -4,7 °C -4,0 °C 0,0 km/h (0 Bft)
25.02.2017 05:38 -3,9 °C -3,9 °C 95 % 1022,8 hPa 0,0 mm 0,0 km/h (0 Bft) SW 221 ° 0 min 0,000 mm 0,0 UV-I 0 W/m² -4,6 °C -3,9 °C 0,0 km/h (0 Bft)
25.02.2017 05:39 -4,0 °C -3,9 °C 95 % 1022,8 hPa 0,0 mm 0,0 km/h (0 Bft) SW 221 ° 0 min 0,000 mm 0,0 UV-I 0 W/m² -4,7 °C -4,0 °C 0,0 km/h (0 Bft)
25.02.2017 05:40 -4,2 °C -4,0 °C 94 % 1022,8 hPa 0,0 mm 0,0 km/h (0 Bft) SW 221 ° 0 min 0,000 mm 0,0 UV-I 0 W/m² -5,0 °C -4,2 °C 0,0 km/h (0 Bft)
25.02.2017 05:41 -4,3 °C -4,2 °C 94 % 1022,8 hPa 0,0 mm 0,0 km/h (0 Bft) SW 221 ° 0 min 0,000 mm 0,0 UV-I 0 W/m² -5,1 °C -4,3 °C 0,0 km/h (0 Bft)
25.02.2017 05:42 -4,5 °C -4,3 °C 94 % 1022,8 hPa 0,0 mm 0,0 km/h (0 Bft) SW 221 ° 0 min 0,000 mm 0,0 UV-I 0 W/m² -5,3 °C -4,5 °C 0,0 km/h (0 Bft)
25.02.2017 05:43 -4,6 °C -4,5 °C 94 % 1022,8 hPa 0,0 mm 0,0 km/h (0 Bft) SW 221 ° 0 min 0,000 mm 0,0 UV-I 0 W/m² -5,4 °C -4,6 °C 0,0 km/h (0 Bft)
25.02.2017 05:44 -4,7 °C -4,6 °C 94 % 1022,9 hPa 0,0 mm 0,0 km/h (0 Bft) SW 221 ° 0 min 0,000 mm 0,0 UV-I 0 W/m² -5,5 °C -4,7 °C 0,0 km/h (0 Bft)
25.02.2017 05:45 -4,9 °C -4,7 °C 94 % 1022,9 hPa 0,0 mm 0,0 km/h (0 Bft) SW 221 ° 0 min 0,000 mm 0,0 UV-I 0 W/m² -5,7 °C -4,9 °C 0,0 km/h (0 Bft)
25.02.2017 05:46 -5,1 °C -4,9 °C 93 % 1022,8 hPa 0,0 mm 0,0 km/h (0 Bft) SW 221 ° 0 min 0,000 mm 0,0 UV-I 0 W/m² -6,1 °C -5,1 °C 0,0 km/h (0 Bft)
25.02.2017 05:47 -5,1 °C -5,1 °C 94 % 1022,9 hPa 0,0 mm 0,0 km/h (0 Bft) SW 221 ° 0 min 0,000 mm 0,0 UV-I 0 W/m² -5,9 °C -5,1 °C 0,0 km/h (0 Bft)
25.02.2017 05:48 -5,3 °C -5,1 °C 93 % 1022,9 hPa 0,0 mm 0,0 km/h (0 Bft) SW 221 ° 0 min 0,000 mm 0,0 UV-I 0 W/m² -6,2 °C -5,3 °C 0,0 km/h (0 Bft)
25.02.2017 05:49 -5,4 °C -5,3 °C 93 % 1022,8 hPa 0,0 mm 0,0 km/h (0 Bft) SW 221 ° 0 min 0,000 mm 0,0 UV-I 0 W/m² -6,3 °C -5,4 °C 0,0 km/h (0 Bft)
25.02.2017 05:50 -5,5 °C -5,4 °C 93 % 1022,9 hPa 0,0 mm 0,0 km/h (0 Bft) SW 221 ° 0 min 0,000 mm 0,0 UV-I 0 W/m² -6,4 °C -5,5 °C 0,0 km/h (0 Bft)
25.02.2017 05:51 -5,6 °C -5,5 °C 93 % 1022,9 hPa 0,0 mm 0,0 km/h (0 Bft) SW 221 ° 0 min 0,000 mm 0,0 UV-I 0 W/m² -6,5 °C -5,6 °C 0,0 km/h (0 Bft)
25.02.2017 05:52 -5,7 °C -5,6 °C 93 % 1022,9 hPa 0,0 mm 0,0 km/h (0 Bft) SW 221 ° 0 min 0,000 mm 0,0 UV-I 0 W/m² -6,6 °C -5,7 °C 0,0 km/h (0 Bft)
25.02.2017 05:53 -5,7 °C -5,7 °C 93 % 1022,9 hPa 0,0 mm 0,0 km/h (0 Bft) SW 221 ° 0 min 0,000 mm 0,0 UV-I 0 W/m² -6,6 °C -5,7 °C 0,0 km/h (0 Bft)
25.02.2017 05:54 -5,7 °C -5,7 °C 93 % 1023,0 hPa 0,0 mm 0,0 km/h (0 Bft) SW 221 ° 0 min 0,000 mm 0,0 UV-I 0 W/m² -6,6 °C -5,7 °C 0,0 km/h (0 Bft)
25.02.2017 05:55 -5,7 °C -5,7 °C 94 % 1023,0 hPa 0,0 mm 0,0 km/h (0 Bft) SW 221 ° 0 min 0,000 mm 0,0 UV-I 0 W/m² -6,5 °C -5,7 °C 0,0 km/h (0 Bft)
25.02.2017 05:56 -5,7 °C -5,7 °C 94 % 1023,0 hPa 0,0 mm 0,0 km/h (0 Bft) SW 221 ° 0 min 0,000 mm 0,0 UV-I 0 W/m² -6,5 °C -5,7 °C 0,0 km/h (0 Bft)
25.02.2017 05:57 -5,7 °C -5,7 °C 94 % 1023,0 hPa 0,0 mm 0,0 km/h (0 Bft) SW 221 ° 0 min 0,000 mm 0,0 UV-I 0 W/m² -6,5 °C -5,7 °C 0,0 km/h (0 Bft)
25.02.2017 05:58 -5,7 °C -5,7 °C 94 % 1023,0 hPa 0,0 mm 0,0 km/h (0 Bft) SW 221 ° 0 min 0,000 mm 0,0 UV-I 0 W/m² -6,5 °C -5,7 °C 0,0 km/h (0 Bft)
25.02.2017 05:59 -5,6 °C -5,6 °C 94 % 1023,0 hPa 0,0 mm 0,0 km/h (0 Bft) SW 221 ° 0 min 0,000 mm 0,0 UV-I 0 W/m² -6,4 °C -5,6 °C 0,0 km/h (0 Bft)
25.02.2017 06:00 -5,7 °C -5,6 °C 94 % 1023,0 hPa 0,0 mm 0,0 km/h (0 Bft) SW 221 ° 0 min 0,000 mm 0,0 UV-I 0 W/m² -6,5 °C -5,7 °C 0,0 km/h (0 Bft)
25.02.2017 06:01 -5,7 °C -5,7 °C 94 % 1023,0 hPa 0,0 mm 0,0 km/h (0 Bft) SW 221 ° 0 min 0,000 mm 0,0 UV-I 0 W/m² -6,5 °C -5,7 °C 0,0 km/h (0 Bft)
25.02.2017 06:02 -5,8 °C -5,7 °C 93 % 1023,0 hPa 0,0 mm 0,0 km/h (0 Bft) SW 221 ° 0 min 0,000 mm 0,0 UV-I 0 W/m² -6,7 °C -5,8 °C 0,0 km/h (0 Bft)
25.02.2017 06:03 -5,8 °C -5,8 °C 93 % 1023,0 hPa 0,0 mm 0,0 km/h (0 Bft) SW 221 ° 0 min 0,000 mm 0,0 UV-I 0 W/m² -6,7 °C -5,8 °C 0,0 km/h (0 Bft)
25.02.2017 06:04 -5,8 °C -5,8 °C 94 % 1023,0 hPa 0,0 mm 0,0 km/h (0 Bft) SW 221 ° 0 min 0,000 mm 0,0 UV-I 0 W/m² -6,6 °C -5,8 °C 0,0 km/h (0 Bft)
25.02.2017 06:05 -5,8 °C -5,8 °C 94 % 1023,0 hPa 0,0 mm 0,0 km/h (0 Bft) SW 221 ° 0 min 0,000 mm 0,0 UV-I 0 W/m² -6,6 °C -5,8 °C 0,0 km/h (0 Bft)
25.02.2017 06:06 -5,8 °C -5,8 °C 94 % 1023,1 hPa 0,0 mm 0,0 km/h (0 Bft) SW 221 ° 0 min 0,000 mm 0,0 UV-I 0 W/m² -6,6 °C -5,8 °C 0,0 km/h (0 Bft)
25.02.2017 06:07 -5,8 °C -5,8 °C 94 % 1023,1 hPa 0,0 mm 0,0 km/h (0 Bft) SW 221 ° 0 min 0,000 mm 0,0 UV-I 0 W/m² -6,6 °C -5,8 °C 0,0 km/h (0 Bft)
25.02.2017 06:08 -5,8 °C -5,8 °C 94 % 1023,1 hPa 0,0 mm 0,0 km/h (0 Bft) SW 221 ° 0 min 0,000 mm 0,0 UV-I 0 W/m² -6,6 °C -5,8 °C 0,0 km/h (0 Bft)
25.02.2017 06:09 -5,8 °C -5,8 °C 94 % 1023,1 hPa 0,0 mm 0,0 km/h (0 Bft) SW 221 ° 0 min 0,000 mm 0,0 UV-I 0 W/m² -6,6 °C -5,8 °C 0,0 km/h (0 Bft)
25.02.2017 06:10 -5,7 °C -5,7 °C 94 % 1023,1 hPa 0,0 mm 0,0 km/h (0 Bft) SW 221 ° 0 min 0,000 mm 0,0 UV-I 0 W/m² -6,5 °C -5,7 °C 0,0 km/h (0 Bft)
25.02.2017 06:11 -5,7 °C -5,7 °C 94 % 1023,2 hPa 0,0 mm 0,0 km/h (0 Bft) SW 221 ° 0 min 0,000 mm 0,0 UV-I 0 W/m² -6,5 °C -5,7 °C 0,0 km/h (0 Bft)
25.02.2017 06:12 -5,8 °C -5,7 °C 94 % 1023,2 hPa 0,0 mm 0,0 km/h (0 Bft) SW 221 ° 0 min 0,000 mm 0,0 UV-I 0 W/m² -6,6 °C -5,8 °C 0,0 km/h (0 Bft)
25.02.2017 06:13 -5,7 °C -5,7 °C 94 % 1023,2 hPa 0,0 mm 0,0 km/h (0 Bft) SW 221 ° 0 min 0,000 mm 0,0 UV-I 0 W/m² -6,5 °C -5,7 °C 0,0 km/h (0 Bft)
25.02.2017 06:14 -5,7 °C -5,7 °C 94 % 1023,2 hPa 0,0 mm 0,0 km/h (0 Bft) SW 221 ° 0 min 0,000 mm 0,0 UV-I 0 W/m² -6,5 °C -5,7 °C 0,0 km/h (0 Bft)
25.02.2017 06:15 -5,7 °C -5,7 °C 94 % 1023,2 hPa 0,0 mm 0,0 km/h (0 Bft) SW 221 ° 0 min 0,000 mm 0,0 UV-I 0 W/m² -6,5 °C -5,7 °C 0,0 km/h (0 Bft)
25.02.2017 06:16 -5,7 °C -5,7 °C 94 % 1023,2 hPa 0,0 mm 0,0 km/h (0 Bft) SW 221 ° 0 min 0,000 mm 0,0 UV-I 0 W/m² -6,5 °C -5,7 °C 0,0 km/h (0 Bft)
25.02.2017 06:17 -5,6 °C -5,6 °C 94 % 1023,2 hPa 0,0 mm 0,0 km/h (0 Bft) SW 221 ° 0 min 0,000 mm 0,0 UV-I 0 W/m² -6,4 °C -5,6 °C 0,0 km/h (0 Bft)
25.02.2017 06:18 -5,6 °C -5,6 °C 94 % 1023,2 hPa 0,0 mm 0,0 km/h (0 Bft) SW 221 ° 0 min 0,000 mm 0,0 UV-I 0 W/m² -6,4 °C -5,6 °C 0,0 km/h (0 Bft)
25.02.2017 06:19 -5,5 °C -5,5 °C 94 % 1023,2 hPa 0,0 mm 0,0 km/h (0 Bft) SW 221 ° 0 min 0,000 mm 0,0 UV-I 0 W/m² -6,3 °C -5,5 °C 0,0 km/h (0 Bft)
25.02.2017 06:20 -5,5 °C -5,5 °C 94 % 1023,2 hPa 0,0 mm 0,0 km/h (0 Bft) SW 221 ° 0 min 0,000 mm 0,0 UV-I 0 W/m² -6,3 °C -5,5 °C 0,0 km/h (0 Bft)
25.02.2017 06:21 -5,6 °C -5,5 °C 94 % 1023,2 hPa 0,0 mm 0,0 km/h (0 Bft) SW 221 ° 0 min 0,000 mm 0,0 UV-I 0 W/m² -6,4 °C -5,6 °C 0,0 km/h (0 Bft)
25.02.2017 06:22 -5,6 °C -5,6 °C 94 % 1023,2 hPa 0,0 mm 0,0 km/h (0 Bft) SW 221 ° 0 min 0,000 mm 0,0 UV-I 0 W/m² -6,4 °C -5,6 °C 0,0 km/h (0 Bft)
25.02.2017 06:23 -5,7 °C -5,6 °C 94 % 1023,2 hPa 0,0 mm 0,0 km/h (0 Bft) SW 221 ° 0 min 0,000 mm 0,0 UV-I 0 W/m² -6,5 °C -5,7 °C 0,0 km/h (0 Bft)
25.02.2017 06:24 -5,7 °C -5,7 °C 94 % 1023,2 hPa 0,0 mm 0,0 km/h (0 Bft) SW 221 ° 0 min 0,000 mm 0,0 UV-I 0 W/m² -6,5 °C -5,7 °C 0,0 km/h (0 Bft)
25.02.2017 06:25 -5,7 °C -5,7 °C 94 % 1023,2 hPa 0,0 mm 0,0 km/h (0 Bft) SW 221 ° 0 min 0,000 mm 0,0 UV-I 0 W/m² -6,5 °C -5,7 °C 0,0 km/h (0 Bft)
25.02.2017 06:26 -5,7 °C -5,7 °C 94 % 1023,2 hPa 0,0 mm 0,0 km/h (0 Bft) SW 221 ° 0 min 0,000 mm 0,0 UV-I 0 W/m² -6,5 °C -5,7 °C 0,0 km/h (0 Bft)
25.02.2017 06:27 -5,7 °C -5,7 °C 94 % 1023,2 hPa 0,0 mm 0,0 km/h (0 Bft) SW 221 ° 0 min 0,000 mm 0,0 UV-I 0 W/m² -6,5 °C -5,7 °C 0,0 km/h (0 Bft)
25.02.2017 06:28 -5,6 °C -5,6 °C 94 % 1023,1 hPa 0,0 mm 0,0 km/h (0 Bft) SW 221 ° 0 min 0,000 mm 0,0 UV-I 0 W/m² -6,4 °C -5,6 °C 0,0 km/h (0 Bft)
25.02.2017 06:29 -5,6 °C -5,6 °C 94 % 1023,1 hPa 0,0 mm 0,0 km/h (0 Bft) SW 221 ° 0 min 0,000 mm 0,0 UV-I 0 W/m² -6,4 °C -5,6 °C 0,0 km/h (0 Bft)
25.02.2017 06:30 -5,5 °C -5,5 °C 94 % 1023,1 hPa 0,0 mm 0,0 km/h (0 Bft) SW 221 ° 0 min 0,000 mm 0,0 UV-I 0 W/m² -6,3 °C -5,5 °C 0,0 km/h (0 Bft)
25.02.2017 06:31 -5,5 °C -5,5 °C 94 % 1023,1 hPa 0,0 mm 0,0 km/h (0 Bft) SW 221 ° 0 min 0,000 mm 0,0 UV-I 0 W/m² -6,3 °C -5,5 °C 0,0 km/h (0 Bft)
25.02.2017 06:32 -5,5 °C -5,4 °C 94 % 1023,1 hPa 0,0 mm 0,0 km/h (0 Bft) SW 221 ° 0 min 0,000 mm 0,0 UV-I 0 W/m² -6,3 °C -5,5 °C 0,0 km/h (0 Bft)
25.02.2017 06:33 -5,4 °C -5,4 °C 94 % 1023,2 hPa 0,0 mm 0,0 km/h (0 Bft) SW 221 ° 0 min 0,000 mm 0,0 UV-I 0 W/m² -6,2 °C -5,4 °C 0,0 km/h (0 Bft)
25.02.2017 06:34 -5,4 °C -5,4 °C 95 % 1023,1 hPa 0,0 mm 0,0 km/h (0 Bft) SW 221 ° 0 min 0,000 mm 0,0 UV-I 0 W/m² -6,1 °C -5,4 °C 0,0 km/h (0 Bft)
25.02.2017 06:35 -5,4 °C -5,4 °C 95 % 1023,1 hPa 0,0 mm 0,0 km/h (0 Bft) SW 221 ° 0 min 0,000 mm 0,0 UV-I 0 W/m² -6,1 °C -5,4 °C 0,0 km/h (0 Bft)
25.02.2017 06:36 -5,4 °C -5,4 °C 94 % 1023,1 hPa 0,0 mm 0,0 km/h (0 Bft) SW 221 ° 0 min 0,000 mm 0,0 UV-I 0 W/m² -6,2 °C -5,4 °C 0,0 km/h (0 Bft)
25.02.2017 06:37 -5,4 °C -5,4 °C 94 % 1023,2 hPa 0,0 mm 0,0 km/h (0 Bft) SW 221 ° 0 min 0,000 mm 0,0 UV-I 0 W/m² -6,2 °C -5,4 °C 0,0 km/h (0 Bft)
25.02.2017 06:38 -5,4 °C -5,4 °C 94 % 1023,1 hPa 0,0 mm 0,0 km/h (0 Bft) SW 221 ° 0 min 0,000 mm 0,0 UV-I 0 W/m² -6,2 °C -5,4 °C 0,0 km/h (0 Bft)
25.02.2017 06:39 -5,4 °C -5,4 °C 94 % 1023,1 hPa 0,0 mm 0,0 km/h (0 Bft) SW 221 ° 0 min 0,000 mm 0,0 UV-I 0 W/m² -6,2 °C -5,4 °C 0,0 km/h (0 Bft)
25.02.2017 06:40 -5,4 °C -5,4 °C 95 % 1023,1 hPa 0,0 mm 0,0 km/h (0 Bft) SW 221 ° 0 min 0,000 mm 0,0 UV-I 0 W/m² -6,1 °C -5,4 °C 0,0 km/h (0 Bft)
25.02.2017 06:41 -5,4 °C -5,4 °C 95 % 1023,0 hPa 0,0 mm 0,0 km/h (0 Bft) SW 221 ° 0 min 0,000 mm 0,0 UV-I 0 W/m² -6,1 °C -5,4 °C 0,0 km/h (0 Bft)
25.02.2017 06:42 -5,4 °C -5,4 °C 94 % 1023,1 hPa 0,0 mm 0,0 km/h (0 Bft) SW 221 ° 0 min 0,000 mm 0,0 UV-I 0 W/m² -6,2 °C -5,4 °C 0,0 km/h (0 Bft)
25.02.2017 06:43 -5,4 °C -5,4 °C 94 % 1023,1 hPa 0,0 mm 0,0 km/h (0 Bft) SW 221 ° 0 min 0,000 mm 0,0 UV-I 0 W/m² -6,2 °C -5,4 °C 0,0 km/h (0 Bft)
25.02.2017 06:44 -5,5 °C -5,4 °C 94 % 1023,1 hPa 0,0 mm 0,0 km/h (0 Bft) SW 221 ° 0 min 0,000 mm 0,0 UV-I 0 W/m² -6,3 °C -5,5 °C 0,0 km/h (0 Bft)
25.02.2017 06:45 -5,5 °C -5,5 °C 94 % 1023,1 hPa 0,0 mm 0,0 km/h (0 Bft) SW 221 ° 0 min 0,000 mm 0,0 UV-I 0 W/m² -6,3 °C -5,5 °C 0,0 km/h (0 Bft)
25.02.2017 06:46 -5,5 °C -5,5 °C 94 % 1023,1 hPa 0,0 mm 0,0 km/h (0 Bft) SW 221 ° 0 min 0,000 mm 0,0 UV-I 0 W/m² -6,3 °C -5,5 °C 0,0 km/h (0 Bft)
25.02.2017 06:47 -5,4 °C -5,4 °C 94 % 1023,1 hPa 0,0 mm 0,0 km/h (0 Bft) SW 221 ° 0 min 0,000 mm 0,0 UV-I 0 W/m² -6,2 °C -5,4 °C 0,0 km/h (0 Bft)
25.02.2017 06:48 -5,5 °C -5,4 °C 94 % 1023,2 hPa 0,0 mm 0,0 km/h (0 Bft) SW 221 ° 0 min 0,000 mm 0,0 UV-I 0 W/m² -6,3 °C -5,5 °C 0,0 km/h (0 Bft)
25.02.2017 06:49 -5,5 °C -5,4 °C 94 % 1023,2 hPa 0,0 mm 0,0 km/h (0 Bft) SW 221 ° 0 min 0,000 mm 0,0 UV-I 0 W/m² -6,3 °C -5,5 °C 0,0 km/h (0 Bft)
25.02.2017 06:50 -5,5 °C -5,4 °C 94 % 1023,2 hPa 0,0 mm 0,0 km/h (0 Bft) SW 221 ° 0 min 0,000 mm 0,0 UV-I 0 W/m² -6,3 °C -5,5 °C 0,0 km/h (0 Bft)
25.02.2017 06:51 -5,5 °C -5,4 °C 94 % 1023,2 hPa 0,0 mm 0,0 km/h (0 Bft) SW 221 ° 0 min 0,000 mm 0,0 UV-I 0 W/m² -6,3 °C -5,5 °C 0,0 km/h (0 Bft)
25.02.2017 06:52 -5,6 °C -5,5 °C 94 % 1023,2 hPa 0,0 mm 0,0 km/h (0 Bft) SW 221 ° 0 min 0,000 mm 0,0 UV-I 0 W/m² -6,4 °C -5,6 °C 0,0 km/h (0 Bft)
25.02.2017 06:53 -5,6 °C -5,5 °C 94 % 1023,2 hPa 0,0 mm 0,0 km/h (0 Bft) SW 221 ° 0 min 0,000 mm 0,0 UV-I 0 W/m² -6,4 °C -5,6 °C 0,0 km/h (0 Bft)
25.02.2017 06:54 -5,6 °C -5,6 °C 94 % 1023,2 hPa 0,0 mm 0,0 km/h (0 Bft) SW 221 ° 0 min 0,000 mm 0,0 UV-I 0 W/m² -6,4 °C -5,6 °C 0,0 km/h (0 Bft)
25.02.2017 06:55 -5,7 °C -5,6 °C 94 % 1023,2 hPa 0,0 mm 0,0 km/h (0 Bft) SW 221 ° 0 min 0,000 mm 0,0 UV-I 0 W/m² -6,5 °C -5,7 °C 0,0 km/h (0 Bft)
25.02.2017 06:56 -5,7 °C -5,7 °C 94 % 1023,2 hPa 0,0 mm 0,0 km/h (0 Bft) SW 221 ° 0 min 0,000 mm 0,0 UV-I 0 W/m² -6,5 °C -5,7 °C 0,0 km/h (0 Bft)
25.02.2017 06:57 -5,7 °C -5,7 °C 94 % 1023,2 hPa 0,0 mm 0,0 km/h (0 Bft) SW 221 ° 0 min 0,000 mm 0,0 UV-I 0 W/m² -6,5 °C -5,7 °C 0,0 km/h (0 Bft)
25.02.2017 06:58 -5,7 °C -5,7 °C 94 % 1023,1 hPa 0,0 mm 0,0 km/h (0 Bft) SW 221 ° 0 min 0,000 mm 0,0 UV-I 0 W/m² -6,5 °C -5,7 °C 0,0 km/h (0 Bft)
25.02.2017 06:59 -5,7 °C -5,7 °C 94 % 1023,2 hPa 0,0 mm 0,0 km/h (0 Bft) SW 221 ° 0 min 0,000 mm 0,0 UV-I 0 W/m² -6,5 °C -5,7 °C 0,0 km/h (0 Bft)
25.02.2017 07:00 -5,6 °C -5,6 °C 94 % 1023,2 hPa 0,0 mm 0,0 km/h (0 Bft) SW 221 ° 0 min 0,000 mm 0,0 UV-I 0 W/m² -6,4 °C -5,6 °C 0,0 km/h (0 Bft)
25.02.2017 07:01 -5,6 °C -5,6 °C 94 % 1023,1 hPa 0,0 mm 0,0 km/h (0 Bft) SW 221 ° 0 min 0,000 mm 0,0 UV-I 0 W/m² -6,4 °C -5,6 °C 0,0 km/h (0 Bft)
25.02.2017 07:02 -5,6 °C -5,6 °C 94 % 1023,2 hPa 0,0 mm 0,0 km/h (0 Bft) SW 221 ° 0 min 0,000 mm 0,0 UV-I 0 W/m² -6,4 °C -5,6 °C 0,0 km/h (0 Bft)
25.02.2017 07:03 -5,7 °C -5,6 °C 94 % 1023,2 hPa 0,0 mm 0,0 km/h (0 Bft) SW 221 ° 0 min 0,000 mm 0,0 UV-I 0 W/m² -6,5 °C -5,7 °C 0,0 km/h (0 Bft)
25.02.2017 07:04 -5,7 °C -5,7 °C 93 % 1023,2 hPa 0,0 mm 0,0 km/h (0 Bft) SW 221 ° 0 min 0,000 mm 0,0 UV-I 0 W/m² -6,6 °C -5,7 °C 0,0 km/h (0 Bft)
25.02.2017 07:05 -5,7 °C -5,7 °C 94 % 1023,2 hPa 0,0 mm 0,0 km/h (0 Bft) SW 221 ° 0 min 0,000 mm 0,0 UV-I 0 W/m² -6,5 °C -5,7 °C 0,0 km/h (0 Bft)
25.02.2017 07:06 -5,7 °C -5,7 °C 94 % 1023,2 hPa 0,0 mm 0,0 km/h (0 Bft) SW 221 ° 0 min 0,000 mm 0,0 UV-I 0 W/m² -6,5 °C -5,7 °C 0,0 km/h (0 Bft)
25.02.2017 07:07 -5,7 °C -5,7 °C 94 % 1023,3 hPa 0,0 mm 0,0 km/h (0 Bft) SW 221 ° 0 min 0,000 mm 0,0 UV-I 0 W/m² -6,5 °C -5,7 °C 0,0 km/h (0 Bft)
25.02.2017 07:08 -5,8 °C -5,7 °C 94 % 1023,3 hPa 0,0 mm 0,0 km/h (0 Bft) SW 221 ° 0 min 0,000 mm 0,0 UV-I 0 W/m² -6,6 °C -5,8 °C 0,0 km/h (0 Bft)
25.02.2017 07:09 -5,8 °C -5,7 °C 94 % 1023,3 hPa 0,0 mm 0,0 km/h (0 Bft) SW 221 ° 0 min 0,000 mm 0,0 UV-I 0 W/m² -6,6 °C -5,8 °C 0,0 km/h (0 Bft)
25.02.2017 07:10 -5,8 °C -5,8 °C 94 % 1023,3 hPa 0,0 mm 0,0 km/h (0 Bft) SW 221 ° 0 min 0,000 mm 0,0 UV-I 0 W/m² -6,6 °C -5,8 °C 0,0 km/h (0 Bft)
25.02.2017 07:11 -5,8 °C -5,8 °C 94 % 1023,3 hPa 0,0 mm 0,0 km/h (0 Bft) SW 221 ° 0 min 0,000 mm 0,0 UV-I 0 W/m² -6,6 °C -5,8 °C 0,0 km/h (0 Bft)
25.02.2017 07:12 -5,8 °C -5,8 °C 93 % 1023,4 hPa 0,0 mm 0,0 km/h (0 Bft) SW 221 ° 0 min 0,000 mm 0,0 UV-I 0 W/m² -6,7 °C -5,8 °C 0,0 km/h (0 Bft)
25.02.2017 07:13 -5,9 °C -5,8 °C 93 % 1023,4 hPa 0,0 mm 0,0 km/h (0 Bft) SW 221 ° 0 min 0,000 mm 0,0 UV-I 0 W/m² -6,8 °C -5,9 °C 0,0 km/h (0 Bft)
25.02.2017 07:14 -6,0 °C -5,9 °C 93 % 1023,4 hPa 0,0 mm 0,0 km/h (0 Bft) SW 221 ° 0 min 0,000 mm 0,0 UV-I 0 W/m² -6,9 °C -6,0 °C 0,0 km/h (0 Bft)
25.02.2017 07:15 -6,1 °C -6,0 °C 93 % 1023,5 hPa 0,0 mm 0,0 km/h (0 Bft) SW 221 ° 0 min 0,000 mm 0,0 UV-I 0 W/m² -7,0 °C -6,1 °C 0,0 km/h (0 Bft)
25.02.2017 07:16 -6,0 °C -6,0 °C 93 % 1023,5 hPa 0,0 mm 0,0 km/h (0 Bft) SW 221 ° 0 min 0,000 mm 0,0 UV-I 0 W/m² -6,9 °C -6,0 °C 0,0 km/h (0 Bft)
25.02.2017 07:17 -5,9 °C -5,9 °C 94 % 1023,5 hPa 0,0 mm 0,0 km/h (0 Bft) SW 221 ° 0 min 0,000 mm 0,0 UV-I 0 W/m² -6,7 °C -5,9 °C 0,0 km/h (0 Bft)
25.02.2017 07:18 -5,9 °C -5,9 °C 94 % 1023,5 hPa 0,0 mm 0,0 km/h (0 Bft) SW 221 ° 0 min 0,000 mm 0,0 UV-I 0 W/m² -6,7 °C -5,9 °C 0,0 km/h (0 Bft)
25.02.2017 07:19 -5,8 °C -5,8 °C 94 % 1023,6 hPa 0,0 mm 0,0 km/h (0 Bft) SW 221 ° 0 min 0,000 mm 0,0 UV-I 0 W/m² -6,6 °C -5,8 °C 0,0 km/h (0 Bft)
25.02.2017 07:20 -5,7 °C -5,7 °C 94 % 1023,5 hPa 0,0 mm 0,0 km/h (0 Bft) SW 221 ° 0 min 0,000 mm 0,0 UV-I 0 W/m² -6,5 °C -5,7 °C 0,0 km/h (0 Bft)
25.02.2017 07:21 -5,6 °C -5,6 °C 94 % 1023,6 hPa 0,0 mm 0,0 km/h (0 Bft) SW 221 ° 0 min 0,000 mm 0,0 UV-I 0 W/m² -6,4 °C -5,6 °C 0,0 km/h (0 Bft)
25.02.2017 07:22 -5,5 °C -5,5 °C 94 % 1023,6 hPa 0,0 mm 0,0 km/h (0 Bft) SW 221 ° 0 min 0,000 mm 0,0 UV-I 5 W/m² -6,3 °C -5,5 °C 0,0 km/h (0 Bft)
25.02.2017 07:23 -5,6 °C -5,5 °C 94 % 1023,5 hPa 0,0 mm 0,0 km/h (0 Bft) SW 221 ° 0 min 0,000 mm 0,0 UV-I 5 W/m² -6,4 °C -5,6 °C 0,0 km/h (0 Bft)
25.02.2017 07:24 -5,6 °C -5,6 °C 94 % 1023,5 hPa 0,0 mm 0,0 km/h (0 Bft) SW 221 ° 0 min 0,000 mm 0,0 UV-I 5 W/m² -6,4 °C -5,6 °C 0,0 km/h (0 Bft)
25.02.2017 07:25 -5,5 °C -5,5 °C 94 % 1023,5 hPa 0,0 mm 0,0 km/h (0 Bft) SW 221 ° 0 min 0,000 mm 0,0 UV-I 5 W/m² -6,3 °C -5,5 °C 0,0 km/h (0 Bft)
25.02.2017 07:26 -5,4 °C -5,4 °C 94 % 1023,6 hPa 0,0 mm 0,0 km/h (0 Bft) SW 221 ° 0 min 0,000 mm 0,0 UV-I 5 W/m² -6,2 °C -5,4 °C 0,0 km/h (0 Bft)
25.02.2017 07:27 -5,4 °C -5,4 °C 94 % 1023,6 hPa 0,0 mm 0,0 km/h (0 Bft) SW 221 ° 0 min 0,000 mm 0,0 UV-I 5 W/m² -6,2 °C -5,4 °C 0,0 km/h (0 Bft)
25.02.2017 07:28 -5,4 °C -5,3 °C 94 % 1023,6 hPa 0,0 mm 0,0 km/h (0 Bft) SW 221 ° 0 min 0,000 mm 0,0 UV-I 7 W/m² -6,2 °C -5,4 °C 0,0 km/h (0 Bft)
25.02.2017 07:29 -5,4 °C -5,4 °C 94 % 1023,6 hPa 0,0 mm 0,0 km/h (0 Bft) SW 221 ° 0 min 0,000 mm 0,0 UV-I 7 W/m² -6,2 °C -5,4 °C 0,0 km/h (0 Bft)
25.02.2017 07:30 -5,4 °C -5,3 °C 94 % 1023,5 hPa 0,0 mm 0,0 km/h (0 Bft) SW 221 ° 0 min 0,000 mm 0,0 UV-I 7 W/m² -6,2 °C -5,4 °C 0,0 km/h (0 Bft)
25.02.2017 07:31 -5,4 °C -5,4 °C 94 % 1023,6 hPa 0,0 mm 0,0 km/h (0 Bft) SW 221 ° 0 min 0,000 mm 0,0 UV-I 7 W/m² -6,2 °C -5,4 °C 0,0 km/h (0 Bft)
25.02.2017 07:32 -5,3 °C -5,3 °C 94 % 1023,6 hPa 0,0 mm 0,0 km/h (0 Bft) SW 221 ° 0 min 0,000 mm 0,0 UV-I 7 W/m² -6,1 °C -5,3 °C 0,0 km/h (0 Bft)
25.02.2017 07:33 -5,3 °C -5,3 °C 94 % 1023,6 hPa 0,0 mm 0,0 km/h (0 Bft) SW 221 ° 0 min 0,000 mm 0,0 UV-I 7 W/m² -6,1 °C -5,3 °C 0,0 km/h (0 Bft)
25.02.2017 07:34 -5,3 °C -5,3 °C 94 % 1023,6 hPa 0,0 mm 0,0 km/h (0 Bft) SW 221 ° 0 min 0,000 mm 0,0 UV-I 7 W/m² -6,1 °C -5,3 °C 0,0 km/h (0 Bft)
25.02.2017 07:35 -5,4 °C -5,3 °C 94 % 1023,6 hPa 0,0 mm 0,0 km/h (0 Bft) SW 221 ° 0 min 0,000 mm 0,0 UV-I 7 W/m² -6,2 °C -5,4 °C 0,0 km/h (0 Bft)
25.02.2017 07:36 -5,3 °C -5,3 °C 94 % 1023,6 hPa 0,0 mm 0,0 km/h (0 Bft) SW 221 ° 0 min 0,000 mm 0,0 UV-I 7 W/m² -6,1 °C -5,3 °C 0,0 km/h (0 Bft)
25.02.2017 07:37 -5,3 °C -5,3 °C 94 % 1023,6 hPa 0,0 mm 0,0 km/h (0 Bft) SW 221 ° 0 min 0,000 mm 0,0 UV-I 7 W/m² -6,1 °C -5,3 °C 0,0 km/h (0 Bft)
25.02.2017 07:38 -5,3 °C -5,3 °C 94 % 1023,6 hPa 0,0 mm 0,0 km/h (0 Bft) SW 221 ° 0 min 0,000 mm 0,0 UV-I 9 W/m² -6,1 °C -5,3 °C 0,0 km/h (0 Bft)
25.02.2017 07:39 -5,2 °C -5,2 °C 94 % 1023,6 hPa 0,0 mm 0,0 km/h (0 Bft) SW 221 ° 0 min 0,000 mm 0,0 UV-I 9 W/m² -6,0 °C -5,2 °C 0,0 km/h (0 Bft)
25.02.2017 07:40 -5,2 °C -5,2 °C 94 % 1023,6 hPa 0,0 mm 0,0 km/h (0 Bft) SW 221 ° 0 min 0,000 mm 0,0 UV-I 9 W/m² -6,0 °C -5,2 °C 0,0 km/h (0 Bft)
25.02.2017 07:41 -5,3 °C -5,2 °C 94 % 1023,6 hPa 0,0 mm 0,0 km/h (0 Bft) SW 221 ° 0 min 0,000 mm 0,0 UV-I 9 W/m² -6,1 °C -5,3 °C 0,0 km/h (0 Bft)
25.02.2017 07:42 -5,3 °C -5,3 °C 94 % 1023,6 hPa 0,0 mm 0,0 km/h (0 Bft) SW 221 ° 0 min 0,000 mm 0,0 UV-I 9 W/m² -6,1 °C -5,3 °C 0,0 km/h (0 Bft)
25.02.2017 07:43 -5,3 °C -5,3 °C 94 % 1023,5 hPa 0,0 mm 0,0 km/h (0 Bft) SW 221 ° 0 min 0,000 mm 0,0 UV-I 11 W/m² -6,1 °C -5,3 °C 0,0 km/h (0 Bft)
25.02.2017 07:44 -5,3 °C -5,3 °C 94 % 1023,6 hPa 0,0 mm 0,0 km/h (0 Bft) SW 221 ° 0 min 0,000 mm 0,0 UV-I 11 W/m² -6,1 °C -5,3 °C 0,0 km/h (0 Bft)
25.02.2017 07:45 -5,3 °C -5,3 °C 94 % 1023,6 hPa 0,0 mm 0,0 km/h (0 Bft) SW 221 ° 0 min 0,000 mm 0,0 UV-I 11 W/m² -6,1 °C -5,3 °C 0,0 km/h (0 Bft)
25.02.2017 07:46 -5,3 °C -5,2 °C 94 % 1023,6 hPa 0,0 mm 0,0 km/h (0 Bft) SW 221 ° 0 min 0,000 mm 0,0 UV-I 11 W/m² -6,1 °C -5,3 °C 0,0 km/h (0 Bft)
25.02.2017 07:47 -5,2 °C -5,2 °C 94 % 1023,6 hPa 0,0 mm 0,0 km/h (0 Bft) SW 221 ° 0 min 0,000 mm 0,0 UV-I 11 W/m² -6,0 °C -5,2 °C 0,0 km/h (0 Bft)
25.02.2017 07:48 -5,2 °C -5,2 °C 94 % 1023,6 hPa 0,0 mm 0,0 km/h (0 Bft) SW 221 ° 0 min 0,000 mm 0,0 UV-I 11 W/m² -6,0 °C -5,2 °C 0,0 km/h (0 Bft)
25.02.2017 07:49 -5,2 °C -5,2 °C 94 % 1023,6 hPa 0,0 mm 0,0 km/h (0 Bft) SW 221 ° 0 min 0,000 mm 0,0 UV-I 11 W/m² -6,0 °C -5,2 °C 0,0 km/h (0 Bft)
25.02.2017 07:50 -5,2 °C -5,2 °C 94 % 1023,6 hPa 0,0 mm 0,0 km/h (0 Bft) SW 221 ° 0 min 0,000 mm 0,0 UV-I 11 W/m² -6,0 °C -5,2 °C 0,0 km/h (0 Bft)
25.02.2017 07:51 -5,2 °C -5,2 °C 94 % 1023,6 hPa 0,0 mm 0,0 km/h (0 Bft) SW 221 ° 0 min 0,000 mm 0,0 UV-I 11 W/m² -6,0 °C -5,2 °C 0,0 km/h (0 Bft)
25.02.2017 07:52 -5,2 °C -5,2 °C 94 % 1023,6 hPa 0,0 mm 0,0 km/h (0 Bft) SW 221 ° 0 min 0,000 mm 0,0 UV-I 11 W/m² -6,0 °C -5,2 °C 0,0 km/h (0 Bft)
25.02.2017 07:53 -5,2 °C -5,2 °C 94 % 1023,6 hPa 0,0 mm 0,0 km/h (0 Bft) SW 221 ° 0 min 0,000 mm 0,0 UV-I 11 W/m² -6,0 °C -5,2 °C 0,0 km/h (0 Bft)
25.02.2017 07:54 -5,2 °C -5,2 °C 94 % 1023,6 hPa 0,0 mm 0,0 km/h (0 Bft) SW 221 ° 0 min 0,000 mm 0,0 UV-I 11 W/m² -6,0 °C -5,2 °C 0,0 km/h (0 Bft)
25.02.2017 07:55 -5,3 °C -5,2 °C 93 % 1023,6 hPa 0,0 mm 0,0 km/h (0 Bft) SW 221 ° 0 min 0,000 mm 0,0 UV-I 11 W/m² -6,2 °C -5,3 °C 0,0 km/h (0 Bft)
25.02.2017 07:56 -5,3 °C -5,3 °C 93 % 1023,6 hPa 0,0 mm 0,0 km/h (0 Bft) SW 221 ° 0 min 0,000 mm 0,0 UV-I 12 W/m² -6,2 °C -5,3 °C 0,0 km/h (0 Bft)
25.02.2017 07:57 -5,4 °C -5,3 °C 93 % 1023,6 hPa 0,0 mm 0,0 km/h (0 Bft) SW 221 ° 0 min 0,000 mm 0,0 UV-I 12 W/m² -6,3 °C -5,4 °C 0,0 km/h (0 Bft)
25.02.2017 07:58 -5,4 °C -5,4 °C 94 % 1023,6 hPa 0,0 mm 0,0 km/h (0 Bft) SW 221 ° 0 min 0,000 mm 0,0 UV-I 12 W/m² -6,2 °C -5,4 °C 0,0 km/h (0 Bft)
25.02.2017 07:59 -5,4 °C -5,4 °C 94 % 1023,6 hPa 0,0 mm 0,0 km/h (0 Bft) SW 221 ° 0 min 0,000 mm 0,0 UV-I 12 W/m² -6,2 °C -5,4 °C 0,0 km/h (0 Bft)
25.02.2017 08:00 -5,4 °C -5,3 °C 94 % 1023,6 hPa 0,0 mm 0,0 km/h (0 Bft) SW 221 ° 0 min 0,000 mm 0,0 UV-I 12 W/m² -6,2 °C -5,4 °C 0,0 km/h (0 Bft)
25.02.2017 08:01 -5,4 °C -5,4 °C 94 % 1023,6 hPa 0,0 mm 0,0 km/h (0 Bft) SW 221 ° 0 min 0,000 mm 0,0 UV-I 12 W/m² -6,2 °C -5,4 °C 0,0 km/h (0 Bft)
25.02.2017 08:02 -5,4 °C -5,4 °C 94 % 1023,6 hPa 0,0 mm 0,0 km/h (0 Bft) SW 221 ° 0 min 0,000 mm 0,0 UV-I 12 W/m² -6,2 °C -5,4 °C 0,0 km/h (0 Bft)
25.02.2017 08:03 -5,3 °C -5,3 °C 94 % 1023,6 hPa 0,0 mm 0,0 km/h (0 Bft) SW 221 ° 0 min 0,000 mm 0,0 UV-I 12 W/m² -6,1 °C -5,3 °C 0,0 km/h (0 Bft)
25.02.2017 08:04 -5,3 °C -5,3 °C 94 % 1023,7 hPa 0,0 mm 0,0 km/h (0 Bft) SW 221 ° 0 min 0,000 mm 0,0 UV-I 12 W/m² -6,1 °C -5,3 °C 0,0 km/h (0 Bft)
25.02.2017 08:05 -5,3 °C -5,3 °C 94 % 1023,6 hPa 0,0 mm 0,0 km/h (0 Bft) SW 221 ° 0 min 0,000 mm 0,0 UV-I 12 W/m² -6,1 °C -5,3 °C 0,0 km/h (0 Bft)
25.02.2017 08:06 -5,2 °C -5,2 °C 94 % 1023,7 hPa 0,0 mm 0,0 km/h (0 Bft) SW 221 ° 0 min 0,000 mm 0,0 UV-I 12 W/m² -6,0 °C -5,2 °C 0,0 km/h (0 Bft)
25.02.2017 08:07 -5,2 °C -5,2 °C 94 % 1023,7 hPa 0,0 mm 0,0 km/h (0 Bft) SW 221 ° 0 min 0,000 mm 0,0 UV-I 12 W/m² -6,0 °C -5,2 °C 0,0 km/h (0 Bft)
25.02.2017 08:08 -5,2 °C -5,2 °C 94 % 1023,7 hPa 0,0 mm 0,0 km/h (0 Bft) SW 221 ° 0 min 0,000 mm 0,0 UV-I 12 W/m² -6,0 °C -5,2 °C 0,0 km/h (0 Bft)
25.02.2017 08:09 -5,2 °C -5,2 °C 94 % 1023,7 hPa 0,0 mm 0,0 km/h (0 Bft) SW 221 ° 0 min 0,000 mm 0,0 UV-I 12 W/m² -6,0 °C -5,2 °C 0,0 km/h (0 Bft)
25.02.2017 08:10 -5,2 °C -5,2 °C 94 % 1023,7 hPa 0,0 mm 0,0 km/h (0 Bft) SW 221 ° 0 min 0,000 mm 0,0 UV-I 12 W/m² -6,0 °C -5,2 °C 0,0 km/h (0 Bft)
25.02.2017 08:11 -5,2 °C -5,2 °C 94 % 1023,8 hPa 0,0 mm 0,0 km/h (0 Bft) SW 221 ° 0 min 0,000 mm 0,0 UV-I 12 W/m² -6,0 °C -5,2 °C 0,0 km/h (0 Bft)
25.02.2017 08:12 -5,1 °C -5,1 °C 94 % 1023,7 hPa 0,0 mm 0,0 km/h (0 Bft) SW 221 ° 0 min 0,000 mm 0,0 UV-I 12 W/m² -5,9 °C -5,1 °C 0,0 km/h (0 Bft)
25.02.2017 08:13 -5,1 °C -5,1 °C 94 % 1023,8 hPa 0,0 mm 0,0 km/h (0 Bft) SW 221 ° 0 min 0,000 mm 0,0 UV-I 12 W/m² -5,9 °C -5,1 °C 0,0 km/h (0 Bft)
25.02.2017 08:14 -5,2 °C -5,1 °C 94 % 1023,8 hPa 0,0 mm 0,0 km/h (0 Bft) SW 221 ° 0 min 0,000 mm 0,0 UV-I 14 W/m² -6,0 °C -5,2 °C 0,0 km/h (0 Bft)
25.02.2017 08:15 -5,2 °C -5,2 °C 94 % 1023,8 hPa 0,0 mm 0,0 km/h (0 Bft) SW 221 ° 0 min 0,000 mm 0,0 UV-I 14 W/m² -6,0 °C -5,2 °C 0,0 km/h (0 Bft)
25.02.2017 08:16 -5,2 °C -5,2 °C 94 % 1023,8 hPa 0,0 mm 0,0 km/h (0 Bft) SW 221 ° 0 min 0,000 mm 0,0 UV-I 14 W/m² -6,0 °C -5,2 °C 0,0 km/h (0 Bft)
25.02.2017 08:17 -5,2 °C -5,2 °C 94 % 1023,8 hPa 0,0 mm 0,0 km/h (0 Bft) SW 221 ° 0 min 0,000 mm 0,0 UV-I 14 W/m² -6,0 °C -5,2 °C 0,0 km/h (0 Bft)
25.02.2017 08:18 -5,2 °C -5,2 °C 94 % 1023,8 hPa 0,0 mm 0,0 km/h (0 Bft) SW 221 ° 0 min 0,000 mm 0,0 UV-I 14 W/m² -6,0 °C -5,2 °C 0,0 km/h (0 Bft)
25.02.2017 08:19 -5,2 °C -5,1 °C 94 % 1023,8 hPa 0,0 mm 0,0 km/h (0 Bft) SW 221 ° 0 min 0,000 mm 0,0 UV-I 14 W/m² -6,0 °C -5,2 °C 0,0 km/h (0 Bft)
25.02.2017 08:20 -5,2 °C -5,2 °C 94 % 1023,8 hPa 0,0 mm 0,0 km/h (0 Bft) SW 221 ° 0 min 0,000 mm 0,0 UV-I 14 W/m² -6,0 °C -5,2 °C 0,0 km/h (0 Bft)
25.02.2017 08:21 -5,1 °C -5,1 °C 94 % 1023,8 hPa 0,0 mm 0,0 km/h (0 Bft) SW 221 ° 0 min 0,000 mm 0,0 UV-I 16 W/m² -5,9 °C -5,1 °C 0,0 km/h (0 Bft)
25.02.2017 08:22 -5,1 °C -5,1 °C 94 % 1023,8 hPa 0,0 mm 0,0 km/h (0 Bft) SW 221 ° 0 min 0,000 mm 0,0 UV-I 16 W/m² -5,9 °C -5,1 °C 0,0 km/h (0 Bft)
25.02.2017 08:23 -5,1 °C -5,1 °C 94 % 1023,8 hPa 0,0 mm 0,0 km/h (0 Bft) SW 221 ° 0 min 0,000 mm 0,0 UV-I 16 W/m² -5,9 °C -5,1 °C 0,0 km/h (0 Bft)
25.02.2017 08:24 -5,1 °C -5,1 °C 94 % 1023,8 hPa 0,0 mm 0,0 km/h (0 Bft) SW 221 ° 0 min 0,000 mm 0,0 UV-I 16 W/m² -5,9 °C -5,1 °C 0,0 km/h (0 Bft)
25.02.2017 08:25 -5,0 °C -5,0 °C 94 % 1023,8 hPa 0,0 mm 0,0 km/h (0 Bft) SW 221 ° 0 min 0,000 mm 0,0 UV-I 18 W/m² -5,8 °C -5,0 °C 0,0 km/h (0 Bft)
25.02.2017 08:26 -4,9 °C -4,9 °C 94 % 1023,8 hPa 0,0 mm 0,0 km/h (0 Bft) SW 221 ° 0 min 0,000 mm 0,0 UV-I 18 W/m² -5,7 °C -4,9 °C 0,0 km/h (0 Bft)
25.02.2017 08:27 -4,9 °C -4,8 °C 94 % 1023,8 hPa 0,0 mm 0,0 km/h (0 Bft) SW 221 ° 0 min 0,000 mm 0,0 UV-I 18 W/m² -5,7 °C -4,9 °C 0,0 km/h (0 Bft)
25.02.2017 08:28 -4,8 °C -4,8 °C 94 % 1023,8 hPa 0,0 mm 0,0 km/h (0 Bft) SW 221 ° 0 min 0,000 mm 0,0 UV-I 18 W/m² -5,6 °C -4,8 °C 0,0 km/h (0 Bft)
25.02.2017 08:29 -4,7 °C -4,7 °C 95 % 1023,8 hPa 0,0 mm 0,0 km/h (0 Bft) SW 221 ° 0 min 0,000 mm 0,0 UV-I 18 W/m² -5,4 °C -4,7 °C 0,0 km/h (0 Bft)
25.02.2017 08:30 -4,7 °C -4,7 °C 94 % 1023,8 hPa 0,0 mm 0,0 km/h (0 Bft) SW 221 ° 0 min 0,000 mm 0,0 UV-I 18 W/m² -5,5 °C -4,7 °C 0,0 km/h (0 Bft)
25.02.2017 08:31 -4,7 °C -4,7 °C 94 % 1023,8 hPa 0,0 mm 0,0 km/h (0 Bft) SW 221 ° 0 min 0,000 mm 0,0 UV-I 19 W/m² -5,5 °C -4,7 °C 0,0 km/h (0 Bft)
25.02.2017 08:32 -4,6 °C -4,6 °C 94 % 1023,8 hPa 0,0 mm 0,0 km/h (0 Bft) SW 221 ° 0 min 0,000 mm 0,0 UV-I 19 W/m² -5,4 °C -4,6 °C 0,0 km/h (0 Bft)
25.02.2017 08:33 -4,6 °C -4,6 °C 94 % 1023,8 hPa 0,0 mm 0,0 km/h (0 Bft) SW 221 ° 0 min 0,000 mm 0,0 UV-I 19 W/m² -5,4 °C -4,6 °C 0,0 km/h (0 Bft)
25.02.2017 08:34 -4,6 °C -4,6 °C 94 % 1023,8 hPa 0,0 mm 0,0 km/h (0 Bft) SW 221 ° 0 min 0,000 mm 0,0 UV-I 19 W/m² -5,4 °C -4,6 °C 0,0 km/h (0 Bft)
25.02.2017 08:35 -4,6 °C -4,6 °C 94 % 1023,8 hPa 0,0 mm 0,0 km/h (0 Bft) SW 221 ° 0 min 0,000 mm 0,0 UV-I 19 W/m² -5,4 °C -4,6 °C 0,0 km/h (0 Bft)
25.02.2017 08:36 -4,6 °C -4,6 °C 94 % 1023,8 hPa 0,0 mm 0,0 km/h (0 Bft) SW 221 ° 0 min 0,000 mm 0,0 UV-I 19 W/m² -5,4 °C -4,6 °C 0,0 km/h (0 Bft)
25.02.2017 08:37 -4,6 °C -4,6 °C 94 % 1023,9 hPa 0,0 mm 0,0 km/h (0 Bft) SW 221 ° 0 min 0,000 mm 0,0 UV-I 19 W/m² -5,4 °C -4,6 °C 0,0 km/h (0 Bft)
25.02.2017 08:38 -4,6 °C -4,6 °C 94 % 1023,9 hPa 0,0 mm 0,0 km/h (0 Bft) SW 221 ° 0 min 0,000 mm 0,0 UV-I 19 W/m² -5,4 °C -4,6 °C 0,0 km/h (0 Bft)
25.02.2017 08:39 -4,6 °C -4,6 °C 94 % 1023,9 hPa 0,0 mm 0,0 km/h (0 Bft) SW 221 ° 0 min 0,000 mm 0,0 UV-I 19 W/m² -5,4 °C -4,6 °C 0,0 km/h (0 Bft)
25.02.2017 08:40 -4,6 °C -4,6 °C 94 % 1023,8 hPa 0,0 mm 0,0 km/h (0 Bft) SW 221 ° 0 min 0,000 mm 0,0 UV-I 19 W/m² -5,4 °C -4,6 °C 0,0 km/h (0 Bft)
25.02.2017 08:41 -4,7 °C -4,6 °C 94 % 1023,9 hPa 0,0 mm 0,0 km/h (0 Bft) SW 221 ° 0 min 0,000 mm 0,0 UV-I 19 W/m² -5,5 °C -4,7 °C 0,0 km/h (0 Bft)
25.02.2017 08:42 -4,7 °C -4,6 °C 94 % 1023,9 hPa 0,0 mm 0,0 km/h (0 Bft) SW 221 ° 0 min 0,000 mm 0,0 UV-I 19 W/m² -5,5 °C -4,7 °C 0,0 km/h (0 Bft)
25.02.2017 08:43 -4,7 °C -4,7 °C 94 % 1023,9 hPa 0,0 mm 0,0 km/h (0 Bft) SW 221 ° 0 min 0,000 mm 0,0 UV-I 19 W/m² -5,5 °C -4,7 °C 0,0 km/h (0 Bft)
25.02.2017 08:44 -4,7 °C -4,7 °C 94 % 1023,9 hPa 0,0 mm 0,0 km/h (0 Bft) SW 221 ° 0 min 0,000 mm 0,0 UV-I 19 W/m² -5,5 °C -4,7 °C 0,0 km/h (0 Bft)
25.02.2017 08:45 -4,7 °C -4,7 °C 94 % 1023,9 hPa 0,0 mm 0,0 km/h (0 Bft) SW 221 ° 0 min 0,000 mm 0,0 UV-I 19 W/m² -5,5 °C -4,7 °C 0,0 km/h (0 Bft)
25.02.2017 08:46 -4,7 °C -4,7 °C 94 % 1023,9 hPa 0,0 mm 0,0 km/h (0 Bft) SW 221 ° 0 min 0,000 mm 0,0 UV-I 19 W/m² -5,5 °C -4,7 °C 0,0 km/h (0 Bft)
25.02.2017 08:47 -4,6 °C -4,6 °C 94 % 1023,9 hPa 0,0 mm 0,0 km/h (0 Bft) SW 221 ° 0 min 0,000 mm 0,0 UV-I 19 W/m² -5,4 °C -4,6 °C 0,0 km/h (0 Bft)
25.02.2017 08:48 -4,6 °C -4,6 °C 94 % 1023,9 hPa 0,0 mm 0,0 km/h (0 Bft) SW 221 ° 0 min 0,000 mm 0,0 UV-I 19 W/m² -5,4 °C -4,6 °C 0,0 km/h (0 Bft)
25.02.2017 08:49 -4,5 °C -4,5 °C 94 % 1023,9 hPa 0,0 mm 0,0 km/h (0 Bft) SW 221 ° 0 min 0,000 mm 0,0 UV-I 19 W/m² -5,3 °C -4,5 °C 0,0 km/h (0 Bft)
25.02.2017 08:50 -4,4 °C -4,4 °C 94 % 1024,0 hPa 0,0 mm 0,0 km/h (0 Bft) SW 221 ° 0 min 0,000 mm 0,0 UV-I 19 W/m² -5,2 °C -4,4 °C 0,0 km/h (0 Bft)
25.02.2017 08:51 -4,3 °C -4,3 °C 95 % 1024,0 hPa 0,0 mm 0,0 km/h (0 Bft) SW 221 ° 0 min 0,000 mm 0,0 UV-I 19 W/m² -5,0 °C -4,3 °C 0,0 km/h (0 Bft)
25.02.2017 08:52 -4,3 °C -4,2 °C 95 % 1024,0 hPa 0,0 mm 0,0 km/h (0 Bft) SW 221 ° 0 min 0,000 mm 0,0 UV-I 19 W/m² -5,0 °C -4,3 °C 0,0 km/h (0 Bft)
25.02.2017 08:53 -4,2 °C -4,2 °C 95 % 1024,0 hPa 0,0 mm 0,0 km/h (0 Bft) SW 221 ° 0 min 0,000 mm 0,0 UV-I 19 W/m² -4,9 °C -4,2 °C 0,0 km/h (0 Bft)
25.02.2017 08:54 -4,2 °C -4,2 °C 95 % 1024,0 hPa 0,0 mm 0,0 km/h (0 Bft) SW 221 ° 0 min 0,000 mm 0,0 UV-I 18 W/m² -4,9 °C -4,2 °C 0,0 km/h (0 Bft)
25.02.2017 08:55 -4,1 °C -4,1 °C 95 % 1024,0 hPa 0,0 mm 0,0 km/h (0 Bft) SW 221 ° 0 min 0,000 mm 0,0 UV-I 18 W/m² -4,8 °C -4,1 °C 0,0 km/h (0 Bft)
25.02.2017 08:56 -4,1 °C -4,1 °C 95 % 1024,0 hPa 0,0 mm 0,0 km/h (0 Bft) SW 221 ° 0 min 0,000 mm 0,0 UV-I 18 W/m² -4,8 °C -4,1 °C 0,0 km/h (0 Bft)
25.02.2017 08:57 -4,0 °C -4,0 °C 95 % 1024,0 hPa 0,0 mm 0,0 km/h (0 Bft) SW 221 ° 0 min 0,000 mm 0,0 UV-I 18 W/m² -4,7 °C -4,0 °C 0,0 km/h (0 Bft)
25.02.2017 08:58 -3,9 °C -3,9 °C 95 % 1024,0 hPa 0,0 mm 0,0 km/h (0 Bft) SW 221 ° 0 min 0,000 mm 0,0 UV-I 18 W/m² -4,6 °C -3,9 °C 0,0 km/h (0 Bft)
25.02.2017 08:59 -3,9 °C -3,9 °C 95 % 1024,0 hPa 0,0 mm 0,0 km/h (0 Bft) SW 221 ° 0 min 0,000 mm 0,0 UV-I 18 W/m² -4,6 °C -3,9 °C 0,0 km/h (0 Bft)
25.02.2017 09:00 -3,8 °C -3,8 °C 95 % 1024,0 hPa 0,0 mm 0,0 km/h (0 Bft) SW 221 ° 0 min 0,000 mm 0,0 UV-I 18 W/m² -4,5 °C -3,8 °C 0,0 km/h (0 Bft)
25.02.2017 09:01 -3,7 °C -3,7 °C 95 % 1024,0 hPa 0,0 mm 0,0 km/h (0 Bft) SW 221 ° 0 min 0,000 mm 0,0 UV-I 18 W/m² -4,4 °C -3,7 °C 0,0 km/h (0 Bft)
25.02.2017 09:02 -3,6 °C -3,6 °C 95 % 1024,0 hPa 0,0 mm 0,0 km/h (0 Bft) SW 221 ° 0 min 0,000 mm 0,0 UV-I 18 W/m² -4,3 °C -3,6 °C 0,0 km/h (0 Bft)
25.02.2017 09:03 -3,6 °C -3,6 °C 95 % 1024,0 hPa 0,0 mm 0,0 km/h (0 Bft) SW 221 ° 0 min 0,000 mm 0,0 UV-I 18 W/m² -4,3 °C -3,6 °C 0,0 km/h (0 Bft)
25.02.2017 09:04 -3,5 °C -3,5 °C 95 % 1024,0 hPa 0,0 mm 0,0 km/h (0 Bft) SW 221 ° 0 min 0,000 mm 0,0 UV-I 18 W/m² -4,2 °C -3,5 °C 0,0 km/h (0 Bft)
25.02.2017 09:05 -3,4 °C -3,4 °C 95 % 1024,1 hPa 0,0 mm 0,0 km/h (0 Bft) SW 221 ° 0 min 0,000 mm 0,0 UV-I 19 W/m² -4,1 °C -3,4 °C 0,0 km/h (0 Bft)
25.02.2017 09:06 -3,4 °C -3,4 °C 95 % 1024,0 hPa 0,0 mm 0,0 km/h (0 Bft) SW 221 ° 0 min 0,000 mm 0,0 UV-I 19 W/m² -4,1 °C -3,4 °C 0,0 km/h (0 Bft)
25.02.2017 09:07 -3,4 °C -3,4 °C 95 % 1024,0 hPa 0,0 mm 0,0 km/h (0 Bft) SW 221 ° 0 min 0,000 mm 0,0 UV-I 21 W/m² -4,1 °C -3,4 °C 0,0 km/h (0 Bft)
25.02.2017 09:08 -3,3 °C -3,3 °C 95 % 1024,0 hPa 0,0 mm 0,0 km/h (0 Bft) SW 221 ° 0 min 0,000 mm 0,0 UV-I 21 W/m² -4,0 °C -3,3 °C 0,0 km/h (0 Bft)
25.02.2017 09:09 -3,3 °C -3,3 °C 95 % 1024,0 hPa 0,0 mm 0,0 km/h (0 Bft) SW 221 ° 0 min 0,000 mm 0,0 UV-I 21 W/m² -4,0 °C -3,3 °C 0,0 km/h (0 Bft)
25.02.2017 09:10 -3,2 °C -3,2 °C 95 % 1024,0 hPa 0,0 mm 0,0 km/h (0 Bft) SW 221 ° 0 min 0,000 mm 0,0 UV-I 23 W/m² -3,9 °C -3,2 °C 0,0 km/h (0 Bft)
25.02.2017 09:11 -3,2 °C -3,2 °C 95 % 1024,0 hPa 0,0 mm 0,0 km/h (0 Bft) SW 221 ° 0 min 0,000 mm 0,0 UV-I 23 W/m² -3,9 °C -3,2 °C 0,0 km/h (0 Bft)
25.02.2017 09:12 -3,2 °C -3,2 °C 95 % 1024,0 hPa 0,0 mm 0,0 km/h (0 Bft) SW 221 ° 0 min 0,000 mm 0,0 UV-I 23 W/m² -3,9 °C -3,2 °C 0,0 km/h (0 Bft)
25.02.2017 09:13 -3,2 °C -3,2 °C 95 % 1024,0 hPa 0,0 mm 0,0 km/h (0 Bft) SW 221 ° 0 min 0,000 mm 0,0 UV-I 21 W/m² -3,9 °C -3,2 °C 0,0 km/h (0 Bft)
25.02.2017 09:14 -3,1 °C -3,1 °C 95 % 1024,0 hPa 0,0 mm 0,0 km/h (0 Bft) SW 220 ° 0 min 0,000 mm 0,0 UV-I 21 W/m² -3,8 °C -3,1 °C 0,0 km/h (0 Bft)
25.02.2017 09:15 -3,1 °C -3,1 °C 95 % 1024,1 hPa 0,0 mm 0,0 km/h (0 Bft) SW 220 ° 0 min 0,000 mm 0,0 UV-I 21 W/m² -3,8 °C -3,1 °C 0,0 km/h (0 Bft)
25.02.2017 09:16 -3,1 °C -3,1 °C 95 % 1024,1 hPa 0,0 mm 0,0 km/h (0 Bft) SW 220 ° 0 min 0,000 mm 0,0 UV-I 21 W/m² -3,8 °C -3,1 °C 0,0 km/h (0 Bft)
25.02.2017 09:17 -3,0 °C -3,0 °C 95 % 1024,1 hPa 0,0 mm 0,0 km/h (0 Bft) SW 220 ° 0 min 0,000 mm 0,0 UV-I 19 W/m² -3,7 °C -3,0 °C 0,0 km/h (0 Bft)
25.02.2017 09:18 -2,9 °C -2,9 °C 95 % 1024,1 hPa 0,0 mm 0,0 km/h (0 Bft) SW 220 ° 0 min 0,000 mm 0,0 UV-I 19 W/m² -3,6 °C -2,9 °C 0,0 km/h (0 Bft)
25.02.2017 09:19 -2,9 °C -2,9 °C 95 % 1024,1 hPa 0,0 mm 0,0 km/h (0 Bft) SW 220 ° 0 min 0,000 mm 0,0 UV-I 19 W/m² -3,6 °C -2,9 °C 0,0 km/h (0 Bft)
25.02.2017 09:20 -2,8 °C -2,8 °C 95 % 1024,2 hPa 0,0 mm 0,0 km/h (0 Bft) SW 220 ° 0 min 0,000 mm 0,0 UV-I 19 W/m² -3,5 °C -2,8 °C 0,0 km/h (0 Bft)
25.02.2017 09:21 -2,8 °C -2,8 °C 95 % 1024,2 hPa 0,0 mm 0,0 km/h (0 Bft) SW 220 ° 0 min 0,000 mm 0,0 UV-I 19 W/m² -3,5 °C -2,8 °C 0,0 km/h (0 Bft)
25.02.2017 09:22 -2,8 °C -2,8 °C 95 % 1024,2 hPa 0,0 mm 0,0 km/h (0 Bft) SW 220 ° 0 min 0,000 mm 0,0 UV-I 19 W/m² -3,5 °C -2,8 °C 0,0 km/h (0 Bft)
25.02.2017 09:23 -2,8 °C -2,8 °C 95 % 1024,2 hPa 0,0 mm 0,0 km/h (0 Bft) SW 220 ° 0 min 0,000 mm 0,0 UV-I 19 W/m² -3,5 °C -2,8 °C 0,0 km/h (0 Bft)
25.02.2017 09:24 -2,8 °C -2,8 °C 95 % 1024,2 hPa 0,0 mm 0,0 km/h (0 Bft) SW 220 ° 0 min 0,000 mm 0,0 UV-I 19 W/m² -3,5 °C -2,8 °C 0,0 km/h (0 Bft)
25.02.2017 09:25 -2,8 °C -2,8 °C 95 % 1024,2 hPa 0,0 mm 0,0 km/h (0 Bft) SW 220 ° 0 min 0,000 mm 0,0 UV-I 19 W/m² -3,5 °C -2,8 °C 0,0 km/h (0 Bft)
25.02.2017 09:26 -2,9 °C -2,8 °C 95 % 1024,2 hPa 0,0 mm 0,0 km/h (0 Bft) SW 220 ° 0 min 0,000 mm 0,0 UV-I 19 W/m² -3,6 °C -2,9 °C 0,0 km/h (0 Bft)
25.02.2017 09:27 -2,9 °C -2,9 °C 95 % 1024,2 hPa 0,0 mm 0,0 km/h (0 Bft) SW 220 ° 0 min 0,000 mm 0,0 UV-I 19 W/m² -3,6 °C -2,9 °C 0,0 km/h (0 Bft)
25.02.2017 09:28 -2,9 °C -2,9 °C 94 % 1024,2 hPa 0,0 mm 0,0 km/h (0 Bft) SW 220 ° 0 min 0,000 mm 0,0 UV-I 19 W/m² -3,7 °C -2,9 °C 0,0 km/h (0 Bft)
25.02.2017 09:29 -2,9 °C -2,9 °C 95 % 1024,2 hPa 0,0 mm 0,0 km/h (0 Bft) SW 220 ° 0 min 0,000 mm 0,0 UV-I 19 W/m² -3,6 °C -2,9 °C 0,0 km/h (0 Bft)
25.02.2017 09:30 -2,9 °C -2,9 °C 95 % 1024,2 hPa 0,0 mm 0,0 km/h (0 Bft) SW 220 ° 0 min 0,000 mm 0,0 UV-I 19 W/m² -3,6 °C -2,9 °C 0,0 km/h (0 Bft)
25.02.2017 09:31 -2,9 °C -2,9 °C 95 % 1024,2 hPa 0,0 mm 0,0 km/h (0 Bft) SW 220 ° 0 min 0,000 mm 0,0 UV-I 19 W/m² -3,6 °C -2,9 °C 0,0 km/h (0 Bft)
25.02.2017 09:32 -2,9 °C -2,9 °C 95 % 1024,2 hPa 0,0 mm 0,0 km/h (0 Bft) SW 220 ° 0 min 0,000 mm 0,0 UV-I 19 W/m² -3,6 °C -2,9 °C 0,0 km/h (0 Bft)
25.02.2017 09:33 -2,9 °C -2,8 °C 95 % 1024,3 hPa 0,0 mm 0,0 km/h (0 Bft) SW 220 ° 0 min 0,000 mm 0,0 UV-I 19 W/m² -3,6 °C -2,9 °C 0,0 km/h (0 Bft)
25.02.2017 09:34 -2,9 °C -2,9 °C 95 % 1024,3 hPa 0,0 mm 0,0 km/h (0 Bft) SW 220 ° 0 min 0,000 mm 0,0 UV-I 19 W/m² -3,6 °C -2,9 °C 0,0 km/h (0 Bft)
25.02.2017 09:35 -2,8 °C -2,8 °C 95 % 1024,3 hPa 0,0 mm 0,0 km/h (0 Bft) SW 220 ° 0 min 0,000 mm 0,0 UV-I 19 W/m² -3,5 °C -2,8 °C 0,0 km/h (0 Bft)
25.02.2017 09:36 -2,8 °C -2,8 °C 95 % 1024,3 hPa 0,0 mm 0,0 km/h (0 Bft) SW 220 ° 0 min 0,000 mm 0,0 UV-I 21 W/m² -3,5 °C -2,8 °C 0,0 km/h (0 Bft)
25.02.2017 09:37 -2,7 °C -2,7 °C 95 % 1024,3 hPa 0,0 mm 0,5 km/h (0 Bft) SW 220 ° 0 min 0,000 mm 0,0 UV-I 21 W/m² -3,4 °C -2,7 °C 3,2 km/h (1 Bft)
25.02.2017 09:38 -2,7 °C -2,6 °C 95 % 1024,3 hPa 0,0 mm 1,7 km/h (1 Bft) SW 220 ° 0 min 0,000 mm 0,0 UV-I 21 W/m² -3,4 °C -2,7 °C 3,2 km/h (1 Bft)
25.02.2017 09:39 -2,6 °C -2,6 °C 95 % 1024,3 hPa 0,0 mm 1,5 km/h (1 Bft) SW 220 ° 0 min 0,000 mm 0,0 UV-I 21 W/m² -3,3 °C -2,6 °C 3,2 km/h (1 Bft)
25.02.2017 09:40 -2,5 °C -2,5 °C 95 % 1024,4 hPa 0,0 mm 1,6 km/h (1 Bft) SW 220 ° 0 min 0,000 mm 0,0 UV-I 21 W/m² -3,2 °C -2,5 °C 3,2 km/h (1 Bft)
25.02.2017 09:41 -2,4 °C -2,4 °C 95 % 1024,4 hPa 0,0 mm 1,5 km/h (1 Bft) SW 220 ° 0 min 0,000 mm 0,0 UV-I 21 W/m² -3,1 °C -2,4 °C 1,6 km/h (1 Bft)
25.02.2017 09:42 -2,4 °C -2,4 °C 95 % 1024,4 hPa 0,0 mm 1,3 km/h (1 Bft) SW 220 ° 0 min 0,000 mm 0,0 UV-I 23 W/m² -3,1 °C -2,4 °C 1,6 km/h (1 Bft)
25.02.2017 09:43 -2,4 °C -2,4 °C 95 % 1024,5 hPa 0,0 mm 0,7 km/h (0 Bft) SW 220 ° 0 min 0,000 mm 0,0 UV-I 23 W/m² -3,1 °C -2,4 °C 1,6 km/h (1 Bft)
25.02.2017 09:44 -2,4 °C -2,4 °C 95 % 1024,4 hPa 0,0 mm 0,7 km/h (0 Bft) SW 220 ° 0 min 0,000 mm 0,0 UV-I 23 W/m² -3,1 °C -2,4 °C 1,6 km/h (1 Bft)
25.02.2017 09:45 -2,3 °C -2,3 °C 95 % 1024,5 hPa 0,0 mm 0,1 km/h (0 Bft) SW 220 ° 0 min 0,000 mm 0,0 UV-I 23 W/m² -3,0 °C -2,3 °C 1,6 km/h (1 Bft)
25.02.2017 09:46 -2,3 °C -2,3 °C 95 % 1024,4 hPa 0,0 mm 0,1 km/h (0 Bft) SW 220 ° 0 min 0,000 mm 0,0 UV-I 23 W/m² -3,0 °C -2,3 °C 1,6 km/h (1 Bft)
25.02.2017 09:47 -2,3 °C -2,3 °C 95 % 1024,4 hPa 0,0 mm 0,0 km/h (0 Bft) SW 220 ° 0 min 0,000 mm 0,0 UV-I 25 W/m² -3,0 °C -2,3 °C 0,0 km/h (0 Bft)
25.02.2017 09:48 -2,3 °C -2,3 °C 95 % 1024,4 hPa 0,0 mm 0,0 km/h (0 Bft) SW 220 ° 0 min 0,000 mm 0,0 UV-I 26 W/m² -3,0 °C -2,3 °C 0,0 km/h (0 Bft)
25.02.2017 09:49 -2,3 °C -2,2 °C 95 % 1024,4 hPa 0,0 mm 0,0 km/h (0 Bft) SW 220 ° 0 min 0,000 mm 0,0 UV-I 26 W/m² -3,0 °C -2,3 °C 0,0 km/h (0 Bft)
25.02.2017 09:50 -2,2 °C -2,2 °C 95 % 1024,5 hPa 0,0 mm 0,1 km/h (0 Bft) SW 220 ° 0 min 0,000 mm 0,0 UV-I 28 W/m² -2,9 °C -2,2 °C 1,6 km/h (1 Bft)
25.02.2017 09:51 -2,2 °C -2,2 °C 95 % 1024,5 hPa 0,0 mm 0,0 km/h (0 Bft) SW 220 ° 0 min 0,000 mm 0,0 UV-I 28 W/m² -2,9 °C -2,2 °C 0,0 km/h (0 Bft)
25.02.2017 09:52 -2,1 °C -2,1 °C 95 % 1024,5 hPa 0,0 mm 0,5 km/h (0 Bft) SW 220 ° 0 min 0,000 mm 0,0 UV-I 26 W/m² -2,8 °C -2,1 °C 3,2 km/h (1 Bft)
25.02.2017 09:53 -2,1 °C -2,1 °C 95 % 1024,6 hPa 0,0 mm 0,8 km/h (0 Bft) SW 220 ° 0 min 0,000 mm 0,0 UV-I 30 W/m² -2,8 °C -2,1 °C 3,2 km/h (1 Bft)
25.02.2017 09:54 -2,1 °C -2,1 °C 95 % 1024,6 hPa 0,0 mm 0,4 km/h (0 Bft) SW 220 ° 0 min 0,000 mm 0,0 UV-I 32 W/m² -2,8 °C -2,1 °C 1,6 km/h (1 Bft)
25.02.2017 09:55 -2,0 °C -2,0 °C 95 % 1024,6 hPa 0,0 mm 0,1 km/h (0 Bft) SW 220 ° 0 min 0,000 mm 0,0 UV-I 35 W/m² -2,7 °C -2,0 °C 1,6 km/h (1 Bft)
25.02.2017 09:56 -1,9 °C -1,9 °C 95 % 1024,6 hPa 0,0 mm 0,2 km/h (0 Bft) SW 220 ° 0 min 0,000 mm 0,0 UV-I 37 W/m² -2,6 °C -1,9 °C 1,6 km/h (1 Bft)
25.02.2017 09:57 -1,8 °C -1,8 °C 95 % 1024,6 hPa 0,0 mm 0,5 km/h (0 Bft) SW 220 ° 0 min 0,000 mm 0,0 UV-I 35 W/m² -2,5 °C -1,8 °C 3,2 km/h (1 Bft)
25.02.2017 09:58 -1,8 °C -1,8 °C 95 % 1024,6 hPa 0,0 mm 1,0 km/h (0 Bft) SW 220 ° 0 min 0,000 mm 0,0 UV-I 32 W/m² -2,5 °C -1,8 °C 3,2 km/h (1 Bft)
25.02.2017 09:59 -1,8 °C -1,8 °C 95 % 1024,7 hPa 0,0 mm 0,3 km/h (0 Bft) SW 220 ° 0 min 0,000 mm 0,0 UV-I 28 W/m² -2,5 °C -1,8 °C 1,6 km/h (1 Bft)
25.02.2017 10:00 -1,7 °C -1,7 °C 95 % 1024,7 hPa 0,0 mm 0,0 km/h (0 Bft) SW 220 ° 0 min 0,000 mm 0,0 UV-I 28 W/m² -2,4 °C -1,7 °C 0,0 km/h (0 Bft)
25.02.2017 10:01 -1,7 °C -1,7 °C 95 % 1024,7 hPa 0,0 mm 0,0 km/h (0 Bft) SW 220 ° 0 min 0,000 mm 0,0 UV-I 32 W/m² -2,4 °C -1,7 °C 0,0 km/h (0 Bft)
25.02.2017 10:02 -1,6 °C -1,6 °C 95 % 1024,7 hPa 0,0 mm 0,0 km/h (0 Bft) SW 220 ° 0 min 0,000 mm 0,0 UV-I 32 W/m² -2,3 °C -1,6 °C 0,0 km/h (0 Bft)
25.02.2017 10:03 -1,7 °C -1,6 °C 95 % 1024,7 hPa 0,0 mm 0,0 km/h (0 Bft) SW 220 ° 0 min 0,000 mm 0,0 UV-I 30 W/m² -2,4 °C -1,7 °C 0,0 km/h (0 Bft)
25.02.2017 10:04 -1,6 °C -1,6 °C 95 % 1024,7 hPa 0,0 mm 0,0 km/h (0 Bft) SW 220 ° 0 min 0,000 mm 0,0 UV-I 30 W/m² -2,3 °C -1,6 °C 0,0 km/h (0 Bft)
25.02.2017 10:05 -1,6 °C -1,6 °C 95 % 1024,7 hPa 0,0 mm 0,0 km/h (0 Bft) SW 220 ° 0 min 0,000 mm 0,0 UV-I 30 W/m² -2,3 °C -1,6 °C 0,0 km/h (0 Bft)
25.02.2017 10:06 -1,6 °C -1,6 °C 95 % 1024,7 hPa 0,0 mm 0,1 km/h (0 Bft) SW 220 ° 0 min 0,000 mm 0,0 UV-I 28 W/m² -2,3 °C -1,6 °C 1,6 km/h (1 Bft)
25.02.2017 10:07 -1,6 °C -1,6 °C 95 % 1024,6 hPa 0,0 mm 0,2 km/h (0 Bft) SW 220 ° 0 min 0,000 mm 0,0 UV-I 28 W/m² -2,3 °C -1,6 °C 1,6 km/h (1 Bft)
25.02.2017 10:08 -1,6 °C -1,6 °C 95 % 1024,7 hPa 0,0 mm 0,0 km/h (0 Bft) SW 220 ° 0 min 0,000 mm 0,0 UV-I 28 W/m² -2,3 °C -1,6 °C 0,0 km/h (0 Bft)
25.02.2017 10:09 -1,6 °C -1,6 °C 95 % 1024,7 hPa 0,0 mm 0,2 km/h (0 Bft) SW 220 ° 0 min 0,000 mm 0,0 UV-I 28 W/m² -2,3 °C -1,6 °C 1,6 km/h (1 Bft)
25.02.2017 10:10 -1,6 °C -1,6 °C 95 % 1024,7 hPa 0,0 mm 1,9 km/h (1 Bft) S-SW 210 ° 0 min 0,000 mm 0,0 UV-I 28 W/m² -2,3 °C -1,6 °C 3,2 km/h (1 Bft)
25.02.2017 10:11 -1,6 °C -1,6 °C 95 % 1024,7 hPa 0,0 mm 0,2 km/h (0 Bft) S-SW 210 ° 0 min 0,000 mm 0,0 UV-I 28 W/m² -2,3 °C -1,6 °C 1,6 km/h (1 Bft)
25.02.2017 10:12 -1,6 °C -1,5 °C 95 % 1024,7 hPa 0,0 mm 0,3 km/h (0 Bft) S-SW 210 ° 0 min 0,000 mm 0,0 UV-I 28 W/m² -2,3 °C -1,6 °C 1,6 km/h (1 Bft)
25.02.2017 10:13 -1,5 °C -1,5 °C 95 % 1024,7 hPa 0,0 mm 0,6 km/h (0 Bft) S-SW 210 ° 0 min 0,000 mm 0,0 UV-I 28 W/m² -2,2 °C -1,5 °C 1,6 km/h (1 Bft)
25.02.2017 10:14 -1,4 °C -1,4 °C 95 % 1024,7 hPa 0,0 mm 0,0 km/h (0 Bft) S-SW 211 ° 0 min 0,000 mm 0,0 UV-I 28 W/m² -2,1 °C -1,4 °C 0,0 km/h (0 Bft)
25.02.2017 10:15 -1,4 °C -1,4 °C 95 % 1024,7 hPa 0,0 mm 0,1 km/h (0 Bft) S-SW 210 ° 0 min 0,000 mm 0,0 UV-I 28 W/m² -2,1 °C -1,4 °C 3,2 km/h (1 Bft)
25.02.2017 10:16 -1,4 °C -1,4 °C 95 % 1024,7 hPa 0,0 mm 2,3 km/h (1 Bft) S-SO 148 ° 0 min 0,000 mm 0,0 UV-I 30 W/m² -2,1 °C -1,4 °C 3,2 km/h (1 Bft)
25.02.2017 10:17 -1,4 °C -1,4 °C 95 % 1024,8 hPa 0,0 mm 0,1 km/h (0 Bft) S-SO 148 ° 0 min 0,000 mm 0,0 UV-I 35 W/m² -2,1 °C -1,4 °C 1,6 km/h (1 Bft)
25.02.2017 10:18 -1,3 °C -1,3 °C 95 % 1024,7 hPa 0,0 mm 1,5 km/h (1 Bft) S-SO 148 ° 0 min 0,000 mm 0,0 UV-I 47 W/m² -2,0 °C -1,3 °C 3,2 km/h (1 Bft)
25.02.2017 10:19 -1,4 °C -1,3 °C 95 % 1024,7 hPa 0,0 mm 1,9 km/h (1 Bft) S-SO 148 ° 0 min 0,000 mm 0,0 UV-I 62 W/m² -2,1 °C -1,4 °C 3,2 km/h (1 Bft)
25.02.2017 10:20 -1,4 °C -1,3 °C 95 % 1024,7 hPa 0,0 mm 0,8 km/h (0 Bft) S-SO 148 ° 0 min 0,000 mm 0,0 UV-I 69 W/m² -2,1 °C -1,4 °C 1,6 km/h (1 Bft)
25.02.2017 10:21 -1,3 °C -1,3 °C 95 % 1024,7 hPa 0,0 mm 0,3 km/h (0 Bft) S-SO 148 ° 0 min 0,000 mm 0,0 UV-I 70 W/m² -2,0 °C -1,3 °C 1,6 km/h (1 Bft)
25.02.2017 10:22 -1,4 °C -1,3 °C 94 % 1024,7 hPa 0,0 mm 0,9 km/h (0 Bft) S-SO 148 ° 0 min 0,000 mm 0,5 UV-I 77 W/m² -2,2 °C -1,4 °C 3,2 km/h (1 Bft)
25.02.2017 10:23 -1,4 °C -1,4 °C 94 % 1024,7 hPa 0,0 mm 0,8 km/h (0 Bft) S-SO 148 ° 0 min 0,000 mm 0,5 UV-I 98 W/m² -2,2 °C -1,4 °C 3,2 km/h (1 Bft)
25.02.2017 10:24 -1,3 °C -1,3 °C 94 % 1024,7 hPa 0,0 mm 0,1 km/h (0 Bft) S-SO 148 ° 0 min 0,000 mm 0,5 UV-I 93 W/m² -2,1 °C -1,3 °C 1,6 km/h (1 Bft)
25.02.2017 10:25 -1,3 °C -1,3 °C 95 % 1024,7 hPa 0,0 mm 0,1 km/h (0 Bft) S-SO 148 ° 0 min 0,000 mm 0,5 UV-I 105 W/m² -2,0 °C -1,3 °C 1,6 km/h (1 Bft)
25.02.2017 10:26 -1,2 °C -1,2 °C 95 % 1024,7 hPa 0,0 mm 0,9 km/h (0 Bft) S-SO 148 ° 0 min 0,000 mm 0,5 UV-I 111 W/m² -1,9 °C -1,2 °C 1,6 km/h (1 Bft)
25.02.2017 10:27 -1,2 °C -1,2 °C 95 % 1024,7 hPa 0,0 mm 0,9 km/h (0 Bft) S-SO 148 ° 0 min 0,000 mm 0,5 UV-I 120 W/m² -1,9 °C -1,2 °C 1,6 km/h (1 Bft)
25.02.2017 10:28 -1,1 °C -1,1 °C 95 % 1024,7 hPa 0,0 mm 0,1 km/h (0 Bft) S-SO 148 ° 0 min 0,000 mm 0,5 UV-I 139 W/m² -1,8 °C -1,1 °C 1,6 km/h (1 Bft)
25.02.2017 10:29 -1,1 °C -1,1 °C 95 % 1024,7 hPa 0,0 mm 0,0 km/h (0 Bft) S-SO 148 ° 0 min 0,000 mm 0,6 UV-I 186 W/m² -1,8 °C -1,1 °C 0,0 km/h (0 Bft)
25.02.2017 10:30 -0,9 °C -0,9 °C 95 % 1024,6 hPa 0,0 mm 0,5 km/h (0 Bft) S-SO 148 ° 0 min 0,000 mm 0,6 UV-I 197 W/m² -1,6 °C -0,9 °C 1,6 km/h (1 Bft)
25.02.2017 10:31 -0,9 °C -0,9 °C 95 % 1024,7 hPa 0,0 mm 0,3 km/h (0 Bft) S-SO 148 ° 1 min 0,000 mm 0,7 UV-I 223 W/m² -1,6 °C -0,9 °C 1,6 km/h (1 Bft)
25.02.2017 10:32 -0,8 °C -0,8 °C 95 % 1024,7 hPa 0,0 mm 0,4 km/h (0 Bft) S-SO 148 ° 1 min 0,000 mm 0,7 UV-I 220 W/m² -1,5 °C -0,8 °C 1,6 km/h (1 Bft)
25.02.2017 10:33 -0,7 °C -0,7 °C 94 % 1024,7 hPa 0,0 mm 0,1 km/h (0 Bft) S-SO 148 ° 1 min 0,000 mm 0,7 UV-I 220 W/m² -1,5 °C -0,7 °C 1,6 km/h (1 Bft)
25.02.2017 10:34 -0,7 °C -0,7 °C 94 % 1024,8 hPa 0,0 mm 1,6 km/h (1 Bft) S-SO 148 ° 1 min 0,000 mm 0,7 UV-I 232 W/m² -1,5 °C -0,7 °C 4,8 km/h (1 Bft)
25.02.2017 10:35 -0,7 °C -0,7 °C 94 % 1024,8 hPa 0,0 mm 1,9 km/h (1 Bft) S-SO 148 ° 0 min 0,000 mm 0,7 UV-I 179 W/m² -1,5 °C -0,7 °C 3,2 km/h (1 Bft)
25.02.2017 10:36 -0,6 °C -0,6 °C 94 % 1024,8 hPa 0,0 mm 1,6 km/h (1 Bft) S-SO 148 ° 0 min 0,000 mm 0,6 UV-I 163 W/m² -1,4 °C -0,6 °C 3,2 km/h (1 Bft)
25.02.2017 10:37 -0,6 °C -0,6 °C 94 % 1024,9 hPa 0,0 mm 0,8 km/h (0 Bft) S-SO 148 ° 0 min 0,000 mm 0,6 UV-I 158 W/m² -1,4 °C -0,6 °C 1,6 km/h (1 Bft)
25.02.2017 10:38 -0,5 °C -0,5 °C 94 % 1024,9 hPa 0,0 mm 2,2 km/h (1 Bft) S-SO 148 ° 0 min 0,000 mm 0,6 UV-I 148 W/m² -1,3 °C -0,5 °C 3,2 km/h (1 Bft)
25.02.2017 10:39 -0,5 °C -0,5 °C 94 % 1024,9 hPa 0,0 mm 1,3 km/h (1 Bft) S-SO 148 ° 0 min 0,000 mm 0,6 UV-I 153 W/m² -1,3 °C -0,5 °C 1,6 km/h (1 Bft)
25.02.2017 10:40 -0,4 °C -0,4 °C 94 % 1024,9 hPa 0,0 mm 2,5 km/h (1 Bft) O-NO 61 ° 0 min 0,000 mm 0,6 UV-I 128 W/m² -1,2 °C -0,4 °C 4,8 km/h (1 Bft)
25.02.2017 10:41 -0,4 °C -0,4 °C 93 % 1024,9 hPa 0,0 mm 0,9 km/h (0 Bft) O-NO 61 ° 0 min 0,000 mm 0,6 UV-I 134 W/m² -1,4 °C -0,4 °C 1,6 km/h (1 Bft)
25.02.2017 10:42 -0,4 °C -0,4 °C 93 % 1024,9 hPa 0,0 mm 0,3 km/h (0 Bft) O-NO 61 ° 0 min 0,000 mm 0,6 UV-I 181 W/m² -1,4 °C -0,4 °C 1,6 km/h (1 Bft)
25.02.2017 10:43 -0,4 °C -0,4 °C 93 % 1024,9 hPa 0,0 mm 0,0 km/h (0 Bft) O-NO 61 ° 0 min 0,000 mm 0,6 UV-I 171 W/m² -1,4 °C -0,4 °C 0,0 km/h (0 Bft)
25.02.2017 10:44 -0,3 °C -0,3 °C 93 % 1024,9 hPa 0,0 mm 0,3 km/h (0 Bft) O-NO 61 ° 0 min 0,000 mm 0,6 UV-I 146 W/m² -1,3 °C -0,3 °C 3,2 km/h (1 Bft)
25.02.2017 10:45 -0,3 °C -0,3 °C 93 % 1024,9 hPa 0,0 mm 2,5 km/h (1 Bft) O-NO 61 ° 0 min 0,000 mm 0,6 UV-I 134 W/m² -1,3 °C -0,3 °C 4,8 km/h (1 Bft)
25.02.2017 10:46 -0,3 °C -0,3 °C 93 % 1024,9 hPa 0,0 mm 2,1 km/h (1 Bft) O-NO 61 ° 1 min 0,000 mm 0,7 UV-I 220 W/m² -1,3 °C -0,3 °C 3,2 km/h (1 Bft)
25.02.2017 10:47 -0,3 °C -0,3 °C 92 % 1024,9 hPa 0,0 mm 3,6 km/h (1 Bft) O-NO 61 ° 0 min 0,000 mm 0,7 UV-I 127 W/m² -1,4 °C -0,3 °C 4,8 km/h (1 Bft)
25.02.2017 10:48 -0,2 °C -0,2 °C 92 % 1024,9 hPa 0,0 mm 1,7 km/h (1 Bft) O-NO 61 ° 0 min 0,000 mm 0,6 UV-I 109 W/m² -1,3 °C -0,2 °C 3,2 km/h (1 Bft)
25.02.2017 10:49 -0,2 °C -0,2 °C 92 % 1024,8 hPa 0,0 mm 2,4 km/h (1 Bft) O-NO 61 ° 0 min 0,000 mm 0,6 UV-I 100 W/m² -1,3 °C -0,2 °C 4,8 km/h (1 Bft)
25.02.2017 10:50 -0,2 °C -0,2 °C 92 % 1024,7 hPa 0,0 mm 3,5 km/h (1 Bft) O-NO 61 ° 0 min 0,000 mm 0,6 UV-I 97 W/m² -1,3 °C -0,2 °C 4,8 km/h (1 Bft)
25.02.2017 10:51 -0,2 °C -0,2 °C 92 % 1024,7 hPa 0,0 mm 2,4 km/h (1 Bft) O-NO 61 ° 0 min 0,000 mm 0,6 UV-I 98 W/m² -1,3 °C -0,2 °C 3,2 km/h (1 Bft)
25.02.2017 10:52 -0,2 °C -0,2 °C 92 % 1024,7 hPa 0,0 mm 2,7 km/h (1 Bft) O 88 ° 0 min 0,000 mm 0,6 UV-I 128 W/m² -1,3 °C -0,2 °C 6,4 km/h (2 Bft)
25.02.2017 10:53 -0,2 °C -0,2 °C 92 % 1024,7 hPa 0,0 mm 4,3 km/h (1 Bft) NO 52 ° 0 min 0,000 mm 0,6 UV-I 121 W/m² -1,3 °C -0,2 °C 6,4 km/h (2 Bft)
25.02.2017 10:54 -0,1 °C -0,1 °C 92 % 1024,8 hPa 0,0 mm 5,2 km/h (1 Bft) O-NO 72 ° 0 min 0,000 mm 0,6 UV-I 111 W/m² -1,2 °C -1,8 °C 6,4 km/h (2 Bft)
25.02.2017 10:55 -0,2 °C -0,1 °C 92 % 1024,8 hPa 0,0 mm 3,8 km/h (1 Bft) O-NO 63 ° 0 min 0,000 mm 0,6 UV-I 111 W/m² -1,3 °C -0,2 °C 4,8 km/h (1 Bft)
25.02.2017 10:56 -0,1 °C -0,1 °C 92 % 1024,8 hPa 0,0 mm 3,8 km/h (1 Bft) NO 56 ° 0 min 0,000 mm 0,6 UV-I 118 W/m² -1,2 °C -0,1 °C 6,4 km/h (2 Bft)
25.02.2017 10:57 -0,1 °C -0,1 °C 91 % 1024,8 hPa 0,0 mm 2,0 km/h (1 Bft) O-NO 59 ° 0 min 0,000 mm 0,6 UV-I 97 W/m² -1,4 °C -0,1 °C 4,8 km/h (1 Bft)
25.02.2017 10:58 -0,2 °C -0,1 °C 91 % 1024,9 hPa 0,0 mm 4,0 km/h (1 Bft) O-NO 63 ° 0 min 0,000 mm 0,6 UV-I 123 W/m² -1,5 °C -0,2 °C 4,8 km/h (1 Bft)
25.02.2017 10:59 -0,2 °C -0,1 °C 91 % 1024,8 hPa 0,0 mm 4,6 km/h (1 Bft) O-NO 69 ° 0 min 0,000 mm 0,7 UV-I 141 W/m² -1,5 °C -1,6 °C 6,4 km/h (2 Bft)
25.02.2017 11:00 -0,2 °C -0,2 °C 91 % 1024,8 hPa 0,0 mm 3,7 km/h (1 Bft) N-NO 33 ° 1 min 0,025 mm 0,8 UV-I 200 W/m² -1,5 °C -0,2 °C 4,8 km/h (1 Bft)
25.02.2017 11:01 -0,1 °C -0,1 °C 91 % 1024,8 hPa 0,0 mm 4,8 km/h (1 Bft) O-NO 61 ° 0 min 0,000 mm 0,8 UV-I 190 W/m² -1,4 °C -1,6 °C 6,4 km/h (2 Bft)
25.02.2017 11:02 -0,1 °C -0,1 °C 91 % 1024,8 hPa 0,0 mm 4,7 km/h (1 Bft) NO 53 ° 0 min 0,000 mm 0,8 UV-I 190 W/m² -1,4 °C -1,6 °C 8,0 km/h (2 Bft)
25.02.2017 11:03 -0,1 °C -0,1 °C 91 % 1024,8 hPa 0,0 mm 4,3 km/h (1 Bft) O 96 ° 0 min 0,000 mm 0,7 UV-I 190 W/m² -1,4 °C -0,1 °C 6,4 km/h (2 Bft)
25.02.2017 11:04 0,0 °C 0,0 °C 91 % 1024,8 hPa 0,0 mm 2,3 km/h (1 Bft) O 96 ° 1 min 0,000 mm 0,8 UV-I 218 W/m² -1,3 °C 0,0 °C 3,2 km/h (1 Bft)
25.02.2017 11:05 0,0 °C 0,0 °C 92 % 1024,8 hPa 0,0 mm 3,7 km/h (1 Bft) O-NO 74 ° 0 min 0,000 mm 0,8 UV-I 169 W/m² -1,1 °C 0,0 °C 4,8 km/h (1 Bft)
25.02.2017 11:06 0,0 °C 0,0 °C 91 % 1024,8 hPa 0,0 mm 1,5 km/h (1 Bft) O 98 ° 0 min 0,000 mm 0,9 UV-I 197 W/m² -1,3 °C 0,0 °C 4,8 km/h (1 Bft)
25.02.2017 11:07 0,1 °C 0,1 °C 91 % 1024,9 hPa 0,0 mm 4,5 km/h (1 Bft) O-NO 66 ° 0 min 0,000 mm 1,0 UV-I 197 W/m² -1,2 °C 0,1 °C 6,4 km/h (2 Bft)
25.02.2017 11:08 0,1 °C 0,1 °C 91 % 1024,9 hPa 0,0 mm 5,3 km/h (1 Bft) O-NO 65 ° 0 min 0,000 mm 0,9 UV-I 197 W/m² -1,2 °C -1,6 °C 6,4 km/h (2 Bft)
25.02.2017 11:09 0,1 °C 0,1 °C 91 % 1024,8 hPa 0,0 mm 2,1 km/h (1 Bft) O-NO 65 ° 0 min 0,000 mm 1,2 UV-I 197 W/m² -1,2 °C 0,1 °C 3,2 km/h (1 Bft)
25.02.2017 11:10 0,1 °C 0,1 °C 91 % 1024,8 hPa 0,0 mm 1,2 km/h (1 Bft) O-NO 65 ° 1 min 0,000 mm 1,2 UV-I 489 W/m² -1,2 °C 0,1 °C 4,8 km/h (1 Bft)
25.02.2017 11:11 0,1 °C 0,1 °C 91 % 1024,8 hPa 0,0 mm 3,4 km/h (1 Bft) O-NO 65 ° 1 min 0,000 mm 1,4 UV-I 682 W/m² -1,2 °C 0,1 °C 4,8 km/h (1 Bft)
25.02.2017 11:12 0,1 °C 0,1 °C 91 % 1024,9 hPa 0,0 mm 3,4 km/h (1 Bft) O-NO 72 ° 1 min 0,000 mm 1,5 UV-I 633 W/m² -1,2 °C 0,1 °C 4,8 km/h (1 Bft)
25.02.2017 11:13 0,2 °C 0,2 °C 92 % 1024,9 hPa 0,0 mm 1,8 km/h (1 Bft) O-NO 72 ° 1 min 0,000 mm 1,5 UV-I 633 W/m² -0,9 °C 0,2 °C 3,2 km/h (1 Bft)
25.02.2017 11:14 0,2 °C 0,2 °C 91 % 1024,9 hPa 0,0 mm 2,5 km/h (1 Bft) NO 49 ° 1 min 0,000 mm 1,3 UV-I 633 W/m² -1,1 °C 0,2 °C 4,8 km/h (1 Bft)
25.02.2017 11:15 0,2 °C 0,3 °C 92 % 1024,9 hPa 0,0 mm 5,6 km/h (1 Bft) NO 47 ° 1 min 0,000 mm 1,4 UV-I 633 W/m² -0,9 °C -1,6 °C 8,0 km/h (2 Bft)
25.02.2017 11:16 0,3 °C 0,3 °C 91 % 1024,9 hPa 0,0 mm 5,4 km/h (1 Bft) O-NO 59 ° 1 min 0,000 mm 1,9 UV-I 596 W/m² -1,0 °C -1,4 °C 8,0 km/h (2 Bft)
25.02.2017 11:17 0,3 °C 0,3 °C 92 % 1024,9 hPa 0,0 mm 3,3 km/h (1 Bft) N-NO 31 ° 1 min 0,000 mm 2,2 UV-I 570 W/m² -0,8 °C 0,3 °C 4,8 km/h (1 Bft)
25.02.2017 11:18 0,3 °C 0,3 °C 92 % 1024,8 hPa 0,0 mm 3,5 km/h (1 Bft) O-NO 76 ° 1 min 0,000 mm 2,3 UV-I 548 W/m² -0,8 °C 0,3 °C 6,4 km/h (2 Bft)
25.02.2017 11:19 0,4 °C 0,4 °C 92 % 1024,9 hPa 0,0 mm 3,5 km/h (1 Bft) N-NO 31 ° 1 min 0,000 mm 1,7 UV-I 548 W/m² -0,7 °C 0,4 °C 6,4 km/h (2 Bft)
25.02.2017 11:20 0,6 °C 0,6 °C 92 % 1024,9 hPa 0,0 mm 6,0 km/h (2 Bft) O-NO 61 ° 1 min 0,000 mm 2,5 UV-I 548 W/m² -0,5 °C -1,3 °C 9,7 km/h (2 Bft)
25.02.2017 11:21 0,6 °C 0,6 °C 92 % 1024,9 hPa 0,0 mm 5,9 km/h (2 Bft) NO 43 ° 1 min 0,000 mm 2,6 UV-I 533 W/m² -0,5 °C -1,3 °C 8,0 km/h (2 Bft)
25.02.2017 11:22 0,7 °C 0,7 °C 91 % 1024,9 hPa 0,0 mm 5,4 km/h (1 Bft) NO 40 ° 1 min 0,000 mm 2,6 UV-I 522 W/m² -0,6 °C -1,0 °C 8,0 km/h (2 Bft)
25.02.2017 11:23 0,8 °C 0,8 °C 91 % 1024,9 hPa 0,0 mm 1,8 km/h (1 Bft) NO 40 ° 1 min 0,000 mm 2,8 UV-I 540 W/m² -0,5 °C 0,8 °C 3,2 km/h (1 Bft)
25.02.2017 11:24 0,8 °C 0,8 °C 91 % 1024,9 hPa 0,0 mm 5,9 km/h (2 Bft) O-NO 66 ° 1 min 0,000 mm 2,9 UV-I 548 W/m² -0,5 °C -1,1 °C 9,7 km/h (2 Bft)
25.02.2017 11:25 0,8 °C 0,8 °C 90 % 1024,8 hPa 0,0 mm 5,8 km/h (2 Bft) O-NO 61 ° 1 min 0,000 mm 3,0 UV-I 559 W/m² -0,6 °C -1,0 °C 9,7 km/h (2 Bft)
25.02.2017 11:26 0,8 °C 0,8 °C 90 % 1024,9 hPa 0,0 mm 6,3 km/h (2 Bft) O-NO 71 ° 1 min 0,000 mm 3,0 UV-I 561 W/m² -0,6 °C -1,2 °C 8,0 km/h (2 Bft)
25.02.2017 11:27 0,8 °C 0,8 °C 90 % 1024,9 hPa 0,0 mm 3,8 km/h (1 Bft) NO 54 ° 1 min 0,000 mm 2,9 UV-I 554 W/m² -0,6 °C 0,8 °C 6,4 km/h (2 Bft)
25.02.2017 11:28 0,8 °C 0,8 °C 90 % 1024,8 hPa 0,0 mm 3,0 km/h (1 Bft) NO 36 ° 1 min 0,000 mm 2,9 UV-I 534 W/m² -0,6 °C 0,8 °C 3,2 km/h (1 Bft)
25.02.2017 11:29 0,6 °C 0,8 °C 90 % 1024,9 hPa 0,0 mm 1,7 km/h (1 Bft) NO 36 ° 1 min 0,000 mm 2,8 UV-I 519 W/m² -0,8 °C 0,6 °C 3,2 km/h (1 Bft)
25.02.2017 11:30 0,6 °C 0,6 °C 91 % 1024,9 hPa 0,0 mm 3,0 km/h (1 Bft) NO 36 ° 1 min 0,000 mm 2,9 UV-I 529 W/m² -0,7 °C 0,6 °C 4,8 km/h (1 Bft)
25.02.2017 11:31 0,7 °C 0,7 °C 91 % 1024,8 hPa 0,0 mm 5,4 km/h (1 Bft) NO 46 ° 1 min 0,000 mm 2,9 UV-I 550 W/m² -0,6 °C -1,0 °C 8,0 km/h (2 Bft)
25.02.2017 11:32 0,8 °C 0,8 °C 91 % 1024,9 hPa 0,0 mm 3,9 km/h (1 Bft) NO 56 ° 1 min 0,000 mm 2,9 UV-I 552 W/m² -0,5 °C 0,8 °C 6,4 km/h (2 Bft)
25.02.2017 11:33 0,9 °C 0,9 °C 90 % 1024,8 hPa 0,0 mm 4,1 km/h (1 Bft) O-NO 72 ° 1 min 0,000 mm 2,9 UV-I 534 W/m² -0,6 °C 0,9 °C 6,4 km/h (2 Bft)
25.02.2017 11:34 0,8 °C 0,9 °C 89 % 1024,7 hPa 0,0 mm 2,0 km/h (1 Bft) O-NO 72 ° 1 min 0,000 mm 2,9 UV-I 519 W/m² -0,8 °C 0,8 °C 3,2 km/h (1 Bft)
25.02.2017 11:35 0,9 °C 0,9 °C 90 % 1024,7 hPa 0,0 mm 3,0 km/h (1 Bft) O 80 ° 1 min 0,000 mm 2,9 UV-I 534 W/m² -0,6 °C 0,9 °C 4,8 km/h (1 Bft)
25.02.2017 11:36 0,9 °C 0,9 °C 90 % 1024,7 hPa 0,0 mm 3,1 km/h (1 Bft) O-NO 78 ° 1 min 0,000 mm 2,9 UV-I 526 W/m² -0,6 °C 0,9 °C 4,8 km/h (1 Bft)
25.02.2017 11:37 0,8 °C 0,9 °C 89 % 1024,7 hPa 0,0 mm 1,5 km/h (1 Bft) O-NO 77 ° 1 min 0,000 mm 3,0 UV-I 536 W/m² -0,8 °C 0,8 °C 3,2 km/h (1 Bft)
25.02.2017 11:38 0,8 °C 0,8 °C 90 % 1024,7 hPa 0,2 mm 1,7 km/h (1 Bft) O-NO 77 ° 1 min 0,000 mm 3,0 UV-I 548 W/m² -0,6 °C 0,8 °C 3,2 km/h (1 Bft)
25.02.2017 11:39 0,8 °C 0,8 °C 91 % 1024,7 hPa 0,0 mm 1,9 km/h (1 Bft) O-NO 77 ° 1 min 0,000 mm 3,0 UV-I 563 W/m² -0,5 °C 0,8 °C 3,2 km/h (1 Bft)
25.02.2017 11:40 0,8 °C 0,8 °C 90 % 1024,7 hPa 0,0 mm 2,2 km/h (1 Bft) O-NO 70 ° 1 min 0,000 mm 3,0 UV-I 566 W/m² -0,6 °C 0,8 °C 4,8 km/h (1 Bft)
25.02.2017 11:41 0,7 °C 0,8 °C 90 % 1024,7 hPa 0,2 mm 3,2 km/h (1 Bft) O-NO 68 ° 1 min 0,000 mm 3,1 UV-I 568 W/m² -0,7 °C 0,7 °C 4,8 km/h (1 Bft)
25.02.2017 11:42 0,7 °C 0,7 °C 90 % 1024,7 hPa 0,0 mm 2,5 km/h (1 Bft) N-NO 25 ° 1 min 0,000 mm 3,1 UV-I 570 W/m² -0,7 °C 0,7 °C 4,8 km/h (1 Bft)
25.02.2017 11:43 0,8 °C 0,8 °C 91 % 1024,7 hPa 0,0 mm 3,2 km/h (1 Bft) NO 53 ° 1 min 0,000 mm 3,1 UV-I 568 W/m² -0,5 °C 0,8 °C 6,4 km/h (2 Bft)
25.02.2017 11:44 1,0 °C 1,0 °C 91 % 1024,7 hPa 0,2 mm 2,0 km/h (1 Bft) NO 53 ° 1 min 0,000 mm 3,1 UV-I 570 W/m² -0,3 °C 1,0 °C 3,2 km/h (1 Bft)
25.02.2017 11:45 1,1 °C 1,1 °C 89 % 1024,7 hPa 0,0 mm 2,5 km/h (1 Bft) NO 53 ° 1 min 0,000 mm 3,1 UV-I 570 W/m² -0,5 °C 1,1 °C 4,8 km/h (1 Bft)
25.02.2017 11:46 1,1 °C 1,1 °C 89 % 1024,7 hPa 0,0 mm 3,2 km/h (1 Bft) O-NO 74 ° 1 min 0,000 mm 3,1 UV-I 570 W/m² -0,5 °C 1,1 °C 6,4 km/h (2 Bft)
25.02.2017 11:47 1,1 °C 1,1 °C 89 % 1024,7 hPa 0,0 mm 4,6 km/h (1 Bft) NO 44 ° 1 min 0,000 mm 3,1 UV-I 568 W/m² -0,5 °C -0,2 °C 6,4 km/h (2 Bft)
25.02.2017 11:48 1,2 °C 1,2 °C 89 % 1024,7 hPa 0,2 mm 5,9 km/h (2 Bft) O-NO 73 ° 1 min 0,000 mm 3,1 UV-I 570 W/m² -0,4 °C -0,6 °C 9,7 km/h (2 Bft)
25.02.2017 11:49 1,3 °C 1,3 °C 89 % 1024,7 hPa 0,0 mm 5,8 km/h (2 Bft) NO 51 ° 1 min 0,000 mm 3,1 UV-I 570 W/m² -0,3 °C -0,5 °C 9,7 km/h (2 Bft)
25.02.2017 11:50 1,4 °C 1,4 °C 88 % 1024,7 hPa 0,0 mm 5,4 km/h (1 Bft) N-NO 24 ° 1 min 0,000 mm 3,1 UV-I 573 W/m² -0,4 °C -0,2 °C 8,0 km/h (2 Bft)
25.02.2017 11:51 1,6 °C 1,6 °C 88 % 1024,7 hPa 0,0 mm 6,0 km/h (2 Bft) N-NO 28 ° 1 min 0,000 mm 3,1 UV-I 561 W/m² -0,2 °C -0,2 °C 9,7 km/h (2 Bft)
25.02.2017 11:52 1,7 °C 1,7 °C 87 % 1024,7 hPa 0,2 mm 8,6 km/h (2 Bft) NO 38 ° 1 min 0,000 mm 3,1 UV-I 554 W/m² -0,2 °C -0,9 °C 14,5 km/h (3 Bft)
25.02.2017 11:53 1,8 °C 1,8 °C 87 % 1024,8 hPa 0,0 mm 6,4 km/h (2 Bft) NO 37 ° 1 min 0,000 mm 3,1 UV-I 564 W/m² -0,1 °C -0,1 °C 9,7 km/h (2 Bft)
25.02.2017 11:54 1,9 °C 1,9 °C 87 % 1024,8 hPa 0,0 mm 5,1 km/h (1 Bft) NO 40 ° 1 min 0,000 mm 3,1 UV-I 564 W/m² -0,0 °C 0,5 °C 8,0 km/h (2 Bft)
25.02.2017 11:55 1,9 °C 1,9 °C 87 % 1024,8 hPa 0,0 mm 5,4 km/h (1 Bft) O-NO 71 ° 1 min 0,000 mm 3,1 UV-I 564 W/m² -0,0 °C 0,4 °C 8,0 km/h (2 Bft)
25.02.2017 11:56 1,9 °C 1,9 °C 86 % 1024,7 hPa 0,2 mm 7,7 km/h (2 Bft) O 86 ° 1 min 0,000 mm 3,1 UV-I 568 W/m² -0,2 °C -0,4 °C 12,9 km/h (3 Bft)
25.02.2017 11:57 1,8 °C 1,9 °C 86 % 1024,7 hPa 0,0 mm 6,1 km/h (2 Bft) NO 47 ° 1 min 0,000 mm 3,1 UV-I 577 W/m² -0,3 °C 0,0 °C 12,9 km/h (3 Bft)
25.02.2017 11:58 1,7 °C 1,8 °C 86 % 1024,7 hPa 0,0 mm 3,8 km/h (1 Bft) O-NO 61 ° 1 min 0,000 mm 3,1 UV-I 519 W/m² -0,4 °C 1,7 °C 6,4 km/h (2 Bft)
25.02.2017 11:59 1,7 °C 1,7 °C 87 % 1024,7 hPa 0,0 mm 4,9 km/h (1 Bft) O-NO 73 ° 1 min 0,000 mm 3,1 UV-I 519 W/m² -0,2 °C 0,4 °C 6,4 km/h (2 Bft)
25.02.2017 12:00 1,6 °C 1,7 °C 87 % 1024,8 hPa 0,0 mm 4,6 km/h (1 Bft) O-NO 64 ° 1 min 0,000 mm 3,2 UV-I 519 W/m² -0,3 °C 0,4 °C 6,4 km/h (2 Bft)
25.02.2017 12:01 1,6 °C 1,6 °C 87 % 1024,8 hPa 0,2 mm 5,5 km/h (1 Bft) NO 46 ° 1 min 0,178 mm 3,2 UV-I 513 W/m² -0,3 °C 0,0 °C 6,4 km/h (2 Bft)
25.02.2017 12:02 1,6 °C 1,7 °C 87 % 1024,9 hPa 0,0 mm 5,3 km/h (1 Bft) NO 38 ° 1 min 0,000 mm 3,1 UV-I 575 W/m² -0,3 °C 0,1 °C 8,0 km/h (2 Bft)
25.02.2017 12:03 1,7 °C 1,7 °C 87 % 1024,9 hPa 0,0 mm 4,9 km/h (1 Bft) NO 42 ° 1 min 0,000 mm 3,1 UV-I 501 W/m² -0,2 °C 0,4 °C 8,0 km/h (2 Bft)
25.02.2017 12:04 1,7 °C 1,8 °C 86 % 1024,9 hPa 0,0 mm 4,4 km/h (1 Bft) O-NO 63 ° 1 min 0,000 mm 2,7 UV-I 501 W/m² -0,4 °C 1,7 °C 6,4 km/h (2 Bft)
25.02.2017 12:05 1,7 °C 1,8 °C 86 % 1024,8 hPa 0,0 mm 2,4 km/h (1 Bft) O-NO 59 ° 1 min 0,000 mm 3,2 UV-I 501 W/m² -0,4 °C 1,7 °C 6,4 km/h (2 Bft)
25.02.2017 12:06 1,7 °C 1,7 °C 86 % 1024,8 hPa 0,2 mm 3,2 km/h (1 Bft) O-NO 59 ° 1 min 0,000 mm 2,3 UV-I 612 W/m² -0,4 °C 1,7 °C 4,8 km/h (1 Bft)
25.02.2017 12:07 1,7 °C 1,7 °C 86 % 1024,7 hPa 0,0 mm 2,6 km/h (1 Bft) O-NO 59 ° 1 min 0,000 mm 2,8 UV-I 612 W/m² -0,4 °C 1,7 °C 4,8 km/h (1 Bft)
25.02.2017 12:08 1,6 °C 1,7 °C 86 % 1024,8 hPa 0,0 mm 3,2 km/h (1 Bft) O-NO 59 ° 1 min 0,000 mm 3,1 UV-I 612 W/m² -0,5 °C 1,6 °C 4,8 km/h (1 Bft)
25.02.2017 12:09 1,6 °C 1,6 °C 87 % 1024,8 hPa 0,0 mm 2,4 km/h (1 Bft) N-NO 32 ° 1 min 0,000 mm 3,0 UV-I 612 W/m² -0,3 °C 1,6 °C 4,8 km/h (1 Bft)
25.02.2017 12:10 1,7 °C 1,7 °C 86 % 1024,8 hPa 0,0 mm 2,7 km/h (1 Bft) NO 38 ° 1 min 0,000 mm 3,2 UV-I 587 W/m² -0,4 °C 1,7 °C 4,8 km/h (1 Bft)
25.02.2017 12:11 1,7 °C 1,7 °C 87 % 1024,8 hPa 0,0 mm 2,4 km/h (1 Bft) NO 38 ° 1 min 0,000 mm 3,1 UV-I 584 W/m² -0,2 °C 1,7 °C 3,2 km/h (1 Bft)
25.02.2017 12:12 1,6 °C 1,7 °C 86 % 1024,7 hPa 0,2 mm 1,1 km/h (1 Bft) NO 38 ° 1 min 0,000 mm 3,2 UV-I 587 W/m² -0,5 °C 1,6 °C 3,2 km/h (1 Bft)
25.02.2017 12:13 1,7 °C 1,7 °C 86 % 1024,7 hPa 0,0 mm 1,2 km/h (1 Bft) NO 38 ° 1 min 0,000 mm 3,2 UV-I 587 W/m² -0,4 °C 1,7 °C 3,2 km/h (1 Bft)
25.02.2017 12:14 1,8 °C 1,8 °C 86 % 1024,7 hPa 0,0 mm 1,0 km/h (0 Bft) NO 38 ° 1 min 0,000 mm 3,2 UV-I 596 W/m² -0,3 °C 1,8 °C 3,2 km/h (1 Bft)
25.02.2017 12:15 1,9 °C 1,9 °C 86 % 1024,8 hPa 0,0 mm 2,3 km/h (1 Bft) NO 38 ° 1 min 0,000 mm 3,1 UV-I 589 W/m² -0,2 °C 1,9 °C 3,2 km/h (1 Bft)
25.02.2017 12:16 1,8 °C 1,9 °C 84 % 1024,7 hPa 0,0 mm 2,1 km/h (1 Bft) NO 44 ° 1 min 0,000 mm 3,2 UV-I 605 W/m² -0,6 °C 1,8 °C 4,8 km/h (1 Bft)
25.02.2017 12:17 1,8 °C 1,8 °C 85 % 1024,8 hPa 0,2 mm 1,8 km/h (1 Bft) NO 44 ° 1 min 0,000 mm 3,3 UV-I 621 W/m² -0,4 °C 1,8 °C 3,2 km/h (1 Bft)
25.02.2017 12:18 1,9 °C 1,9 °C 85 % 1024,8 hPa 0,0 mm 2,2 km/h (1 Bft) O 101 ° 1 min 0,000 mm 3,3 UV-I 640 W/m² -0,3 °C 1,9 °C 3,2 km/h (1 Bft)
25.02.2017 12:19 2,0 °C 2,0 °C 86 % 1024,8 hPa 0,0 mm 3,6 km/h (1 Bft) NO 36 ° 1 min 0,000 mm 3,4 UV-I 645 W/m² -0,1 °C 2,0 °C 4,8 km/h (1 Bft)
25.02.2017 12:20 2,1 °C 2,1 °C 86 % 1024,8 hPa 0,0 mm 3,4 km/h (1 Bft) O 88 ° 1 min 0,000 mm 3,4 UV-I 650 W/m² 0,0 °C 2,1 °C 4,8 km/h (1 Bft)
25.02.2017 12:21 2,1 °C 2,1 °C 85 % 1024,8 hPa 0,2 mm 1,5 km/h (1 Bft) O 88 ° 1 min 0,000 mm 3,3 UV-I 652 W/m² -0,2 °C 2,1 °C 3,2 km/h (1 Bft)
25.02.2017 12:22 2,2 °C 2,2 °C 86 % 1024,9 hPa 0,0 mm 1,0 km/h (0 Bft) O 88 ° 1 min 0,000 mm 3,3 UV-I 652 W/m² 0,1 °C 2,2 °C 1,6 km/h (1 Bft)
25.02.2017 12:23 2,2 °C 2,2 °C 85 % 1024,9 hPa 0,0 mm 2,3 km/h (1 Bft) O 88 ° 1 min 0,000 mm 3,3 UV-I 635 W/m² -0,1 °C 2,2 °C 4,8 km/h (1 Bft)
25.02.2017 12:24 2,2 °C 2,3 °C 85 % 1025,0 hPa 0,0 mm 5,9 km/h (2 Bft) O 85 ° 1 min 0,000 mm 3,3 UV-I 638 W/m² -0,1 °C 0,5 °C 8,0 km/h (2 Bft)
25.02.2017 12:25 1,9 °C 2,2 °C 87 % 1024,8 hPa 0,0 mm 2,9 km/h (1 Bft) O 85 ° 1 min 0,000 mm 3,3 UV-I 638 W/m² -0,0 °C 1,9 °C 4,8 km/h (1 Bft)
25.02.2017 12:26 1,8 °C 1,9 °C 87 % 1024,8 hPa 0,2 mm 3,5 km/h (1 Bft) O-NO 65 ° 1 min 0,000 mm 2,5 UV-I 624 W/m² -0,1 °C 1,8 °C 6,4 km/h (2 Bft)
25.02.2017 12:27 1,9 °C 1,9 °C 86 % 1024,9 hPa 0,0 mm 2,0 km/h (1 Bft) O-NO 62 ° 1 min 0,000 mm 3,3 UV-I 624 W/m² -0,2 °C 1,9 °C 4,8 km/h (1 Bft)
25.02.2017 12:28 1,9 °C 1,9 °C 86 % 1024,8 hPa 0,0 mm 3,0 km/h (1 Bft) O-NO 65 ° 1 min 0,000 mm 3,3 UV-I 255 W/m² -0,2 °C 1,9 °C 4,8 km/h (1 Bft)
25.02.2017 12:29 2,0 °C 2,0 °C 86 % 1024,8 hPa 0,0 mm 3,4 km/h (1 Bft) O-NO 65 ° 1 min 0,000 mm 3,3 UV-I 255 W/m² -0,1 °C 2,0 °C 4,8 km/h (1 Bft)
25.02.2017 12:30 2,1 °C 2,1 °C 86 % 1024,8 hPa 0,2 mm 3,8 km/h (1 Bft) O 85 ° 1 min 0,000 mm 3,2 UV-I 605 W/m² 0,0 °C 2,1 °C 6,4 km/h (2 Bft)
25.02.2017 12:31 2,0 °C 2,1 °C 85 % 1024,8 hPa 0,0 mm 1,0 km/h (0 Bft) O 85 ° 1 min 0,000 mm 3,2 UV-I 598 W/m² -0,3 °C 2,0 °C 3,2 km/h (1 Bft)
25.02.2017 12:32 2,0 °C 2,1 °C 86 % 1024,8 hPa 0,0 mm 1,6 km/h (1 Bft) O 86 ° 1 min 0,000 mm 3,2 UV-I 598 W/m² -0,1 °C 2,0 °C 3,2 km/h (1 Bft)
25.02.2017 12:33 2,0 °C 2,0 °C 86 % 1024,8 hPa 0,0 mm 1,4 km/h (1 Bft) O 86 ° 1 min 0,000 mm 2,8 UV-I 570 W/m² -0,1 °C 2,0 °C 3,2 km/h (1 Bft)
25.02.2017 12:34 2,1 °C 2,1 °C 85 % 1024,8 hPa 0,0 mm 3,8 km/h (1 Bft) O 85 ° 1 min 0,000 mm 3,1 UV-I 503 W/m² -0,2 °C 2,1 °C 6,4 km/h (2 Bft)
25.02.2017 12:35 2,0 °C 2,1 °C 85 % 1024,7 hPa 0,2 mm 2,5 km/h (1 Bft) O-NO 77 ° 1 min 0,000 mm 3,2 UV-I 585 W/m² -0,3 °C 2,0 °C 4,8 km/h (1 Bft)
25.02.2017 12:36 2,1 °C 2,1 °C 85 % 1024,7 hPa 0,0 mm 4,0 km/h (1 Bft) O-NO 76 ° 1 min 0,000 mm 3,2 UV-I 596 W/m² -0,2 °C 2,1 °C 4,8 km/h (1 Bft)
25.02.2017 12:37 1,9 °C 2,1 °C 85 % 1024,7 hPa 0,0 mm 2,5 km/h (1 Bft) O-NO 58 ° 1 min 0,000 mm 3,2 UV-I 591 W/m² -0,3 °C 1,9 °C 4,8 km/h (1 Bft)
25.02.2017 12:38 1,8 °C 2,0 °C 85 % 1024,5 hPa 0,0 mm 3,4 km/h (1 Bft) NO 50 ° 1 min 0,000 mm 3,1 UV-I 582 W/m² -0,4 °C 1,8 °C 6,4 km/h (2 Bft)
25.02.2017 12:39 1,8 °C 1,8 °C 87 % 1024,5 hPa 0,0 mm 2,8 km/h (1 Bft) NO 50 ° 1 min 0,000 mm 3,1 UV-I 580 W/m² -0,1 °C 1,8 °C 4,8 km/h (1 Bft)
25.02.2017 12:40 1,8 °C 1,8 °C 86 % 1024,5 hPa 0,2 mm 2,6 km/h (1 Bft) O-NO 57 ° 1 min 0,000 mm 3,1 UV-I 575 W/m² -0,3 °C 1,8 °C 8,0 km/h (2 Bft)
25.02.2017 12:41 1,8 °C 1,8 °C 86 % 1024,5 hPa 0,0 mm 3,1 km/h (1 Bft) O-NO 74 ° 1 min 0,000 mm 3,2 UV-I 577 W/m² -0,3 °C 1,8 °C 4,8 km/h (1 Bft)
25.02.2017 12:42 1,6 °C 1,8 °C 87 % 1024,5 hPa 0,0 mm 4,0 km/h (1 Bft) O-NO 76 ° 1 min 0,000 mm 3,2 UV-I 578 W/m² -0,3 °C 1,6 °C 6,4 km/h (2 Bft)
25.02.2017 12:43 1,6 °C 1,7 °C 87 % 1024,5 hPa 0,0 mm 3,2 km/h (1 Bft) O 91 ° 1 min 0,000 mm 3,2 UV-I 578 W/m² -0,3 °C 1,6 °C 4,8 km/h (1 Bft)
25.02.2017 12:44 1,5 °C 1,6 °C 86 % 1024,4 hPa 0,0 mm 1,9 km/h (1 Bft) O 91 ° 1 min 0,000 mm 3,2 UV-I 580 W/m² -0,6 °C 1,5 °C 3,2 km/h (1 Bft)
25.02.2017 12:45 1,4 °C 1,5 °C 86 % 1024,3 hPa 0,0 mm 2,7 km/h (1 Bft) O 91 ° 1 min 0,000 mm 3,2 UV-I 578 W/m² -0,7 °C 1,4 °C 4,8 km/h (1 Bft)
25.02.2017 12:46 1,4 °C 1,4 °C 87 % 1024,3 hPa 0,2 mm 2,0 km/h (1 Bft) O 91 ° 1 min 0,000 mm 3,1 UV-I 580 W/m² -0,5 °C 1,4 °C 3,2 km/h (1 Bft)
25.02.2017 12:47 1,6 °C 1,6 °C 88 % 1024,3 hPa 0,0 mm 1,3 km/h (1 Bft) O 90 ° 1 min 0,000 mm 3,1 UV-I 580 W/m² -0,2 °C 1,6 °C 4,8 km/h (1 Bft)
25.02.2017 12:48 1,8 °C 1,8 °C 86 % 1024,3 hPa 0,0 mm 3,1 km/h (1 Bft) O-NO 76 ° 1 min 0,000 mm 3,1 UV-I 577 W/m² -0,3 °C 1,8 °C 4,8 km/h (1 Bft)
25.02.2017 12:49 1,8 °C 1,8 °C 85 % 1024,2 hPa 0,0 mm 2,3 km/h (1 Bft) NO 46 ° 1 min 0,000 mm 3,1 UV-I 575 W/m² -0,4 °C 1,8 °C 4,8 km/h (1 Bft)
25.02.2017 12:50 1,8 °C 1,8 °C 85 % 1024,2 hPa 0,0 mm 4,3 km/h (1 Bft) NO 54 ° 1 min 0,000 mm 3,1 UV-I 584 W/m² -0,4 °C 1,8 °C 9,7 km/h (2 Bft)
25.02.2017 12:51 2,1 °C 2,1 °C 86 % 1024,1 hPa 0,2 mm 5,4 km/h (1 Bft) NO 54 ° 1 min 0,000 mm 3,1 UV-I 578 W/m² 0,0 °C 0,6 °C 6,4 km/h (2 Bft)
25.02.2017 12:52 2,3 °C 2,3 °C 85 % 1024,1 hPa 0,0 mm 7,7 km/h (2 Bft) NO 46 ° 1 min 0,000 mm 3,1 UV-I 584 W/m² 0,0 °C 0,1 °C 12,9 km/h (3 Bft)
25.02.2017 12:53 2,4 °C 2,4 °C 84 % 1024,1 hPa 0,0 mm 6,5 km/h (2 Bft) O-NO 57 ° 1 min 0,000 mm 3,1 UV-I 589 W/m² -0,0 °C 0,6 °C 8,0 km/h (2 Bft)
25.02.2017 12:54 2,6 °C 2,6 °C 84 % 1024,1 hPa 0,0 mm 4,8 km/h (1 Bft) O 81 ° 1 min 0,000 mm 3,1 UV-I 585 W/m² 0,2 °C 1,4 °C 6,4 km/h (2 Bft)
25.02.2017 12:55 2,5 °C 2,6 °C 84 % 1024,1 hPa 0,0 mm 3,4 km/h (1 Bft) O-NO 63 ° 1 min 0,000 mm 3,1 UV-I 577 W/m² 0,1 °C 2,5 °C 4,8 km/h (1 Bft)
25.02.2017 12:56 2,4 °C 2,5 °C 84 % 1024,1 hPa 0,0 mm 3,0 km/h (1 Bft) NO 36 ° 1 min 0,000 mm 3,1 UV-I 573 W/m² -0,0 °C 2,4 °C 4,8 km/h (1 Bft)
25.02.2017 12:57 2,3 °C 2,4 °C 84 % 1024,1 hPa 0,0 mm 7,6 km/h (2 Bft) NO 46 ° 1 min 0,000 mm 3,1 UV-I 575 W/m² -0,1 °C 0,1 °C 9,7 km/h (2 Bft)
25.02.2017 12:58 2,4 °C 2,4 °C 84 % 1024,1 hPa 0,0 mm 6,8 km/h (2 Bft) O-NO 64 ° 1 min 0,000 mm 3,1 UV-I 573 W/m² -0,0 °C 0,5 °C 9,7 km/h (2 Bft)
25.02.2017 12:59 2,3 °C 2,4 °C 84 % 1024,2 hPa 0,2 mm 4,6 km/h (1 Bft) NO 43 ° 1 min 0,000 mm 3,1 UV-I 570 W/m² -0,1 °C 1,2 °C 6,4 km/h (2 Bft)
25.02.2017 13:00 2,3 °C 2,3 °C 83 % 1024,1 hPa 0,0 mm 4,8 km/h (1 Bft) O 80 ° 1 min 0,000 mm 3,1 UV-I 568 W/m² -0,3 °C 1,1 °C 11,3 km/h (2 Bft)
25.02.2017 13:01 2,2 °C 2,3 °C 84 % 1024,1 hPa 0,0 mm 6,6 km/h (2 Bft) O-NO 67 ° 1 min 0,203 mm 3,1 UV-I 570 W/m² -0,2 °C 0,3 °C 8,0 km/h (2 Bft)
25.02.2017 13:02 2,3 °C 2,3 °C 85 % 1024,1 hPa 0,0 mm 6,6 km/h (2 Bft) NO 43 ° 1 min 0,000 mm 3,1 UV-I 568 W/m² 0,0 °C 0,4 °C 9,7 km/h (2 Bft)
25.02.2017 13:03 2,3 °C 2,3 °C 84 % 1024,1 hPa 0,0 mm 3,0 km/h (1 Bft) NO 49 ° 1 min 0,000 mm 3,1 UV-I 570 W/m² -0,1 °C 2,3 °C 4,8 km/h (1 Bft)
25.02.2017 13:04 2,2 °C 2,3 °C 84 % 1024,1 hPa 0,0 mm 5,8 km/h (2 Bft) NO 54 ° 1 min 0,000 mm 3,1 UV-I 568 W/m² -0,2 °C 0,6 °C 9,7 km/h (2 Bft)
25.02.2017 13:05 2,3 °C 2,3 °C 85 % 1024,1 hPa 0,0 mm 7,1 km/h (2 Bft) N-NO 13 ° 1 min 0,000 mm 3,0 UV-I 566 W/m² 0,0 °C 0,2 °C 12,9 km/h (3 Bft)
25.02.2017 13:06 2,3 °C 2,3 °C 85 % 1024,1 hPa 0,0 mm 4,2 km/h (1 Bft) NO 49 ° 1 min 0,000 mm 3,0 UV-I 566 W/m² 0,0 °C 2,3 °C 6,4 km/h (2 Bft)
25.02.2017 13:07 2,4 °C 2,4 °C 84 % 1024,2 hPa 0,0 mm 2,8 km/h (1 Bft) O-NO 57 ° 1 min 0,000 mm 3,0 UV-I 564 W/m² -0,0 °C 2,4 °C 4,8 km/h (1 Bft)
25.02.2017 13:08 2,4 °C 2,5 °C 84 % 1024,2 hPa 0,0 mm 4,6 km/h (1 Bft) O 80 ° 1 min 0,000 mm 3,0 UV-I 564 W/m² -0,0 °C 1,3 °C 9,7 km/h (2 Bft)
25.02.2017 13:09 2,3 °C 2,4 °C 85 % 1024,2 hPa 0,2 mm 5,0 km/h (1 Bft) NO 41 ° 1 min 0,000 mm 3,0 UV-I 564 W/m² 0,0 °C 1,0 °C 6,4 km/h (2 Bft)
25.02.2017 13:10 2,2 °C 2,3 °C 85 % 1024,2 hPa 0,0 mm 3,1 km/h (1 Bft) O-NO 62 ° 1 min 0,000 mm 3,0 UV-I 563 W/m² -0,1 °C 2,2 °C 4,8 km/h (1 Bft)
25.02.2017 13:11 2,3 °C 2,3 °C 84 % 1024,2 hPa 0,0 mm 1,2 km/h (1 Bft) O-NO 62 ° 1 min 0,000 mm 3,0 UV-I 561 W/m² -0,1 °C 2,3 °C 3,2 km/h (1 Bft)
25.02.2017 13:12 2,3 °C 2,3 °C 83 % 1024,1 hPa 0,0 mm 1,4 km/h (1 Bft) O-NO 70 ° 1 min 0,000 mm 3,0 UV-I 563 W/m² -0,3 °C 2,3 °C 3,2 km/h (1 Bft)
25.02.2017 13:13 2,4 °C 2,4 °C 82 % 1024,1 hPa 0,0 mm 1,5 km/h (1 Bft) O-NO 70 ° 1 min 0,000 mm 3,0 UV-I 559 W/m² -0,4 °C 2,4 °C 3,2 km/h (1 Bft)
25.02.2017 13:14 2,3 °C 2,4 °C 82 % 1024,1 hPa 0,0 mm 4,4 km/h (1 Bft) O-NO 57 ° 1 min 0,000 mm 3,0 UV-I 559 W/m² -0,4 °C 2,3 °C 6,4 km/h (2 Bft)
25.02.2017 13:15 2,4 °C 2,4 °C 83 % 1024,1 hPa 0,0 mm 6,8 km/h (2 Bft) N-NO 31 ° 1 min 0,000 mm 3,0 UV-I 557 W/m² -0,2 °C 0,5 °C 8,0 km/h (2 Bft)
25.02.2017 13:16 2,4 °C 2,4 °C 83 % 1024,1 hPa 0,0 mm 4,1 km/h (1 Bft) O 93 ° 1 min 0,000 mm 3,0 UV-I 557 W/m² -0,2 °C 2,4 °C 6,4 km/h (2 Bft)
25.02.2017 13:17 2,3 °C 2,4 °C 84 % 1024,0 hPa 0,0 mm 6,0 km/h (2 Bft) O-NO 65 ° 1 min 0,000 mm 3,0 UV-I 555 W/m² -0,1 °C 0,6 °C 12,9 km/h (3 Bft)
25.02.2017 13:18 2,4 °C 2,4 °C 83 % 1024,0 hPa 0,0 mm 7,2 km/h (2 Bft) O 101 ° 1 min 0,000 mm 3,0 UV-I 555 W/m² -0,2 °C 0,3 °C 9,7 km/h (2 Bft)
25.02.2017 13:19 2,4 °C 2,4 °C 84 % 1024,0 hPa 0,0 mm 5,8 km/h (2 Bft) O-SO 107 ° 1 min 0,000 mm 3,0 UV-I 554 W/m² -0,0 °C 0,8 °C 6,4 km/h (2 Bft)
25.02.2017 13:20 2,3 °C 2,4 °C 84 % 1023,9 hPa 0,0 mm 6,4 km/h (2 Bft) NO 53 ° 1 min 0,000 mm 2,9 UV-I 550 W/m² -0,1 °C 0,5 °C 9,7 km/h (2 Bft)
25.02.2017 13:21 2,2 °C 2,3 °C 84 % 1023,9 hPa 0,0 mm 3,0 km/h (1 Bft) O-NO 60 ° 1 min 0,000 mm 2,9 UV-I 550 W/m² -0,2 °C 2,2 °C 6,4 km/h (2 Bft)
25.02.2017 13:22 2,3 °C 2,3 °C 82 % 1023,8 hPa 0,0 mm 3,3 km/h (1 Bft) O-SO 107 ° 1 min 0,000 mm 2,9 UV-I 550 W/m² -0,4 °C 2,3 °C 4,8 km/h (1 Bft)
25.02.2017 13:23 2,2 °C 2,3 °C 83 % 1023,9 hPa 0,0 mm 1,8 km/h (1 Bft) N-NO 25 ° 1 min 0,000 mm 3,0 UV-I 554 W/m² -0,4 °C 2,2 °C 3,2 km/h (1 Bft)
25.02.2017 13:24 2,2 °C 2,3 °C 83 % 1024,0 hPa 0,0 mm 3,5 km/h (1 Bft) O 97 ° 1 min 0,000 mm 2,9 UV-I 550 W/m² -0,4 °C 2,2 °C 4,8 km/h (1 Bft)
25.02.2017 13:25 2,4 °C 2,4 °C 81 % 1024,0 hPa 0,0 mm 2,3 km/h (1 Bft) O 98 ° 1 min 0,000 mm 2,9 UV-I 552 W/m² -0,5 °C 2,4 °C 4,8 km/h (1 Bft)
25.02.2017 13:26 2,6 °C 2,6 °C 81 % 1023,9 hPa 0,0 mm 3,1 km/h (1 Bft) O-NO 65 ° 1 min 0,000 mm 2,9 UV-I 545 W/m² -0,3 °C 2,6 °C 4,8 km/h (1 Bft)
25.02.2017 13:27 2,7 °C 2,7 °C 80 % 1024,0 hPa 0,2 mm 2,8 km/h (1 Bft) O 80 ° 1 min 0,000 mm 2,9 UV-I 550 W/m² -0,4 °C 2,7 °C 4,8 km/h (1 Bft)
25.02.2017 13:28 2,7 °C 2,7 °C 81 % 1024,0 hPa 0,0 mm 3,6 km/h (1 Bft) O 86 ° 1 min 0,000 mm 2,9 UV-I 548 W/m² -0,2 °C 2,7 °C 4,8 km/h (1 Bft)
25.02.2017 13:29 2,6 °C 2,7 °C 81 % 1023,9 hPa 0,0 mm 4,4 km/h (1 Bft) NO 47 ° 1 min 0,000 mm 2,9 UV-I 548 W/m² -0,3 °C 2,6 °C 6,4 km/h (2 Bft)
25.02.2017 13:30 2,6 °C 2,6 °C 81 % 1023,9 hPa 0,0 mm 4,0 km/h (1 Bft) NO 54 ° 1 min 0,000 mm 2,9 UV-I 547 W/m² -0,3 °C 2,6 °C 6,4 km/h (2 Bft)
25.02.2017 13:31 2,8 °C 2,8 °C 81 % 1023,8 hPa 0,0 mm 4,2 km/h (1 Bft) O 89 ° 1 min 0,000 mm 2,9 UV-I 545 W/m² -0,1 °C 2,8 °C 6,4 km/h (2 Bft)
25.02.2017 13:32 2,7 °C 2,8 °C 81 % 1023,8 hPa 0,0 mm 6,0 km/h (2 Bft) O-NO 65 ° 1 min 0,000 mm 2,9 UV-I 543 W/m² -0,2 °C 1,1 °C 8,0 km/h (2 Bft)
25.02.2017 13:33 2,7 °C 2,7 °C 82 % 1023,8 hPa 0,0 mm 3,8 km/h (1 Bft) O-NO 61 ° 1 min 0,000 mm 2,9 UV-I 543 W/m² -0,1 °C 2,7 °C 8,0 km/h (2 Bft)
25.02.2017 13:34 2,5 °C 2,7 °C 84 % 1023,8 hPa 0,0 mm 3,1 km/h (1 Bft) O 98 ° 1 min 0,000 mm 2,9 UV-I 541 W/m² 0,1 °C 2,5 °C 4,8 km/h (1 Bft)
25.02.2017 13:35 2,4 °C 2,5 °C 84 % 1023,8 hPa 0,0 mm 5,4 km/h (1 Bft) NO 45 ° 1 min 0,000 mm 2,9 UV-I 543 W/m² -0,0 °C 1,0 °C 9,7 km/h (2 Bft)
25.02.2017 13:36 2,4 °C 2,5 °C 83 % 1023,7 hPa 0,0 mm 4,2 km/h (1 Bft) O-SO 111 ° 1 min 0,000 mm 2,9 UV-I 540 W/m² -0,2 °C 2,4 °C 6,4 km/h (2 Bft)
25.02.2017 13:37 2,3 °C 2,4 °C 84 % 1023,7 hPa 0,0 mm 6,7 km/h (2 Bft) O 90 ° 1 min 0,000 mm 2,9 UV-I 540 W/m² -0,1 °C 0,4 °C 14,5 km/h (3 Bft)
25.02.2017 13:38 2,2 °C 2,3 °C 84 % 1023,7 hPa 0,0 mm 8,5 km/h (2 Bft) NO 53 ° 1 min 0,000 mm 2,8 UV-I 538 W/m² -0,2 °C -0,3 °C 12,9 km/h (3 Bft)
25.02.2017 13:39 2,3 °C 2,3 °C 85 % 1023,7 hPa 0,0 mm 5,0 km/h (1 Bft) O 82 ° 1 min 0,000 mm 2,8 UV-I 534 W/m² 0,0 °C 1,0 °C 8,0 km/h (2 Bft)
25.02.2017 13:40 2,3 °C 2,4 °C 84 % 1023,7 hPa 0,0 mm 5,1 km/h (1 Bft) NO 55 ° 1 min 0,000 mm 2,8 UV-I 534 W/m² -0,1 °C 1,0 °C 8,0 km/h (2 Bft)
25.02.2017 13:41 2,4 °C 2,4 °C 83 % 1023,7 hPa 0,0 mm 7,8 km/h (2 Bft) O-NO 62 ° 1 min 0,000 mm 2,8 UV-I 534 W/m² -0,2 °C 0,1 °C 9,7 km/h (2 Bft)
25.02.2017 13:42 2,3 °C 2,4 °C 84 % 1023,8 hPa 0,0 mm 5,1 km/h (1 Bft) N 9 ° 1 min 0,000 mm 2,8 UV-I 533 W/m² -0,1 °C 1,0 °C 8,0 km/h (2 Bft)
25.02.2017 13:43 2,3 °C 2,3 °C 84 % 1023,8 hPa 0,0 mm 3,4 km/h (1 Bft) NO 34 ° 1 min 0,000 mm 2,8 UV-I 533 W/m² -0,1 °C 2,3 °C 6,4 km/h (2 Bft)
25.02.2017 13:44 2,4 °C 2,4 °C 82 % 1023,8 hPa 0,0 mm 5,0 km/h (1 Bft) O-NO 71 ° 1 min 0,000 mm 2,8 UV-I 531 W/m² -0,4 °C 1,1 °C 12,9 km/h (3 Bft)
25.02.2017 13:45 2,5 °C 2,5 °C 83 % 1023,8 hPa 0,0 mm 5,4 km/h (1 Bft) O 84 ° 1 min 0,000 mm 2,8 UV-I 531 W/m² -0,1 °C 1,1 °C 8,0 km/h (2 Bft)
25.02.2017 13:46 2,7 °C 2,7 °C 82 % 1023,7 hPa 0,0 mm 6,1 km/h (2 Bft) O-NO 59 ° 1 min 0,000 mm 2,8 UV-I 531 W/m² -0,1 °C 1,0 °C 8,0 km/h (2 Bft)
25.02.2017 13:47 2,8 °C 2,8 °C 81 % 1023,7 hPa 0,0 mm 4,9 km/h (1 Bft) SO 138 ° 1 min 0,000 mm 2,8 UV-I 527 W/m² -0,1 °C 1,6 °C 8,0 km/h (2 Bft)
25.02.2017 13:48 2,8 °C 2,8 °C 81 % 1023,7 hPa 0,0 mm 1,1 km/h (1 Bft) SO 138 ° 1 min 0,000 mm 2,7 UV-I 527 W/m² -0,1 °C 2,8 °C 3,2 km/h (1 Bft)
25.02.2017 13:49 2,8 °C 2,8 °C 80 % 1023,5 hPa 0,0 mm 4,0 km/h (1 Bft) O-NO 76 ° 1 min 0,000 mm 2,7 UV-I 526 W/m² -0,3 °C 2,8 °C 9,7 km/h (2 Bft)
25.02.2017 13:50 2,7 °C 2,8 °C 82 % 1023,5 hPa 0,0 mm 6,2 km/h (2 Bft) O-NO 65 ° 1 min 0,000 mm 2,7 UV-I 526 W/m² -0,1 °C 1,0 °C 9,7 km/h (2 Bft)
25.02.2017 13:51 2,7 °C 2,7 °C 82 % 1023,4 hPa 0,0 mm 4,1 km/h (1 Bft) O 79 ° 1 min 0,000 mm 2,7 UV-I 522 W/m² -0,1 °C 2,7 °C 6,4 km/h (2 Bft)
25.02.2017 13:52 2,7 °C 2,7 °C 82 % 1023,4 hPa 0,0 mm 1,8 km/h (1 Bft) O 95 ° 1 min 0,000 mm 2,7 UV-I 522 W/m² -0,1 °C 2,7 °C 3,2 km/h (1 Bft)
25.02.2017 13:53 2,7 °C 2,7 °C 84 % 1023,3 hPa 0,0 mm 5,1 km/h (1 Bft) SO 139 ° 1 min 0,000 mm 2,7 UV-I 526 W/m² 0,3 °C 1,4 °C 9,7 km/h (2 Bft)
25.02.2017 13:54 2,8 °C 2,8 °C 80 % 1023,3 hPa 0,0 mm 5,7 km/h (1 Bft) O-SO 110 ° 1 min 0,000 mm 2,6 UV-I 517 W/m² -0,3 °C 1,3 °C 9,7 km/h (2 Bft)
25.02.2017 13:55 2,8 °C 2,8 °C 82 % 1023,2 hPa 0,0 mm 3,9 km/h (1 Bft) O-NO 61 ° 1 min 0,000 mm 2,7 UV-I 519 W/m² 0,0 °C 2,8 °C 6,4 km/h (2 Bft)
25.02.2017 13:56 2,9 °C 2,9 °C 82 % 1023,2 hPa 0,0 mm 2,3 km/h (1 Bft) O-NO 74 ° 1 min 0,000 mm 2,6 UV-I 503 W/m² 0,1 °C 2,9 °C 3,2 km/h (1 Bft)
25.02.2017 13:57 3,1 °C 3,1 °C 79 % 1023,2 hPa 0,0 mm 4,3 km/h (1 Bft) SO 142 ° 1 min 0,000 mm 2,6 UV-I 499 W/m² -0,2 °C 3,1 °C 9,7 km/h (2 Bft)
25.02.2017 13:58 3,1 °C 3,1 °C 79 % 1023,2 hPa 0,0 mm 6,6 km/h (2 Bft) NO 53 ° 1 min 0,000 mm 2,6 UV-I 510 W/m² -0,2 °C 1,3 °C 11,3 km/h (2 Bft)
25.02.2017 13:59 3,1 °C 3,1 °C 79 % 1023,2 hPa 0,0 mm 6,3 km/h (2 Bft) O-NO 64 ° 1 min 0,000 mm 2,6 UV-I 519 W/m² -0,2 °C 1,4 °C 11,3 km/h (2 Bft)
25.02.2017 14:00 2,9 °C 3,1 °C 81 % 1023,2 hPa 0,0 mm 5,2 km/h (1 Bft) O-SO 102 ° 1 min 0,000 mm 2,6 UV-I 499 W/m² -0,0 °C 1,6 °C 8,0 km/h (2 Bft)
25.02.2017 14:01 2,9 °C 2,9 °C 80 % 1023,2 hPa 0,0 mm 3,6 km/h (1 Bft) O 83 ° 1 min 0,204 mm 2,6 UV-I 504 W/m² -0,2 °C 2,9 °C 4,8 km/h (1 Bft)
25.02.2017 14:02 3,1 °C 3,1 °C 80 % 1023,2 hPa 0,0 mm 2,6 km/h (1 Bft) O 86 ° 1 min 0,000 mm 2,6 UV-I 519 W/m² -0,0 °C 3,1 °C 3,2 km/h (1 Bft)
25.02.2017 14:03 3,2 °C 3,2 °C 78 % 1023,2 hPa 0,0 mm 1,9 km/h (1 Bft) O 86 ° 1 min 0,000 mm 2,6 UV-I 515 W/m² -0,3 °C 3,2 °C 3,2 km/h (1 Bft)
25.02.2017 14:04 3,1 °C 3,2 °C 79 % 1023,2 hPa 0,0 mm 2,3 km/h (1 Bft) O 86 ° 1 min 0,000 mm 2,6 UV-I 512 W/m² -0,2 °C 3,1 °C 4,8 km/h (1 Bft)
25.02.2017 14:05 3,2 °C 3,2 °C 80 % 1023,3 hPa 0,0 mm 1,3 km/h (1 Bft) O 86 ° 1 min 0,000 mm 2,6 UV-I 512 W/m² 0,1 °C 3,2 °C 3,2 km/h (1 Bft)
25.02.2017 14:06 3,3 °C 3,3 °C 79 % 1023,2 hPa 0,0 mm 2,3 km/h (1 Bft) O 86 ° 1 min 0,000 mm 2,6 UV-I 499 W/m² 0,0 °C 3,3 °C 3,2 km/h (1 Bft)
25.02.2017 14:07 3,2 °C 3,3 °C 81 % 1023,3 hPa 0,0 mm 3,0 km/h (1 Bft) O-NO 73 ° 1 min 0,000 mm 2,5 UV-I 506 W/m² 0,3 °C 3,2 °C 6,4 km/h (2 Bft)
25.02.2017 14:08 3,1 °C 3,2 °C 80 % 1023,1 hPa 0,0 mm 4,1 km/h (1 Bft) O 89 ° 1 min 0,000 mm 2,5 UV-I 497 W/m² -0,0 °C 3,1 °C 6,4 km/h (2 Bft)
25.02.2017 14:09 3,0 °C 3,1 °C 82 % 1023,1 hPa 0,0 mm 3,8 km/h (1 Bft) O 86 ° 1 min 0,000 mm 2,5 UV-I 496 W/m² 0,2 °C 3,0 °C 6,4 km/h (2 Bft)
25.02.2017 14:10 3,1 °C 3,1 °C 82 % 1023,1 hPa 0,0 mm 3,0 km/h (1 Bft) O 87 ° 1 min 0,000 mm 2,5 UV-I 459 W/m² 0,3 °C 3,1 °C 6,4 km/h (2 Bft)
25.02.2017 14:11 3,1 °C 3,1 °C 81 % 1023,1 hPa 0,0 mm 6,6 km/h (2 Bft) O 90 ° 1 min 0,000 mm 2,5 UV-I 482 W/m² 0,2 °C 1,3 °C 8,0 km/h (2 Bft)
25.02.2017 14:12 3,1 °C 3,1 °C 81 % 1023,1 hPa 0,0 mm 3,0 km/h (1 Bft) NO 52 ° 1 min 0,000 mm 2,4 UV-I 489 W/m² 0,2 °C 3,1 °C 4,8 km/h (1 Bft)
25.02.2017 14:13 3,3 °C 3,3 °C 79 % 1023,1 hPa 0,0 mm 1,5 km/h (1 Bft) O 84 ° 1 min 0,000 mm 2,5 UV-I 499 W/m² 0,0 °C 3,3 °C 6,4 km/h (2 Bft)
25.02.2017 14:14 3,3 °C 3,3 °C 78 % 1023,1 hPa 0,0 mm 4,5 km/h (1 Bft) O 86 ° 1 min 0,000 mm 2,4 UV-I 489 W/m² -0,2 °C 3,3 °C 6,4 km/h (2 Bft)
25.02.2017 14:15 3,3 °C 3,3 °C 79 % 1023,1 hPa 0,0 mm 3,0 km/h (1 Bft) NO 40 ° 1 min 0,000 mm 2,3 UV-I 445 W/m² 0,0 °C 3,3 °C 4,8 km/h (1 Bft)
25.02.2017 14:16 3,4 °C 3,4 °C 78 % 1023,1 hPa 0,0 mm 3,7 km/h (1 Bft) SO 140 ° 1 min 0,000 mm 2,5 UV-I 494 W/m² -0,1 °C 3,4 °C 4,8 km/h (1 Bft)
25.02.2017 14:17 3,7 °C 3,7 °C 76 % 1023,0 hPa 0,0 mm 1,4 km/h (1 Bft) O-SO 105 ° 1 min 0,000 mm 2,5 UV-I 506 W/m² -0,1 °C 3,7 °C 3,2 km/h (1 Bft)
25.02.2017 14:18 3,8 °C 3,8 °C 75 % 1023,0 hPa 0,0 mm 4,2 km/h (1 Bft) O-NO 67 ° 1 min 0,000 mm 2,5 UV-I 492 W/m² -0,2 °C 3,8 °C 4,8 km/h (1 Bft)
25.02.2017 14:19 3,8 °C 3,8 °C 75 % 1023,0 hPa 0,0 mm 4,8 km/h (1 Bft) O 91 ° 1 min 0,000 mm 2,4 UV-I 490 W/m² -0,2 °C 2,8 °C 8,0 km/h (2 Bft)
25.02.2017 14:20 3,8 °C 3,8 °C 75 % 1023,0 hPa 0,0 mm 4,6 km/h (1 Bft) O-NO 76 ° 1 min 0,000 mm 2,4 UV-I 464 W/m² -0,2 °C 2,9 °C 6,4 km/h (2 Bft)
25.02.2017 14:21 3,7 °C 3,8 °C 77 % 1022,9 hPa 0,0 mm 3,8 km/h (1 Bft) O 98 ° 1 min 0,000 mm 2,3 UV-I 466 W/m² 0,1 °C 3,7 °C 4,8 km/h (1 Bft)
25.02.2017 14:22 3,6 °C 3,7 °C 77 % 1022,9 hPa 0,0 mm 1,5 km/h (1 Bft) O 98 ° 1 min 0,000 mm 2,4 UV-I 468 W/m² -0,0 °C 3,6 °C 3,2 km/h (1 Bft)
25.02.2017 14:23 3,4 °C 3,6 °C 79 % 1022,9 hPa 0,0 mm 4,6 km/h (1 Bft) O-NO 61 ° 1 min 0,000 mm 2,4 UV-I 489 W/m² 0,1 °C 2,4 °C 6,4 km/h (2 Bft)
25.02.2017 14:24 3,3 °C 3,4 °C 80 % 1023,0 hPa 0,0 mm 5,0 km/h (1 Bft) O-SO 109 ° 1 min 0,000 mm 2,3 UV-I 464 W/m² 0,2 °C 2,2 °C 8,0 km/h (2 Bft)
25.02.2017 14:25 3,3 °C 3,3 °C 79 % 1022,9 hPa 0,0 mm 4,8 km/h (1 Bft) O-SO 117 ° 1 min 0,000 mm 2,4 UV-I 492 W/m² 0,0 °C 2,2 °C 6,4 km/h (2 Bft)
25.02.2017 14:26 3,3 °C 3,3 °C 79 % 1022,9 hPa 0,0 mm 1,3 km/h (1 Bft) S 184 ° 1 min 0,000 mm 2,3 UV-I 443 W/m² 0,0 °C 3,3 °C 3,2 km/h (1 Bft)
25.02.2017 14:27 3,3 °C 3,4 °C 80 % 1022,9 hPa 0,0 mm 2,6 km/h (1 Bft) O 80 ° 1 min 0,000 mm 2,2 UV-I 450 W/m² 0,2 °C 3,3 °C 6,4 km/h (2 Bft)
25.02.2017 14:28 3,1 °C 3,3 °C 81 % 1022,9 hPa 0,0 mm 3,6 km/h (1 Bft) O-NO 65 ° 1 min 0,000 mm 2,2 UV-I 380 W/m² 0,2 °C 3,1 °C 6,4 km/h (2 Bft)
25.02.2017 14:29 3,2 °C 3,2 °C 80 % 1022,9 hPa 0,0 mm 4,9 km/h (1 Bft) O 100 ° 1 min 0,000 mm 2,1 UV-I 404 W/m² 0,1 °C 2,1 °C 6,4 km/h (2 Bft)
25.02.2017 14:30 3,3 °C 3,3 °C 80 % 1022,9 hPa 0,0 mm 3,4 km/h (1 Bft) O-SO 106 ° 1 min 0,000 mm 2,2 UV-I 446 W/m² 0,2 °C 3,3 °C 6,4 km/h (2 Bft)
25.02.2017 14:31 3,5 °C 3,5 °C 79 % 1022,8 hPa 0,0 mm 4,4 km/h (1 Bft) O-NO 74 ° 1 min 0,000 mm 2,1 UV-I 410 W/m² 0,2 °C 3,5 °C 6,4 km/h (2 Bft)
25.02.2017 14:32 3,6 °C 3,6 °C 79 % 1022,8 hPa 0,0 mm 5,6 km/h (1 Bft) O-NO 76 ° 1 min 0,000 mm 2,1 UV-I 425 W/m² 0,3 °C 2,3 °C 9,7 km/h (2 Bft)
25.02.2017 14:33 3,6 °C 3,6 °C 79 % 1022,8 hPa 0,0 mm 5,5 km/h (1 Bft) O 88 ° 1 min 0,000 mm 2,1 UV-I 401 W/m² 0,3 °C 2,3 °C 8,0 km/h (2 Bft)
25.02.2017 14:34 3,4 °C 3,6 °C 80 % 1022,8 hPa 0,0 mm 4,5 km/h (1 Bft) O-SO 102 ° 1 min 0,000 mm 2,0 UV-I 357 W/m² 0,3 °C 3,4 °C 6,4 km/h (2 Bft)
25.02.2017 14:35 3,4 °C 3,4 °C 79 % 1022,7 hPa 0,0 mm 4,5 km/h (1 Bft) O 91 ° 1 min 0,000 mm 2,0 UV-I 396 W/m² 0,1 °C 3,4 °C 6,4 km/h (2 Bft)
25.02.2017 14:36 3,3 °C 3,4 °C 79 % 1022,7 hPa 0,0 mm 2,9 km/h (1 Bft) O 90 ° 1 min 0,000 mm 2,1 UV-I 410 W/m² 0,0 °C 3,3 °C 4,8 km/h (1 Bft)
25.02.2017 14:37 3,4 °C 3,4 °C 79 % 1022,7 hPa 0,0 mm 1,9 km/h (1 Bft) O-SO 113 ° 1 min 0,000 mm 2,1 UV-I 434 W/m² 0,1 °C 3,4 °C 3,2 km/h (1 Bft)
25.02.2017 14:38 3,4 °C 3,4 °C 78 % 1022,7 hPa 0,0 mm 2,1 km/h (1 Bft) SO 140 ° 1 min 0,000 mm 2,1 UV-I 439 W/m² -0,1 °C 3,4 °C 3,2 km/h (1 Bft)
25.02.2017 14:39 3,5 °C 3,5 °C 78 % 1022,7 hPa 0,0 mm 2,3 km/h (1 Bft) SO 142 ° 1 min 0,000 mm 2,0 UV-I 415 W/m² 0,0 °C 3,5 °C 6,4 km/h (2 Bft)
25.02.2017 14:40 3,6 °C 3,6 °C 77 % 1022,6 hPa 0,0 mm 3,2 km/h (1 Bft) O-NO 74 ° 1 min 0,000 mm 2,0 UV-I 415 W/m² -0,0 °C 3,6 °C 4,8 km/h (1 Bft)
25.02.2017 14:41 3,5 °C 3,6 °C 79 % 1022,5 hPa 0,0 mm 3,1 km/h (1 Bft) O-SO 105 ° 1 min 0,000 mm 2,0 UV-I 406 W/m² 0,2 °C 3,5 °C 6,4 km/h (2 Bft)
25.02.2017 14:42 3,5 °C 3,5 °C 78 % 1022,5 hPa 0,0 mm 1,7 km/h (1 Bft) O-SO 123 ° 1 min 0,000 mm 2,0 UV-I 429 W/m² 0,0 °C 3,5 °C 3,2 km/h (1 Bft)
25.02.2017 14:43 3,4 °C 3,5 °C 78 % 1022,4 hPa 0,0 mm 2,4 km/h (1 Bft) O-SO 111 ° 1 min 0,000 mm 1,9 UV-I 411 W/m² -0,1 °C 3,4 °C 4,8 km/h (1 Bft)
25.02.2017 14:44 3,2 °C 3,4 °C 82 % 1022,4 hPa 0,0 mm 3,8 km/h (1 Bft) O-SO 123 ° 1 min 0,000 mm 1,8 UV-I 362 W/m² 0,4 °C 3,2 °C 6,4 km/h (2 Bft)
25.02.2017 14:45 3,2 °C 3,2 °C 79 % 1022,4 hPa 0,0 mm 1,7 km/h (1 Bft) O-NO 71 ° 1 min 0,000 mm 1,7 UV-I 283 W/m² -0,1 °C 3,2 °C 3,2 km/h (1 Bft)
25.02.2017 14:46 3,1 °C 3,2 °C 82 % 1022,3 hPa 0,0 mm 3,5 km/h (1 Bft) O 97 ° 1 min 0,000 mm 1,7 UV-I 285 W/m² 0,3 °C 3,1 °C 6,4 km/h (2 Bft)
25.02.2017 14:47 3,2 °C 3,2 °C 81 % 1022,3 hPa 0,0 mm 3,4 km/h (1 Bft) NO 49 ° 1 min 0,000 mm 1,9 UV-I 385 W/m² 0,3 °C 3,2 °C 6,4 km/h (2 Bft)
25.02.2017 14:48 3,3 °C 3,3 °C 79 % 1022,4 hPa 0,0 mm 1,4 km/h (1 Bft) O-NO 67 ° 1 min 0,000 mm 1,9 UV-I 434 W/m² 0,0 °C 3,3 °C 4,8 km/h (1 Bft)
25.02.2017 14:49 3,4 °C 3,4 °C 79 % 1022,3 hPa 0,0 mm 0,5 km/h (0 Bft) O-NO 67 ° 1 min 0,000 mm 1,9 UV-I 443 W/m² 0,1 °C 3,4 °C 1,6 km/h (1 Bft)
25.02.2017 14:50 3,5 °C 3,5 °C 80 % 1022,3 hPa 0,0 mm 0,3 km/h (0 Bft) O-NO 67 ° 1 min 0,000 mm 1,8 UV-I 388 W/m² 0,4 °C 3,5 °C 1,6 km/h (1 Bft)
25.02.2017 14:51 3,6 °C 3,6 °C 78 % 1022,3 hPa 0,0 mm 3,4 km/h (1 Bft) O-NO 70 ° 1 min 0,000 mm 1,8 UV-I 371 W/m² 0,1 °C 3,6 °C 6,4 km/h (2 Bft)
25.02.2017 14:52 3,6 °C 3,6 °C 79 % 1022,3 hPa 0,0 mm 6,8 km/h (2 Bft) SO 129 ° 1 min 0,000 mm 1,7 UV-I 371 W/m² 0,3 °C 1,8 °C 11,3 km/h (2 Bft)
25.02.2017 14:53 3,6 °C 3,6 °C 81 % 1022,2 hPa 0,0 mm 2,4 km/h (1 Bft) O-SO 106 ° 1 min 0,000 mm 1,5 UV-I 283 W/m² 0,7 °C 3,6 °C 4,8 km/h (1 Bft)
25.02.2017 14:54 3,6 °C 3,6 °C 80 % 1022,2 hPa 0,0 mm 4,8 km/h (1 Bft) O 101 ° 1 min 0,000 mm 1,6 UV-I 257 W/m² 0,5 °C 2,6 °C 8,0 km/h (2 Bft)
25.02.2017 14:55 3,4 °C 3,6 °C 80 % 1022,1 hPa 0,0 mm 4,2 km/h (1 Bft) O-SO 123 ° 1 min 0,000 mm 1,5 UV-I 257 W/m² 0,3 °C 3,4 °C 6,4 km/h (2 Bft)
25.02.2017 14:56 3,4 °C 3,4 °C 82 % 1022,1 hPa 0,0 mm 2,0 km/h (1 Bft) SO 127 ° 1 min 0,000 mm 1,5 UV-I 253 W/m² 0,6 °C 3,4 °C 3,2 km/h (1 Bft)
25.02.2017 14:57 3,4 °C 3,4 °C 81 % 1022,1 hPa 0,0 mm 0,6 km/h (0 Bft) SO 127 ° 1 min 0,000 mm 1,5 UV-I 265 W/m² 0,5 °C 3,4 °C 3,2 km/h (1 Bft)
25.02.2017 14:58 3,3 °C 3,4 °C 83 % 1022,0 hPa 0,0 mm 2,1 km/h (1 Bft) O-SO 111 ° 1 min 0,000 mm 1,5 UV-I 281 W/m² 0,7 °C 3,3 °C 3,2 km/h (1 Bft)
25.02.2017 14:59 3,2 °C 3,3 °C 84 % 1022,1 hPa 0,0 mm 2,3 km/h (1 Bft) O-SO 111 ° 1 min 0,000 mm 1,5 UV-I 276 W/m² 0,8 °C 3,2 °C 4,8 km/h (1 Bft)
25.02.2017 15:00 3,2 °C 3,2 °C 84 % 1022,1 hPa 0,0 mm 4,6 km/h (1 Bft) O 94 ° 1 min 0,000 mm 1,5 UV-I 302 W/m² 0,8 °C 2,2 °C 6,4 km/h (2 Bft)
25.02.2017 15:01 3,2 °C 3,2 °C 83 % 1022,1 hPa 0,0 mm 3,5 km/h (1 Bft) O 82 ° 1 min 0,152 mm 1,5 UV-I 325 W/m² 0,6 °C 3,2 °C 4,8 km/h (1 Bft)
25.02.2017 15:02 3,3 °C 3,3 °C 81 % 1022,1 hPa 0,0 mm 1,9 km/h (1 Bft) O 82 ° 1 min 0,000 mm 1,6 UV-I 339 W/m² 0,4 °C 3,3 °C 3,2 km/h (1 Bft)
25.02.2017 15:03 3,5 °C 3,5 °C 79 % 1022,1 hPa 0,0 mm 1,1 km/h (1 Bft) O 82 ° 1 min 0,000 mm 1,6 UV-I 332 W/m² 0,2 °C 3,5 °C 3,2 km/h (1 Bft)
25.02.2017 15:04 3,6 °C 3,6 °C 80 % 1022,1 hPa 0,0 mm 2,2 km/h (1 Bft) S-SO 150 ° 1 min 0,000 mm 1,6 UV-I 316 W/m² 0,5 °C 3,6 °C 3,2 km/h (1 Bft)
25.02.2017 15:05 3,6 °C 3,6 °C 80 % 1022,1 hPa 0,0 mm 1,0 km/h (0 Bft) S-SO 150 ° 1 min 0,000 mm 1,6 UV-I 292 W/m² 0,5 °C 3,6 °C 1,6 km/h (1 Bft)
25.02.2017 15:06 3,4 °C 3,6 °C 80 % 1022,0 hPa 0,0 mm 1,6 km/h (1 Bft) S-SO 150 ° 1 min 0,000 mm 1,5 UV-I 297 W/m² 0,3 °C 3,4 °C 3,2 km/h (1 Bft)
25.02.2017 15:07 3,5 °C 3,5 °C 80 % 1022,1 hPa 0,0 mm 0,5 km/h (0 Bft) S-SO 150 ° 1 min 0,000 mm 1,6 UV-I 343 W/m² 0,4 °C 3,5 °C 1,6 km/h (1 Bft)
25.02.2017 15:08 3,5 °C 3,6 °C 81 % 1022,0 hPa 0,0 mm 1,9 km/h (1 Bft) S-SO 150 ° 1 min 0,000 mm 1,5 UV-I 343 W/m² 0,6 °C 3,5 °C 3,2 km/h (1 Bft)
25.02.2017 15:09 3,6 °C 3,6 °C 79 % 1022,1 hPa 0,0 mm 1,5 km/h (1 Bft) S-SO 148 ° 1 min 0,000 mm 1,5 UV-I 278 W/m² 0,3 °C 3,6 °C 3,2 km/h (1 Bft)
25.02.2017 15:10 3,7 °C 3,7 °C 80 % 1022,1 hPa 0,0 mm 2,7 km/h (1 Bft) O-SO 107 ° 1 min 0,000 mm 1,5 UV-I 246 W/m² 0,6 °C 3,7 °C 4,8 km/h (1 Bft)
25.02.2017 15:11 3,7 °C 3,7 °C 79 % 1022,0 hPa 0,0 mm 1,7 km/h (1 Bft) O-SO 107 ° 1 min 0,000 mm 1,4 UV-I 244 W/m² 0,4 °C 3,7 °C 3,2 km/h (1 Bft)
25.02.2017 15:12 3,8 °C 3,8 °C 77 % 1022,1 hPa 0,0 mm 3,6 km/h (1 Bft) NO 48 ° 1 min 0,000 mm 1,4 UV-I 269 W/m² 0,1 °C 3,8 °C 4,8 km/h (1 Bft)
25.02.2017 15:13 3,8 °C 3,8 °C 77 % 1022,0 hPa 0,0 mm 1,3 km/h (1 Bft) NO 48 ° 1 min 0,000 mm 1,5 UV-I 313 W/m² 0,1 °C 3,8 °C 3,2 km/h (1 Bft)
25.02.2017 15:14 3,7 °C 3,8 °C 79 % 1022,0 hPa 0,0 mm 2,6 km/h (1 Bft) O 80 ° 1 min 0,000 mm 1,5 UV-I 306 W/m² 0,4 °C 3,7 °C 4,8 km/h (1 Bft)
25.02.2017 15:15 3,7 °C 3,7 °C 77 % 1021,9 hPa 0,0 mm 1,7 km/h (1 Bft) O 80 ° 1 min 0,000 mm 1,5 UV-I 311 W/m² 0,1 °C 3,7 °C 3,2 km/h (1 Bft)
25.02.2017 15:16 3,7 °C 3,8 °C 78 % 1022,0 hPa 0,0 mm 3,0 km/h (1 Bft) O-SO 110 ° 1 min 0,000 mm 1,5 UV-I 323 W/m² 0,2 °C 3,7 °C 6,4 km/h (2 Bft)
25.02.2017 15:17 3,7 °C 3,7 °C 80 % 1022,0 hPa 0,0 mm 4,2 km/h (1 Bft) O-SO 103 ° 1 min 0,000 mm 1,5 UV-I 253 W/m² 0,6 °C 3,7 °C 6,4 km/h (2 Bft)
25.02.2017 15:18 3,6 °C 3,7 °C 78 % 1022,0 hPa 0,0 mm 3,7 km/h (1 Bft) NO 55 ° 1 min 0,000 mm 1,3 UV-I 232 W/m² 0,1 °C 3,6 °C 4,8 km/h (1 Bft)
25.02.2017 15:19 3,6 °C 3,7 °C 78 % 1022,0 hPa 0,0 mm 3,4 km/h (1 Bft) O-SO 105 ° 1 min 0,000 mm 1,3 UV-I 218 W/m² 0,1 °C 3,6 °C 6,4 km/h (2 Bft)
25.02.2017 15:20 3,6 °C 3,7 °C 78 % 1021,9 hPa 0,0 mm 3,7 km/h (1 Bft) O-NO 77 ° 0 min 0,000 mm 1,2 UV-I 193 W/m² 0,1 °C 3,6 °C 4,8 km/h (1 Bft)
25.02.2017 15:21 3,5 °C 3,6 °C 80 % 1021,9 hPa 0,0 mm 1,8 km/h (1 Bft) O-NO 77 ° 0 min 0,000 mm 1,2 UV-I 193 W/m² 0,4 °C 3,5 °C 3,2 km/h (1 Bft)
25.02.2017 15:22 3,5 °C 3,5 °C 80 % 1021,9 hPa 0,0 mm 2,1 km/h (1 Bft) O-NO 77 ° 1 min 0,000 mm 1,2 UV-I 204 W/m² 0,4 °C 3,5 °C 3,2 km/h (1 Bft)
25.02.2017 15:23 3,5 °C 3,5 °C 80 % 1021,9 hPa 0,0 mm 3,6 km/h (1 Bft) O-NO 72 ° 0 min 0,000 mm 1,2 UV-I 197 W/m² 0,4 °C 3,5 °C 6,4 km/h (2 Bft)
25.02.2017 15:24 3,6 °C 3,6 °C 79 % 1021,8 hPa 0,0 mm 2,4 km/h (1 Bft) O-NO 72 ° 1 min 0,000 mm 1,2 UV-I 211 W/m² 0,3 °C 3,6 °C 4,8 km/h (1 Bft)
25.02.2017 15:25 3,7 °C 3,7 °C 77 % 1021,8 hPa 0,0 mm 4,0 km/h (1 Bft) O-SO 108 ° 1 min 0,000 mm 1,2 UV-I 220 W/m² 0,1 °C 3,7 °C 6,4 km/h (2 Bft)
25.02.2017 15:26 3,7 °C 3,8 °C 77 % 1021,7 hPa 0,0 mm 3,7 km/h (1 Bft) O-SO 110 ° 1 min 0,000 mm 1,3 UV-I 220 W/m² 0,1 °C 3,7 °C 6,4 km/h (2 Bft)
25.02.2017 15:27 3,8 °C 3,8 °C 75 % 1021,7 hPa 0,0 mm 2,2 km/h (1 Bft) O-SO 113 ° 1 min 0,000 mm 1,3 UV-I 239 W/m² -0,2 °C 3,8 °C 3,2 km/h (1 Bft)
25.02.2017 15:28 3,8 °C 3,8 °C 76 % 1021,7 hPa 0,0 mm 1,9 km/h (1 Bft) O-SO 113 ° 1 min 0,000 mm 1,3 UV-I 288 W/m² -0,0 °C 3,8 °C 4,8 km/h (1 Bft)
25.02.2017 15:29 3,8 °C 3,8 °C 76 % 1021,7 hPa 0,0 mm 0,3 km/h (0 Bft) O-SO 113 ° 1 min 0,000 mm 1,3 UV-I 329 W/m² -0,0 °C 3,8 °C 1,6 km/h (1 Bft)
25.02.2017 15:30 3,7 °C 3,8 °C 76 % 1021,7 hPa 0,0 mm 2,3 km/h (1 Bft) O-SO 114 ° 1 min 0,000 mm 1,3 UV-I 330 W/m² -0,1 °C 3,7 °C 4,8 km/h (1 Bft)
25.02.2017 15:31 3,7 °C 3,7 °C 76 % 1021,6 hPa 0,0 mm 1,3 km/h (1 Bft) O-SO 113 ° 1 min 0,000 mm 1,3 UV-I 287 W/m² -0,1 °C 3,7 °C 3,2 km/h (1 Bft)
25.02.2017 15:32 3,7 °C 3,8 °C 79 % 1021,5 hPa 0,0 mm 3,3 km/h (1 Bft) O-SO 114 ° 1 min 0,000 mm 1,3 UV-I 287 W/m² 0,4 °C 3,7 °C 4,8 km/h (1 Bft)
25.02.2017 15:33 3,6 °C 3,7 °C 80 % 1021,5 hPa 0,0 mm 4,2 km/h (1 Bft) O 98 ° 1 min 0,000 mm 1,3 UV-I 281 W/m² 0,5 °C 3,6 °C 6,4 km/h (2 Bft)
25.02.2017 15:34 3,7 °C 3,7 °C 77 % 1021,5 hPa 0,0 mm 3,4 km/h (1 Bft) O-SO 105 ° 1 min 0,000 mm 1,3 UV-I 309 W/m² 0,1 °C 3,7 °C 4,8 km/h (1 Bft)
25.02.2017 15:35 3,6 °C 3,7 °C 78 % 1021,5 hPa 0,0 mm 4,6 km/h (1 Bft) SO 131 ° 1 min 0,000 mm 1,3 UV-I 306 W/m² 0,1 °C 2,7 °C 6,4 km/h (2 Bft)
25.02.2017 15:36 3,6 °C 3,6 °C 80 % 1021,5 hPa 0,0 mm 4,3 km/h (1 Bft) SO 128 ° 1 min 0,000 mm 1,3 UV-I 320 W/m² 0,5 °C 3,6 °C 6,4 km/h (2 Bft)
25.02.2017 15:37 3,7 °C 3,7 °C 76 % 1021,4 hPa 0,0 mm 2,9 km/h (1 Bft) O 86 ° 1 min 0,000 mm 1,3 UV-I 271 W/m² -0,1 °C 3,7 °C 4,8 km/h (1 Bft)
25.02.2017 15:38 3,7 °C 3,8 °C 78 % 1021,5 hPa 0,0 mm 4,1 km/h (1 Bft) O 85 ° 1 min 0,000 mm 1,2 UV-I 248 W/m² 0,2 °C 3,7 °C 6,4 km/h (2 Bft)
25.02.2017 15:39 3,7 °C 3,7 °C 79 % 1021,5 hPa 0,0 mm 3,9 km/h (1 Bft) O-NO 67 ° 1 min 0,000 mm 1,2 UV-I 223 W/m² 0,4 °C 3,7 °C 8,0 km/h (2 Bft)
25.02.2017 15:40 3,6 °C 3,7 °C 80 % 1021,4 hPa 0,0 mm 4,0 km/h (1 Bft) O-NO 65 ° 1 min 0,000 mm 1,2 UV-I 218 W/m² 0,5 °C 3,6 °C 6,4 km/h (2 Bft)
25.02.2017 15:41 3,4 °C 3,6 °C 80 % 1021,5 hPa 0,0 mm 4,3 km/h (1 Bft) O 84 ° 1 min 0,000 mm 1,2 UV-I 218 W/m² 0,3 °C 3,4 °C 6,4 km/h (2 Bft)
25.02.2017 15:42 3,4 °C 3,4 °C 78 % 1021,5 hPa 0,0 mm 3,8 km/h (1 Bft) O 85 ° 1 min 0,000 mm 1,2 UV-I 239 W/m² -0,1 °C 3,4 °C 4,8 km/h (1 Bft)
25.02.2017 15:43 3,4 °C 3,4 °C 80 % 1021,5 hPa 0,0 mm 2,5 km/h (1 Bft) O-NO 69 ° 1 min 0,000 mm 1,2 UV-I 239 W/m² 0,3 °C 3,4 °C 4,8 km/h (1 Bft)
25.02.2017 15:44 3,3 °C 3,4 °C 80 % 1021,5 hPa 0,0 mm 3,1 km/h (1 Bft) O-NO 57 ° 1 min 0,000 mm 1,2 UV-I 278 W/m² 0,2 °C 3,3 °C 4,8 km/h (1 Bft)
25.02.2017 15:45 3,2 °C 3,3 °C 80 % 1021,5 hPa 0,0 mm 3,4 km/h (1 Bft) SO 128 ° 1 min 0,000 mm 1,2 UV-I 248 W/m² 0,1 °C 3,2 °C 6,4 km/h (2 Bft)
25.02.2017 15:46 3,1 °C 3,2 °C 82 % 1021,5 hPa 0,0 mm 2,7 km/h (1 Bft) NO 34 ° 0 min 0,000 mm 1,1 UV-I 199 W/m² 0,3 °C 3,1 °C 4,8 km/h (1 Bft)
25.02.2017 15:47 3,2 °C 3,2 °C 80 % 1021,5 hPa 0,0 mm 3,1 km/h (1 Bft) SO 130 ° 0 min 0,000 mm 1,0 UV-I 155 W/m² 0,1 °C 3,2 °C 4,8 km/h (1 Bft)
25.02.2017 15:48 3,3 °C 3,3 °C 79 % 1021,5 hPa 0,0 mm 3,1 km/h (1 Bft) O 86 ° 0 min 0,000 mm 1,0 UV-I 158 W/m² 0,0 °C 3,3 °C 4,8 km/h (1 Bft)
25.02.2017 15:49 3,3 °C 3,3 °C 79 % 1021,5 hPa 0,0 mm 3,6 km/h (1 Bft) O 96 ° 0 min 0,000 mm 1,0 UV-I 162 W/m² 0,0 °C 3,3 °C 4,8 km/h (1 Bft)
25.02.2017 15:50 3,4 °C 3,4 °C 80 % 1021,4 hPa 0,0 mm 3,5 km/h (1 Bft) O 100 ° 0 min 0,000 mm 1,0 UV-I 156 W/m² 0,3 °C 3,4 °C 6,4 km/h (2 Bft)
25.02.2017 15:51 3,4 °C 3,4 °C 80 % 1021,4 hPa 0,0 mm 2,1 km/h (1 Bft) O 101 ° 0 min 0,000 mm 1,0 UV-I 137 W/m² 0,3 °C 3,4 °C 3,2 km/h (1 Bft)
25.02.2017 15:52 3,4 °C 3,5 °C 79 % 1021,4 hPa 0,0 mm 5,4 km/h (1 Bft) O-NO 78 ° 0 min 0,000 mm 0,9 UV-I 130 W/m² 0,1 °C 2,1 °C 8,0 km/h (2 Bft)
25.02.2017 15:53 3,4 °C 3,4 °C 79 % 1021,4 hPa 0,0 mm 2,8 km/h (1 Bft) O-NO 65 ° 0 min 0,000 mm 0,9 UV-I 107 W/m² 0,1 °C 3,4 °C 8,0 km/h (2 Bft)
25.02.2017 15:54 3,4 °C 3,4 °C 78 % 1021,4 hPa 0,0 mm 6,0 km/h (2 Bft) O 80 ° 0 min 0,000 mm 0,9 UV-I 95 W/m² -0,1 °C 1,9 °C 8,0 km/h (2 Bft)
25.02.2017 15:55 3,4 °C 3,4 °C 77 % 1021,3 hPa 0,0 mm 2,5 km/h (1 Bft) O 82 ° 0 min 0,000 mm 0,8 UV-I 86 W/m² -0,2 °C 3,4 °C 4,8 km/h (1 Bft)
25.02.2017 15:56 3,6 °C 3,6 °C 78 % 1021,3 hPa 0,0 mm 2,3 km/h (1 Bft) O 82 ° 0 min 0,000 mm 0,8 UV-I 84 W/m² 0,1 °C 3,6 °C 3,2 km/h (1 Bft)
25.02.2017 15:57 3,6 °C 3,6 °C 78 % 1021,3 hPa 0,0 mm 3,0 km/h (1 Bft) O-SO 122 ° 0 min 0,000 mm 0,8 UV-I 84 W/m² 0,1 °C 3,6 °C 6,4 km/h (2 Bft)
25.02.2017 15:58 3,6 °C 3,6 °C 78 % 1021,3 hPa 0,0 mm 3,1 km/h (1 Bft) SO 139 ° 0 min 0,000 mm 0,8 UV-I 91 W/m² 0,1 °C 3,6 °C 4,8 km/h (1 Bft)
25.02.2017 15:59 3,6 °C 3,6 °C 78 % 1021,3 hPa 0,0 mm 1,9 km/h (1 Bft) SO 139 ° 0 min 0,000 mm 0,8 UV-I 93 W/m² 0,1 °C 3,6 °C 3,2 km/h (1 Bft)
25.02.2017 16:00 3,6 °C 3,6 °C 78 % 1021,3 hPa 0,0 mm 1,6 km/h (1 Bft) SO 139 ° 0 min 0,000 mm 0,8 UV-I 91 W/m² 0,1 °C 3,6 °C 3,2 km/h (1 Bft)
25.02.2017 16:01 3,7 °C 3,7 °C 77 % 1021,3 hPa 0,0 mm 1,7 km/h (1 Bft) SO 139 ° 0 min 0,102 mm 0,8 UV-I 90 W/m² 0,1 °C 3,7 °C 3,2 km/h (1 Bft)
25.02.2017 16:02 3,6 °C 3,7 °C 78 % 1021,3 hPa 0,0 mm 2,8 km/h (1 Bft) SO 139 ° 0 min 0,000 mm 0,8 UV-I 90 W/m² 0,1 °C 3,6 °C 4,8 km/h (1 Bft)
25.02.2017 16:03 3,6 °C 3,6 °C 77 % 1021,3 hPa 0,0 mm 2,7 km/h (1 Bft) N-NO 23 ° 0 min 0,000 mm 0,8 UV-I 70 W/m² -0,0 °C 3,6 °C 3,2 km/h (1 Bft)
25.02.2017 16:04 3,6 °C 3,6 °C 78 % 1021,3 hPa 0,0 mm 2,9 km/h (1 Bft) O-NO 57 ° 0 min 0,000 mm 0,8 UV-I 67 W/m² 0,1 °C 3,6 °C 4,8 km/h (1 Bft)
25.02.2017 16:05 3,6 °C 3,6 °C 77 % 1021,3 hPa 0,0 mm 2,8 km/h (1 Bft) O 90 ° 0 min 0,000 mm 0,8 UV-I 62 W/m² -0,0 °C 3,6 °C 4,8 km/h (1 Bft)
25.02.2017 16:06 3,7 °C 3,7 °C 77 % 1021,3 hPa 0,0 mm 1,1 km/h (1 Bft) O 90 ° 0 min 0,000 mm 0,8 UV-I 56 W/m² 0,1 °C 3,7 °C 3,2 km/h (1 Bft)
25.02.2017 16:07 3,7 °C 3,7 °C 77 % 1021,3 hPa 0,0 mm 2,7 km/h (1 Bft) O 90 ° 0 min 0,000 mm 0,0 UV-I 51 W/m² 0,1 °C 3,7 °C 4,8 km/h (1 Bft)
25.02.2017 16:08 3,7 °C 3,7 °C 76 % 1021,3 hPa 0,0 mm 0,5 km/h (0 Bft) O 90 ° 0 min 0,000 mm 0,0 UV-I 47 W/m² -0,1 °C 3,7 °C 1,6 km/h (1 Bft)
25.02.2017 16:09 3,7 °C 3,7 °C 76 % 1021,4 hPa 0,0 mm 2,2 km/h (1 Bft) O 90 ° 0 min 0,000 mm 0,0 UV-I 40 W/m² -0,1 °C 3,7 °C 3,2 km/h (1 Bft)
25.02.2017 16:10 3,6 °C 3,7 °C 78 % 1021,4 hPa 0,0 mm 0,8 km/h (0 Bft) O 90 ° 0 min 0,000 mm 0,0 UV-I 37 W/m² 0,1 °C 3,6 °C 1,6 km/h (1 Bft)
25.02.2017 16:11 3,7 °C 3,7 °C 76 % 1021,4 hPa 0,0 mm 0,4 km/h (0 Bft) O 90 ° 0 min 0,000 mm 0,0 UV-I 35 W/m² -0,1 °C 3,7 °C 1,6 km/h (1 Bft)
25.02.2017 16:12 3,7 °C 3,7 °C 74 % 1021,4 hPa 0,0 mm 1,2 km/h (1 Bft) O 90 ° 0 min 0,000 mm 0,0 UV-I 33 W/m² -0,5 °C 3,7 °C 3,2 km/h (1 Bft)
25.02.2017 16:13 3,6 °C 3,7 °C 74 % 1021,4 hPa 0,0 mm 3,6 km/h (1 Bft) SO 142 ° 0 min 0,000 mm 0,0 UV-I 32 W/m² -0,6 °C 3,6 °C 4,8 km/h (1 Bft)
25.02.2017 16:14 3,4 °C 3,6 °C 77 % 1021,4 hPa 0,0 mm 2,5 km/h (1 Bft) SO 142 ° 0 min 0,000 mm 0,0 UV-I 32 W/m² -0,2 °C 3,4 °C 4,8 km/h (1 Bft)
25.02.2017 16:15 3,4 °C 3,4 °C 77 % 1021,4 hPa 0,0 mm 1,2 km/h (1 Bft) SO 142 ° 0 min 0,000 mm 0,0 UV-I 32 W/m² -0,2 °C 3,4 °C 1,6 km/h (1 Bft)
25.02.2017 16:16 3,4 °C 3,4 °C 76 % 1021,3 hPa 0,0 mm 1,4 km/h (1 Bft) SO 142 ° 0 min 0,000 mm 0,0 UV-I 30 W/m² -0,4 °C 3,4 °C 3,2 km/h (1 Bft)
25.02.2017 16:17 3,4 °C 3,4 °C 76 % 1021,3 hPa 0,0 mm 1,7 km/h (1 Bft) SO 142 ° 0 min 0,000 mm 0,0 UV-I 30 W/m² -0,4 °C 3,4 °C 3,2 km/h (1 Bft)
25.02.2017 16:18 3,5 °C 3,5 °C 77 % 1021,3 hPa 0,0 mm 1,9 km/h (1 Bft) SO 142 ° 0 min 0,000 mm 0,0 UV-I 30 W/m² -0,1 °C 3,5 °C 3,2 km/h (1 Bft)
25.02.2017 16:19 3,6 °C 3,6 °C 77 % 1021,3 hPa 0,0 mm 1,3 km/h (1 Bft) SO 142 ° 0 min 0,000 mm 0,0 UV-I 30 W/m² -0,0 °C 3,6 °C 3,2 km/h (1 Bft)
25.02.2017 16:20 3,6 °C 3,6 °C 76 % 1021,3 hPa 0,0 mm 0,6 km/h (0 Bft) SO 142 ° 0 min 0,000 mm 0,0 UV-I 30 W/m² -0,2 °C 3,6 °C 1,6 km/h (1 Bft)
25.02.2017 16:21 3,6 °C 3,6 °C 77 % 1021,3 hPa 0,0 mm 2,0 km/h (1 Bft) SO 142 ° 0 min 0,000 mm 0,0 UV-I 30 W/m² -0,0 °C 3,6 °C 3,2 km/h (1 Bft)
25.02.2017 16:22 3,6 °C 3,6 °C 77 % 1021,3 hPa 0,0 mm 1,7 km/h (1 Bft) SO 130 ° 0 min 0,000 mm 0,0 UV-I 30 W/m² -0,0 °C 3,6 °C 3,2 km/h (1 Bft)
25.02.2017 16:23 3,5 °C 3,6 °C 77 % 1021,3 hPa 0,0 mm 1,8 km/h (1 Bft) SO 130 ° 0 min 0,000 mm 0,0 UV-I 30 W/m² -0,1 °C 3,5 °C 3,2 km/h (1 Bft)
25.02.2017 16:24 3,5 °C 3,5 °C 77 % 1021,3 hPa 0,0 mm 0,7 km/h (0 Bft) SO 130 ° 0 min 0,000 mm 0,0 UV-I 30 W/m² -0,1 °C 3,5 °C 1,6 km/h (1 Bft)
25.02.2017 16:25 3,6 °C 3,6 °C 77 % 1021,3 hPa 0,0 mm 2,2 km/h (1 Bft) SO 130 ° 0 min 0,000 mm 0,0 UV-I 30 W/m² -0,0 °C 3,6 °C 4,8 km/h (1 Bft)
25.02.2017 16:26 3,6 °C 3,6 °C 77 % 1021,3 hPa 0,0 mm 1,8 km/h (1 Bft) SO 130 ° 0 min 0,000 mm 0,0 UV-I 32 W/m² -0,0 °C 3,6 °C 3,2 km/h (1 Bft)
25.02.2017 16:27 3,7 °C 3,7 °C 78 % 1021,2 hPa 0,0 mm 1,2 km/h (1 Bft) SO 130 ° 0 min 0,000 mm 0,0 UV-I 32 W/m² 0,2 °C 3,7 °C 3,2 km/h (1 Bft)
25.02.2017 16:28 3,7 °C 3,7 °C 76 % 1021,3 hPa 0,0 mm 0,3 km/h (0 Bft) SO 130 ° 0 min 0,000 mm 0,0 UV-I 32 W/m² -0,1 °C 3,7 °C 1,6 km/h (1 Bft)
25.02.2017 16:29 3,7 °C 3,7 °C 75 % 1021,3 hPa 0,0 mm 0,3 km/h (0 Bft) SO 130 ° 0 min 0,000 mm 0,0 UV-I 32 W/m² -0,3 °C 3,7 °C 1,6 km/h (1 Bft)
25.02.2017 16:30 3,7 °C 3,8 °C 76 % 1021,3 hPa 0,0 mm 0,3 km/h (0 Bft) SO 130 ° 0 min 0,000 mm 0,0 UV-I 32 W/m² -0,1 °C 3,7 °C 1,6 km/h (1 Bft)
25.02.2017 16:31 3,8 °C 3,8 °C 76 % 1021,3 hPa 0,0 mm 0,1 km/h (0 Bft) SO 130 ° 0 min 0,000 mm 0,0 UV-I 33 W/m² -0,0 °C 3,8 °C 1,6 km/h (1 Bft)
25.02.2017 16:32 3,8 °C 3,8 °C 75 % 1021,2 hPa 0,0 mm 0,0 km/h (0 Bft) SO 130 ° 0 min 0,000 mm 0,0 UV-I 33 W/m² -0,2 °C 3,8 °C 0,0 km/h (0 Bft)
25.02.2017 16:33 3,8 °C 3,8 °C 75 % 1021,3 hPa 0,0 mm 0,0 km/h (0 Bft) SO 130 ° 0 min 0,000 mm 0,0 UV-I 32 W/m² -0,2 °C 3,8 °C 0,0 km/h (0 Bft)
25.02.2017 16:34 3,8 °C 3,8 °C 76 % 1021,3 hPa 0,0 mm 0,0 km/h (0 Bft) SO 130 ° 0 min 0,000 mm 0,0 UV-I 33 W/m² -0,0 °C 3,8 °C 0,0 km/h (0 Bft)
25.02.2017 16:35 3,8 °C 3,8 °C 76 % 1021,2 hPa 0,0 mm 0,0 km/h (0 Bft) SO 130 ° 0 min 0,000 mm 0,0 UV-I 35 W/m² -0,0 °C 3,8 °C 0,0 km/h (0 Bft)
25.02.2017 16:36 3,8 °C 3,8 °C 75 % 1021,3 hPa 0,0 mm 0,0 km/h (0 Bft) SO 130 ° 0 min 0,000 mm 0,0 UV-I 35 W/m² -0,2 °C 3,8 °C 0,0 km/h (0 Bft)
25.02.2017 16:37 3,8 °C 3,8 °C 75 % 1021,2 hPa 0,0 mm 0,0 km/h (0 Bft) SO 130 ° 0 min 0,000 mm 0,0 UV-I 35 W/m² -0,2 °C 3,8 °C 0,0 km/h (0 Bft)
25.02.2017 16:38 3,8 °C 3,8 °C 75 % 1021,2 hPa 0,0 mm 0,0 km/h (0 Bft) SO 130 ° 0 min 0,000 mm 0,0 UV-I 37 W/m² -0,2 °C 3,8 °C 0,0 km/h (0 Bft)
25.02.2017 16:39 3,8 °C 3,8 °C 76 % 1021,2 hPa 0,0 mm 1,7 km/h (1 Bft) SO 130 ° 0 min 0,000 mm 0,0 UV-I 35 W/m² -0,0 °C 3,8 °C 3,2 km/h (1 Bft)
25.02.2017 16:40 3,7 °C 3,8 °C 75 % 1021,2 hPa 0,0 mm 1,4 km/h (1 Bft) SO 130 ° 0 min 0,000 mm 0,0 UV-I 35 W/m² -0,3 °C 3,7 °C 3,2 km/h (1 Bft)
25.02.2017 16:41 3,8 °C 3,8 °C 74 % 1021,2 hPa 0,0 mm 1,5 km/h (1 Bft) SO 130 ° 0 min 0,000 mm 0,0 UV-I 37 W/m² -0,4 °C 3,8 °C 3,2 km/h (1 Bft)
25.02.2017 16:42 3,8 °C 3,8 °C 76 % 1021,2 hPa 0,0 mm 0,7 km/h (0 Bft) SO 130 ° 0 min 0,000 mm 0,0 UV-I 37 W/m² -0,0 °C 3,8 °C 1,6 km/h (1 Bft)
25.02.2017 16:43 3,8 °C 3,8 °C 76 % 1021,3 hPa 0,0 mm 1,6 km/h (1 Bft) SO 130 ° 0 min 0,000 mm 0,0 UV-I 39 W/m² -0,0 °C 3,8 °C 3,2 km/h (1 Bft)
25.02.2017 16:44 3,8 °C 3,8 °C 76 % 1021,2 hPa 0,0 mm 2,5 km/h (1 Bft) SO 130 ° 0 min 0,000 mm 0,0 UV-I 37 W/m² -0,0 °C 3,8 °C 3,2 km/h (1 Bft)
25.02.2017 16:45 3,7 °C 3,8 °C 77 % 1021,3 hPa 0,0 mm 1,7 km/h (1 Bft) SO 130 ° 0 min 0,000 mm 0,0 UV-I 42 W/m² 0,1 °C 3,7 °C 3,2 km/h (1 Bft)
25.02.2017 16:46 3,6 °C 3,7 °C 75 % 1021,2 hPa 0,0 mm 2,1 km/h (1 Bft) SO 130 ° 0 min 0,000 mm 0,0 UV-I 42 W/m² -0,4 °C 3,6 °C 3,2 km/h (1 Bft)
25.02.2017 16:47 3,6 °C 3,7 °C 76 % 1021,3 hPa 0,0 mm 2,2 km/h (1 Bft) SO 130 ° 0 min 0,000 mm 0,0 UV-I 40 W/m² -0,2 °C 3,6 °C 3,2 km/h (1 Bft)
25.02.2017 16:48 3,6 °C 3,6 °C 75 % 1021,2 hPa 0,0 mm 1,9 km/h (1 Bft) SO 130 ° 0 min 0,000 mm 0,0 UV-I 42 W/m² -0,4 °C 3,6 °C 3,2 km/h (1 Bft)
25.02.2017 16:49 3,6 °C 3,6 °C 77 % 1021,2 hPa 0,0 mm 2,0 km/h (1 Bft) SO 130 ° 0 min 0,000 mm 0,0 UV-I 42 W/m² -0,0 °C 3,6 °C 3,2 km/h (1 Bft)
25.02.2017 16:50 3,6 °C 3,6 °C 77 % 1021,2 hPa 0,0 mm 0,8 km/h (0 Bft) SO 130 ° 0 min 0,000 mm 0,0 UV-I 54 W/m² -0,0 °C 3,6 °C 3,2 km/h (1 Bft)
25.02.2017 16:51 3,5 °C 3,6 °C 78 % 1021,2 hPa 0,0 mm 0,4 km/h (0 Bft) SO 130 ° 0 min 0,000 mm 0,0 UV-I 53 W/m² 0,0 °C 3,5 °C 1,6 km/h (1 Bft)
25.02.2017 16:52 3,5 °C 3,5 °C 77 % 1021,2 hPa 0,0 mm 0,7 km/h (0 Bft) SO 130 ° 0 min 0,000 mm 0,0 UV-I 47 W/m² -0,1 °C 3,5 °C 1,6 km/h (1 Bft)
25.02.2017 16:53 3,4 °C 3,5 °C 79 % 1021,2 hPa 0,0 mm 2,0 km/h (1 Bft) SO 130 ° 0 min 0,000 mm 0,0 UV-I 42 W/m² 0,1 °C 3,4 °C 3,2 km/h (1 Bft)
25.02.2017 16:54 3,4 °C 3,4 °C 81 % 1021,2 hPa 0,0 mm 2,3 km/h (1 Bft) S-SO 155 ° 0 min 0,000 mm 0,0 UV-I 44 W/m² 0,5 °C 3,4 °C 3,2 km/h (1 Bft)
25.02.2017 16:55 3,4 °C 3,4 °C 82 % 1021,1 hPa 0,0 mm 2,7 km/h (1 Bft) S-SO 155 ° 0 min 0,000 mm 0,0 UV-I 44 W/m² 0,6 °C 3,4 °C 4,8 km/h (1 Bft)
25.02.2017 16:56 3,3 °C 3,4 °C 82 % 1021,1 hPa 0,0 mm 1,1 km/h (1 Bft) S-SO 155 ° 0 min 0,000 mm 0,0 UV-I 51 W/m² 0,5 °C 3,3 °C 1,6 km/h (1 Bft)
25.02.2017 16:57 3,3 °C 3,3 °C 83 % 1021,1 hPa 0,0 mm 1,1 km/h (1 Bft) S-SO 155 ° 0 min 0,000 mm 0,0 UV-I 53 W/m² 0,7 °C 3,3 °C 1,6 km/h (1 Bft)
25.02.2017 16:58 3,3 °C 3,3 °C 83 % 1021,1 hPa 0,0 mm 0,3 km/h (0 Bft) S-SO 155 ° 0 min 0,000 mm 0,0 UV-I 51 W/m² 0,7 °C 3,3 °C 1,6 km/h (1 Bft)
25.02.2017 16:59 3,2 °C 3,3 °C 85 % 1021,1 hPa 0,0 mm 1,0 km/h (0 Bft) S-SO 155 ° 0 min 0,000 mm 0,0 UV-I 47 W/m² 0,9 °C 3,2 °C 1,6 km/h (1 Bft)
25.02.2017 17:00 3,2 °C 3,2 °C 85 % 1021,1 hPa 0,0 mm 0,9 km/h (0 Bft) S-SO 155 ° 0 min 0,000 mm 0,0 UV-I 40 W/m² 0,9 °C 3,2 °C 1,6 km/h (1 Bft)
25.02.2017 17:01 3,2 °C 3,2 °C 85 % 1021,1 hPa 0,0 mm 2,0 km/h (1 Bft) S-SO 155 ° 0 min 0,025 mm 0,0 UV-I 35 W/m² 0,9 °C 3,2 °C 3,2 km/h (1 Bft)
25.02.2017 17:02 3,1 °C 3,2 °C 85 % 1021,1 hPa 0,0 mm 1,3 km/h (1 Bft) S-SO 155 ° 0 min 0,000 mm 0,0 UV-I 37 W/m² 0,8 °C 3,1 °C 3,2 km/h (1 Bft)
25.02.2017 17:03 3,1 °C 3,1 °C 86 % 1021,1 hPa 0,0 mm 1,3 km/h (1 Bft) S-SO 155 ° 0 min 0,000 mm 0,0 UV-I 37 W/m² 1,0 °C 3,1 °C 3,2 km/h (1 Bft)
25.02.2017 17:04 3,1 °C 3,1 °C 86 % 1021,0 hPa 0,0 mm 0,9 km/h (0 Bft) S-SO 155 ° 0 min 0,000 mm 0,0 UV-I 35 W/m² 1,0 °C 3,1 °C 1,6 km/h (1 Bft)
25.02.2017 17:05 3,1 °C 3,1 °C 86 % 1021,0 hPa 0,0 mm 0,7 km/h (0 Bft) S-SO 155 ° 0 min 0,000 mm 0,0 UV-I 35 W/m² 1,0 °C 3,1 °C 1,6 km/h (1 Bft)
25.02.2017 17:06 3,1 °C 3,1 °C 86 % 1021,1 hPa 0,0 mm 0,2 km/h (0 Bft) S-SO 155 ° 0 min 0,000 mm 0,0 UV-I 33 W/m² 1,0 °C 3,1 °C 1,6 km/h (1 Bft)
25.02.2017 17:07 3,1 °C 3,1 °C 86 % 1021,0 hPa 0,0 mm 0,6 km/h (0 Bft) S-SO 155 ° 0 min 0,000 mm 0,0 UV-I 33 W/m² 1,0 °C 3,1 °C 1,6 km/h (1 Bft)
25.02.2017 17:08 3,1 °C 3,1 °C 86 % 1021,0 hPa 0,0 mm 0,3 km/h (0 Bft) S-SO 155 ° 0 min 0,000 mm 0,0 UV-I 32 W/m² 1,0 °C 3,1 °C 1,6 km/h (1 Bft)
25.02.2017 17:09 3,1 °C 3,1 °C 86 % 1021,0 hPa 0,0 mm 0,9 km/h (0 Bft) S-SO 155 ° 0 min 0,000 mm 0,0 UV-I 32 W/m² 1,0 °C 3,1 °C 1,6 km/h (1 Bft)
25.02.2017 17:10 3,0 °C 3,1 °C 86 % 1021,0 hPa 0,0 mm 0,6 km/h (0 Bft) S-SO 155 ° 0 min 0,000 mm 0,0 UV-I 32 W/m² 0,9 °C 3,0 °C 1,6 km/h (1 Bft)
25.02.2017 17:11 2,9 °C 3,0 °C 86 % 1021,0 hPa 0,0 mm 0,5 km/h (0 Bft) S-SO 155 ° 0 min 0,000 mm 0,0 UV-I 33 W/m² 0,8 °C 2,9 °C 1,6 km/h (1 Bft)
25.02.2017 17:12 2,9 °C 2,9 °C 87 % 1021,0 hPa 0,0 mm 0,1 km/h (0 Bft) S-SO 155 ° 0 min 0,000 mm 0,0 UV-I 33 W/m² 1,0 °C 2,9 °C 1,6 km/h (1 Bft)
25.02.2017 17:13 2,8 °C 2,9 °C 87 % 1021,0 hPa 0,0 mm 1,0 km/h (0 Bft) S-SO 155 ° 0 min 0,000 mm 0,0 UV-I 33 W/m² 0,9 °C 2,8 °C 1,6 km/h (1 Bft)
25.02.2017 17:14 2,7 °C 2,8 °C 87 % 1020,9 hPa 0,0 mm 1,1 km/h (1 Bft) S-SO 155 ° 0 min 0,000 mm 0,0 UV-I 35 W/m² 0,8 °C 2,7 °C 3,2 km/h (1 Bft)
25.02.2017 17:15 2,7 °C 2,7 °C 87 % 1020,9 hPa 0,0 mm 0,5 km/h (0 Bft) S-SO 155 ° 0 min 0,000 mm 0,0 UV-I 35 W/m² 0,8 °C 2,7 °C 1,6 km/h (1 Bft)
25.02.2017 17:16 2,6 °C 2,7 °C 87 % 1020,9 hPa 0,0 mm 0,6 km/h (0 Bft) S-SO 155 ° 0 min 0,000 mm 0,0 UV-I 35 W/m² 0,7 °C 2,6 °C 1,6 km/h (1 Bft)
25.02.2017 17:17 2,6 °C 2,6 °C 87 % 1020,9 hPa 0,0 mm 0,7 km/h (0 Bft) S-SO 155 ° 0 min 0,000 mm 0,0 UV-I 33 W/m² 0,7 °C 2,6 °C 1,6 km/h (1 Bft)
25.02.2017 17:18 2,6 °C 2,6 °C 88 % 1020,9 hPa 0,0 mm 2,8 km/h (1 Bft) S-SO 155 ° 0 min 0,000 mm 0,0 UV-I 33 W/m² 0,8 °C 2,6 °C 4,8 km/h (1 Bft)
25.02.2017 17:19 2,5 °C 2,6 °C 88 % 1020,9 hPa 0,0 mm 4,2 km/h (1 Bft) S-SO 155 ° 0 min 0,000 mm 0,0 UV-I 32 W/m² 0,7 °C 2,5 °C 4,8 km/h (1 Bft)
25.02.2017 17:20 2,5 °C 2,5 °C 88 % 1020,9 hPa 0,0 mm 2,0 km/h (1 Bft) S-SO 155 ° 0 min 0,000 mm 0,0 UV-I 32 W/m² 0,7 °C 2,5 °C 4,8 km/h (1 Bft)
25.02.2017 17:21 2,4 °C 2,5 °C 88 % 1020,9 hPa 0,0 mm 0,4 km/h (0 Bft) S-SO 155 ° 0 min 0,000 mm 0,0 UV-I 30 W/m² 0,6 °C 2,4 °C 1,6 km/h (1 Bft)
25.02.2017 17:22 2,4 °C 2,4 °C 88 % 1020,9 hPa 0,0 mm 0,1 km/h (0 Bft) S-SO 155 ° 0 min 0,000 mm 0,0 UV-I 30 W/m² 0,6 °C 2,4 °C 1,6 km/h (1 Bft)
25.02.2017 17:23 2,4 °C 2,4 °C 88 % 1020,9 hPa 0,0 mm 1,1 km/h (1 Bft) S-SO 168 ° 0 min 0,000 mm 0,0 UV-I 28 W/m² 0,6 °C 2,4 °C 6,4 km/h (2 Bft)
25.02.2017 17:24 2,3 °C 2,4 °C 88 % 1020,8 hPa 0,0 mm 0,1 km/h (0 Bft) S-SO 168 ° 0 min 0,000 mm 0,0 UV-I 28 W/m² 0,5 °C 2,3 °C 1,6 km/h (1 Bft)
25.02.2017 17:25 2,3 °C 2,3 °C 88 % 1020,9 hPa 0,0 mm 0,1 km/h (0 Bft) S-SO 168 ° 0 min 0,000 mm 0,0 UV-I 26 W/m² 0,5 °C 2,3 °C 1,6 km/h (1 Bft)
25.02.2017 17:26 2,2 °C 2,3 °C 88 % 1020,9 hPa 0,0 mm 0,2 km/h (0 Bft) S-SO 168 ° 0 min 0,000 mm 0,0 UV-I 25 W/m² 0,4 °C 2,2 °C 1,6 km/h (1 Bft)
25.02.2017 17:27 2,2 °C 2,2 °C 88 % 1020,9 hPa 0,0 mm 1,2 km/h (1 Bft) S-SO 168 ° 0 min 0,000 mm 0,0 UV-I 25 W/m² 0,4 °C 2,2 °C 3,2 km/h (1 Bft)
25.02.2017 17:28 2,1 °C 2,2 °C 88 % 1020,9 hPa 0,0 mm 1,4 km/h (1 Bft) S-SO 168 ° 0 min 0,000 mm 0,0 UV-I 23 W/m² 0,3 °C 2,1 °C 6,4 km/h (2 Bft)
25.02.2017 17:29 2,0 °C 2,1 °C 88 % 1021,0 hPa 0,0 mm 0,2 km/h (0 Bft) S-SO 168 ° 0 min 0,000 mm 0,0 UV-I 23 W/m² 0,2 °C 2,0 °C 1,6 km/h (1 Bft)
25.02.2017 17:30 1,9 °C 2,0 °C 89 % 1021,0 hPa 0,0 mm 1,1 km/h (1 Bft) S-SO 168 ° 0 min 0,000 mm 0,0 UV-I 21 W/m² 0,3 °C 1,9 °C 3,2 km/h (1 Bft)
25.02.2017 17:31 1,9 °C 1,9 °C 89 % 1021,0 hPa 0,0 mm 2,3 km/h (1 Bft) S-SO 168 ° 0 min 0,000 mm 0,0 UV-I 19 W/m² 0,3 °C 1,9 °C 3,2 km/h (1 Bft)
25.02.2017 17:32 1,8 °C 1,9 °C 89 % 1021,0 hPa 0,0 mm 1,7 km/h (1 Bft) S-SO 168 ° 0 min 0,000 mm 0,0 UV-I 19 W/m² 0,2 °C 1,8 °C 3,2 km/h (1 Bft)
25.02.2017 17:33 1,8 °C 1,9 °C 89 % 1021,0 hPa 0,0 mm 0,7 km/h (0 Bft) S-SO 168 ° 0 min 0,000 mm 0,0 UV-I 18 W/m² 0,2 °C 1,8 °C 1,6 km/h (1 Bft)
25.02.2017 17:34 1,8 °C 1,8 °C 89 % 1021,0 hPa 0,0 mm 0,8 km/h (0 Bft) S-SO 168 ° 0 min 0,000 mm 0,0 UV-I 18 W/m² 0,2 °C 1,8 °C 1,6 km/h (1 Bft)
25.02.2017 17:35 1,8 °C 1,8 °C 90 % 1021,0 hPa 0,0 mm 0,5 km/h (0 Bft) S-SO 168 ° 0 min 0,000 mm 0,0 UV-I 18 W/m² 0,3 °C 1,8 °C 1,6 km/h (1 Bft)
25.02.2017 17:36 1,8 °C 1,8 °C 90 % 1021,0 hPa 0,0 mm 0,5 km/h (0 Bft) S-SO 168 ° 0 min 0,000 mm 0,0 UV-I 16 W/m² 0,3 °C 1,8 °C 1,6 km/h (1 Bft)
25.02.2017 17:37 1,8 °C 1,8 °C 90 % 1021,0 hPa 0,0 mm 0,0 km/h (0 Bft) S-SO 168 ° 0 min 0,000 mm 0,0 UV-I 14 W/m² 0,3 °C 1,8 °C 0,0 km/h (0 Bft)
25.02.2017 17:38 1,9 °C 1,9 °C 90 % 1021,0 hPa 0,0 mm 0,0 km/h (0 Bft) S-SO 168 ° 0 min 0,000 mm 0,0 UV-I 14 W/m² 0,4 °C 1,9 °C 0,0 km/h (0 Bft)
25.02.2017 17:39 1,8 °C 1,9 °C 90 % 1021,0 hPa 0,0 mm 0,0 km/h (0 Bft) S-SO 168 ° 0 min 0,000 mm 0,0 UV-I 12 W/m² 0,3 °C 1,8 °C 0,0 km/h (0 Bft)
25.02.2017 17:40 1,8 °C 1,8 °C 90 % 1021,0 hPa 0,0 mm 0,1 km/h (0 Bft) S-SO 168 ° 0 min 0,000 mm 0,0 UV-I 12 W/m² 0,3 °C 1,8 °C 1,6 km/h (1 Bft)
25.02.2017 17:41 1,8 °C 1,8 °C 90 % 1021,0 hPa 0,0 mm 0,0 km/h (0 Bft) S-SO 168 ° 0 min 0,000 mm 0,0 UV-I 12 W/m² 0,3 °C 1,8 °C 0,0 km/h (0 Bft)
25.02.2017 17:42 1,7 °C 1,8 °C 90 % 1021,1 hPa 0,0 mm 0,0 km/h (0 Bft) S-SO 168 ° 0 min 0,000 mm 0,0 UV-I 11 W/m² 0,2 °C 1,7 °C 0,0 km/h (0 Bft)
25.02.2017 17:43 1,7 °C 1,8 °C 90 % 1021,1 hPa 0,0 mm 0,1 km/h (0 Bft) S-SO 168 ° 0 min 0,000 mm 0,0 UV-I 9 W/m² 0,2 °C 1,7 °C 1,6 km/h (1 Bft)
25.02.2017 17:44 1,7 °C 1,7 °C 90 % 1021,1 hPa 0,0 mm 0,1 km/h (0 Bft) S-SO 168 ° 0 min 0,000 mm 0,0 UV-I 9 W/m² 0,2 °C 1,7 °C 1,6 km/h (1 Bft)
25.02.2017 17:45 1,7 °C 1,7 °C 90 % 1021,1 hPa 0,0 mm 0,0 km/h (0 Bft) S-SO 168 ° 0 min 0,000 mm 0,0 UV-I 7 W/m² 0,2 °C 1,7 °C 0,0 km/h (0 Bft)
25.02.2017 17:46 1,6 °C 1,7 °C 90 % 1021,2 hPa 0,0 mm 0,3 km/h (0 Bft) S-SO 168 ° 0 min 0,000 mm 0,0 UV-I 7 W/m² 0,1 °C 1,6 °C 1,6 km/h (1 Bft)
25.02.2017 17:47 1,5 °C 1,6 °C 90 % 1021,2 hPa 0,0 mm 0,1 km/h (0 Bft) S-SO 168 ° 0 min 0,000 mm 0,0 UV-I 7 W/m² 0,0 °C 1,5 °C 1,6 km/h (1 Bft)
25.02.2017 17:48 1,4 °C 1,5 °C 90 % 1021,3 hPa 0,0 mm 0,0 km/h (0 Bft) S-SO 168 ° 0 min 0,000 mm 0,0 UV-I 5 W/m² -0,1 °C 1,4 °C 0,0 km/h (0 Bft)
25.02.2017 17:49 1,3 °C 1,4 °C 90 % 1021,3 hPa 0,0 mm 0,5 km/h (0 Bft) S-SO 168 ° 0 min 0,000 mm 0,0 UV-I 5 W/m² -0,2 °C 1,3 °C 3,2 km/h (1 Bft)
25.02.2017 17:50 1,2 °C 1,3 °C 90 % 1021,3 hPa 0,0 mm 0,8 km/h (0 Bft) S-SO 168 ° 0 min 0,000 mm 0,0 UV-I 5 W/m² -0,3 °C 1,2 °C 1,6 km/h (1 Bft)
25.02.2017 17:51 1,1 °C 1,2 °C 90 % 1021,3 hPa 0,0 mm 1,1 km/h (1 Bft) S-SO 168 ° 0 min 0,000 mm 0,0 UV-I 0 W/m² -0,4 °C 1,1 °C 3,2 km/h (1 Bft)
25.02.2017 17:52 1,1 °C 1,1 °C 91 % 1021,4 hPa 0,0 mm 0,6 km/h (0 Bft) S-SO 168 ° 0 min 0,000 mm 0,0 UV-I 0 W/m² -0,2 °C 1,1 °C 1,6 km/h (1 Bft)
25.02.2017 17:53 1,1 °C 1,1 °C 91 % 1021,4 hPa 0,0 mm 0,7 km/h (0 Bft) S-SO 168 ° 0 min 0,000 mm 0,0 UV-I 0 W/m² -0,2 °C 1,1 °C 1,6 km/h (1 Bft)
25.02.2017 17:54 1,1 °C 1,1 °C 92 % 1021,4 hPa 0,0 mm 0,6 km/h (0 Bft) S-SO 168 ° 0 min 0,000 mm 0,0 UV-I 0 W/m² -0,1 °C 1,1 °C 3,2 km/h (1 Bft)
25.02.2017 17:55 1,1 °C 1,1 °C 92 % 1021,4 hPa 0,0 mm 1,6 km/h (1 Bft) S-SO 168 ° 0 min 0,000 mm 0,0 UV-I 0 W/m² -0,1 °C 1,1 °C 3,2 km/h (1 Bft)
25.02.2017 17:56 1,1 °C 1,1 °C 92 % 1021,5 hPa 0,0 mm 2,1 km/h (1 Bft) S-SO 168 ° 0 min 0,000 mm 0,0 UV-I 0 W/m² -0,1 °C 1,1 °C 3,2 km/h (1 Bft)
25.02.2017 17:57 1,2 °C 1,2 °C 92 % 1021,5 hPa 0,0 mm 1,2 km/h (1 Bft) S-SO 168 ° 0 min 0,000 mm 0,0 UV-I 0 W/m² 0,0 °C 1,2 °C 3,2 km/h (1 Bft)
25.02.2017 17:58 1,1 °C 1,2 °C 92 % 1021,5 hPa 0,0 mm 0,7 km/h (0 Bft) S-SO 168 ° 0 min 0,000 mm 0,0 UV-I 0 W/m² -0,1 °C 1,1 °C 1,6 km/h (1 Bft)
25.02.2017 17:59 1,1 °C 1,2 °C 92 % 1021,5 hPa 0,0 mm 0,4 km/h (0 Bft) S-SO 168 ° 0 min 0,000 mm 0,0 UV-I 0 W/m² -0,1 °C 1,1 °C 1,6 km/h (1 Bft)
25.02.2017 18:00 1,2 °C 1,2 °C 92 % 1021,6 hPa 0,0 mm 0,6 km/h (0 Bft) S-SO 168 ° 0 min 0,000 mm 0,0 UV-I 0 W/m² 0,0 °C 1,2 °C 1,6 km/h (1 Bft)
25.02.2017 18:01 1,1 °C 1,2 °C 92 % 1021,7 hPa 0,0 mm 1,0 km/h (0 Bft) S-SO 168 ° 0 min 0,000 mm 0,0 UV-I 0 W/m² -0,1 °C 1,1 °C 1,6 km/h (1 Bft)
25.02.2017 18:02 1,1 °C 1,1 °C 92 % 1021,6 hPa 0,0 mm 1,1 km/h (1 Bft) S-SO 168 ° 0 min 0,000 mm 0,0 UV-I 0 W/m² -0,1 °C 1,1 °C 3,2 km/h (1 Bft)
25.02.2017 18:03 1,1 °C 1,1 °C 92 % 1021,6 hPa 0,0 mm 0,7 km/h (0 Bft) S-SO 168 ° 0 min 0,000 mm 0,0 UV-I 0 W/m² -0,1 °C 1,1 °C 3,2 km/h (1 Bft)
25.02.2017 18:04 1,1 °C 1,1 °C 92 % 1021,7 hPa 0,0 mm 1,0 km/h (0 Bft) S-SO 168 ° 0 min 0,000 mm 0,0 UV-I 0 W/m² -0,1 °C 1,1 °C 1,6 km/h (1 Bft)
25.02.2017 18:05 1,0 °C 1,1 °C 92 % 1021,7 hPa 0,0 mm 0,8 km/h (0 Bft) S-SO 168 ° 0 min 0,000 mm 0,0 UV-I 0 W/m² -0,2 °C 1,0 °C 1,6 km/h (1 Bft)
25.02.2017 18:06 0,9 °C 1,0 °C 92 % 1021,7 hPa 0,0 mm 0,6 km/h (0 Bft) S-SO 168 ° 0 min 0,000 mm 0,0 UV-I 0 W/m² -0,2 °C 0,9 °C 1,6 km/h (1 Bft)
25.02.2017 18:07 0,9 °C 1,0 °C 92 % 1021,7 hPa 0,0 mm 4,4 km/h (1 Bft) S-SO 168 ° 0 min 0,000 mm 0,0 UV-I 0 W/m² -0,2 °C 0,9 °C 6,4 km/h (2 Bft)
25.02.2017 18:08 0,9 °C 1,0 °C 92 % 1021,7 hPa 0,0 mm 4,2 km/h (1 Bft) S-SO 168 ° 0 min 0,000 mm 0,0 UV-I 0 W/m² -0,2 °C 0,9 °C 6,4 km/h (2 Bft)
25.02.2017 18:09 0,9 °C 0,9 °C 92 % 1021,7 hPa 0,0 mm 4,0 km/h (1 Bft) S-SO 168 ° 0 min 0,000 mm 0,0 UV-I 0 W/m² -0,2 °C 0,9 °C 6,4 km/h (2 Bft)
25.02.2017 18:10 0,9 °C 0,9 °C 92 % 1021,7 hPa 0,0 mm 6,6 km/h (2 Bft) S-SO 168 ° 0 min 0,000 mm 0,0 UV-I 0 W/m² -0,2 °C -1,2 °C 8,0 km/h (2 Bft)
25.02.2017 18:11 0,9 °C 0,9 °C 92 % 1021,6 hPa 0,0 mm 6,7 km/h (2 Bft) S-SO 157 ° 0 min 0,000 mm 0,0 UV-I 0 W/m² -0,2 °C -1,3 °C 8,0 km/h (2 Bft)
25.02.2017 18:12 0,8 °C 0,9 °C 92 % 1021,7 hPa 0,0 mm 5,9 km/h (2 Bft) S-SO 157 ° 0 min 0,000 mm 0,0 UV-I 0 W/m² -0,3 °C -1,1 °C 8,0 km/h (2 Bft)
25.02.2017 18:13 0,8 °C 0,8 °C 92 % 1021,6 hPa 0,0 mm 7,0 km/h (2 Bft) S-SO 157 ° 0 min 0,000 mm 0,0 UV-I 0 W/m² -0,3 °C -1,5 °C 8,0 km/h (2 Bft)
25.02.2017 18:14 0,7 °C 0,8 °C 92 % 1021,7 hPa 0,0 mm 5,9 km/h (2 Bft) S-SO 157 ° 0 min 0,000 mm 0,0 UV-I 0 W/m² -0,4 °C -1,2 °C 8,0 km/h (2 Bft)
25.02.2017 18:15 0,7 °C 0,7 °C 92 % 1021,7 hPa 0,0 mm 4,6 km/h (1 Bft) S-SO 157 ° 0 min 0,000 mm 0,0 UV-I 0 W/m² -0,4 °C -0,6 °C 4,8 km/h (1 Bft)
25.02.2017 18:16 0,7 °C 0,7 °C 92 % 1021,7 hPa 0,0 mm 3,8 km/h (1 Bft) S-SO 157 ° 0 min 0,000 mm 0,0 UV-I 0 W/m² -0,4 °C 0,7 °C 4,8 km/h (1 Bft)
25.02.2017 18:17 0,7 °C 0,7 °C 92 % 1021,7 hPa 0,0 mm 3,0 km/h (1 Bft) S-SO 157 ° 0 min 0,000 mm 0,0 UV-I 0 W/m² -0,4 °C 0,7 °C 4,8 km/h (1 Bft)
25.02.2017 18:18 0,8 °C 0,8 °C 92 % 1021,7 hPa 0,0 mm 1,8 km/h (1 Bft) S-SO 157 ° 0 min 0,000 mm 0,0 UV-I 0 W/m² -0,3 °C 0,8 °C 3,2 km/h (1 Bft)
25.02.2017 18:19 0,8 °C 0,8 °C 92 % 1021,8 hPa 0,0 mm 0,7 km/h (0 Bft) S-SO 157 ° 0 min 0,000 mm 0,0 UV-I 0 W/m² -0,3 °C 0,8 °C 1,6 km/h (1 Bft)
25.02.2017 18:20 0,8 °C 0,8 °C 92 % 1021,8 hPa 0,0 mm 0,1 km/h (0 Bft) S-SO 157 ° 0 min 0,000 mm 0,0 UV-I 0 W/m² -0,3 °C 0,8 °C 1,6 km/h (1 Bft)
25.02.2017 18:21 0,8 °C 0,8 °C 91 % 1021,8 hPa 0,0 mm 0,0 km/h (0 Bft) S-SO 157 ° 0 min 0,000 mm 0,0 UV-I 0 W/m² -0,5 °C 0,8 °C 0,0 km/h (0 Bft)
25.02.2017 18:22 0,7 °C 0,8 °C 91 % 1021,9 hPa 0,0 mm 0,1 km/h (0 Bft) S-SO 157 ° 0 min 0,000 mm 0,0 UV-I 0 W/m² -0,6 °C 0,7 °C 1,6 km/h (1 Bft)
25.02.2017 18:23 0,7 °C 0,7 °C 91 % 1021,9 hPa 0,0 mm 1,2 km/h (1 Bft) S-SO 157 ° 0 min 0,000 mm 0,0 UV-I 0 W/m² -0,6 °C 0,7 °C 3,2 km/h (1 Bft)
25.02.2017 18:24 0,8 °C 0,8 °C 91 % 1021,9 hPa 0,0 mm 2,4 km/h (1 Bft) S-SO 157 ° 0 min 0,000 mm 0,0 UV-I 0 W/m² -0,5 °C 0,8 °C 4,8 km/h (1 Bft)
25.02.2017 18:25 0,8 °C 0,8 °C 91 % 1021,8 hPa 0,0 mm 2,5 km/h (1 Bft) S-SO 157 ° 0 min 0,000 mm 0,0 UV-I 0 W/m² -0,5 °C 0,8 °C 4,8 km/h (1 Bft)
25.02.2017 18:26 0,8 °C 0,8 °C 91 % 1021,9 hPa 0,0 mm 2,8 km/h (1 Bft) S-SO 157 ° 0 min 0,000 mm 0,0 UV-I 0 W/m² -0,5 °C 0,8 °C 4,8 km/h (1 Bft)
25.02.2017 18:27 0,8 °C 0,8 °C 91 % 1021,9 hPa 0,0 mm 3,4 km/h (1 Bft) S-SO 161 ° 0 min 0,000 mm 0,0 UV-I 0 W/m² -0,5 °C 0,8 °C 6,4 km/h (2 Bft)
25.02.2017 18:28 0,8 °C 0,8 °C 90 % 1021,9 hPa 0,0 mm 5,3 km/h (1 Bft) S-SW 208 ° 0 min 0,000 mm 0,0 UV-I 0 W/m² -0,6 °C -0,8 °C 6,4 km/h (2 Bft)
25.02.2017 18:29 0,7 °C 0,8 °C 89 % 1021,9 hPa 0,0 mm 4,3 km/h (1 Bft) S 183 ° 0 min 0,000 mm 0,0 UV-I 0 W/m² -0,9 °C 0,7 °C 6,4 km/h (2 Bft)
25.02.2017 18:30 0,7 °C 0,7 °C 90 % 1021,9 hPa 0,0 mm 6,4 km/h (2 Bft) S-SW 211 ° 0 min 0,000 mm 0,0 UV-I 0 W/m² -0,7 °C -1,4 °C 9,7 km/h (2 Bft)
25.02.2017 18:31 0,7 °C 0,7 °C 90 % 1022,0 hPa 0,0 mm 5,1 km/h (1 Bft) S-SW 192 ° 0 min 0,000 mm 0,0 UV-I 0 W/m² -0,7 °C -0,8 °C 6,4 km/h (2 Bft)
25.02.2017 18:32 0,6 °C 0,7 °C 90 % 1021,9 hPa 0,0 mm 4,7 km/h (1 Bft) S-SW 208 ° 0 min 0,000 mm 0,0 UV-I 0 W/m² -0,8 °C -0,8 °C 6,4 km/h (2 Bft)
25.02.2017 18:33 0,7 °C 0,7 °C 91 % 1021,9 hPa 0,0 mm 5,1 km/h (1 Bft) S-SW 208 ° 0 min 0,000 mm 0,0 UV-I 0 W/m² -0,6 °C -0,8 °C 8,0 km/h (2 Bft)
25.02.2017 18:34 0,6 °C 0,7 °C 91 % 1021,9 hPa 0,0 mm 4,6 km/h (1 Bft) S-SW 198 ° 0 min 0,000 mm 0,0 UV-I 0 W/m² -0,7 °C -0,7 °C 6,4 km/h (2 Bft)
25.02.2017 18:35 0,6 °C 0,6 °C 91 % 1022,0 hPa 0,0 mm 4,7 km/h (1 Bft) S-SW 207 ° 0 min 0,000 mm 0,0 UV-I 0 W/m² -0,7 °C -0,8 °C 6,4 km/h (2 Bft)
25.02.2017 18:36 0,6 °C 0,6 °C 91 % 1022,0 hPa 0,0 mm 3,1 km/h (1 Bft) S 173 ° 0 min 0,000 mm 0,0 UV-I 0 W/m² -0,7 °C 0,6 °C 4,8 km/h (1 Bft)
25.02.2017 18:37 0,6 °C 0,6 °C 91 % 1022,0 hPa 0,0 mm 2,7 km/h (1 Bft) S 173 ° 0 min 0,000 mm 0,0 UV-I 0 W/m² -0,7 °C 0,6 °C 4,8 km/h (1 Bft)
25.02.2017 18:38 0,6 °C 0,6 °C 91 % 1022,0 hPa 0,0 mm 2,7 km/h (1 Bft) S 173 ° 0 min 0,000 mm 0,0 UV-I 0 W/m² -0,7 °C 0,6 °C 4,8 km/h (1 Bft)
25.02.2017 18:39 0,7 °C 0,7 °C 92 % 1022,0 hPa 0,0 mm 2,5 km/h (1 Bft) S 173 ° 0 min 0,000 mm 0,0 UV-I 0 W/m² -0,4 °C 0,7 °C 4,8 km/h (1 Bft)
25.02.2017 18:40 0,7 °C 0,7 °C 92 % 1022,1 hPa 0,0 mm 2,9 km/h (1 Bft) S 173 ° 0 min 0,000 mm 0,0 UV-I 0 W/m² -0,4 °C 0,7 °C 4,8 km/h (1 Bft)
25.02.2017 18:41 0,7 °C 0,7 °C 92 % 1022,0 hPa 0,0 mm 3,0 km/h (1 Bft) S 173 ° 0 min 0,000 mm 0,0 UV-I 0 W/m² -0,4 °C 0,7 °C 4,8 km/h (1 Bft)
25.02.2017 18:42 0,7 °C 0,7 °C 92 % 1022,1 hPa 0,0 mm 2,4 km/h (1 Bft) S 173 ° 0 min 0,000 mm 0,0 UV-I 0 W/m² -0,4 °C 0,7 °C 4,8 km/h (1 Bft)
25.02.2017 18:43 0,7 °C 0,7 °C 92 % 1022,1 hPa 0,0 mm 3,3 km/h (1 Bft) S 173 ° 0 min 0,000 mm 0,0 UV-I 0 W/m² -0,4 °C 0,7 °C 4,8 km/h (1 Bft)
25.02.2017 18:44 0,7 °C 0,7 °C 92 % 1022,1 hPa 0,0 mm 2,9 km/h (1 Bft) S 173 ° 0 min 0,000 mm 0,0 UV-I 0 W/m² -0,4 °C 0,7 °C 4,8 km/h (1 Bft)
25.02.2017 18:45 0,7 °C 0,7 °C 92 % 1022,1 hPa 0,0 mm 3,7 km/h (1 Bft) S 173 ° 0 min 0,000 mm 0,0 UV-I 0 W/m² -0,4 °C 0,7 °C 4,8 km/h (1 Bft)
25.02.2017 18:46 0,7 °C 0,7 °C 92 % 1022,1 hPa 0,0 mm 3,8 km/h (1 Bft) S 173 ° 0 min 0,000 mm 0,0 UV-I 0 W/m² -0,4 °C 0,7 °C 4,8 km/h (1 Bft)
25.02.2017 18:47 0,7 °C 0,7 °C 92 % 1022,2 hPa 0,0 mm 3,6 km/h (1 Bft) S 173 ° 0 min 0,000 mm 0,0 UV-I 0 W/m² -0,4 °C 0,7 °C 4,8 km/h (1 Bft)
25.02.2017 18:48 0,7 °C 0,7 °C 92 % 1022,1 hPa 0,0 mm 3,4 km/h (1 Bft) S 173 ° 0 min 0,000 mm 0,0 UV-I 0 W/m² -0,4 °C 0,7 °C 4,8 km/h (1 Bft)
25.02.2017 18:49 0,6 °C 0,7 °C 92 % 1022,2 hPa 0,0 mm 2,9 km/h (1 Bft) S 173 ° 0 min 0,000 mm 0,0 UV-I 0 W/m² -0,5 °C 0,6 °C 4,8 km/h (1 Bft)
25.02.2017 18:50 0,6 °C 0,6 °C 92 % 1022,2 hPa 0,0 mm 3,3 km/h (1 Bft) S 173 ° 0 min 0,000 mm 0,0 UV-I 0 W/m² -0,5 °C 0,6 °C 4,8 km/h (1 Bft)
25.02.2017 18:51 0,6 °C 0,6 °C 92 % 1022,2 hPa 0,0 mm 3,8 km/h (1 Bft) S 173 ° 0 min 0,000 mm 0,0 UV-I 0 W/m² -0,5 °C 0,6 °C 4,8 km/h (1 Bft)
25.02.2017 18:52 0,6 °C 0,6 °C 92 % 1022,2 hPa 0,0 mm 3,8 km/h (1 Bft) S 173 ° 0 min 0,000 mm 0,0 UV-I 0 W/m² -0,5 °C 0,6 °C 4,8 km/h (1 Bft)
25.02.2017 18:53 0,5 °C 0,6 °C 92 % 1022,2 hPa 0,0 mm 3,7 km/h (1 Bft) S 173 ° 0 min 0,000 mm 0,0 UV-I 0 W/m² -0,6 °C 0,5 °C 4,8 km/h (1 Bft)
25.02.2017 18:54 0,4 °C 0,5 °C 92 % 1022,2 hPa 0,0 mm 4,4 km/h (1 Bft) S 173 ° 0 min 0,000 mm 0,0 UV-I 0 W/m² -0,7 °C 0,4 °C 4,8 km/h (1 Bft)
25.02.2017 18:55 0,4 °C 0,4 °C 92 % 1022,1 hPa 0,0 mm 4,6 km/h (1 Bft) S 173 ° 0 min 0,000 mm 0,0 UV-I 0 W/m² -0,7 °C -0,9 °C 8,0 km/h (2 Bft)
25.02.2017 18:56 0,4 °C 0,4 °C 92 % 1022,2 hPa 0,0 mm 4,3 km/h (1 Bft) S 173 ° 0 min 0,000 mm 0,0 UV-I 0 W/m² -0,7 °C 0,4 °C 4,8 km/h (1 Bft)
25.02.2017 18:57 0,4 °C 0,4 °C 92 % 1022,2 hPa 0,0 mm 3,2 km/h (1 Bft) S 173 ° 0 min 0,000 mm 0,0 UV-I 0 W/m² -0,7 °C 0,4 °C 4,8 km/h (1 Bft)
25.02.2017 18:58 0,4 °C 0,4 °C 92 % 1022,2 hPa 0,0 mm 3,1 km/h (1 Bft) S 173 ° 0 min 0,000 mm 0,0 UV-I 0 W/m² -0,7 °C 0,4 °C 3,2 km/h (1 Bft)
25.02.2017 18:59 0,4 °C 0,4 °C 92 % 1022,2 hPa 0,0 mm 3,0 km/h (1 Bft) S 173 ° 0 min 0,000 mm 0,0 UV-I 0 W/m² -0,7 °C 0,4 °C 3,2 km/h (1 Bft)
25.02.2017 19:00 0,4 °C 0,5 °C 92 % 1022,1 hPa 0,0 mm 3,3 km/h (1 Bft) S 173 ° 0 min 0,000 mm 0,0 UV-I 0 W/m² -0,7 °C 0,4 °C 4,8 km/h (1 Bft)
25.02.2017 19:01 0,4 °C 0,4 °C 92 % 1022,2 hPa 0,0 mm 2,8 km/h (1 Bft) S 173 ° 0 min 0,000 mm 0,0 UV-I 0 W/m² -0,7 °C 0,4 °C 4,8 km/h (1 Bft)
25.02.2017 19:02 0,4 °C 0,4 °C 92 % 1022,2 hPa 0,0 mm 2,7 km/h (1 Bft) S 173 ° 0 min 0,000 mm 0,0 UV-I 0 W/m² -0,7 °C 0,4 °C 4,8 km/h (1 Bft)
25.02.2017 19:03 0,4 °C 0,4 °C 92 % 1022,2 hPa 0,0 mm 2,3 km/h (1 Bft) S 173 ° 0 min 0,000 mm 0,0 UV-I 0 W/m² -0,7 °C 0,4 °C 3,2 km/h (1 Bft)
25.02.2017 19:04 0,4 °C 0,4 °C 92 % 1022,2 hPa 0,0 mm 2,3 km/h (1 Bft) S 173 ° 0 min 0,000 mm 0,0 UV-I 0 W/m² -0,7 °C 0,4 °C 3,2 km/h (1 Bft)
25.02.2017 19:05 0,3 °C 0,4 °C 92 % 1022,2 hPa 0,0 mm 3,6 km/h (1 Bft) S 173 ° 0 min 0,000 mm 0,0 UV-I 0 W/m² -0,8 °C 0,3 °C 4,8 km/h (1 Bft)
25.02.2017 19:06 0,3 °C 0,3 °C 92 % 1022,2 hPa 0,0 mm 3,8 km/h (1 Bft) S 173 ° 0 min 0,000 mm 0,0 UV-I 0 W/m² -0,8 °C 0,3 °C 4,8 km/h (1 Bft)
25.02.2017 19:07 0,2 °C 0,3 °C 92 % 1022,2 hPa 0,0 mm 2,5 km/h (1 Bft) S 173 ° 0 min 0,000 mm 0,0 UV-I 0 W/m² -0,9 °C 0,2 °C 3,2 km/h (1 Bft)
25.02.2017 19:08 0,2 °C 0,3 °C 92 % 1022,2 hPa 0,0 mm 3,0 km/h (1 Bft) S 173 ° 0 min 0,000 mm 0,0 UV-I 0 W/m² -0,9 °C 0,2 °C 4,8 km/h (1 Bft)
25.02.2017 19:09 0,2 °C 0,3 °C 92 % 1022,3 hPa 0,0 mm 2,6 km/h (1 Bft) S 173 ° 0 min 0,000 mm 0,0 UV-I 0 W/m² -0,9 °C 0,2 °C 4,8 km/h (1 Bft)
25.02.2017 19:10 0,2 °C 0,2 °C 92 % 1022,3 hPa 0,0 mm 2,3 km/h (1 Bft) S 173 ° 0 min 0,000 mm 0,0 UV-I 0 W/m² -0,9 °C 0,2 °C 3,2 km/h (1 Bft)
25.02.2017 19:11 0,2 °C 0,2 °C 92 % 1022,2 hPa 0,0 mm 2,4 km/h (1 Bft) S 173 ° 0 min 0,000 mm 0,0 UV-I 0 W/m² -0,9 °C 0,2 °C 3,2 km/h (1 Bft)
25.02.2017 19:12 0,2 °C 0,2 °C 93 % 1022,2 hPa 0,0 mm 1,9 km/h (1 Bft) S 173 ° 0 min 0,000 mm 0,0 UV-I 0 W/m² -0,8 °C 0,2 °C 3,2 km/h (1 Bft)
25.02.2017 19:13 0,3 °C 0,3 °C 92 % 1022,2 hPa 0,0 mm 2,3 km/h (1 Bft) S 173 ° 0 min 0,000 mm 0,0 UV-I 0 W/m² -0,8 °C 0,3 °C 3,2 km/h (1 Bft)
25.02.2017 19:14 0,2 °C 0,3 °C 92 % 1022,2 hPa 0,0 mm 2,2 km/h (1 Bft) S 173 ° 0 min 0,000 mm 0,0 UV-I 0 W/m² -0,9 °C 0,2 °C 3,2 km/h (1 Bft)
25.02.2017 19:15 0,2 °C 0,3 °C 92 % 1022,2 hPa 0,0 mm 1,0 km/h (0 Bft) S 173 ° 0 min 0,000 mm 0,0 UV-I 0 W/m² -0,9 °C 0,2 °C 1,6 km/h (1 Bft)
25.02.2017 19:16 0,2 °C 0,2 °C 93 % 1022,2 hPa 0,0 mm 1,5 km/h (1 Bft) S 173 ° 0 min 0,000 mm 0,0 UV-I 0 W/m² -0,8 °C 0,2 °C 3,2 km/h (1 Bft)
25.02.2017 19:17 0,2 °C 0,2 °C 93 % 1022,2 hPa 0,0 mm 1,5 km/h (1 Bft) S 173 ° 0 min 0,000 mm 0,0 UV-I 0 W/m² -0,8 °C 0,2 °C 3,2 km/h (1 Bft)
25.02.2017 19:18 0,2 °C 0,2 °C 93 % 1022,2 hPa 0,0 mm 1,3 km/h (1 Bft) S 173 ° 0 min 0,000 mm 0,0 UV-I 0 W/m² -0,8 °C 0,2 °C 1,6 km/h (1 Bft)
25.02.2017 19:19 0,2 °C 0,2 °C 93 % 1022,2 hPa 0,0 mm 1,7 km/h (1 Bft) S 173 ° 0 min 0,000 mm 0,0 UV-I 0 W/m² -0,8 °C 0,2 °C 3,2 km/h (1 Bft)
25.02.2017 19:20 0,3 °C 0,3 °C 93 % 1022,1 hPa 0,0 mm 1,9 km/h (1 Bft) S 173 ° 0 min 0,000 mm 0,0 UV-I 0 W/m² -0,7 °C 0,3 °C 3,2 km/h (1 Bft)
25.02.2017 19:21 0,2 °C 0,3 °C 93 % 1022,1 hPa 0,0 mm 1,0 km/h (0 Bft) S 173 ° 0 min 0,000 mm 0,0 UV-I 0 W/m² -0,8 °C 0,2 °C 1,6 km/h (1 Bft)
25.02.2017 19:22 0,3 °C 0,3 °C 93 % 1022,1 hPa 0,0 mm 0,6 km/h (0 Bft) S 173 ° 0 min 0,000 mm 0,0 UV-I 0 W/m² -0,7 °C 0,3 °C 1,6 km/h (1 Bft)
25.02.2017 19:23 0,2 °C 0,3 °C 93 % 1022,1 hPa 0,0 mm 1,5 km/h (1 Bft) S 173 ° 0 min 0,000 mm 0,0 UV-I 0 W/m² -0,8 °C 0,2 °C 1,6 km/h (1 Bft)
25.02.2017 19:24 0,3 °C 0,3 °C 93 % 1022,1 hPa 0,0 mm 2,3 km/h (1 Bft) S 173 ° 0 min 0,000 mm 0,0 UV-I 0 W/m² -0,7 °C 0,3 °C 3,2 km/h (1 Bft)
25.02.2017 19:25 0,3 °C 0,3 °C 93 % 1022,1 hPa 0,0 mm 1,5 km/h (1 Bft) S 173 ° 0 min 0,000 mm 0,0 UV-I 0 W/m² -0,7 °C 0,3 °C 3,2 km/h (1 Bft)
25.02.2017 19:26 0,3 °C 0,3 °C 93 % 1022,1 hPa 0,0 mm 1,8 km/h (1 Bft) S 173 ° 0 min 0,000 mm 0,0 UV-I 0 W/m² -0,7 °C 0,3 °C 3,2 km/h (1 Bft)
25.02.2017 19:27 0,3 °C 0,3 °C 93 % 1022,1 hPa 0,0 mm 1,8 km/h (1 Bft) S 173 ° 0 min 0,000 mm 0,0 UV-I 0 W/m² -0,7 °C 0,3 °C 3,2 km/h (1 Bft)
25.02.2017 19:28 0,2 °C 0,3 °C 92 % 1022,1 hPa 0,0 mm 1,4 km/h (1 Bft) S 173 ° 0 min 0,000 mm 0,0 UV-I 0 W/m² -0,9 °C 0,2 °C 3,2 km/h (1 Bft)
25.02.2017 19:29 0,2 °C 0,2 °C 92 % 1022,1 hPa 0,0 mm 1,5 km/h (1 Bft) S 173 ° 0 min 0,000 mm 0,0 UV-I 0 W/m² -0,9 °C 0,2 °C 3,2 km/h (1 Bft)
25.02.2017 19:30 0,2 °C 0,2 °C 92 % 1022,1 hPa 0,0 mm 1,0 km/h (0 Bft) S 173 ° 0 min 0,000 mm 0,0 UV-I 0 W/m² -0,9 °C 0,2 °C 1,6 km/h (1 Bft)
25.02.2017 19:31 0,2 °C 0,2 °C 93 % 1022,0 hPa 0,0 mm 0,2 km/h (0 Bft) S 173 ° 0 min 0,000 mm 0,0 UV-I 0 W/m² -0,8 °C 0,2 °C 1,6 km/h (1 Bft)
25.02.2017 19:32 0,2 °C 0,2 °C 92 % 1022,1 hPa 0,0 mm 0,0 km/h (0 Bft) S 173 ° 0 min 0,000 mm 0,0 UV-I 0 W/m² -0,9 °C 0,2 °C 0,0 km/h (0 Bft)
25.02.2017 19:33 0,1 °C 0,2 °C 92 % 1022,1 hPa 0,0 mm 0,0 km/h (0 Bft) S 173 ° 0 min 0,000 mm 0,0 UV-I 0 W/m² -1,0 °C 0,1 °C 0,0 km/h (0 Bft)
25.02.2017 19:34 0,2 °C 0,2 °C 92 % 1022,1 hPa 0,0 mm 0,0 km/h (0 Bft) S 173 ° 0 min 0,000 mm 0,0 UV-I 0 W/m² -0,9 °C 0,2 °C 0,0 km/h (0 Bft)
25.02.2017 19:35 0,1 °C 0,2 °C 93 % 1022,1 hPa 0,0 mm 0,2 km/h (0 Bft) S 173 ° 0 min 0,000 mm 0,0 UV-I 0 W/m² -0,9 °C 0,1 °C 1,6 km/h (1 Bft)
25.02.2017 19:36 0,2 °C 0,2 °C 93 % 1022,1 hPa 0,0 mm 0,1 km/h (0 Bft) S 173 ° 0 min 0,000 mm 0,0 UV-I 0 W/m² -0,8 °C 0,2 °C 1,6 km/h (1 Bft)
25.02.2017 19:37 0,1 °C 0,2 °C 93 % 1022,1 hPa 0,0 mm 0,4 km/h (0 Bft) S 173 ° 0 min 0,000 mm 0,0 UV-I 0 W/m² -0,9 °C 0,1 °C 1,6 km/h (1 Bft)
25.02.2017 19:38 0,1 °C 0,1 °C 93 % 1022,1 hPa 0,0 mm 0,2 km/h (0 Bft) S 173 ° 0 min 0,000 mm 0,0 UV-I 0 W/m² -0,9 °C 0,1 °C 1,6 km/h (1 Bft)
25.02.2017 19:39 0,1 °C 0,1 °C 93 % 1022,1 hPa 0,0 mm 0,1 km/h (0 Bft) S 173 ° 0 min 0,000 mm 0,0 UV-I 0 W/m² -0,9 °C 0,1 °C 1,6 km/h (1 Bft)
25.02.2017 19:40 0,1 °C 0,1 °C 93 % 1022,1 hPa 0,0 mm 0,0 km/h (0 Bft) S 173 ° 0 min 0,000 mm 0,0 UV-I 0 W/m² -0,9 °C 0,1 °C 0,0 km/h (0 Bft)
25.02.2017 19:41 0,0 °C 0,1 °C 93 % 1022,1 hPa 0,0 mm 0,0 km/h (0 Bft) S 173 ° 0 min 0,000 mm 0,0 UV-I 0 W/m² -1,0 °C 0,0 °C 0,0 km/h (0 Bft)
25.02.2017 19:42 -0,1 °C 0,0 °C 93 % 1022,0 hPa 0,0 mm 0,0 km/h (0 Bft) S 173 ° 0 min 0,000 mm 0,0 UV-I 0 W/m² -1,1 °C -0,1 °C 0,0 km/h (0 Bft)
25.02.2017 19:43 -0,2 °C -0,1 °C 92 % 1022,1 hPa 0,0 mm 0,0 km/h (0 Bft) S 173 ° 0 min 0,000 mm 0,0 UV-I 0 W/m² -1,3 °C -0,2 °C 0,0 km/h (0 Bft)
25.02.2017 19:44 -0,3 °C -0,2 °C 92 % 1022,1 hPa 0,0 mm 0,0 km/h (0 Bft) S 173 ° 0 min 0,000 mm 0,0 UV-I 0 W/m² -1,4 °C -0,3 °C 0,0 km/h (0 Bft)
25.02.2017 19:45 -0,4 °C -0,3 °C 93 % 1022,1 hPa 0,0 mm 0,4 km/h (0 Bft) S 173 ° 0 min 0,000 mm 0,0 UV-I 0 W/m² -1,4 °C -0,4 °C 1,6 km/h (1 Bft)
25.02.2017 19:46 -0,5 °C -0,4 °C 92 % 1022,1 hPa 0,0 mm 0,0 km/h (0 Bft) S 173 ° 0 min 0,000 mm 0,0 UV-I 0 W/m² -1,6 °C -0,5 °C 0,0 km/h (0 Bft)
25.02.2017 19:47 -0,6 °C -0,5 °C 93 % 1022,1 hPa 0,0 mm 0,0 km/h (0 Bft) S 173 ° 0 min 0,000 mm 0,0 UV-I 0 W/m² -1,6 °C -0,6 °C 0,0 km/h (0 Bft)
25.02.2017 19:48 -0,6 °C -0,6 °C 93 % 1022,1 hPa 0,0 mm 0,0 km/h (0 Bft) S 173 ° 0 min 0,000 mm 0,0 UV-I 0 W/m² -1,6 °C -0,6 °C 0,0 km/h (0 Bft)
25.02.2017 19:49 -0,6 °C -0,6 °C 93 % 1022,1 hPa 0,0 mm 0,0 km/h (0 Bft) S 173 ° 0 min 0,000 mm 0,0 UV-I 0 W/m² -1,6 °C -0,6 °C 0,0 km/h (0 Bft)
25.02.2017 19:50 -0,6 °C -0,6 °C 93 % 1022,0 hPa 0,0 mm 0,0 km/h (0 Bft) S 173 ° 0 min 0,000 mm 0,0 UV-I 0 W/m² -1,6 °C -0,6 °C 0,0 km/h (0 Bft)
25.02.2017 19:51 -0,5 °C -0,5 °C 94 % 1022,0 hPa 0,0 mm 0,0 km/h (0 Bft) S 173 ° 0 min 0,000 mm 0,0 UV-I 0 W/m² -1,3 °C -0,5 °C 0,0 km/h (0 Bft)
25.02.2017 19:52 -0,5 °C -0,4 °C 94 % 1022,0 hPa 0,0 mm 0,0 km/h (0 Bft) S 173 ° 0 min 0,000 mm 0,0 UV-I 0 W/m² -1,3 °C -0,5 °C 0,0 km/h (0 Bft)
25.02.2017 19:53 -0,6 °C -0,5 °C 93 % 1022,0 hPa 0,0 mm 0,0 km/h (0 Bft) S 173 ° 0 min 0,000 mm 0,0 UV-I 0 W/m² -1,6 °C -0,6 °C 0,0 km/h (0 Bft)
25.02.2017 19:54 -0,6 °C -0,6 °C 93 % 1022,0 hPa 0,0 mm 0,0 km/h (0 Bft) S 173 ° 0 min 0,000 mm 0,0 UV-I 0 W/m² -1,6 °C -0,6 °C 0,0 km/h (0 Bft)
25.02.2017 19:55 -0,6 °C -0,6 °C 94 % 1022,0 hPa 0,0 mm 0,0 km/h (0 Bft) S 173 ° 0 min 0,000 mm 0,0 UV-I 0 W/m² -1,4 °C -0,6 °C 0,0 km/h (0 Bft)
25.02.2017 19:56 -0,6 °C -0,6 °C 94 % 1022,0 hPa 0,0 mm 0,0 km/h (0 Bft) S 173 ° 0 min 0,000 mm 0,0 UV-I 0 W/m² -1,4 °C -0,6 °C 0,0 km/h (0 Bft)
25.02.2017 19:57 -0,5 °C -0,5 °C 94 % 1022,0 hPa 0,0 mm 0,0 km/h (0 Bft) S 173 ° 0 min 0,000 mm 0,0 UV-I 0 W/m² -1,3 °C -0,5 °C 0,0 km/h (0 Bft)
25.02.2017 19:58 -0,6 °C -0,5 °C 94 % 1021,9 hPa 0,0 mm 0,0 km/h (0 Bft) S 173 ° 0 min 0,000 mm 0,0 UV-I 0 W/m² -1,4 °C -0,6 °C 0,0 km/h (0 Bft)
25.02.2017 19:59 -0,5 °C -0,5 °C 94 % 1021,9 hPa 0,0 mm 0,0 km/h (0 Bft) S 173 ° 0 min 0,000 mm 0,0 UV-I 0 W/m² -1,3 °C -0,5 °C 0,0 km/h (0 Bft)
25.02.2017 20:00 -0,6 °C -0,5 °C 94 % 1022,0 hPa 0,0 mm 0,0 km/h (0 Bft) S 173 ° 0 min 0,000 mm 0,0 UV-I 0 W/m² -1,4 °C -0,6 °C 0,0 km/h (0 Bft)
25.02.2017 20:01 -0,6 °C -0,6 °C 94 % 1022,0 hPa 0,0 mm 0,0 km/h (0 Bft) S 173 ° 0 min 0,000 mm 0,0 UV-I 0 W/m² -1,4 °C -0,6 °C 0,0 km/h (0 Bft)
25.02.2017 20:02 -0,7 °C -0,6 °C 94 % 1022,0 hPa 0,0 mm 0,0 km/h (0 Bft) S 173 ° 0 min 0,000 mm 0,0 UV-I 0 W/m² -1,5 °C -0,7 °C 0,0 km/h (0 Bft)
25.02.2017 20:03 -0,7 °C -0,6 °C 94 % 1022,0 hPa 0,0 mm 0,0 km/h (0 Bft) S 173 ° 0 min 0,000 mm 0,0 UV-I 0 W/m² -1,5 °C -0,7 °C 0,0 km/h (0 Bft)
25.02.2017 20:04 -0,7 °C -0,7 °C 94 % 1022,0 hPa 0,0 mm 0,0 km/h (0 Bft) S 173 ° 0 min 0,000 mm 0,0 UV-I 0 W/m² -1,5 °C -0,7 °C 0,0 km/h (0 Bft)
25.02.2017 20:05 -0,8 °C -0,7 °C 94 % 1021,9 hPa 0,0 mm 0,0 km/h (0 Bft) S 173 ° 0 min 0,000 mm 0,0 UV-I 0 W/m² -1,6 °C -0,8 °C 0,0 km/h (0 Bft)
25.02.2017 20:06 -0,9 °C -0,8 °C 94 % 1021,9 hPa 0,0 mm 0,0 km/h (0 Bft) S 173 ° 0 min 0,000 mm 0,0 UV-I 0 W/m² -1,7 °C -0,9 °C 0,0 km/h (0 Bft)
25.02.2017 20:07 -0,9 °C -0,9 °C 94 % 1021,9 hPa 0,0 mm 0,0 km/h (0 Bft) S 173 ° 0 min 0,000 mm 0,0 UV-I 0 W/m² -1,7 °C -0,9 °C 0,0 km/h (0 Bft)
25.02.2017 20:08 -0,9 °C -0,9 °C 94 % 1021,8 hPa 0,0 mm 0,0 km/h (0 Bft) S 173 ° 0 min 0,000 mm 0,0 UV-I 0 W/m² -1,7 °C -0,9 °C 0,0 km/h (0 Bft)
25.02.2017 20:09 -1,0 °C -0,9 °C 94 % 1021,8 hPa 0,0 mm 0,0 km/h (0 Bft) S 173 ° 0 min 0,000 mm 0,0 UV-I 0 W/m² -1,8 °C -1,0 °C 0,0 km/h (0 Bft)
25.02.2017 20:10 -1,0 °C -1,0 °C 94 % 1021,9 hPa 0,0 mm 0,0 km/h (0 Bft) S 173 ° 0 min 0,000 mm 0,0 UV-I 0 W/m² -1,8 °C -1,0 °C 0,0 km/h (0 Bft)
25.02.2017 20:11 -1,0 °C -1,0 °C 94 % 1021,9 hPa 0,0 mm 0,0 km/h (0 Bft) S 173 ° 0 min 0,000 mm 0,0 UV-I 0 W/m² -1,8 °C -1,0 °C 0,0 km/h (0 Bft)
25.02.2017 20:12 -1,1 °C -1,0 °C 94 % 1021,9 hPa 0,0 mm 0,0 km/h (0 Bft) S 173 ° 0 min 0,000 mm 0,0 UV-I 0 W/m² -1,9 °C -1,1 °C 0,0 km/h (0 Bft)
25.02.2017 20:13 -1,1 °C -1,1 °C 94 % 1021,9 hPa 0,0 mm 0,0 km/h (0 Bft) S 173 ° 0 min 0,000 mm 0,0 UV-I 0 W/m² -1,9 °C -1,1 °C 0,0 km/h (0 Bft)
25.02.2017 20:14 -1,1 °C -1,1 °C 94 % 1021,9 hPa 0,0 mm 0,0 km/h (0 Bft) S 173 ° 0 min 0,000 mm 0,0 UV-I 0 W/m² -1,9 °C -1,1 °C 0,0 km/h (0 Bft)
25.02.2017 20:15 -1,2 °C -1,1 °C 94 % 1021,9 hPa 0,0 mm 0,0 km/h (0 Bft) S 173 ° 0 min 0,000 mm 0,0 UV-I 0 W/m² -2,0 °C -1,2 °C 0,0 km/h (0 Bft)
25.02.2017 20:16 -1,2 °C -1,2 °C 94 % 1021,8 hPa 0,0 mm 0,0 km/h (0 Bft) S 173 ° 0 min 0,000 mm 0,0 UV-I 0 W/m² -2,0 °C -1,2 °C 0,0 km/h (0 Bft)
25.02.2017 20:17 -1,2 °C -1,2 °C 94 % 1021,9 hPa 0,0 mm 0,0 km/h (0 Bft) S 173 ° 0 min 0,000 mm 0,0 UV-I 0 W/m² -2,0 °C -1,2 °C 0,0 km/h (0 Bft)
25.02.2017 20:18 -1,3 °C -1,2 °C 94 % 1022,0 hPa 0,0 mm 0,0 km/h (0 Bft) S 173 ° 0 min 0,000 mm 0,0 UV-I 0 W/m² -2,1 °C -1,3 °C 0,0 km/h (0 Bft)
25.02.2017 20:19 -1,3 °C -1,3 °C 94 % 1021,9 hPa 0,0 mm 0,0 km/h (0 Bft) S 173 ° 0 min 0,000 mm 0,0 UV-I 0 W/m² -2,1 °C -1,3 °C 0,0 km/h (0 Bft)
25.02.2017 20:20 -1,3 °C -1,3 °C 94 % 1022,0 hPa 0,0 mm 0,0 km/h (0 Bft) S 173 ° 0 min 0,000 mm 0,0 UV-I 0 W/m² -2,1 °C -1,3 °C 0,0 km/h (0 Bft)
25.02.2017 20:21 -1,3 °C -1,3 °C 94 % 1022,0 hPa 0,0 mm 0,0 km/h (0 Bft) S 173 ° 0 min 0,000 mm 0,0 UV-I 0 W/m² -2,1 °C -1,3 °C 0,0 km/h (0 Bft)
25.02.2017 20:22 -1,4 °C -1,3 °C 94 % 1022,0 hPa 0,0 mm 0,0 km/h (0 Bft) S 173 ° 0 min 0,000 mm 0,0 UV-I 0 W/m² -2,2 °C -1,4 °C 0,0 km/h (0 Bft)
25.02.2017 20:23 -1,4 °C -1,4 °C 94 % 1022,0 hPa 0,0 mm 0,0 km/h (0 Bft) S 173 ° 0 min 0,000 mm 0,0 UV-I 0 W/m² -2,2 °C -1,4 °C 0,0 km/h (0 Bft)
25.02.2017 20:24 -1,4 °C -1,4 °C 94 % 1022,1 hPa 0,0 mm 0,0 km/h (0 Bft) S 173 ° 0 min 0,000 mm 0,0 UV-I 0 W/m² -2,2 °C -1,4 °C 0,0 km/h (0 Bft)
25.02.2017 20:25 -1,3 °C -1,3 °C 94 % 1022,0 hPa 0,0 mm 0,0 km/h (0 Bft) S 173 ° 0 min 0,000 mm 0,0 UV-I 0 W/m² -2,1 °C -1,3 °C 0,0 km/h (0 Bft)
25.02.2017 20:26 -1,3 °C -1,3 °C 95 % 1022,0 hPa 0,0 mm 0,0 km/h (0 Bft) S 173 ° 0 min 0,000 mm 0,0 UV-I 0 W/m² -2,0 °C -1,3 °C 0,0 km/h (0 Bft)
25.02.2017 20:27 -1,3 °C -1,3 °C 95 % 1022,0 hPa 0,0 mm 0,0 km/h (0 Bft) S 173 ° 0 min 0,000 mm 0,0 UV-I 0 W/m² -2,0 °C -1,3 °C 0,0 km/h (0 Bft)
25.02.2017 20:28 -1,3 °C -1,2 °C 95 % 1022,0 hPa 0,0 mm 0,0 km/h (0 Bft) S 173 ° 0 min 0,000 mm 0,0 UV-I 0 W/m² -2,0 °C -1,3 °C 0,0 km/h (0 Bft)
25.02.2017 20:29 -1,3 °C -1,2 °C 95 % 1022,1 hPa 0,0 mm 0,0 km/h (0 Bft) S 173 ° 0 min 0,000 mm 0,0 UV-I 0 W/m² -2,0 °C -1,3 °C 0,0 km/h (0 Bft)
25.02.2017 20:30 -1,3 °C -1,3 °C 95 % 1022,0 hPa 0,0 mm 0,0 km/h (0 Bft) S 173 ° 0 min 0,000 mm 0,0 UV-I 0 W/m² -2,0 °C -1,3 °C 0,0 km/h (0 Bft)
25.02.2017 20:31 -1,3 °C -1,3 °C 94 % 1022,0 hPa 0,0 mm 0,0 km/h (0 Bft) S 173 ° 0 min 0,000 mm 0,0 UV-I 0 W/m² -2,1 °C -1,3 °C 0,0 km/h (0 Bft)
25.02.2017 20:32 -1,3 °C -1,3 °C 94 % 1022,0 hPa 0,0 mm 0,0 km/h (0 Bft) S 173 ° 0 min 0,000 mm 0,0 UV-I 0 W/m² -2,1 °C -1,3 °C 0,0 km/h (0 Bft)
25.02.2017 20:33 -1,5 °C -1,3 °C 94 % 1022,0 hPa 0,0 mm 0,0 km/h (0 Bft) S 173 ° 0 min 0,000 mm 0,0 UV-I 0 W/m² -2,3 °C -1,5 °C 0,0 km/h (0 Bft)
25.02.2017 20:34 -1,6 °C -1,5 °C 94 % 1022,0 hPa 0,0 mm 0,0 km/h (0 Bft) S 173 ° 0 min 0,000 mm 0,0 UV-I 0 W/m² -2,4 °C -1,6 °C 0,0 km/h (0 Bft)
25.02.2017 20:35 -1,6 °C -1,6 °C 94 % 1022,0 hPa 0,0 mm 0,0 km/h (0 Bft) S 173 ° 0 min 0,000 mm 0,0 UV-I 0 W/m² -2,4 °C -1,6 °C 0,0 km/h (0 Bft)
25.02.2017 20:36 -1,6 °C -1,6 °C 95 % 1022,0 hPa 0,0 mm 0,0 km/h (0 Bft) S 173 ° 0 min 0,000 mm 0,0 UV-I 0 W/m² -2,3 °C -1,6 °C 0,0 km/h (0 Bft)
25.02.2017 20:37 -1,6 °C -1,6 °C 95 % 1022,0 hPa 0,0 mm 0,0 km/h (0 Bft) S 173 ° 0 min 0,000 mm 0,0 UV-I 0 W/m² -2,3 °C -1,6 °C 0,0 km/h (0 Bft)
25.02.2017 20:38 -1,6 °C -1,6 °C 95 % 1022,0 hPa 0,0 mm 0,0 km/h (0 Bft) S 173 ° 0 min 0,000 mm 0,0 UV-I 0 W/m² -2,3 °C -1,6 °C 0,0 km/h (0 Bft)
25.02.2017 20:39 -1,6 °C -1,6 °C 95 % 1022,0 hPa 0,0 mm 0,0 km/h (0 Bft) S 173 ° 0 min 0,000 mm 0,0 UV-I 0 W/m² -2,3 °C -1,6 °C 0,0 km/h (0 Bft)
25.02.2017 20:40 -1,6 °C -1,6 °C 95 % 1022,0 hPa 0,0 mm 0,0 km/h (0 Bft) S 173 ° 0 min 0,000 mm 0,0 UV-I 0 W/m² -2,3 °C -1,6 °C 0,0 km/h (0 Bft)
25.02.2017 20:41 -1,5 °C -1,5 °C 95 % 1021,9 hPa 0,0 mm 0,0 km/h (0 Bft) S 173 ° 0 min 0,000 mm 0,0 UV-I 0 W/m² -2,2 °C -1,5 °C 0,0 km/h (0 Bft)
25.02.2017 20:42 -1,4 °C -1,4 °C 95 % 1022,0 hPa 0,0 mm 0,0 km/h (0 Bft) S 173 ° 0 min 0,000 mm 0,0 UV-I 0 W/m² -2,1 °C -1,4 °C 0,0 km/h (0 Bft)
25.02.2017 20:43 -1,3 °C -1,3 °C 95 % 1022,0 hPa 0,0 mm 0,8 km/h (0 Bft) S 173 ° 0 min 0,000 mm 0,0 UV-I 0 W/m² -2,0 °C -1,3 °C 1,6 km/h (1 Bft)
25.02.2017 20:44 -1,1 °C -1,1 °C 95 % 1022,0 hPa 0,0 mm 2,4 km/h (1 Bft) S 173 ° 0 min 0,000 mm 0,0 UV-I 0 W/m² -1,8 °C -1,1 °C 3,2 km/h (1 Bft)
25.02.2017 20:45 -0,9 °C -0,9 °C 95 % 1021,9 hPa 0,0 mm 1,9 km/h (1 Bft) S 173 ° 0 min 0,000 mm 0,0 UV-I 0 W/m² -1,6 °C -0,9 °C 3,2 km/h (1 Bft)
25.02.2017 20:46 -0,8 °C -0,8 °C 95 % 1021,9 hPa 0,0 mm 1,9 km/h (1 Bft) S 173 ° 0 min 0,000 mm 0,0 UV-I 0 W/m² -1,5 °C -0,8 °C 3,2 km/h (1 Bft)
25.02.2017 20:47 -0,7 °C -0,7 °C 95 % 1021,9 hPa 0,0 mm 2,0 km/h (1 Bft) S 173 ° 0 min 0,000 mm 0,0 UV-I 0 W/m² -1,4 °C -0,7 °C 3,2 km/h (1 Bft)
25.02.2017 20:48 -0,7 °C -0,7 °C 95 % 1021,8 hPa 0,0 mm 1,2 km/h (1 Bft) S 173 ° 0 min 0,000 mm 0,0 UV-I 0 W/m² -1,4 °C -0,7 °C 3,2 km/h (1 Bft)
25.02.2017 20:49 -0,7 °C -0,7 °C 96 % 1021,9 hPa 0,0 mm 1,3 km/h (1 Bft) S 173 ° 0 min 0,000 mm 0,0 UV-I 0 W/m² -1,3 °C -0,7 °C 3,2 km/h (1 Bft)
25.02.2017 20:50 -0,7 °C -0,7 °C 96 % 1021,8 hPa 0,0 mm 0,6 km/h (0 Bft) S 173 ° 0 min 0,000 mm 0,0 UV-I 0 W/m² -1,3 °C -0,7 °C 1,6 km/h (1 Bft)
25.02.2017 20:51 -0,6 °C -0,6 °C 96 % 1021,8 hPa 0,0 mm 0,7 km/h (0 Bft) S 173 ° 0 min 0,000 mm 0,0 UV-I 0 W/m² -1,2 °C -0,6 °C 1,6 km/h (1 Bft)
25.02.2017 20:52 -0,6 °C -0,6 °C 96 % 1021,8 hPa 0,0 mm 0,0 km/h (0 Bft) S 173 ° 0 min 0,000 mm 0,0 UV-I 0 W/m² -1,2 °C -0,6 °C 0,0 km/h (0 Bft)
25.02.2017 20:53 -0,6 °C -0,6 °C 95 % 1021,8 hPa 0,0 mm 0,1 km/h (0 Bft) S 173 ° 0 min 0,000 mm 0,0 UV-I 0 W/m² -1,3 °C -0,6 °C 1,6 km/h (1 Bft)
25.02.2017 20:54 -0,6 °C -0,6 °C 95 % 1021,8 hPa 0,0 mm 0,6 km/h (0 Bft) S 173 ° 0 min 0,000 mm 0,0 UV-I 0 W/m² -1,3 °C -0,6 °C 1,6 km/h (1 Bft)
25.02.2017 20:55 -0,6 °C -0,5 °C 95 % 1021,8 hPa 0,0 mm 0,0 km/h (0 Bft) S 173 ° 0 min 0,000 mm 0,0 UV-I 0 W/m² -1,3 °C -0,6 °C 0,0 km/h (0 Bft)
25.02.2017 20:56 -0,5 °C -0,5 °C 95 % 1021,8 hPa 0,0 mm 0,0 km/h (0 Bft) S 173 ° 0 min 0,000 mm 0,0 UV-I 0 W/m² -1,2 °C -0,5 °C 0,0 km/h (0 Bft)
25.02.2017 20:57 -0,5 °C -0,5 °C 95 % 1021,8 hPa 0,0 mm 0,0 km/h (0 Bft) S 173 ° 0 min 0,000 mm 0,0 UV-I 0 W/m² -1,2 °C -0,5 °C 0,0 km/h (0 Bft)
25.02.2017 20:58 -0,5 °C -0,4 °C 95 % 1021,8 hPa 0,0 mm 0,0 km/h (0 Bft) S 173 ° 0 min 0,000 mm 0,0 UV-I 0 W/m² -1,2 °C -0,5 °C 0,0 km/h (0 Bft)
25.02.2017 20:59 -0,5 °C -0,4 °C 95 % 1021,8 hPa 0,0 mm 0,0 km/h (0 Bft) S 173 ° 0 min 0,000 mm 0,0 UV-I 0 W/m² -1,2 °C -0,5 °C 0,0 km/h (0 Bft)
25.02.2017 21:00 -0,4 °C -0,4 °C 95 % 1021,8 hPa 0,0 mm 0,0 km/h (0 Bft) S 173 ° 0 min 0,000 mm 0,0 UV-I 0 W/m² -1,1 °C -0,4 °C 0,0 km/h (0 Bft)
25.02.2017 21:01 -0,5 °C -0,4 °C 95 % 1021,8 hPa 0,0 mm 0,0 km/h (0 Bft) S 173 ° 0 min 0,000 mm 0,0 UV-I 0 W/m² -1,2 °C -0,5 °C 0,0 km/h (0 Bft)
25.02.2017 21:02 -0,5 °C -0,5 °C 95 % 1021,8 hPa 0,0 mm 0,0 km/h (0 Bft) S 173 ° 0 min 0,000 mm 0,0 UV-I 0 W/m² -1,2 °C -0,5 °C 0,0 km/h (0 Bft)
25.02.2017 21:03 -0,6 °C -0,5 °C 95 % 1021,7 hPa 0,0 mm 0,0 km/h (0 Bft) S 173 ° 0 min 0,000 mm 0,0 UV-I 0 W/m² -1,3 °C -0,6 °C 0,0 km/h (0 Bft)
25.02.2017 21:04 -0,6 °C -0,6 °C 95 % 1021,8 hPa 0,0 mm 0,0 km/h (0 Bft) S 173 ° 0 min 0,000 mm 0,0 UV-I 0 W/m² -1,3 °C -0,6 °C 0,0 km/h (0 Bft)
25.02.2017 21:05 -0,7 °C -0,6 °C 95 % 1021,7 hPa 0,0 mm 0,0 km/h (0 Bft) S 173 ° 0 min 0,000 mm 0,0 UV-I 0 W/m² -1,4 °C -0,7 °C 0,0 km/h (0 Bft)
25.02.2017 21:06 -0,8 °C -0,7 °C 95 % 1021,7 hPa 0,0 mm 0,0 km/h (0 Bft) S 173 ° 0 min 0,000 mm 0,0 UV-I 0 W/m² -1,5 °C -0,8 °C 0,0 km/h (0 Bft)
25.02.2017 21:07 -0,9 °C -0,8 °C 94 % 1021,7 hPa 0,0 mm 0,0 km/h (0 Bft) S 173 ° 0 min 0,000 mm 0,0 UV-I 0 W/m² -1,7 °C -0,9 °C 0,0 km/h (0 Bft)
25.02.2017 21:08 -0,9 °C -0,9 °C 94 % 1021,7 hPa 0,0 mm 0,0 km/h (0 Bft) S 173 ° 0 min 0,000 mm 0,0 UV-I 0 W/m² -1,7 °C -0,9 °C 0,0 km/h (0 Bft)
25.02.2017 21:09 -1,1 °C -0,9 °C 94 % 1021,7 hPa 0,0 mm 0,0 km/h (0 Bft) S 173 ° 0 min 0,000 mm 0,0 UV-I 0 W/m² -1,9 °C -1,1 °C 0,0 km/h (0 Bft)
25.02.2017 21:10 -1,2 °C -1,1 °C 94 % 1021,8 hPa 0,0 mm 0,1 km/h (0 Bft) S 173 ° 0 min 0,000 mm 0,0 UV-I 0 W/m² -2,0 °C -1,2 °C 1,6 km/h (1 Bft)
25.02.2017 21:11 -1,2 °C -1,2 °C 94 % 1021,7 hPa 0,0 mm 0,0 km/h (0 Bft) S 173 ° 0 min 0,000 mm 0,0 UV-I 0 W/m² -2,0 °C -1,2 °C 0,0 km/h (0 Bft)
25.02.2017 21:12 -1,3 °C -1,2 °C 94 % 1021,8 hPa 0,0 mm 0,0 km/h (0 Bft) S 173 ° 0 min 0,000 mm 0,0 UV-I 0 W/m² -2,1 °C -1,3 °C 0,0 km/h (0 Bft)
25.02.2017 21:13 -1,3 °C -1,3 °C 94 % 1021,7 hPa 0,0 mm 1,7 km/h (1 Bft) S 173 ° 0 min 0,000 mm 0,0 UV-I 0 W/m² -2,1 °C -1,3 °C 3,2 km/h (1 Bft)
25.02.2017 21:14 -1,4 °C -1,3 °C 94 % 1021,7 hPa 0,0 mm 0,0 km/h (0 Bft) S 173 ° 0 min 0,000 mm 0,0 UV-I 0 W/m² -2,2 °C -1,4 °C 0,0 km/h (0 Bft)
25.02.2017 21:15 -1,4 °C -1,3 °C 95 % 1021,7 hPa 0,0 mm 0,0 km/h (0 Bft) S 173 ° 0 min 0,000 mm 0,0 UV-I 0 W/m² -2,1 °C -1,4 °C 0,0 km/h (0 Bft)
25.02.2017 21:16 -1,4 °C -1,3 °C 94 % 1021,7 hPa 0,0 mm 0,2 km/h (0 Bft) S 173 ° 0 min 0,000 mm 0,0 UV-I 0 W/m² -2,2 °C -1,4 °C 1,6 km/h (1 Bft)
25.02.2017 21:17 -1,4 °C -1,4 °C 95 % 1021,7 hPa 0,0 mm 0,0 km/h (0 Bft) S 173 ° 0 min 0,000 mm 0,0 UV-I 0 W/m² -2,1 °C -1,4 °C 0,0 km/h (0 Bft)
25.02.2017 21:18 -1,4 °C -1,4 °C 95 % 1021,7 hPa 0,0 mm 0,0 km/h (0 Bft) S 173 ° 0 min 0,000 mm 0,0 UV-I 0 W/m² -2,1 °C -1,4 °C 0,0 km/h (0 Bft)
25.02.2017 21:19 -1,3 °C -1,3 °C 95 % 1021,7 hPa 0,0 mm 0,0 km/h (0 Bft) S 173 ° 0 min 0,000 mm 0,0 UV-I 0 W/m² -2,0 °C -1,3 °C 0,0 km/h (0 Bft)
25.02.2017 21:20 -1,2 °C -1,2 °C 95 % 1021,7 hPa 0,0 mm 0,0 km/h (0 Bft) S 173 ° 0 min 0,000 mm 0,0 UV-I 0 W/m² -1,9 °C -1,2 °C 0,0 km/h (0 Bft)
25.02.2017 21:21 -1,2 °C -1,2 °C 95 % 1021,7 hPa 0,0 mm 0,0 km/h (0 Bft) S 173 ° 0 min 0,000 mm 0,0 UV-I 0 W/m² -1,9 °C -1,2 °C 0,0 km/h (0 Bft)
25.02.2017 21:22 -1,2 °C -1,2 °C 95 % 1021,7 hPa 0,0 mm 0,0 km/h (0 Bft) S 173 ° 0 min 0,000 mm 0,0 UV-I 0 W/m² -1,9 °C -1,2 °C 0,0 km/h (0 Bft)
25.02.2017 21:23 -1,2 °C -1,2 °C 95 % 1021,6 hPa 0,0 mm 0,0 km/h (0 Bft) S 173 ° 0 min 0,000 mm 0,0 UV-I 0 W/m² -1,9 °C -1,2 °C 0,0 km/h (0 Bft)
25.02.2017 21:24 -1,1 °C -1,1 °C 95 % 1021,6 hPa 0,0 mm 0,0 km/h (0 Bft) S 173 ° 0 min 0,000 mm 0,0 UV-I 0 W/m² -1,8 °C -1,1 °C 0,0 km/h (0 Bft)
25.02.2017 21:25 -1,0 °C -1,0 °C 95 % 1021,5 hPa 0,0 mm 0,0 km/h (0 Bft) S 173 ° 0 min 0,000 mm 0,0 UV-I 0 W/m² -1,7 °C -1,0 °C 0,0 km/h (0 Bft)
25.02.2017 21:26 -0,9 °C -0,9 °C 95 % 1021,5 hPa 0,0 mm 0,0 km/h (0 Bft) S 173 ° 0 min 0,000 mm 0,0 UV-I 0 W/m² -1,6 °C -0,9 °C 0,0 km/h (0 Bft)
25.02.2017 21:27 -0,9 °C -0,9 °C 95 % 1021,5 hPa 0,0 mm 0,0 km/h (0 Bft) S 173 ° 0 min 0,000 mm 0,0 UV-I 0 W/m² -1,6 °C -0,9 °C 0,0 km/h (0 Bft)
25.02.2017 21:28 -0,9 °C -0,9 °C 95 % 1021,5 hPa 0,0 mm 0,0 km/h (0 Bft) S 173 ° 0 min 0,000 mm 0,0 UV-I 0 W/m² -1,6 °C -0,9 °C 0,0 km/h (0 Bft)
25.02.2017 21:29 -0,9 °C -0,9 °C 95 % 1021,5 hPa 0,0 mm 0,0 km/h (0 Bft) S 173 ° 0 min 0,000 mm 0,0 UV-I 0 W/m² -1,6 °C -0,9 °C 0,0 km/h (0 Bft)
25.02.2017 21:30 -0,9 °C -0,9 °C 95 % 1021,5 hPa 0,0 mm 0,9 km/h (0 Bft) S 173 ° 0 min 0,000 mm 0,0 UV-I 0 W/m² -1,6 °C -0,9 °C 3,2 km/h (1 Bft)
25.02.2017 21:31 -1,0 °C -0,9 °C 95 % 1021,5 hPa 0,0 mm 0,5 km/h (0 Bft) S 173 ° 0 min 0,000 mm 0,0 UV-I 0 W/m² -1,7 °C -1,0 °C 1,6 km/h (1 Bft)
25.02.2017 21:32 -1,1 °C -1,0 °C 95 % 1021,5 hPa 0,0 mm 0,0 km/h (0 Bft) S 173 ° 0 min 0,000 mm 0,0 UV-I 0 W/m² -1,8 °C -1,1 °C 0,0 km/h (0 Bft)
25.02.2017 21:33 -1,0 °C -1,0 °C 95 % 1021,5 hPa 0,0 mm 0,0 km/h (0 Bft) S 173 ° 0 min 0,000 mm 0,0 UV-I 0 W/m² -1,7 °C -1,0 °C 0,0 km/h (0 Bft)
25.02.2017 21:34 -1,1 °C -1,0 °C 95 % 1021,5 hPa 0,0 mm 0,0 km/h (0 Bft) S 173 ° 0 min 0,000 mm 0,0 UV-I 0 W/m² -1,8 °C -1,1 °C 0,0 km/h (0 Bft)
25.02.2017 21:35 -1,2 °C -1,1 °C 94 % 1021,5 hPa 0,0 mm 0,0 km/h (0 Bft) S 173 ° 0 min 0,000 mm 0,0 UV-I 0 W/m² -2,0 °C -1,2 °C 0,0 km/h (0 Bft)
25.02.2017 21:36 -1,2 °C -1,1 °C 94 % 1021,5 hPa 0,0 mm 0,0 km/h (0 Bft) S 173 ° 0 min 0,000 mm 0,0 UV-I 0 W/m² -2,0 °C -1,2 °C 0,0 km/h (0 Bft)
25.02.2017 21:37 -1,2 °C -1,2 °C 94 % 1021,5 hPa 0,0 mm 0,7 km/h (0 Bft) S 173 ° 0 min 0,000 mm 0,0 UV-I 0 W/m² -2,0 °C -1,2 °C 3,2 km/h (1 Bft)
25.02.2017 21:38 -1,2 °C -1,2 °C 94 % 1021,5 hPa 0,0 mm 0,0 km/h (0 Bft) S 173 ° 0 min 0,000 mm 0,0 UV-I 0 W/m² -2,0 °C -1,2 °C 0,0 km/h (0 Bft)
25.02.2017 21:39 -1,2 °C -1,2 °C 94 % 1021,5 hPa 0,0 mm 1,3 km/h (1 Bft) S 173 ° 0 min 0,000 mm 0,0 UV-I 0 W/m² -2,0 °C -1,2 °C 3,2 km/h (1 Bft)
25.02.2017 21:40 -1,2 °C -1,2 °C 94 % 1021,5 hPa 0,0 mm 0,6 km/h (0 Bft) S 173 ° 0 min 0,000 mm 0,0 UV-I 0 W/m² -2,0 °C -1,2 °C 1,6 km/h (1 Bft)
25.02.2017 21:41 -1,3 °C -1,2 °C 94 % 1021,5 hPa 0,0 mm 0,6 km/h (0 Bft) S 173 ° 0 min 0,000 mm 0,0 UV-I 0 W/m² -2,1 °C -1,3 °C 1,6 km/h (1 Bft)
25.02.2017 21:42 -1,4 °C -1,3 °C 94 % 1021,5 hPa 0,0 mm 1,2 km/h (1 Bft) S 173 ° 0 min 0,000 mm 0,0 UV-I 0 W/m² -2,2 °C -1,4 °C 1,6 km/h (1 Bft)
25.02.2017 21:43 -1,5 °C -1,4 °C 94 % 1021,5 hPa 0,0 mm 0,2 km/h (0 Bft) S 173 ° 0 min 0,000 mm 0,0 UV-I 0 W/m² -2,3 °C -1,5 °C 1,6 km/h (1 Bft)
25.02.2017 21:44 -1,6 °C -1,5 °C 94 % 1021,5 hPa 0,0 mm 0,0 km/h (0 Bft) S 173 ° 0 min 0,000 mm 0,0 UV-I 0 W/m² -2,4 °C -1,6 °C 0,0 km/h (0 Bft)
25.02.2017 21:45 -1,6 °C -1,6 °C 94 % 1021,5 hPa 0,0 mm 0,0 km/h (0 Bft) S 173 ° 0 min 0,000 mm 0,0 UV-I 0 W/m² -2,4 °C -1,6 °C 0,0 km/h (0 Bft)
25.02.2017 21:46 -1,6 °C -1,6 °C 94 % 1021,5 hPa 0,0 mm 0,2 km/h (0 Bft) S 173 ° 0 min 0,000 mm 0,0 UV-I 0 W/m² -2,4 °C -1,6 °C 1,6 km/h (1 Bft)
25.02.2017 21:47 -1,7 °C -1,6 °C 94 % 1021,5 hPa 0,0 mm 0,0 km/h (0 Bft) S 173 ° 0 min 0,000 mm 0,0 UV-I 0 W/m² -2,5 °C -1,7 °C 0,0 km/h (0 Bft)
25.02.2017 21:48 -1,7 °C -1,7 °C 94 % 1021,4 hPa 0,0 mm 1,1 km/h (1 Bft) S 173 ° 0 min 0,000 mm 0,0 UV-I 0 W/m² -2,5 °C -1,7 °C 3,2 km/h (1 Bft)
25.02.2017 21:49 -1,6 °C -1,6 °C 94 % 1021,4 hPa 0,0 mm 0,1 km/h (0 Bft) S 173 ° 0 min 0,000 mm 0,0 UV-I 0 W/m² -2,4 °C -1,6 °C 1,6 km/h (1 Bft)
25.02.2017 21:50 -1,7 °C -1,6 °C 94 % 1021,4 hPa 0,0 mm 0,0 km/h (0 Bft) S 173 ° 0 min 0,000 mm 0,0 UV-I 0 W/m² -2,5 °C -1,7 °C 0,0 km/h (0 Bft)
25.02.2017 21:51 -1,7 °C -1,7 °C 94 % 1021,4 hPa 0,0 mm 1,5 km/h (1 Bft) S 173 ° 0 min 0,000 mm 0,0 UV-I 0 W/m² -2,5 °C -1,7 °C 3,2 km/h (1 Bft)
25.02.2017 21:52 -1,7 °C -1,7 °C 94 % 1021,4 hPa 0,0 mm 0,9 km/h (0 Bft) S 173 ° 0 min 0,000 mm 0,0 UV-I 0 W/m² -2,5 °C -1,7 °C 1,6 km/h (1 Bft)
25.02.2017 21:53 -1,7 °C -1,7 °C 94 % 1021,4 hPa 0,0 mm 0,3 km/h (0 Bft) S 173 ° 0 min 0,000 mm 0,0 UV-I 0 W/m² -2,5 °C -1,7 °C 1,6 km/h (1 Bft)
25.02.2017 21:54 -1,7 °C -1,7 °C 94 % 1021,4 hPa 0,0 mm 0,1 km/h (0 Bft) S 173 ° 0 min 0,000 mm 0,0 UV-I 0 W/m² -2,5 °C -1,7 °C 1,6 km/h (1 Bft)
25.02.2017 21:55 -1,6 °C -1,6 °C 94 % 1021,4 hPa 0,0 mm 0,9 km/h (0 Bft) S 173 ° 0 min 0,000 mm 0,0 UV-I 0 W/m² -2,4 °C -1,6 °C 3,2 km/h (1 Bft)
25.02.2017 21:56 -1,6 °C -1,6 °C 94 % 1021,4 hPa 0,0 mm 0,3 km/h (0 Bft) S 173 ° 0 min 0,000 mm 0,0 UV-I 0 W/m² -2,4 °C -1,6 °C 1,6 km/h (1 Bft)
25.02.2017 21:57 -1,6 °C -1,6 °C 94 % 1021,4 hPa 0,0 mm 0,0 km/h (0 Bft) S 173 ° 0 min 0,000 mm 0,0 UV-I 0 W/m² -2,4 °C -1,6 °C 0,0 km/h (0 Bft)
25.02.2017 21:58 -1,4 °C -1,4 °C 95 % 1021,4 hPa 0,0 mm 0,9 km/h (0 Bft) S 173 ° 0 min 0,000 mm 0,0 UV-I 0 W/m² -2,1 °C -1,4 °C 3,2 km/h (1 Bft)
25.02.2017 21:59 -1,4 °C -1,4 °C 95 % 1021,4 hPa 0,0 mm 1,5 km/h (1 Bft) S 173 ° 0 min 0,000 mm 0,0 UV-I 0 W/m² -2,1 °C -1,4 °C 3,2 km/h (1 Bft)
25.02.2017 22:00 -1,4 °C -1,4 °C 95 % 1021,4 hPa 0,0 mm 2,2 km/h (1 Bft) S 173 ° 0 min 0,000 mm 0,0 UV-I 0 W/m² -2,1 °C -1,4 °C 3,2 km/h (1 Bft)
25.02.2017 22:01 -1,4 °C -1,4 °C 94 % 1021,5 hPa 0,0 mm 2,8 km/h (1 Bft) N-NO 28 ° 0 min 0,000 mm 0,0 UV-I 0 W/m² -2,2 °C -1,4 °C 4,8 km/h (1 Bft)
25.02.2017 22:02 -1,5 °C -1,4 °C 94 % 1021,4 hPa 0,0 mm 1,9 km/h (1 Bft) N 5 ° 0 min 0,000 mm 0,0 UV-I 0 W/m² -2,3 °C -1,5 °C 4,8 km/h (1 Bft)
25.02.2017 22:03 -1,4 °C -1,4 °C 94 % 1021,4 hPa 0,0 mm 0,4 km/h (0 Bft) N 5 ° 0 min 0,000 mm 0,0 UV-I 0 W/m² -2,2 °C -1,4 °C 1,6 km/h (1 Bft)
25.02.2017 22:04 -1,4 °C -1,4 °C 94 % 1021,4 hPa 0,0 mm 0,7 km/h (0 Bft) N 5 ° 0 min 0,000 mm 0,0 UV-I 0 W/m² -2,2 °C -1,4 °C 1,6 km/h (1 Bft)
25.02.2017 22:05 -1,4 °C -1,4 °C 94 % 1021,4 hPa 0,0 mm 0,1 km/h (0 Bft) N 5 ° 0 min 0,000 mm 0,0 UV-I 0 W/m² -2,2 °C -1,4 °C 1,6 km/h (1 Bft)
25.02.2017 22:06 -1,3 °C -1,3 °C 94 % 1021,4 hPa 0,0 mm 0,2 km/h (0 Bft) N 5 ° 0 min 0,000 mm 0,0 UV-I 0 W/m² -2,1 °C -1,3 °C 1,6 km/h (1 Bft)
25.02.2017 22:07 -1,4 °C -1,3 °C 94 % 1021,4 hPa 0,0 mm 0,0 km/h (0 Bft) N 5 ° 0 min 0,000 mm 0,0 UV-I 0 W/m² -2,2 °C -1,4 °C 0,0 km/h (0 Bft)
25.02.2017 22:08 -1,3 °C -1,3 °C 94 % 1021,4 hPa 0,0 mm 0,5 km/h (0 Bft) N 5 ° 0 min 0,000 mm 0,0 UV-I 0 W/m² -2,1 °C -1,3 °C 1,6 km/h (1 Bft)
25.02.2017 22:09 -1,3 °C -1,3 °C 94 % 1021,4 hPa 0,0 mm 0,3 km/h (0 Bft) N 5 ° 0 min 0,000 mm 0,0 UV-I 0 W/m² -2,1 °C -1,3 °C 1,6 km/h (1 Bft)
25.02.2017 22:10 -1,3 °C -1,3 °C 94 % 1021,4 hPa 0,0 mm 0,5 km/h (0 Bft) N 5 ° 0 min 0,000 mm 0,0 UV-I 0 W/m² -2,1 °C -1,3 °C 1,6 km/h (1 Bft)
25.02.2017 22:11 -1,3 °C -1,3 °C 94 % 1021,4 hPa 0,0 mm 0,2 km/h (0 Bft) N 5 ° 0 min 0,000 mm 0,0 UV-I 0 W/m² -2,1 °C -1,3 °C 1,6 km/h (1 Bft)
25.02.2017 22:12 -1,3 °C -1,3 °C 94 % 1021,4 hPa 0,0 mm 0,0 km/h (0 Bft) N 5 ° 0 min 0,000 mm 0,0 UV-I 0 W/m² -2,1 °C -1,3 °C 0,0 km/h (0 Bft)
25.02.2017 22:13 -1,3 °C -1,3 °C 94 % 1021,4 hPa 0,0 mm 0,0 km/h (0 Bft) N 5 ° 0 min 0,000 mm 0,0 UV-I 0 W/m² -2,1 °C -1,3 °C 0,0 km/h (0 Bft)
25.02.2017 22:14 -1,3 °C -1,3 °C 94 % 1021,4 hPa 0,0 mm 0,0 km/h (0 Bft) N 5 ° 0 min 0,000 mm 0,0 UV-I 0 W/m² -2,1 °C -1,3 °C 0,0 km/h (0 Bft)
25.02.2017 22:15 -1,3 °C -1,2 °C 94 % 1021,4 hPa 0,0 mm 2,0 km/h (1 Bft) N-NO 29 ° 0 min 0,000 mm 0,0 UV-I 0 W/m² -2,1 °C -1,3 °C 6,4 km/h (2 Bft)
25.02.2017 22:16 -1,2 °C -1,2 °C 94 % 1021,4 hPa 0,0 mm 1,0 km/h (0 Bft) NO 39 ° 0 min 0,000 mm 0,0 UV-I 0 W/m² -2,0 °C -1,2 °C 1,6 km/h (1 Bft)
25.02.2017 22:17 -1,3 °C -1,2 °C 94 % 1021,4 hPa 0,0 mm 0,6 km/h (0 Bft) NO 39 ° 0 min 0,000 mm 0,0 UV-I 0 W/m² -2,1 °C -1,3 °C 1,6 km/h (1 Bft)
25.02.2017 22:18 -1,3 °C -1,3 °C 94 % 1021,4 hPa 0,0 mm 0,4 km/h (0 Bft) NO 39 ° 0 min 0,000 mm 0,0 UV-I 0 W/m² -2,1 °C -1,3 °C 1,6 km/h (1 Bft)
25.02.2017 22:19 -1,2 °C -1,2 °C 94 % 1021,3 hPa 0,0 mm 0,3 km/h (0 Bft) NO 39 ° 0 min 0,000 mm 0,0 UV-I 0 W/m² -2,0 °C -1,2 °C 1,6 km/h (1 Bft)
25.02.2017 22:20 -1,2 °C -1,2 °C 94 % 1021,4 hPa 0,0 mm 2,4 km/h (1 Bft) NO 39 ° 0 min 0,000 mm 0,0 UV-I 0 W/m² -2,0 °C -1,2 °C 3,2 km/h (1 Bft)
25.02.2017 22:21 -1,2 °C -1,2 °C 94 % 1021,3 hPa 0,0 mm 1,0 km/h (0 Bft) NO 39 ° 0 min 0,000 mm 0,0 UV-I 0 W/m² -2,0 °C -1,2 °C 1,6 km/h (1 Bft)
25.02.2017 22:22 -1,1 °C -1,1 °C 94 % 1021,3 hPa 0,0 mm 0,8 km/h (0 Bft) NO 38 ° 0 min 0,000 mm 0,0 UV-I 0 W/m² -1,9 °C -1,1 °C 3,2 km/h (1 Bft)
25.02.2017 22:23 -1,1 °C -1,1 °C 94 % 1021,4 hPa 0,0 mm 1,3 km/h (1 Bft) NO 38 ° 0 min 0,000 mm 0,0 UV-I 0 W/m² -1,9 °C -1,1 °C 4,8 km/h (1 Bft)
25.02.2017 22:24 -1,2 °C -1,1 °C 94 % 1021,4 hPa 0,0 mm 0,1 km/h (0 Bft) NO 38 ° 0 min 0,000 mm 0,0 UV-I 0 W/m² -2,0 °C -1,2 °C 1,6 km/h (1 Bft)
25.02.2017 22:25 -1,1 °C -1,1 °C 94 % 1021,4 hPa 0,0 mm 0,0 km/h (0 Bft) NO 38 ° 0 min 0,000 mm 0,0 UV-I 0 W/m² -1,9 °C -1,1 °C 0,0 km/h (0 Bft)
25.02.2017 22:26 -1,2 °C -1,1 °C 94 % 1021,4 hPa 0,0 mm 0,1 km/h (0 Bft) NO 38 ° 0 min 0,000 mm 0,0 UV-I 0 W/m² -2,0 °C -1,2 °C 1,6 km/h (1 Bft)
25.02.2017 22:27 -1,3 °C -1,2 °C 93 % 1021,4 hPa 0,0 mm 0,7 km/h (0 Bft) NO 38 ° 0 min 0,000 mm 0,0 UV-I 0 W/m² -2,3 °C -1,3 °C 1,6 km/h (1 Bft)
25.02.2017 22:28 -1,3 °C -1,2 °C 93 % 1021,4 hPa 0,0 mm 0,0 km/h (0 Bft) NO 38 ° 0 min 0,000 mm 0,0 UV-I 0 W/m² -2,3 °C -1,3 °C 0,0 km/h (0 Bft)
25.02.2017 22:29 -1,3 °C -1,3 °C 93 % 1021,4 hPa 0,0 mm 2,0 km/h (1 Bft) NO 38 ° 0 min 0,000 mm 0,0 UV-I 0 W/m² -2,3 °C -1,3 °C 3,2 km/h (1 Bft)
25.02.2017 22:30 -1,3 °C -1,2 °C 93 % 1021,4 hPa 0,0 mm 1,3 km/h (1 Bft) NO 38 ° 0 min 0,000 mm 0,0 UV-I 0 W/m² -2,3 °C -1,3 °C 3,2 km/h (1 Bft)
25.02.2017 22:31 -1,2 °C -1,2 °C 93 % 1021,3 hPa 0,0 mm 0,2 km/h (0 Bft) NO 38 ° 0 min 0,000 mm 0,0 UV-I 0 W/m² -2,2 °C -1,2 °C 1,6 km/h (1 Bft)
25.02.2017 22:32 -1,2 °C -1,2 °C 94 % 1021,3 hPa 0,0 mm 0,0 km/h (0 Bft) NO 38 ° 0 min 0,000 mm 0,0 UV-I 0 W/m² -2,0 °C -1,2 °C 0,0 km/h (0 Bft)
25.02.2017 22:33 -1,2 °C -1,2 °C 93 % 1021,3 hPa 0,0 mm 0,0 km/h (0 Bft) NO 38 ° 0 min 0,000 mm 0,0 UV-I 0 W/m² -2,2 °C -1,2 °C 0,0 km/h (0 Bft)
25.02.2017 22:34 -1,2 °C -1,2 °C 94 % 1021,4 hPa 0,0 mm 0,1 km/h (0 Bft) NO 38 ° 0 min 0,000 mm 0,0 UV-I 0 W/m² -2,0 °C -1,2 °C 1,6 km/h (1 Bft)
25.02.2017 22:35 -1,2 °C -1,2 °C 93 % 1021,4 hPa 0,0 mm 0,9 km/h (0 Bft) NO 38 ° 0 min 0,000 mm 0,0 UV-I 0 W/m² -2,2 °C -1,2 °C 1,6 km/h (1 Bft)
25.02.2017 22:36 -1,3 °C -1,2 °C 93 % 1021,5 hPa 0,0 mm 0,0 km/h (0 Bft) NO 38 ° 0 min 0,000 mm 0,0 UV-I 0 W/m² -2,3 °C -1,3 °C 0,0 km/h (0 Bft)
25.02.2017 22:37 -1,3 °C -1,3 °C 93 % 1021,4 hPa 0,0 mm 1,2 km/h (1 Bft) NO 38 ° 0 min 0,000 mm 0,0 UV-I 0 W/m² -2,3 °C -1,3 °C 3,2 km/h (1 Bft)
25.02.2017 22:38 -1,3 °C -1,3 °C 93 % 1021,4 hPa 0,0 mm 2,5 km/h (1 Bft) NO 38 ° 0 min 0,000 mm 0,0 UV-I 0 W/m² -2,3 °C -1,3 °C 3,2 km/h (1 Bft)
25.02.2017 22:39 -1,4 °C -1,3 °C 93 % 1021,5 hPa 0,0 mm 1,4 km/h (1 Bft) NO 38 ° 0 min 0,000 mm 0,0 UV-I 0 W/m² -2,4 °C -1,4 °C 3,2 km/h (1 Bft)
25.02.2017 22:40 -1,5 °C -1,4 °C 93 % 1021,5 hPa 0,0 mm 1,3 km/h (1 Bft) NO 38 ° 0 min 0,000 mm 0,0 UV-I 0 W/m² -2,5 °C -1,5 °C 3,2 km/h (1 Bft)
25.02.2017 22:41 -1,5 °C -1,5 °C 93 % 1021,5 hPa 0,0 mm 0,0 km/h (0 Bft) NO 38 ° 0 min 0,000 mm 0,0 UV-I 0 W/m² -2,5 °C -1,5 °C 0,0 km/h (0 Bft)
25.02.2017 22:42 -1,5 °C -1,4 °C 93 % 1021,5 hPa 0,0 mm 0,6 km/h (0 Bft) NO 38 ° 0 min 0,000 mm 0,0 UV-I 0 W/m² -2,5 °C -1,5 °C 3,2 km/h (1 Bft)
25.02.2017 22:43 -1,5 °C -1,5 °C 93 % 1021,5 hPa 0,0 mm 1,6 km/h (1 Bft) NO 38 ° 0 min 0,000 mm 0,0 UV-I 0 W/m² -2,5 °C -1,5 °C 3,2 km/h (1 Bft)
25.02.2017 22:44 -1,4 °C -1,4 °C 93 % 1021,5 hPa 0,0 mm 0,5 km/h (0 Bft) NO 38 ° 0 min 0,000 mm 0,0 UV-I 0 W/m² -2,4 °C -1,4 °C 1,6 km/h (1 Bft)
25.02.2017 22:45 -1,4 °C -1,4 °C 93 % 1021,5 hPa 0,0 mm 0,1 km/h (0 Bft) NO 38 ° 0 min 0,000 mm 0,0 UV-I 0 W/m² -2,4 °C -1,4 °C 1,6 km/h (1 Bft)
25.02.2017 22:46 -1,4 °C -1,4 °C 93 % 1021,5 hPa 0,0 mm 0,0 km/h (0 Bft) NO 38 ° 0 min 0,000 mm 0,0 UV-I 0 W/m² -2,4 °C -1,4 °C 0,0 km/h (0 Bft)
25.02.2017 22:47 -1,4 °C -1,4 °C 93 % 1021,4 hPa 0,0 mm 0,0 km/h (0 Bft) NO 38 ° 0 min 0,000 mm 0,0 UV-I 0 W/m² -2,4 °C -1,4 °C 0,0 km/h (0 Bft)
25.02.2017 22:48 -1,4 °C -1,4 °C 93 % 1021,5 hPa 0,0 mm 0,0 km/h (0 Bft) NO 38 ° 0 min 0,000 mm 0,0 UV-I 0 W/m² -2,4 °C -1,4 °C 0,0 km/h (0 Bft)
25.02.2017 22:49 -1,3 °C -1,3 °C 94 % 1021,4 hPa 0,0 mm 0,0 km/h (0 Bft) NO 38 ° 0 min 0,000 mm 0,0 UV-I 0 W/m² -2,1 °C -1,3 °C 0,0 km/h (0 Bft)
25.02.2017 22:50 -1,3 °C -1,3 °C 93 % 1021,4 hPa 0,0 mm 0,0 km/h (0 Bft) NO 38 ° 0 min 0,000 mm 0,0 UV-I 0 W/m² -2,3 °C -1,3 °C 0,0 km/h (0 Bft)
25.02.2017 22:51 -1,3 °C -1,3 °C 93 % 1021,4 hPa 0,0 mm 0,0 km/h (0 Bft) NO 38 ° 0 min 0,000 mm 0,0 UV-I 0 W/m² -2,3 °C -1,3 °C 0,0 km/h (0 Bft)
25.02.2017 22:52 -1,4 °C -1,3 °C 93 % 1021,4 hPa 0,0 mm 0,0 km/h (0 Bft) NO 38 ° 0 min 0,000 mm 0,0 UV-I 0 W/m² -2,4 °C -1,4 °C 0,0 km/h (0 Bft)
25.02.2017 22:53 -1,4 °C -1,4 °C 93 % 1021,4 hPa 0,0 mm 0,0 km/h (0 Bft) NO 38 ° 0 min 0,000 mm 0,0 UV-I 0 W/m² -2,4 °C -1,4 °C 0,0 km/h (0 Bft)
25.02.2017 22:54 -1,4 °C -1,4 °C 93 % 1021,4 hPa 0,0 mm 1,4 km/h (1 Bft) NO 38 ° 0 min 0,000 mm 0,0 UV-I 0 W/m² -2,4 °C -1,4 °C 3,2 km/h (1 Bft)
25.02.2017 22:55 -1,4 °C -1,4 °C 93 % 1021,4 hPa 0,0 mm 1,2 km/h (1 Bft) W-NW 303 ° 0 min 0,000 mm 0,0 UV-I 0 W/m² -2,4 °C -1,4 °C 3,2 km/h (1 Bft)
25.02.2017 22:56 -1,3 °C -1,3 °C 94 % 1021,4 hPa 0,0 mm 0,2 km/h (0 Bft) W-NW 303 ° 0 min 0,000 mm 0,0 UV-I 0 W/m² -2,1 °C -1,3 °C 1,6 km/h (1 Bft)
25.02.2017 22:57 -1,3 °C -1,3 °C 93 % 1021,4 hPa 0,0 mm 0,3 km/h (0 Bft) W-NW 303 ° 0 min 0,000 mm 0,0 UV-I 0 W/m² -2,3 °C -1,3 °C 1,6 km/h (1 Bft)
25.02.2017 22:58 -1,2 °C -1,2 °C 94 % 1021,4 hPa 0,0 mm 0,0 km/h (0 Bft) W-NW 303 ° 0 min 0,000 mm 0,0 UV-I 0 W/m² -2,0 °C -1,2 °C 0,0 km/h (0 Bft)
25.02.2017 22:59 -1,2 °C -1,2 °C 93 % 1021,3 hPa 0,0 mm 0,0 km/h (0 Bft) W-NW 303 ° 0 min 0,000 mm 0,0 UV-I 0 W/m² -2,2 °C -1,2 °C 0,0 km/h (0 Bft)
25.02.2017 23:00 -1,2 °C -1,2 °C 93 % 1021,3 hPa 0,0 mm 0,0 km/h (0 Bft) W-NW 303 ° 0 min 0,000 mm 0,0 UV-I 0 W/m² -2,2 °C -1,2 °C 0,0 km/h (0 Bft)
25.02.2017 23:01 -1,2 °C -1,2 °C 93 % 1021,3 hPa 0,0 mm 0,2 km/h (0 Bft) W-NW 303 ° 0 min 0,000 mm 0,0 UV-I 0 W/m² -2,2 °C -1,2 °C 1,6 km/h (1 Bft)
25.02.2017 23:02 -1,3 °C -1,2 °C 93 % 1021,3 hPa 0,0 mm 0,1 km/h (0 Bft) W-NW 303 ° 0 min 0,000 mm 0,0 UV-I 0 W/m² -2,3 °C -1,3 °C 1,6 km/h (1 Bft)
25.02.2017 23:03 -1,3 °C -1,3 °C 93 % 1021,2 hPa 0,0 mm 0,2 km/h (0 Bft) NW 304 ° 0 min 0,000 mm 0,0 UV-I 0 W/m² -2,3 °C -1,3 °C 1,6 km/h (1 Bft)
25.02.2017 23:04 -1,2 °C -1,2 °C 93 % 1021,2 hPa 0,0 mm 0,2 km/h (0 Bft) NW 304 ° 0 min 0,000 mm 0,0 UV-I 0 W/m² -2,2 °C -1,2 °C 1,6 km/h (1 Bft)
25.02.2017 23:05 -1,2 °C -1,2 °C 94 % 1021,2 hPa 0,0 mm 0,7 km/h (0 Bft) NW 304 ° 0 min 0,000 mm 0,0 UV-I 0 W/m² -2,0 °C -1,2 °C 1,6 km/h (1 Bft)
25.02.2017 23:06 -1,2 °C -1,2 °C 94 % 1021,2 hPa 0,0 mm 0,9 km/h (0 Bft) W-NW 303 ° 0 min 0,000 mm 0,0 UV-I 0 W/m² -2,0 °C -1,2 °C 1,6 km/h (1 Bft)
25.02.2017 23:07 -1,1 °C -1,1 °C 94 % 1021,2 hPa 0,0 mm 0,4 km/h (0 Bft) W-NW 303 ° 0 min 0,000 mm 0,0 UV-I 0 W/m² -1,9 °C -1,1 °C 1,6 km/h (1 Bft)
25.02.2017 23:08 -1,1 °C -1,1 °C 94 % 1021,2 hPa 0,0 mm 0,0 km/h (0 Bft) NW 304 ° 0 min 0,000 mm 0,0 UV-I 0 W/m² -1,9 °C -1,1 °C 0,0 km/h (0 Bft)
25.02.2017 23:09 -1,1 °C -1,1 °C 94 % 1021,1 hPa 0,0 mm 0,0 km/h (0 Bft) W-NW 303 ° 0 min 0,000 mm 0,0 UV-I 0 W/m² -1,9 °C -1,1 °C 0,0 km/h (0 Bft)
25.02.2017 23:10 -1,1 °C -1,1 °C 94 % 1021,2 hPa 0,0 mm 0,0 km/h (0 Bft) NW 304 ° 0 min 0,000 mm 0,0 UV-I 0 W/m² -1,9 °C -1,1 °C 0,0 km/h (0 Bft)
25.02.2017 23:11 -1,0 °C -1,0 °C 94 % 1021,2 hPa 0,0 mm 0,0 km/h (0 Bft) NW 304 ° 0 min 0,000 mm 0,0 UV-I 0 W/m² -1,8 °C -1,0 °C 0,0 km/h (0 Bft)
25.02.2017 23:12 -1,0 °C -1,0 °C 94 % 1021,2 hPa 0,0 mm 0,0 km/h (0 Bft) W-NW 303 ° 0 min 0,000 mm 0,0 UV-I 0 W/m² -1,8 °C -1,0 °C 0,0 km/h (0 Bft)
25.02.2017 23:13 -0,9 °C -0,9 °C 94 % 1021,2 hPa 0,0 mm 1,3 km/h (1 Bft) W-NW 290 ° 0 min 0,000 mm 0,0 UV-I 0 W/m² -1,7 °C -0,9 °C 3,2 km/h (1 Bft)
25.02.2017 23:14 -0,9 °C -0,9 °C 93 % 1021,2 hPa 0,0 mm 0,0 km/h (0 Bft) W-NW 290 ° 0 min 0,000 mm 0,0 UV-I 0 W/m² -1,9 °C -0,9 °C 0,0 km/h (0 Bft)
25.02.2017 23:15 -0,9 °C -0,9 °C 93 % 1021,1 hPa 0,0 mm 0,0 km/h (0 Bft) W-NW 290 ° 0 min 0,000 mm 0,0 UV-I 0 W/m² -1,9 °C -0,9 °C 0,0 km/h (0 Bft)
25.02.2017 23:16 -0,9 °C -0,9 °C 93 % 1021,1 hPa 0,0 mm 0,0 km/h (0 Bft) W-NW 290 ° 0 min 0,000 mm 0,0 UV-I 0 W/m² -1,9 °C -0,9 °C 0,0 km/h (0 Bft)
25.02.2017 23:17 -0,9 °C -0,9 °C 93 % 1021,1 hPa 0,0 mm 0,0 km/h (0 Bft) W-NW 290 ° 0 min 0,000 mm 0,0 UV-I 0 W/m² -1,9 °C -0,9 °C 0,0 km/h (0 Bft)
25.02.2017 23:18 -1,0 °C -0,9 °C 93 % 1021,1 hPa 0,0 mm 0,0 km/h (0 Bft) W-NW 290 ° 0 min 0,000 mm 0,0 UV-I 0 W/m² -2,0 °C -1,0 °C 0,0 km/h (0 Bft)
25.02.2017 23:19 -1,1 °C -1,0 °C 93 % 1021,1 hPa 0,0 mm 0,0 km/h (0 Bft) W-NW 290 ° 0 min 0,000 mm 0,0 UV-I 0 W/m² -2,1 °C -1,1 °C 0,0 km/h (0 Bft)
25.02.2017 23:20 -1,1 °C -1,1 °C 93 % 1021,0 hPa 0,0 mm 0,0 km/h (0 Bft) W-NW 290 ° 0 min 0,000 mm 0,0 UV-I 0 W/m² -2,1 °C -1,1 °C 0,0 km/h (0 Bft)
25.02.2017 23:21 -1,1 °C -1,1 °C 93 % 1021,0 hPa 0,0 mm 0,1 km/h (0 Bft) W-NW 290 ° 0 min 0,000 mm 0,0 UV-I 0 W/m² -2,1 °C -1,1 °C 1,6 km/h (1 Bft)
25.02.2017 23:22 -1,1 °C -1,1 °C 93 % 1021,0 hPa 0,0 mm 0,1 km/h (0 Bft) W-NW 290 ° 0 min 0,000 mm 0,0 UV-I 0 W/m² -2,1 °C -1,1 °C 1,6 km/h (1 Bft)
25.02.2017 23:23 -1,1 °C -1,1 °C 93 % 1021,0 hPa 0,0 mm 0,1 km/h (0 Bft) W-NW 290 ° 0 min 0,000 mm 0,0 UV-I 0 W/m² -2,1 °C -1,1 °C 1,6 km/h (1 Bft)
25.02.2017 23:24 -1,1 °C -1,1 °C 93 % 1021,0 hPa 0,0 mm 0,0 km/h (0 Bft) W-NW 290 ° 0 min 0,000 mm 0,0 UV-I 0 W/m² -2,1 °C -1,1 °C 0,0 km/h (0 Bft)
25.02.2017 23:25 -1,1 °C -1,1 °C 93 % 1021,0 hPa 0,0 mm 0,3 km/h (0 Bft) W-NW 290 ° 0 min 0,000 mm 0,0 UV-I 0 W/m² -2,1 °C -1,1 °C 1,6 km/h (1 Bft)
25.02.2017 23:26 -1,1 °C -1,1 °C 93 % 1021,0 hPa 0,0 mm 0,5 km/h (0 Bft) W-NW 290 ° 0 min 0,000 mm 0,0 UV-I 0 W/m² -2,1 °C -1,1 °C 1,6 km/h (1 Bft)
25.02.2017 23:27 -1,1 °C -1,0 °C 94 % 1021,0 hPa 0,0 mm 0,1 km/h (0 Bft) W-NW 290 ° 0 min 0,000 mm 0,0 UV-I 0 W/m² -1,9 °C -1,1 °C 1,6 km/h (1 Bft)
25.02.2017 23:28 -1,0 °C -1,0 °C 94 % 1021,0 hPa 0,0 mm 0,0 km/h (0 Bft) W-NW 290 ° 0 min 0,000 mm 0,0 UV-I 0 W/m² -1,8 °C -1,0 °C 0,0 km/h (0 Bft)
25.02.2017 23:29 -1,1 °C -1,0 °C 94 % 1021,0 hPa 0,0 mm 0,0 km/h (0 Bft) W-NW 290 ° 0 min 0,000 mm 0,0 UV-I 0 W/m² -1,9 °C -1,1 °C 0,0 km/h (0 Bft)
25.02.2017 23:30 -1,0 °C -1,0 °C 94 % 1021,0 hPa 0,0 mm 0,0 km/h (0 Bft) W-NW 290 ° 0 min 0,000 mm 0,0 UV-I 0 W/m² -1,8 °C -1,0 °C 0,0 km/h (0 Bft)
25.02.2017 23:31 -0,9 °C -0,9 °C 94 % 1021,0 hPa 0,0 mm 0,0 km/h (0 Bft) W-NW 290 ° 0 min 0,000 mm 0,0 UV-I 0 W/m² -1,7 °C -0,9 °C 0,0 km/h (0 Bft)
25.02.2017 23:32 -0,9 °C -0,9 °C 94 % 1021,0 hPa 0,0 mm 0,0 km/h (0 Bft) W-NW 290 ° 0 min 0,000 mm 0,0 UV-I 0 W/m² -1,7 °C -0,9 °C 0,0 km/h (0 Bft)
25.02.2017 23:33 -0,9 °C -0,9 °C 94 % 1021,0 hPa 0,0 mm 0,0 km/h (0 Bft) W-NW 290 ° 0 min 0,000 mm 0,0 UV-I 0 W/m² -1,7 °C -0,9 °C 0,0 km/h (0 Bft)
25.02.2017 23:34 -0,9 °C -0,9 °C 94 % 1021,0 hPa 0,0 mm 0,0 km/h (0 Bft) W-NW 290 ° 0 min 0,000 mm 0,0 UV-I 0 W/m² -1,7 °C -0,9 °C 0,0 km/h (0 Bft)
25.02.2017 23:35 -0,9 °C -0,9 °C 94 % 1021,0 hPa 0,0 mm 0,0 km/h (0 Bft) W-NW 290 ° 0 min 0,000 mm 0,0 UV-I 0 W/m² -1,7 °C -0,9 °C 0,0 km/h (0 Bft)
25.02.2017 23:36 -0,9 °C -0,9 °C 94 % 1021,0 hPa 0,0 mm 0,0 km/h (0 Bft) W-NW 290 ° 0 min 0,000 mm 0,0 UV-I 0 W/m² -1,7 °C -0,9 °C 0,0 km/h (0 Bft)
25.02.2017 23:37 -0,9 °C -0,9 °C 94 % 1021,0 hPa 0,0 mm 0,0 km/h (0 Bft) W-NW 290 ° 0 min 0,000 mm 0,0 UV-I 0 W/m² -1,7 °C -0,9 °C 0,0 km/h (0 Bft)
25.02.2017 23:38 -0,9 °C -0,9 °C 94 % 1021,0 hPa 0,0 mm 0,0 km/h (0 Bft) W-NW 290 ° 0 min 0,000 mm 0,0 UV-I 0 W/m² -1,7 °C -0,9 °C 0,0 km/h (0 Bft)
25.02.2017 23:39 -0,9 °C -0,9 °C 94 % 1021,0 hPa 0,0 mm 0,0 km/h (0 Bft) W-NW 290 ° 0 min 0,000 mm 0,0 UV-I 0 W/m² -1,7 °C -0,9 °C 0,0 km/h (0 Bft)
25.02.2017 23:40 -0,9 °C -0,9 °C 94 % 1021,0 hPa 0,0 mm 0,0 km/h (0 Bft) W-NW 290 ° 0 min 0,000 mm 0,0 UV-I 0 W/m² -1,7 °C -0,9 °C 0,0 km/h (0 Bft)
25.02.2017 23:41 -1,0 °C -0,9 °C 94 % 1021,0 hPa 0,0 mm 0,0 km/h (0 Bft) W-NW 290 ° 0 min 0,000 mm 0,0 UV-I 0 W/m² -1,8 °C -1,0 °C 0,0 km/h (0 Bft)
25.02.2017 23:42 -1,1 °C -1,0 °C 93 % 1021,0 hPa 0,0 mm 0,2 km/h (0 Bft) W-NW 290 ° 0 min 0,000 mm 0,0 UV-I 0 W/m² -2,1 °C -1,1 °C 1,6 km/h (1 Bft)
25.02.2017 23:43 -1,0 °C -1,0 °C 93 % 1021,0 hPa 0,0 mm 0,2 km/h (0 Bft) W-NW 290 ° 0 min 0,000 mm 0,0 UV-I 0 W/m² -2,0 °C -1,0 °C 1,6 km/h (1 Bft)
25.02.2017 23:44 -0,9 °C -0,9 °C 94 % 1021,0 hPa 0,0 mm 0,3 km/h (0 Bft) W-NW 290 ° 0 min 0,000 mm 0,0 UV-I 0 W/m² -1,7 °C -0,9 °C 1,6 km/h (1 Bft)
25.02.2017 23:45 -0,8 °C -0,8 °C 94 % 1021,0 hPa 0,0 mm 1,9 km/h (1 Bft) W-NW 290 ° 0 min 0,000 mm 0,0 UV-I 0 W/m² -1,6 °C -0,8 °C 3,2 km/h (1 Bft)
25.02.2017 23:46 -0,8 °C -0,8 °C 94 % 1020,9 hPa 0,0 mm 0,1 km/h (0 Bft) W-NW 290 ° 0 min 0,000 mm 0,0 UV-I 0 W/m² -1,6 °C -0,8 °C 1,6 km/h (1 Bft)
25.02.2017 23:47 -0,8 °C -0,8 °C 94 % 1020,9 hPa 0,0 mm 0,0 km/h (0 Bft) W-NW 290 ° 0 min 0,000 mm 0,0 UV-I 0 W/m² -1,6 °C -0,8 °C 0,0 km/h (0 Bft)
25.02.2017 23:48 -0,8 °C -0,8 °C 94 % 1020,9 hPa 0,0 mm 0,0 km/h (0 Bft) W-NW 290 ° 0 min 0,000 mm 0,0 UV-I 0 W/m² -1,6 °C -0,8 °C 0,0 km/h (0 Bft)
25.02.2017 23:49 -0,9 °C -0,8 °C 93 % 1020,8 hPa 0,0 mm 0,7 km/h (0 Bft) W-NW 290 ° 0 min 0,000 mm 0,0 UV-I 0 W/m² -1,9 °C -0,9 °C 1,6 km/h (1 Bft)
25.02.2017 23:50 -0,9 °C -0,8 °C 93 % 1020,8 hPa 0,0 mm 1,0 km/h (0 Bft) W-NW 290 ° 0 min 0,000 mm 0,0 UV-I 0 W/m² -1,9 °C -0,9 °C 1,6 km/h (1 Bft)
25.02.2017 23:51 -1,0 °C -0,9 °C 92 % 1020,8 hPa 0,0 mm 0,0 km/h (0 Bft) W-NW 290 ° 0 min 0,000 mm 0,0 UV-I 0 W/m² -2,1 °C -1,0 °C 0,0 km/h (0 Bft)
25.02.2017 23:52 -1,1 °C -1,0 °C 93 % 1020,8 hPa 0,0 mm 0,0 km/h (0 Bft) W-NW 290 ° 0 min 0,000 mm 0,0 UV-I 0 W/m² -2,1 °C -1,1 °C 0,0 km/h (0 Bft)
25.02.2017 23:53 -1,1 °C -1,1 °C 93 % 1020,8 hPa 0,0 mm 0,2 km/h (0 Bft) W-NW 290 ° 0 min 0,000 mm 0,0 UV-I 0 W/m² -2,1 °C -1,1 °C 1,6 km/h (1 Bft)
25.02.2017 23:54 -1,2 °C -1,1 °C 93 % 1020,8 hPa 0,0 mm 0,3 km/h (0 Bft) W-NW 290 ° 0 min 0,000 mm 0,0 UV-I 0 W/m² -2,2 °C -1,2 °C 1,6 km/h (1 Bft)
25.02.2017 23:55 -1,2 °C -1,2 °C 92 % 1020,8 hPa 0,0 mm 0,0 km/h (0 Bft) W-NW 290 ° 0 min 0,000 mm 0,0 UV-I 0 W/m² -2,3 °C -1,2 °C 0,0 km/h (0 Bft)
25.02.2017 23:56 -1,2 °C -1,2 °C 93 % 1020,9 hPa 0,0 mm 0,0 km/h (0 Bft) W-NW 290 ° 0 min 0,000 mm 0,0 UV-I 0 W/m² -2,2 °C -1,2 °C 0,0 km/h (0 Bft)
25.02.2017 23:57 -1,2 °C -1,2 °C 93 % 1020,8 hPa 0,0 mm 0,0 km/h (0 Bft) W-NW 290 ° 0 min 0,000 mm 0,0 UV-I 0 W/m² -2,2 °C -1,2 °C 0,0 km/h (0 Bft)
25.02.2017 23:58 -1,2 °C -1,2 °C 93 % 1020,8 hPa 0,0 mm 0,3 km/h (0 Bft) W-NW 290 ° 0 min 0,000 mm 0,0 UV-I 0 W/m² -2,2 °C -1,2 °C 1,6 km/h (1 Bft)
25.02.2017 23:59 -1,1 °C -1,1 °C 93 % 1020,9 hPa 0,0 mm 0,0 km/h (0 Bft) W-NW 290 ° 0 min 0,000 mm 0,0 UV-I 0 W/m² -2,1 °C -1,1 °C 0,0 km/h (0 Bft)
_ Min-Zeit 07:15 07:16 16:41 00:08 - 23:59 - - - - - - 07:15 07:15 23:59
Minimum _ -6,1 °C -6,0 °C 74 % 1020,1 hPa - 0,0 km/h (0 Bft) - - - - - - -7,0 °C -6,1 °C 0,0 km/h (0 Bft)
_ Max-Zeit 16:44 16:45 20:52 12:24 13:27 11:52 - - 15:45 14:01 12:20 11:11 17:09 16:44 13:37
Maximum _ 3,8 °C 3,8 °C 96 % 1025,0 hPa 0,2 mm 8,6 km/h
NO (2 Bft)
- - 1 min 0,204 mm 3,4 UV-I 682 W/m² 1,0 °C 3,8 °C 14,5 km/h
O-NO (3 Bft)
Durchschnitt _ -0,8 °C -0,8 °C 91 % 1022,5 hPa #4,0 mm 1,1 km/h (1 Bft) O-NO - #4:40 h #0,889 mm 2,1 UV-I 104 W/m² -2,2 °C -0,9 °C 2,0 km/h (1 Bft)